GFSNGP_sfc_wetblb_000.txt.gz
Wetbulb
45.34 43.16 45.10 45.17 45.32 44.72 42.98 42.83 42.28 44.98 43.89 48.48 51.74 52.97 54.49 57.61 57.50 57.43 56.91 58.04 60.83 62.67 63.32 64.02 64.47 65.71 67.74 68.93 69.75 69.49 67.63 66.19 65.98 65.76 65.95 65.18 64.51 64.72 64.28 63.55 63.72 63.63 63.15 62.85
43.25 44.36 44.57 44.23 45.66 46.68 46.05 45.16 44.83 45.08 44.80 49.37 53.14 54.24 54.27 55.99 56.98 57.33 57.65 58.48 59.30 61.32 62.33 62.69 63.75 64.55 67.06 68.22 69.05 69.31 67.92 66.94 67.40 66.50 65.74 65.33 65.65 65.54 63.97 63.66 63.31 63.40 62.67 63.21
39.22 41.42 41.44 38.64 44.64 44.89 46.14 46.51 46.76 43.79 48.20 49.65 51.42 53.61 54.34 54.49 56.40 57.99 58.03 58.90 58.14 58.95 60.64 61.49 62.31 64.44 65.85 67.70 69.10 68.86 68.33 68.37 67.31 65.22 64.60 64.57 65.13 65.01 64.04 62.82 62.92 62.52 62.89 62.98
40.90 38.04 33.58 44.07 48.98 48.92 48.63 51.57 51.33 50.96 50.42 51.13 52.98 54.53 54.59 55.07 56.12 56.56 57.61 58.90 58.49 58.79 60.50 61.49 62.24 64.06 65.70 67.36 68.44 68.55 68.22 68.37 66.21 64.96 64.29 63.94 63.45 62.87 63.79 62.96 62.38 62.72 62.78 63.13
35.89 35.52 40.34 47.63 50.27 51.03 50.20 48.91 52.45 52.02 53.92 54.04 53.95 54.85 53.91 54.90 57.51 56.97 58.93 59.89 61.38 61.33 61.22 61.99 63.33 64.65 65.72 66.74 67.82 68.02 67.88 66.99 66.07 65.52 65.12 65.38 63.96 63.62 63.59 63.68 63.30 62.87 63.59 63.44
37.44 35.94 37.46 44.76 51.15 54.75 52.56 45.74 52.06 52.99 52.13 52.19 52.62 48.46 50.67 54.44 56.60 56.52 57.93 59.20 60.14 61.90 62.59 63.81 64.43 65.50 65.40 65.74 66.99 66.98 67.06 66.88 66.76 65.83 64.25 63.77 64.47 64.56 63.90 63.89 63.77 64.07 63.45 62.77
40.73 39.36 42.92 50.33 52.31 54.53 45.63 44.35 52.18 52.59 53.50 53.69 51.24 52.63 55.42 57.64 57.57 59.20 60.48 61.88 63.18 64.21 64.57 64.60 65.03 65.56 64.62 64.83 65.73 66.99 66.70 67.08 67.70 66.94 66.03 65.49 64.16 63.35 62.86 63.83 63.69 63.08 61.92 60.78
43.37 41.05 39.06 52.39 52.54 48.03 51.41 52.00 53.39 54.34 53.45 53.35 53.95 55.72 57.08 58.46 58.67 59.45 60.01 61.37 63.07 63.77 65.01 65.34 64.98 65.60 63.73 64.52 65.19 65.96 66.18 65.96 65.24 65.28 65.62 62.97 61.56 61.71 62.10 61.56 60.62 60.61 61.48 59.35
45.26 44.90 50.57 52.37 50.43 52.90 54.16 53.88 54.04 52.97 54.07 56.56 56.30 57.05 58.78 58.77 59.38 60.17 61.07 62.12 64.61 65.47 64.74 63.98 64.05 64.78 63.00 62.82 64.76 64.88 63.45 62.93 64.07 63.89 63.60 62.51 61.66 61.53 61.36 60.87 60.55 60.76 61.02 61.13
48.75 50.24 50.63 50.59 52.55 52.83 53.69 53.41 54.34 54.75 55.35 57.08 56.75 59.09 59.23 60.18 60.81 60.72 61.48 62.04 63.57 63.54 62.05 61.35 62.42 63.01 63.20 63.94 64.51 63.31 62.11 62.54 63.03 62.81 62.14 61.71 61.89 62.57 61.57 60.73 59.48 60.60 61.45 60.61
48.43 49.97 51.83 51.39 52.57 53.21 53.28 53.76 53.37 53.54 54.57 54.80 55.33 55.73 56.66 57.10 61.21 61.05 60.63 61.97 62.60 61.77 61.65 61.97 62.59 62.26 63.36 64.00 62.80 61.68 61.61 61.03 61.00 61.31 62.20 62.15 61.53 59.81 60.85 58.81 56.75 61.07 60.28 59.43
45.38 50.49 50.18 49.11 52.28 54.60 51.85 51.64 52.48 52.48 51.78 52.71 53.32 53.43 55.13 54.38 57.42 61.04 61.13 61.96 61.38 61.24 62.00 61.56 61.72 61.89 62.01 62.98 63.04 62.41 61.48 60.45 59.92 60.96 60.87 60.03 54.08 51.96 46.03 45.14 45.14 44.06 46.15 51.93
48.21 49.63 50.42 51.17 51.94 52.88 50.40 50.03 51.22 51.18 51.65 51.15 52.19 52.15 53.63 54.06 54.96 59.38 61.47 62.31 62.01 60.71 61.08 60.83 61.02 61.59 62.32 61.33 60.91 60.68 60.24 58.49 57.76 57.67 59.42 57.58 55.37 53.68 52.40 47.69 42.77 41.15 41.52 41.97
52.47 52.09 48.39 49.65 48.81 50.15 50.49 50.91 50.96 50.50 50.85 51.31 51.44 51.92 51.75 51.84 53.76 55.29 57.60 60.99 62.05 60.76 60.00 59.93 60.42 60.47 60.35 60.08 59.84 59.68 59.62 54.71 59.42 58.71 58.66 56.65 55.41 54.41 52.74 51.92 50.76 48.52 43.58 43.90
49.67 50.74 49.93 51.21 51.14 50.45 50.04 50.34 49.42 48.48 48.63 49.42 50.46 50.42 50.87 51.13 51.79 53.63 56.82 58.76 61.53 60.68 60.10 60.05 59.02 58.98 60.15 59.79 59.08 59.48 58.86 58.04 58.27 58.31 57.12 55.43 55.19 54.29 53.26 51.74 50.48 49.54 48.42 44.73
49.49 50.09 49.91 48.94 48.79 49.24 48.52 47.92 47.31 48.47 49.13 48.63 49.35 50.60 51.03 51.46 51.83 53.70 56.45 58.98 58.99 59.78 60.00 59.19 59.06 60.00 61.08 60.69 60.53 60.16 59.23 56.33 56.17 56.92 55.39 54.67 54.29 53.28 52.16 51.73 50.77 49.98 49.72 49.87
46.80 46.32 47.04 47.04 47.69 47.93 47.84 48.24 49.09 49.81 50.38 50.19 50.71 51.76 51.94 52.03 52.18 53.18 55.02 57.01 58.85 58.83 59.45 59.16 59.66 61.09 61.02 59.80 58.58 57.69 57.40 57.34 56.33 56.74 55.78 54.94 54.47 53.99 53.59 52.41 51.60 50.87 51.09 49.30
48.58 48.32 48.24 48.45 48.79 48.21 49.25 49.81 49.69 50.12 50.07 51.14 52.71 53.16 53.14 52.72 51.96 53.08 55.87 56.61 57.66 58.17 58.88 58.09 58.53 58.39 59.21 58.83 58.72 57.55 56.01 55.75 56.58 56.92 56.27 55.54 55.14 55.58 55.04 54.41 51.54 51.77 50.54 48.36
50.66 50.24 51.03 51.17 50.80 50.80 50.66 50.95 50.94 51.41 51.85 51.93 53.01 52.36 53.45 54.35 55.45 56.07 55.66 55.67 55.84 56.37 55.44 56.25 57.71 57.48 57.91 57.80 56.07 55.94 55.34 54.78 54.65 54.73 54.75 52.96 54.32 54.65 54.47 53.65 52.24 51.57 50.43 48.09
50.69 51.85 51.26 50.84 51.22 51.24 50.70 51.07 50.41 51.03 51.03 49.97 50.77 50.46 51.13 52.96 54.18 55.47 55.40 54.38 54.76 55.87 56.09 57.13 56.07 56.02 55.50 56.77 55.00 54.17 54.35 54.24 53.70 53.17 53.14 53.13 52.93 53.05 53.64 49.84 52.33 51.36 48.84 47.31
49.56 49.88 49.68 49.63 49.90 50.30 50.33 50.62 49.94 49.78 50.61 50.58 49.82 49.95 50.43 53.05 54.92 55.92 54.56 54.53 55.89 56.04 56.89 56.10 55.50 53.91 53.90 53.44 53.03 51.95 51.66 51.66 51.62 51.68 51.43 51.32 51.36 51.85 52.02 53.16 52.36 50.28 49.86 49.58
48.06 48.23 48.95 49.03 48.39 48.59 50.26 49.57 51.18 50.75 50.92 51.52 51.98 52.41 52.50 52.24 52.68 54.05 54.43 54.18 53.96 53.00 55.42 54.98 54.16 52.83 53.13 52.29 51.30 50.91 50.86 51.07 50.65 50.35 50.45 49.95 49.47 49.28 48.98 48.81 49.04 50.43 49.67 49.50
47.54 47.92 48.06 47.68 48.15 47.66 48.82 49.75 50.91 51.31 51.11 51.46 51.52 51.11 51.70 51.97 52.22 53.07 53.11 54.51 54.89 53.57 55.34 55.10 53.11 53.22 52.20 50.19 49.09 48.14 47.24 47.18 46.59 46.57 47.25 48.48 48.78 48.43 48.33 48.22 48.19 48.48 48.33 48.69
47.47 47.71 48.03 48.52 48.10 47.35 46.99 48.63 51.56 52.64 51.91 52.20 51.96 52.35 50.50 50.48 51.15 52.89 53.98 52.27 51.11 52.38 54.39 54.11 53.59 52.59 50.59 50.31 48.20 47.00 46.35 46.17 45.90 45.33 45.25 43.43 48.32 48.78 48.33 48.09 47.05 47.18 47.51 45.44
47.10 47.54 47.57 47.08 46.31 46.54 46.89 47.66 48.88 51.11 51.60 51.38 51.63 52.21 52.48 50.85 50.74 51.40 51.51 53.85 50.93 52.40 53.86 51.07 51.14 51.19 51.93 49.51 47.27 46.20 46.13 45.75 44.88 44.70 44.74 44.65 44.73 45.23 45.89 46.04 45.95 45.94 46.02 46.51
46.49 45.86 46.71 46.89 46.07 46.07 47.14 47.68 47.80 48.58 49.64 50.21 50.55 51.11 51.62 51.99 50.62 50.12 50.97 50.30 53.27 51.29 53.30 52.85 52.08 51.77 51.02 48.97 47.35 46.29 46.10 46.28 45.28 44.01 43.09 43.80 44.08 44.58 45.05 45.40 45.53 45.26 45.20 45.82
46.25 44.47 45.17 45.49 45.39 45.38 46.68 47.48 48.03 48.20 48.58 49.26 48.89 50.38 51.08 51.38 51.64 50.59 48.67 50.86 51.01 50.64 50.99 51.51 51.15 49.97 50.19 48.86 47.63 46.88 46.40 46.19 43.66 45.01 43.87 43.58 43.63 43.95 44.17 44.40 44.67 44.85 45.30 44.95

GFSNGP_sfc_wetblb_003.txt.gz
Wetbulb
51.48 51.53 50.04 48.67 48.02 49.64 49.44 51.66 49.28 50.65 51.62 55.68 59.97 61.66 62.52 64.05 65.07 63.38 64.08 65.62 67.63 68.33 70.73 71.87 72.57 72.46 72.94 73.13 74.00 74.79 74.75 73.81 73.23 72.80 71.95 69.43 66.29 65.48 64.96 65.51 65.62 65.60 66.43 68.15
47.46 50.74 50.04 47.68 49.09 50.03 50.75 51.05 51.49 52.31 52.67 57.96 60.63 62.08 61.92 62.34 64.01 63.20 63.62 64.80 66.82 68.47 68.89 69.55 70.67 70.80 71.47 72.24 73.27 74.21 73.82 73.19 72.98 72.00 69.71 68.78 68.62 65.74 65.25 64.96 65.09 66.36 66.66 66.49
46.54 48.58 47.77 45.88 49.29 49.93 51.49 53.03 52.76 50.54 55.22 59.40 57.58 59.02 61.46 63.03 64.01 64.59 65.03 65.16 66.18 67.44 68.54 69.23 69.67 70.65 70.35 71.41 72.69 72.78 72.87 72.76 71.75 70.50 68.75 69.35 68.61 68.02 66.11 63.60 64.66 65.80 66.87 66.06
47.57 47.94 40.95 48.99 53.28 52.67 51.61 52.55 54.21 54.80 56.47 57.99 60.08 61.30 61.03 61.47 63.62 64.75 65.71 65.91 66.08 65.88 67.32 68.61 69.08 69.45 70.76 71.56 72.27 72.39 72.29 71.89 71.14 69.97 69.11 68.82 69.17 68.08 67.14 65.11 65.32 67.15 67.48 68.04
44.52 45.08 48.93 50.44 53.68 51.51 50.11 51.04 57.20 56.61 58.62 58.08 57.91 60.20 59.77 60.34 61.95 63.71 64.43 66.19 66.93 67.27 67.90 68.53 68.23 69.52 70.15 70.59 71.46 71.74 71.46 71.56 70.33 69.48 69.21 68.68 68.59 68.50 68.02 66.79 66.91 67.08 66.71 67.17
47.90 43.16 42.46 51.59 55.21 57.35 56.87 50.08 56.43 57.39 58.18 58.33 58.65 55.73 59.34 60.66 62.30 63.64 65.67 67.26 67.17 68.14 68.32 69.16 69.23 69.86 70.18 70.10 70.70 70.91 71.36 71.51 70.58 69.52 68.91 67.99 68.77 68.73 68.01 67.83 66.22 66.40 66.76 67.82
47.64 46.00 49.30 54.34 55.78 57.56 49.53 52.80 56.92 58.20 58.59 58.63 58.61 60.39 61.10 63.63 65.30 66.31 66.22 67.28 68.93 69.34 69.08 69.67 70.83 71.05 70.61 70.70 70.64 71.86 71.83 70.86 70.29 69.98 69.54 69.66 69.67 68.62 67.61 67.27 66.73 67.03 66.42 67.39
49.30 46.89 44.88 55.65 56.15 53.66 56.72 57.98 58.67 59.31 59.76 59.35 60.42 61.47 62.79 63.93 64.89 66.20 66.89 67.92 69.59 69.66 70.24 70.56 71.34 71.82 70.86 70.54 71.15 70.59 71.14 69.16 69.27 69.18 69.06 68.50 68.54 67.45 67.52 67.17 67.03 66.65 66.38 66.25
50.61 50.15 55.00 55.91 55.86 59.16 60.21 58.75 59.41 60.35 60.90 61.18 61.12 62.31 63.38 64.08 65.27 65.99 67.83 68.59 69.62 69.49 69.51 69.82 70.64 71.10 69.54 69.00 68.53 69.34 68.88 67.70 68.44 68.56 67.54 67.48 66.61 66.48 65.68 66.17 65.37 65.10 64.36 63.48
50.68 53.33 53.03 54.82 57.35 58.45 59.88 59.45 60.77 62.21 62.06 62.27 61.21 63.17 64.93 66.06 66.15 65.67 67.13 68.25 69.48 69.93 69.18 68.24 68.61 68.29 68.67 68.93 69.85 69.09 67.59 67.79 68.51 68.73 67.56 67.08 66.70 66.12 65.03 64.56 62.99 62.12 62.76 63.14
53.06 54.37 53.71 54.62 55.48 56.40 57.40 58.70 58.46 59.58 60.94 61.07 61.20 60.97 63.42 66.45 67.01 67.14 67.69 68.12 69.12 69.50 69.35 68.66 68.67 69.00 69.11 69.52 69.56 68.67 68.06 68.15 67.78 67.79 66.40 66.25 64.01 62.64 64.52 64.83 59.82 63.41 63.47 64.77
50.28 53.80 53.78 54.25 55.42 55.26 53.79 54.09 56.39 57.15 57.00 58.51 60.37 60.94 61.98 62.57 66.01 67.18 67.19 68.40 68.69 68.87 67.72 67.14 68.08 68.30 68.56 69.56 69.48 68.65 67.53 66.91 66.21 65.24 64.55 64.08 61.63 58.80 45.07 45.50 45.20 45.06 45.24 58.15
51.40 53.70 52.14 53.26 53.57 55.11 54.61 54.52 55.45 55.57 56.42 55.24 56.27 57.97 59.75 60.34 61.00 61.26 65.23 66.58 68.74 68.30 67.90 67.53 67.56 67.60 68.36 68.33 68.01 67.27 65.92 65.73 64.93 62.94 64.62 63.95 61.70 61.28 60.42 50.24 42.74 40.99 41.79 43.46
53.79 52.82 50.58 51.55 50.95 53.40 53.25 54.06 54.02 54.72 54.84 55.70 56.48 57.10 57.69 57.90 59.12 60.57 61.87 63.97 67.11 67.79 67.54 67.29 67.03 66.87 67.25 66.51 66.17 65.40 65.19 56.20 63.52 63.18 63.02 61.77 60.65 61.39 61.49 60.26 59.42 56.06 44.46 46.19
51.11 52.56 52.34 53.67 52.00 51.23 52.48 53.84 53.32 53.27 54.33 55.30 56.69 56.47 56.54 56.62 57.58 58.76 60.54 63.29 65.83 67.24 67.15 66.85 65.96 66.05 66.11 65.56 64.24 64.25 63.24 62.55 63.05 63.52 63.42 61.14 62.04 61.39 60.23 60.30 59.49 57.20 53.78 48.11
50.82 51.21 51.21 50.68 51.61 51.29 52.56 53.99 52.93 52.86 54.24 55.49 55.73 56.58 57.49 58.47 59.06 59.49 60.44 61.93 63.22 63.95 66.61 66.29 65.57 65.76 65.00 64.33 64.38 64.35 64.80 58.80 60.66 62.41 59.61 59.79 59.89 59.87 59.84 59.07 57.79 57.22 56.83 56.94
49.31 49.10 50.26 50.38 50.71 52.38 52.80 53.71 54.24 54.28 54.96 55.69 56.62 57.76 58.35 59.58 60.31 60.32 60.70 62.61 63.08 63.92 65.18 66.09 65.50 65.46 65.52 65.63 64.87 64.62 64.08 62.03 59.06 62.34 61.89 61.49 61.05 60.53 60.49 58.99 58.07 58.10 58.20 56.80
53.01 53.27 53.65 53.69 53.28 52.77 53.19 54.66 55.12 55.39 55.39 55.98 56.71 56.79 57.07 57.88 59.31 60.65 61.89 62.59 63.31 63.19 63.52 64.80 65.26 65.29 64.69 64.27 63.71 62.46 62.21 61.75 62.69 62.63 61.76 61.26 60.98 60.44 60.02 59.78 59.54 58.70 58.12 52.40
54.30 52.94 53.13 53.24 53.71 53.78 53.79 53.99 54.57 55.43 55.76 55.69 55.57 55.17 56.82 59.17 59.62 61.11 62.12 62.33 62.08 61.97 60.23 62.50 59.65 61.62 62.02 62.49 61.92 61.58 61.67 61.28 60.86 60.93 61.20 56.93 59.58 60.72 60.61 60.32 59.30 58.29 58.34 56.74
52.76 53.24 53.15 53.31 53.93 53.87 53.82 54.65 55.29 54.92 55.48 55.97 55.77 56.58 57.06 57.77 59.15 59.55 61.71 60.51 60.62 60.84 61.96 60.90 62.05 62.25 62.46 59.76 59.11 61.29 60.58 60.24 59.88 59.67 60.21 59.79 59.78 59.09 58.62 53.42 58.80 58.50 57.70 56.67
52.24 52.88 52.69 52.71 52.66 53.59 54.64 55.04 55.35 54.95 55.94 56.89 56.86 56.93 57.33 58.19 58.65 60.07 59.69 59.01 60.56 60.86 61.75 58.96 61.30 60.14 60.16 59.16 59.47 59.69 59.37 58.77 58.84 58.93 59.04 59.59 58.78 58.82 58.43 58.06 57.55 57.79 57.71 56.55
52.30 52.38 52.70 52.70 53.14 53.24 54.28 55.33 56.16 56.20 56.65 56.96 57.00 57.17 57.46 57.42 58.18 59.15 59.66 58.84 60.05 53.73 60.23 60.76 59.79 56.59 57.88 56.81 58.13 57.22 56.58 56.61 56.26 56.59 56.62 56.54 55.59 55.09 55.29 55.44 55.03 55.44 55.60 55.74
53.55 53.30 53.40 53.55 53.14 53.26 54.19 55.31 56.00 56.56 56.77 57.24 57.15 57.11 56.16 56.14 56.64 57.63 56.89 59.23 60.85 56.77 61.24 60.66 54.78 53.37 52.46 57.11 56.35 55.42 54.85 54.35 54.31 54.29 53.89 53.65 53.83 54.03 53.78 53.29 53.25 53.49 53.91 54.34
52.96 53.55 54.13 53.96 53.49 53.56 53.77 54.19 54.43 54.91 55.93 57.43 57.81 58.10 57.49 55.85 56.59 57.32 59.07 54.56 51.59 54.43 59.50 58.84 55.45 52.17 50.91 56.73 55.94 55.33 54.60 54.39 54.04 54.27 53.03 44.21 53.11 54.06 53.70 53.55 52.88 53.51 53.39 51.73
53.43 53.48 54.31 54.54 54.37 53.44 54.39 54.63 54.50 55.69 55.91 56.81 57.40 57.75 57.90 58.99 56.77 56.87 57.35 58.70 52.25 55.44 57.38 52.47 52.26 51.89 56.40 58.04 57.17 56.17 55.21 54.67 54.18 53.84 53.42 52.28 51.36 51.45 52.91 53.81 53.23 52.54 52.43 52.66
52.73 52.29 52.33 53.34 52.59 52.80 53.43 54.16 53.72 54.44 54.37 55.07 56.48 57.47 57.68 57.91 57.94 57.07 57.99 54.16 58.26 55.33 59.09 59.65 58.78 58.01 58.65 58.63 58.06 57.18 56.11 55.50 53.14 52.41 52.11 53.06 52.30 51.12 50.77 51.18 51.36 51.57 51.47 51.29
49.71 46.06 50.64 51.14 51.39 51.48 51.45 51.65 52.17 52.17 52.26 53.51 53.71 55.29 55.74 55.89 56.04 54.85 52.64 56.66 57.28 57.28 57.52 57.98 58.29 56.12 58.08 58.00 57.33 57.05 56.32 55.75 51.08 54.34 54.03 53.39 52.63 51.78 50.89 51.31 51.51 51.69 51.21 50.86

GFSNGP_sfc_wetblb_006.txt.gz
Wetbulb
52.26 52.31 52.42 51.44 50.33 50.31 49.92 51.38 50.73 53.20 53.41 56.51 58.86 59.52 60.55 61.47 63.00 66.00 68.53 69.21 70.57 71.41 73.62 75.36 75.60 76.16 76.01 75.82 76.23 76.63 76.48 76.42 76.83 77.77 77.54 76.61 75.50 73.32 70.90 70.46 69.93 66.13 67.93 67.02
52.04 52.92 52.46 50.55 51.87 51.22 50.80 51.13 51.71 52.37 53.06 58.25 59.83 60.70 60.42 61.04 62.13 65.57 68.34 68.98 70.77 72.01 73.02 73.92 74.40 75.16 75.57 75.83 76.19 76.91 76.70 76.35 77.42 77.31 76.97 75.94 74.44 72.42 71.49 70.15 68.83 67.97 66.63 66.52
49.82 53.01 52.36 49.33 52.10 52.25 51.77 52.39 52.28 50.28 54.42 57.20 57.41 59.26 61.00 61.94 64.57 65.74 68.29 69.27 70.22 71.67 72.79 74.14 74.56 75.59 75.00 75.60 76.29 76.25 76.28 76.56 76.95 76.88 75.54 74.43 73.21 72.11 70.52 69.46 68.83 68.72 68.43 67.61
50.65 52.40 44.85 52.35 56.22 55.36 53.10 52.74 54.39 55.22 56.63 57.89 59.27 61.91 63.92 65.35 64.27 66.40 68.88 69.71 70.52 71.35 72.78 73.74 74.26 74.40 74.89 75.21 75.36 75.60 75.80 75.77 76.13 75.70 74.48 73.68 72.79 71.33 70.52 68.68 68.37 69.07 69.56 68.97
48.82 49.16 51.80 53.29 55.58 53.78 52.48 52.04 54.88 55.80 57.61 58.46 59.80 62.36 64.32 65.93 66.43 67.97 69.87 71.22 71.29 71.81 72.68 73.51 73.01 73.89 73.78 73.77 74.29 74.38 74.47 74.72 75.12 74.73 73.53 71.76 71.18 71.03 71.40 69.52 69.02 69.75 70.24 69.77
51.37 46.89 44.76 53.91 58.00 60.35 59.90 51.95 56.80 56.73 57.44 58.00 60.38 57.31 58.52 66.13 65.85 66.98 69.59 70.38 70.64 71.14 71.94 71.99 72.30 72.87 72.82 72.82 73.54 73.69 74.32 74.63 74.84 74.16 73.60 72.01 71.62 71.80 71.13 70.69 69.70 69.12 69.29 69.78
50.16 48.98 51.66 57.51 58.06 60.35 51.22 52.97 58.32 59.58 60.63 60.92 60.70 63.08 65.85 66.58 67.16 68.84 69.93 70.56 71.34 71.20 70.54 71.62 72.20 72.82 72.31 72.83 72.90 74.25 75.00 75.09 74.36 73.78 73.40 73.39 72.61 71.44 71.01 70.03 69.42 69.87 69.05 69.72
51.52 49.43 47.28 58.01 58.28 55.27 59.57 62.82 63.05 63.22 63.75 63.76 64.89 65.97 67.11 67.65 68.52 69.42 69.27 69.51 70.09 70.73 71.69 72.80 73.53 73.75 73.10 73.47 75.00 75.36 75.21 74.36 72.46 72.75 71.83 72.14 71.47 69.91 68.60 69.11 69.36 68.56 69.86 69.77
53.14 52.67 57.71 58.67 57.57 60.39 63.38 61.67 63.45 64.47 64.79 65.36 64.92 65.40 66.85 67.04 67.76 68.39 68.83 69.09 70.33 71.06 72.07 73.22 74.32 74.35 73.81 74.83 74.90 74.68 72.51 71.07 71.41 72.24 70.76 70.32 68.94 67.55 67.32 68.60 68.21 67.49 67.71 67.62
55.21 56.17 56.96 57.73 59.43 61.15 62.52 63.10 64.32 64.91 64.73 65.10 64.10 65.12 65.49 66.64 67.43 68.61 69.81 69.64 70.52 70.78 71.54 72.17 73.16 73.87 74.39 73.28 73.71 73.67 72.19 71.89 70.58 69.68 69.99 69.48 68.90 68.75 68.51 67.91 67.24 68.97 68.19 65.65
54.63 56.01 57.40 58.19 59.03 59.65 59.97 62.46 63.55 64.44 64.51 64.88 66.47 66.59 67.39 66.90 68.36 68.84 69.56 70.12 70.31 70.54 71.54 71.70 72.53 72.72 72.87 72.78 72.38 71.13 70.36 70.43 69.24 68.86 68.28 69.11 65.83 61.60 67.66 64.09 61.91 66.83 65.58 64.04
52.78 56.49 55.34 52.27 55.69 57.39 57.76 58.91 60.77 61.59 61.48 62.22 63.93 64.27 65.42 66.20 68.79 68.99 70.08 70.69 70.82 71.16 71.68 71.97 72.27 72.32 72.69 71.84 72.18 70.97 69.23 68.99 69.07 69.56 69.56 68.65 66.87 63.99 44.81 46.11 45.71 45.93 45.39 56.95
56.51 57.67 53.29 52.40 53.56 56.08 56.07 56.65 58.25 58.74 60.33 59.87 60.91 61.73 62.73 63.06 63.68 61.79 66.95 68.10 70.58 70.29 71.05 71.18 71.55 71.63 72.35 72.58 71.71 70.81 69.77 69.76 69.00 66.75 67.87 67.59 67.08 65.46 63.24 52.39 43.02 41.37 41.72 42.86
56.21 53.35 50.81 52.22 50.96 54.18 56.37 56.81 55.80 57.67 58.28 58.08 58.55 59.31 59.51 59.67 61.17 62.56 63.00 65.89 68.05 70.55 70.47 70.77 70.75 70.71 71.52 71.15 71.23 70.47 69.50 59.54 67.90 67.63 67.34 66.65 66.19 65.88 65.53 64.23 62.42 59.75 45.45 47.65
51.71 53.37 53.05 53.04 53.13 53.82 55.68 56.50 55.40 54.26 55.54 55.76 58.49 58.39 58.26 58.39 58.65 60.01 62.10 64.13 65.43 67.30 69.31 70.30 69.90 69.49 70.31 69.97 69.26 68.10 66.45 66.19 66.93 66.17 65.66 63.54 64.90 64.77 64.66 64.44 63.42 62.37 54.73 48.69
51.91 51.87 52.00 52.10 53.11 52.71 53.48 55.09 55.85 55.93 56.83 56.43 57.99 58.09 58.85 59.78 60.14 60.50 61.79 63.31 63.15 63.99 67.83 68.77 69.47 69.36 69.55 68.22 66.74 66.11 65.68 59.95 62.19 65.42 65.47 65.23 65.35 64.72 64.20 63.52 63.27 62.64 60.76 60.28
48.61 47.66 50.04 50.85 51.77 52.76 53.35 54.39 55.18 55.98 57.21 56.79 57.22 58.28 59.98 60.69 61.56 61.78 62.78 64.09 65.95 66.63 67.75 68.55 67.96 68.96 68.20 67.25 66.54 66.02 65.68 65.20 61.56 65.41 64.82 64.55 64.01 63.40 63.16 62.95 62.46 61.73 61.84 60.66
53.66 53.48 53.87 53.52 54.12 54.14 53.90 55.89 56.71 57.44 57.35 57.69 58.03 58.04 57.85 59.80 60.60 62.16 63.60 64.87 65.57 66.17 67.09 67.58 67.95 68.24 67.72 67.41 66.65 66.25 65.33 64.33 63.63 62.55 63.63 63.26 63.24 64.02 63.31 62.54 61.95 61.38 60.79 56.15
53.96 53.32 53.91 54.38 54.62 54.48 54.53 54.75 56.01 57.42 57.91 58.28 57.77 58.11 59.85 60.85 62.07 63.03 63.79 63.39 63.96 63.43 64.01 66.62 61.81 65.64 67.00 65.16 65.26 64.75 63.71 62.75 63.61 64.89 64.82 59.46 62.79 63.00 62.76 62.13 61.83 61.28 61.42 60.36
53.00 53.59 54.45 54.84 55.68 55.39 55.16 56.39 56.07 55.81 57.78 58.90 59.00 58.79 59.19 60.57 61.98 62.35 63.73 62.75 63.35 63.89 65.26 64.36 65.38 64.09 64.58 62.57 59.77 62.58 64.16 64.40 64.08 63.73 63.21 61.63 61.49 61.56 62.04 55.97 60.74 61.00 59.96 59.62
53.40 53.79 53.78 54.81 55.25 56.52 57.45 57.22 57.58 57.46 58.77 59.69 59.23 59.56 59.92 60.83 61.47 61.87 61.25 60.49 62.49 63.17 63.84 60.42 64.42 64.24 63.93 62.42 62.29 63.17 62.64 62.88 62.91 63.05 61.68 60.76 61.22 60.55 59.91 59.38 59.00 59.72 59.02 58.24
54.36 54.54 54.63 54.98 55.22 55.59 57.60 58.67 58.84 58.85 59.36 59.37 59.58 59.69 59.27 59.37 60.57 61.33 62.15 60.86 62.60 54.43 62.03 63.12 62.97 59.01 60.98 57.96 62.16 61.36 60.30 60.34 60.58 60.59 59.72 59.36 58.55 58.45 58.32 58.37 57.86 57.90 58.37 58.41
55.56 55.76 55.62 55.60 55.84 56.10 57.14 57.42 58.16 59.13 59.21 59.66 59.25 58.87 58.03 58.18 58.76 58.48 58.44 61.31 62.97 58.17 62.50 62.34 54.87 54.33 54.51 59.83 59.78 58.66 58.04 58.07 58.41 58.53 57.51 56.89 56.39 56.39 56.59 56.59 56.66 56.35 56.12 56.15
56.58 56.76 57.07 57.10 56.92 56.37 55.84 57.00 57.24 58.19 58.78 59.20 58.70 59.39 57.80 55.68 58.20 59.31 60.92 55.84 53.67 55.81 60.30 59.41 56.23 52.69 50.13 59.66 58.96 58.53 58.25 58.09 57.51 56.96 57.32 45.42 54.22 54.96 55.46 55.68 55.95 55.82 55.65 53.73
57.22 57.35 57.27 56.86 54.89 54.33 55.84 57.09 56.77 56.26 56.88 58.70 58.90 59.17 59.11 58.67 57.33 57.81 59.45 59.73 52.88 56.65 61.97 52.85 52.52 52.06 57.65 58.90 59.04 58.05 58.18 57.80 57.37 56.69 56.12 55.88 55.31 54.42 54.21 54.71 55.72 56.09 55.92 55.35
53.80 54.18 55.22 55.73 54.87 54.81 54.84 55.21 54.48 55.11 55.05 54.85 55.88 57.03 57.48 58.02 59.02 57.87 59.42 56.80 59.00 56.87 58.08 60.35 60.74 59.52 60.08 59.76 59.14 59.07 58.56 58.20 57.06 56.73 54.97 55.67 55.75 55.01 54.46 54.22 54.08 54.13 54.01 54.08
52.28 48.16 52.91 52.76 53.19 53.62 53.74 54.01 53.94 54.12 54.30 54.31 54.24 56.26 56.52 56.71 56.56 55.60 53.14 57.17 57.50 57.67 57.99 58.32 58.32 57.17 58.82 58.36 58.21 58.53 58.34 58.00 53.91 57.32 56.95 56.33 55.94 55.67 55.15 54.33 53.99 54.13 54.22 54.18

GFSNGP_sfc_wetblb_009.txt.gz
Wetbulb
53.46 54.05 54.22 52.75 50.76 50.99 50.44 51.92 50.78 52.99 54.13 57.43 60.84 60.90 61.56 62.23 63.11 63.17 64.34 68.98 70.51 71.38 74.75 75.97 75.97 76.36 76.40 75.70 76.43 75.94 77.32 77.15 78.14 79.83 79.92 79.84 79.43 80.04 79.55 78.88 77.77 75.43 74.53 72.49
51.96 53.26 52.84 51.40 52.92 52.51 51.60 51.39 51.88 52.86 53.38 58.71 60.66 62.38 62.05 61.92 62.59 62.57 63.34 65.29 70.51 71.94 73.21 75.96 76.58 77.58 77.34 77.06 77.50 77.59 78.43 78.06 79.35 80.46 80.02 79.82 79.85 79.95 78.68 77.49 76.29 74.95 72.17 70.26
50.34 53.79 53.29 49.96 52.20 52.77 53.66 54.14 52.80 50.27 54.26 57.61 58.54 60.64 62.32 61.97 62.65 63.11 63.76 65.31 70.00 71.68 73.19 75.26 75.00 77.73 77.65 78.31 78.50 78.53 79.27 79.98 80.47 81.11 80.32 80.28 79.47 78.06 76.65 74.86 74.91 73.32 71.16 68.24
50.29 53.30 45.52 53.68 57.30 56.38 54.43 54.97 55.74 55.40 56.02 57.21 60.29 62.34 62.65 62.76 62.68 64.47 66.25 66.48 69.05 71.21 73.48 76.06 75.63 75.82 77.53 77.33 79.23 79.50 79.73 79.66 80.66 80.75 79.91 79.58 78.06 76.51 74.79 74.08 73.69 72.13 70.30 69.84
49.68 49.74 52.06 53.28 56.91 57.24 56.67 55.23 57.15 57.01 56.98 56.93 58.55 59.30 61.57 63.60 63.65 64.64 65.62 66.68 70.01 72.48 74.10 77.48 76.69 78.11 78.20 76.78 77.74 77.66 77.37 78.49 79.30 78.65 78.09 77.45 75.83 75.22 74.12 72.90 72.48 70.48 69.54 68.92
52.59 47.94 46.59 54.14 59.02 61.41 59.81 52.48 58.38 58.26 57.68 56.76 57.93 54.95 59.35 64.24 65.46 67.36 68.16 67.25 71.77 73.06 74.67 75.60 77.19 76.39 76.15 75.46 75.77 75.81 77.05 77.04 78.47 78.42 77.33 75.81 75.47 74.71 74.12 73.98 71.97 70.93 69.46 69.89
50.25 49.62 52.47 58.75 59.88 61.37 51.34 54.09 63.74 63.80 63.07 61.21 57.09 60.59 64.47 65.86 66.27 68.66 68.85 71.99 73.81 74.28 75.37 76.30 77.10 75.48 75.80 75.40 74.38 75.20 76.16 76.41 76.97 76.66 76.59 76.19 75.05 74.86 73.89 73.10 71.68 70.13 68.93 70.73
51.06 48.59 46.79 60.68 60.17 55.94 61.23 64.16 64.66 64.96 64.76 64.75 61.66 61.94 67.26 67.82 68.40 69.21 70.22 71.86 72.47 73.41 74.25 74.98 76.03 75.93 75.68 75.76 77.39 77.97 77.48 76.48 76.19 76.00 74.95 73.82 73.37 73.83 72.92 71.72 70.53 70.50 70.76 70.85
52.91 53.22 61.91 62.70 60.67 63.26 64.18 64.13 64.87 65.32 65.83 65.80 64.47 66.88 68.17 68.87 70.24 70.96 71.43 71.79 72.24 71.88 73.73 74.34 76.27 76.66 76.19 78.11 78.25 77.58 76.63 76.25 75.07 74.01 73.72 73.75 73.57 71.89 69.49 70.00 68.55 69.20 67.81 69.10
57.32 59.05 59.94 61.46 63.22 63.79 64.75 64.40 65.16 66.16 66.37 66.64 66.53 67.82 68.39 69.35 69.26 69.01 69.82 71.05 71.46 71.89 72.66 73.73 75.84 75.65 76.71 76.43 76.75 75.86 73.98 72.59 72.32 72.00 71.09 71.22 70.83 69.75 68.42 67.92 68.29 69.34 68.92 68.98
57.70 59.36 60.46 60.75 62.00 63.01 63.98 65.29 64.95 67.13 66.95 66.62 67.39 67.20 68.29 68.54 69.30 69.44 70.02 71.34 72.05 71.65 71.84 72.50 74.10 74.56 74.55 75.22 75.53 73.78 73.73 72.53 71.46 70.91 70.36 68.77 66.47 65.69 68.10 65.33 63.72 68.05 68.58 68.60
54.18 60.13 58.98 58.02 60.40 62.26 61.50 61.31 62.86 63.85 63.07 66.28 66.49 65.58 68.19 68.52 69.10 69.25 69.59 70.53 71.54 71.44 72.17 72.93 73.37 73.51 74.14 74.28 74.34 72.86 71.52 71.12 70.41 69.94 69.04 68.23 65.85 61.29 45.44 46.97 44.78 44.66 46.64 57.07
56.28 60.35 57.24 57.21 57.96 58.02 58.72 60.26 60.18 60.89 62.33 62.06 63.29 63.86 64.30 64.69 66.33 63.98 69.93 69.99 70.43 70.84 71.93 72.77 72.99 72.90 72.65 73.25 73.40 72.84 71.27 71.50 70.09 68.25 69.80 69.27 68.32 67.66 65.21 54.10 43.98 42.54 43.31 45.18
59.36 58.32 55.40 55.82 52.70 56.57 57.31 57.28 56.82 57.88 58.89 59.99 60.45 61.24 61.26 61.54 62.49 63.97 65.88 68.06 70.51 70.25 71.10 71.42 71.46 71.71 72.05 72.25 72.99 72.32 71.40 61.05 69.59 68.97 68.50 68.30 67.99 67.10 66.18 64.29 62.76 60.74 46.60 49.39
54.90 57.62 56.46 56.59 55.27 53.19 54.22 54.96 55.23 55.54 58.16 58.62 60.19 60.47 60.85 60.29 60.33 61.33 63.43 65.24 67.26 69.71 70.45 70.19 70.17 70.31 72.08 72.14 71.68 71.29 70.06 68.50 69.00 68.71 68.22 66.03 66.60 66.17 65.92 65.63 64.87 62.45 56.59 50.87
54.06 53.68 53.90 52.07 50.72 51.57 53.40 52.94 54.68 56.05 57.42 57.87 58.16 59.33 61.06 62.18 62.11 61.79 62.45 63.33 63.36 65.09 68.00 69.84 70.29 70.68 71.26 71.26 70.54 68.91 67.51 62.44 65.08 67.26 65.92 65.42 65.38 64.78 64.62 64.42 63.61 60.84 61.05 59.68
49.69 50.31 50.89 50.35 50.54 52.46 51.00 52.40 54.63 55.04 57.26 58.32 57.79 59.60 60.74 61.15 61.76 62.87 63.13 63.74 64.57 64.84 66.46 68.15 69.82 70.37 70.69 69.34 68.35 67.15 66.22 65.85 62.49 66.49 65.70 65.28 65.15 64.44 64.08 63.54 62.92 62.49 61.75 59.51
51.87 52.88 53.42 53.72 53.76 51.60 53.47 55.07 55.77 56.71 56.48 57.89 59.14 59.84 59.82 61.21 61.05 62.75 63.04 64.20 64.64 65.49 66.54 69.26 69.68 69.91 69.35 68.61 68.14 66.89 66.20 66.02 65.15 65.24 64.47 64.39 64.13 63.89 63.33 62.84 62.18 62.03 59.68 57.03
53.77 54.40 54.85 55.18 56.31 55.73 55.29 55.39 56.22 57.61 57.42 57.97 58.75 60.09 60.70 61.60 62.07 62.13 63.40 62.72 63.44 63.69 64.53 67.20 62.79 66.45 68.16 67.13 66.03 66.08 64.60 64.36 64.71 64.65 64.63 60.74 62.76 63.94 62.66 62.98 61.84 61.17 58.50 58.24
52.49 54.13 54.82 55.33 56.58 57.13 56.66 57.75 58.10 58.31 59.27 59.30 59.01 59.65 59.99 60.74 62.02 62.20 63.55 63.34 64.59 64.70 66.47 66.09 66.17 66.63 67.13 65.00 62.63 65.59 64.81 63.26 62.73 63.43 63.80 62.97 62.75 62.92 60.99 56.60 61.49 61.34 61.05 60.49
53.89 53.56 54.30 55.57 55.91 57.50 57.70 58.49 57.72 57.92 58.59 59.28 58.87 59.15 59.72 60.81 62.00 62.28 61.47 61.79 63.72 64.45 64.97 61.71 65.15 64.78 64.82 63.79 63.72 64.20 63.56 62.69 62.32 61.44 61.84 61.93 61.40 61.23 60.62 61.00 61.17 60.65 59.89 59.84
54.44 53.99 54.38 55.44 55.80 56.59 57.84 58.04 58.82 59.23 59.15 59.32 59.31 59.47 60.33 59.71 61.53 61.59 62.73 61.25 63.01 56.10 62.63 63.69 61.69 59.01 62.20 58.68 62.99 61.93 60.82 62.17 62.61 62.53 61.11 60.77 60.12 59.91 60.05 60.08 59.79 59.55 60.16 60.47
55.04 55.40 55.63 55.66 56.14 56.49 56.77 57.14 57.32 58.51 58.63 58.85 58.36 58.47 58.33 58.84 59.52 58.90 59.70 61.71 62.40 57.57 60.52 58.32 55.76 55.72 54.98 60.55 62.32 61.97 60.72 60.25 60.09 59.71 59.13 58.69 58.05 57.71 57.77 58.03 58.24 58.39 58.15 57.94
56.09 56.40 56.66 56.77 56.95 56.14 55.61 56.61 57.22 57.87 58.49 59.38 58.42 58.77 57.89 56.44 58.13 59.50 60.59 56.61 54.95 56.41 60.22 57.26 56.57 53.72 50.51 60.24 60.02 59.45 59.23 58.83 58.59 58.11 58.51 50.49 55.89 55.63 55.88 56.43 56.53 57.39 57.51 55.46
56.47 56.75 57.02 56.47 55.39 54.16 56.13 56.95 57.25 56.80 58.13 58.97 59.18 59.21 59.32 58.99 58.37 57.55 58.54 59.48 54.19 56.38 59.21 52.68 53.14 52.67 57.80 58.50 58.98 58.40 57.93 58.75 58.52 58.51 58.17 57.22 56.74 56.43 56.19 55.75 55.46 56.48 57.09 57.12
55.61 54.62 54.84 55.90 55.02 54.73 54.66 55.32 54.55 55.07 55.34 55.03 55.95 56.72 57.00 57.64 57.53 57.80 60.09 57.18 58.47 57.05 58.04 60.97 60.41 59.52 59.67 59.09 58.77 58.50 57.87 58.65 58.10 58.13 56.93 56.92 56.52 56.66 56.52 55.88 55.65 55.58 55.49 55.78
53.86 49.28 53.84 53.58 53.55 53.48 53.41 53.25 53.54 53.51 54.30 54.47 53.87 55.57 56.67 56.86 56.89 56.27 53.76 57.34 57.79 57.45 57.36 57.88 58.82 57.76 58.27 58.80 58.60 57.91 57.88 58.45 53.94 57.45 57.04 57.19 57.21 57.15 56.70 56.48 56.22 55.69 55.46 55.33

GFSNGP_sfc_wetblb_012.txt.gz
Wetbulb
51.87 52.30 53.25 52.93 51.94 52.11 51.16 52.17 49.64 51.91 52.57 57.09 59.93 62.25 61.82 64.36 65.37 65.15 67.96 69.46 71.65 72.78 73.09 72.39 72.69 72.97 73.37 74.03 74.48 75.13 75.86 76.48 76.76 77.82 77.92 78.15 77.86 78.37 78.42 78.08 77.77 77.22 75.62 74.22
50.91 53.03 52.77 51.58 53.40 52.64 51.93 52.11 52.52 52.77 52.60 57.82 59.88 61.94 62.77 62.91 63.18 65.00 65.79 67.22 70.55 72.07 75.49 75.55 73.57 73.16 73.14 73.36 73.69 74.63 74.57 75.15 76.43 77.24 77.89 77.41 77.92 77.77 78.30 78.16 78.16 77.21 75.73 73.77
48.31 51.84 51.97 49.33 52.58 53.47 53.58 52.81 52.59 50.29 54.63 58.44 58.13 59.95 63.13 64.42 65.47 65.55 66.11 66.63 71.23 72.37 73.29 75.35 75.40 74.56 73.26 73.42 74.66 74.00 74.93 75.47 75.82 76.95 77.47 77.70 77.80 77.78 77.92 77.79 77.86 76.63 75.95 73.57
49.22 51.49 44.07 52.82 56.15 55.21 53.75 54.60 55.41 55.82 57.05 58.35 58.82 60.47 61.77 62.70 64.35 64.53 66.02 66.30 67.60 69.73 73.30 75.10 76.18 75.71 75.80 75.14 75.03 74.71 76.82 76.08 76.78 77.77 77.72 77.84 77.79 77.72 78.02 77.96 77.01 75.93 74.23 71.35
48.58 47.64 51.72 53.19 55.82 55.94 54.27 53.89 57.68 57.01 58.59 57.91 59.50 59.84 60.19 62.14 63.03 64.03 65.09 69.05 68.12 66.59 73.28 75.07 75.77 76.17 76.77 75.68 75.26 76.99 75.91 78.55 77.73 79.93 78.87 78.65 78.37 78.15 77.99 76.53 74.50 73.28 71.44 68.81
50.60 46.19 45.31 54.53 57.74 61.06 59.45 52.48 60.79 61.80 60.47 59.64 60.26 55.00 57.28 62.89 63.27 63.03 63.91 65.87 69.09 67.55 74.54 76.19 76.49 76.73 76.15 76.64 75.98 75.01 77.56 78.23 80.00 79.97 79.39 78.62 78.36 77.36 75.02 73.52 72.80 72.32 69.52 68.87
49.35 47.61 50.64 57.63 59.55 59.99 50.06 53.92 63.18 63.36 63.36 62.83 61.20 63.76 66.57 66.72 70.25 67.78 65.12 67.35 75.37 75.60 74.74 76.17 77.02 76.94 76.03 76.51 76.28 77.37 78.88 78.76 79.46 79.58 79.28 78.91 78.15 75.73 73.16 73.41 73.82 71.05 69.25 69.08
51.22 47.97 45.02 59.69 58.36 53.96 61.20 63.43 63.09 63.22 63.64 63.67 66.00 66.16 66.56 68.54 70.03 70.80 69.91 71.36 75.31 75.79 76.64 77.38 77.69 77.31 76.71 76.77 78.33 78.99 78.31 78.09 78.25 78.49 76.83 76.64 75.40 73.73 73.66 72.44 70.90 69.94 69.19 68.77
50.87 51.72 60.75 63.88 62.98 64.30 64.61 63.80 64.01 64.08 64.14 64.54 64.22 65.41 66.09 69.20 69.11 69.89 70.92 74.50 74.30 75.67 76.42 77.37 78.61 77.17 76.25 77.38 77.47 77.16 76.89 76.83 77.03 76.49 75.43 74.93 73.26 72.69 71.96 71.79 70.19 68.94 69.30 69.05
52.07 57.67 60.70 61.90 62.92 64.18 64.72 64.92 65.77 67.95 67.94 67.02 64.89 66.13 67.47 69.51 70.66 72.31 73.12 73.66 74.02 73.83 74.23 74.86 76.14 76.91 77.33 77.52 77.48 76.87 76.12 75.23 74.53 72.90 72.07 72.99 72.33 71.82 70.47 69.80 68.97 69.22 69.31 70.33
54.25 61.12 61.65 62.22 63.46 64.18 64.85 66.41 66.73 66.41 65.74 66.45 66.94 67.47 69.18 70.88 71.75 71.83 72.17 72.74 73.54 73.46 74.23 75.16 76.61 76.19 76.68 77.20 76.67 74.21 73.21 72.49 71.22 70.41 70.30 68.51 61.72 64.37 69.29 61.05 61.08 70.06 70.11 69.29
54.08 55.57 60.54 59.76 62.46 63.79 62.57 62.93 63.75 63.48 62.56 63.43 64.21 63.54 64.92 67.95 69.47 70.25 70.58 70.91 71.01 72.67 73.44 73.83 74.43 74.72 75.70 76.35 74.89 73.57 71.63 70.84 69.53 69.58 68.55 67.15 63.73 60.04 45.90 46.91 44.87 44.73 47.13 62.22
52.19 54.43 54.75 57.59 58.33 61.63 61.03 60.85 61.85 61.78 62.40 61.35 62.85 61.12 61.65 63.06 64.84 64.78 67.53 69.35 71.51 72.58 73.27 73.20 73.30 73.06 74.65 75.75 74.94 72.96 71.26 71.28 70.38 68.73 69.28 67.86 66.39 64.75 60.59 52.01 44.86 43.53 43.85 49.03
55.74 54.35 51.48 53.45 54.44 57.72 58.26 58.87 58.58 59.54 59.88 60.38 60.92 60.41 59.61 60.88 62.22 65.50 67.97 69.87 71.85 72.44 72.34 72.53 71.67 71.48 72.90 73.50 73.83 74.01 72.59 64.27 70.17 69.58 69.68 69.20 68.77 67.51 66.76 63.23 61.16 58.47 46.17 48.39
55.16 55.36 54.73 55.04 55.51 55.59 56.50 57.75 57.16 57.19 57.98 58.71 60.60 60.65 60.82 60.85 61.39 63.30 65.51 69.56 70.61 70.67 70.74 71.98 71.67 71.81 73.30 73.25 73.41 71.45 70.97 69.36 68.19 70.28 69.94 67.87 68.38 68.18 66.32 64.43 63.68 59.09 54.11 49.45
53.58 54.33 54.22 52.70 52.22 53.34 53.91 54.70 54.61 53.94 56.32 57.47 58.89 60.07 61.61 62.47 63.02 63.22 64.34 65.83 67.14 68.42 70.41 69.32 69.47 70.84 71.06 71.21 71.56 71.10 70.63 64.27 66.07 68.80 66.04 67.37 66.72 66.13 65.71 65.50 61.04 59.20 58.93 56.97
50.27 48.77 49.36 48.87 50.74 53.09 52.09 53.70 52.74 54.79 53.05 55.18 58.70 59.40 61.46 62.16 62.78 63.37 64.55 64.57 66.35 67.33 69.11 69.98 70.62 71.05 70.84 70.88 72.08 68.48 67.00 67.70 61.98 67.50 65.60 66.03 65.34 64.82 64.78 64.43 63.49 62.34 59.68 58.49
53.22 54.06 53.30 51.91 50.58 49.87 50.41 52.66 54.10 55.64 54.66 54.64 57.60 60.37 60.92 61.01 61.28 62.48 64.78 65.39 65.74 67.11 67.52 68.82 69.69 70.64 68.55 68.56 67.92 68.13 65.36 65.42 65.52 65.26 65.45 65.10 65.89 65.47 64.96 64.02 63.11 62.62 62.91 56.75
54.68 54.35 54.97 55.26 54.88 53.68 52.98 53.70 55.52 56.88 58.17 57.77 57.19 58.68 60.72 61.89 62.21 64.34 63.19 62.46 63.19 63.38 65.49 68.40 63.95 66.86 68.71 65.22 65.36 66.92 65.39 63.85 63.85 62.94 61.27 59.99 61.58 63.59 63.12 63.54 58.91 61.36 61.23 57.77
53.26 54.20 56.18 56.41 56.57 57.14 54.84 55.44 57.05 56.57 58.87 58.90 60.39 59.72 60.81 60.25 62.17 63.45 64.14 63.16 64.70 64.51 66.41 66.29 67.16 67.04 67.50 67.04 64.12 64.64 64.67 62.84 62.94 63.15 62.76 62.70 61.92 62.00 59.90 57.36 61.04 61.04 59.95 59.90
53.82 54.98 55.44 56.55 55.24 56.41 57.23 58.18 58.36 57.48 58.72 59.96 59.35 58.77 60.10 60.87 61.58 61.80 62.12 61.62 64.25 64.57 65.06 62.86 66.65 65.06 65.10 64.28 62.84 63.18 62.25 62.98 60.39 61.60 62.16 59.39 61.27 61.59 60.91 61.81 61.60 61.43 60.23 60.15
54.59 54.57 55.11 55.77 55.10 55.58 56.40 56.87 57.53 59.05 58.98 60.06 59.81 59.82 60.01 59.75 61.34 60.31 62.06 61.12 62.11 56.01 61.03 60.47 60.34 57.83 59.78 59.23 62.89 62.55 61.84 61.60 59.56 58.67 57.60 60.78 59.45 60.29 60.59 58.34 58.15 60.58 60.97 61.19
55.32 56.28 56.16 56.29 55.75 56.86 57.01 57.56 57.45 58.96 59.52 59.86 59.50 59.80 58.77 58.45 59.07 58.03 59.81 59.13 59.92 57.32 61.03 59.40 55.82 57.11 54.38 60.63 60.87 60.37 58.93 59.93 59.12 58.92 58.77 58.67 58.29 58.42 58.50 58.35 58.40 59.89 59.76 59.23
56.63 56.00 54.84 58.02 57.79 57.16 57.18 56.52 57.90 59.48 59.42 59.40 59.23 59.33 60.27 56.34 57.80 59.29 60.06 56.42 54.27 57.84 59.46 57.97 55.38 54.41 51.64 58.57 59.73 59.23 58.94 58.91 58.37 58.03 57.78 52.26 56.67 56.38 55.99 56.34 56.41 57.37 58.19 56.69
53.88 56.85 55.65 55.40 53.51 52.62 55.52 57.06 56.56 55.02 58.57 59.28 58.60 59.58 60.18 58.57 58.57 57.58 58.42 57.77 53.39 56.94 59.61 53.01 53.81 53.42 57.28 57.84 57.99 58.63 59.18 58.53 58.35 58.38 58.65 58.25 56.86 56.53 57.17 56.54 55.88 56.51 56.83 57.20
54.53 53.96 54.67 56.23 54.55 53.49 53.30 53.84 52.48 53.99 54.26 54.14 55.41 55.54 56.63 57.75 58.23 57.78 59.92 57.12 58.97 56.48 57.78 59.59 58.85 57.73 58.71 58.46 57.77 58.06 58.73 58.66 58.31 58.09 55.92 57.99 57.55 56.58 55.94 57.10 56.12 55.91 56.38 55.53
53.51 49.02 52.53 51.61 51.60 51.29 51.53 51.79 51.73 51.08 52.50 53.14 52.43 54.27 54.82 56.16 56.01 55.85 53.79 56.00 56.42 56.18 56.44 58.74 57.29 56.93 56.36 57.44 56.41 57.11 57.03 58.51 52.58 55.75 57.81 57.79 57.38 57.96 57.38 57.41 57.85 57.30 56.47 56.45

GFSNGP_sfc_wetblb_015.txt.gz
Wetbulb
48.37 49.64 49.60 48.41 49.16 49.22 46.73 46.29 42.96 44.11 45.30 47.63 50.80 57.67 57.76 58.83 60.29 59.84 61.14 62.01 63.78 66.35 67.28 68.94 70.13 70.84 71.78 72.82 73.73 75.49 75.61 75.55 75.21 75.77 76.08 76.06 75.80 76.01 75.23 74.94 74.61 73.48 71.60 71.65
45.98 49.89 49.35 47.98 50.04 51.05 49.44 48.99 48.25 48.29 47.75 50.61 52.60 56.64 59.83 59.66 60.30 58.01 58.41 64.78 65.38 66.62 67.46 67.86 68.71 69.65 71.08 72.02 73.17 74.27 74.88 74.86 75.11 75.12 75.52 75.35 75.49 75.43 75.89 74.74 74.83 73.58 72.81 71.71
41.36 47.92 47.83 45.03 48.14 49.54 50.65 51.36 50.07 46.68 49.87 51.30 51.49 52.61 55.28 59.09 59.93 58.61 60.11 63.23 64.94 65.49 67.95 68.27 68.97 69.88 70.46 71.79 72.96 73.21 73.65 74.39 74.42 74.56 74.62 74.96 75.04 74.96 75.25 75.37 75.34 74.92 74.08 72.43
41.30 44.34 38.47 46.48 52.76 53.25 51.90 53.09 52.35 50.99 52.00 53.41 53.42 54.76 56.71 57.29 56.93 57.53 60.51 62.66 65.70 67.75 68.55 69.91 70.54 70.40 71.19 71.60 71.95 72.11 71.96 73.20 73.81 74.21 74.24 75.06 74.83 74.89 74.86 75.62 75.21 75.20 74.18 71.89
39.95 41.42 43.85 49.18 51.41 50.99 49.27 49.99 53.07 53.99 55.35 54.84 54.93 53.58 53.18 57.68 58.00 56.93 58.11 60.95 60.46 65.48 67.92 70.85 71.20 71.03 70.54 70.26 71.01 70.77 70.65 71.58 73.11 73.48 73.87 74.50 74.68 74.86 75.10 75.18 75.09 73.99 72.11 69.89
40.38 38.50 38.39 46.61 53.88 58.68 55.88 47.28 59.18 59.38 58.71 58.43 56.87 49.70 51.04 59.19 60.05 58.62 60.14 60.28 60.67 63.17 68.26 70.64 71.51 71.92 70.45 69.93 70.34 69.78 70.63 72.06 72.88 73.51 74.21 74.81 75.05 74.94 74.34 74.56 71.66 71.95 69.25 68.32
43.02 40.54 43.41 51.81 56.68 57.19 46.57 49.18 58.94 60.02 59.21 58.71 55.81 57.82 60.23 61.74 61.37 63.99 64.47 60.04 61.28 64.68 68.90 69.91 71.19 72.66 70.95 70.84 70.01 72.14 71.60 75.71 74.23 75.74 76.07 75.90 75.46 73.93 72.09 71.59 71.46 69.52 67.98 67.44
44.18 41.53 40.49 57.99 57.31 51.65 55.06 58.64 58.91 58.59 58.57 57.48 58.35 60.24 60.98 61.41 60.95 62.31 62.03 66.77 63.75 68.18 68.88 71.15 71.52 73.07 71.82 71.49 72.91 74.01 75.89 76.41 76.62 76.82 76.95 74.86 73.05 71.24 70.57 71.04 70.09 68.34 67.24 67.03
46.38 47.92 56.44 56.16 53.44 54.40 58.14 58.64 60.88 61.70 64.85 62.15 61.04 61.43 61.20 62.76 62.28 63.32 67.92 71.21 71.69 72.58 72.80 73.85 72.98 73.67 73.14 74.45 75.27 75.18 75.29 75.19 74.53 74.06 73.06 72.30 70.91 70.67 70.20 69.25 68.88 67.74 66.89 66.10
50.78 50.82 55.94 57.42 56.25 59.51 64.04 62.20 63.57 64.37 64.15 64.06 62.40 64.09 65.56 66.18 66.97 67.97 68.77 70.40 71.84 71.88 71.85 72.26 73.77 74.09 74.12 74.16 74.75 74.62 73.61 72.69 72.44 71.90 71.01 71.08 70.69 69.96 69.50 68.48 68.06 67.32 66.77 65.36
50.32 51.64 54.21 59.47 61.20 61.75 62.88 63.03 61.89 62.08 62.17 61.78 61.58 61.27 61.87 62.51 66.05 67.92 68.49 69.06 71.25 71.79 72.12 72.25 73.54 73.54 74.01 74.42 73.88 72.56 71.23 70.25 69.85 70.12 67.09 59.01 53.51 56.62 63.97 55.27 61.23 65.69 65.96 65.81
48.49 51.32 52.04 51.35 56.18 61.27 59.40 59.61 59.87 58.73 57.84 58.99 59.37 58.56 59.25 59.38 61.20 62.79 62.66 69.39 71.08 71.60 71.89 72.22 72.91 72.74 72.43 72.54 71.96 70.29 68.79 68.40 68.33 65.39 63.30 60.92 58.78 54.52 45.99 46.19 45.24 45.68 50.76 59.04
52.56 54.77 52.94 53.46 54.05 57.59 56.29 57.34 58.55 58.24 58.11 57.47 58.73 59.17 58.78 58.41 58.50 58.94 61.07 67.17 69.46 69.76 70.29 70.60 70.81 71.10 71.58 71.17 70.90 69.93 68.32 68.05 67.06 65.48 64.52 63.25 61.23 58.37 53.89 49.90 45.46 43.64 44.67 49.40
55.55 54.87 52.44 52.69 51.08 54.26 55.24 56.11 56.21 57.03 57.88 58.29 57.83 58.31 58.65 59.19 59.63 59.50 59.13 61.02 68.64 69.44 69.06 69.07 69.37 69.56 71.75 71.11 69.89 69.21 68.60 61.92 67.22 66.27 65.23 63.94 62.82 60.57 57.81 56.37 55.07 53.17 45.23 44.97
53.93 53.82 53.13 53.48 53.79 53.87 54.57 54.84 52.74 51.93 55.06 56.07 58.15 57.21 56.81 56.63 57.24 58.58 59.93 64.88 67.41 68.41 69.06 68.89 68.36 68.01 69.70 70.87 70.85 69.63 68.71 68.12 68.06 67.58 66.41 64.67 65.19 63.60 60.91 59.50 57.52 52.71 47.59 45.35
52.68 52.63 52.64 51.67 51.88 52.75 53.19 53.67 52.24 51.15 51.72 51.76 53.71 58.84 59.87 60.20 59.78 60.57 60.85 63.36 64.47 64.36 66.80 67.81 68.19 68.59 68.79 68.99 67.46 66.84 64.72 64.23 65.11 66.47 66.46 66.04 65.57 64.71 62.87 61.18 55.97 53.48 52.58 50.37
49.35 48.44 49.92 49.72 51.44 51.38 51.35 54.05 54.80 52.80 51.37 50.66 53.70 57.14 59.00 59.71 59.75 60.64 61.21 64.54 64.87 65.44 65.77 65.86 66.75 67.84 67.45 67.57 66.92 65.82 64.62 62.47 61.35 62.01 64.75 63.86 61.59 60.75 62.21 60.90 56.81 55.79 55.45 53.01
52.17 51.68 51.57 51.08 51.40 51.39 52.38 53.99 54.99 55.61 52.38 51.50 56.04 57.14 57.54 57.98 56.68 59.48 60.75 62.12 61.75 62.68 63.65 63.57 64.09 65.35 64.83 64.86 64.75 64.03 62.32 62.49 61.19 62.31 61.84 61.83 60.81 59.96 59.42 60.91 58.49 57.92 57.05 51.61
53.75 53.54 52.91 51.76 51.62 51.69 51.64 54.48 55.34 56.42 55.25 53.06 56.35 56.67 57.43 58.18 59.40 59.63 59.81 61.09 60.01 60.64 62.70 63.00 63.91 63.72 63.20 62.66 61.79 61.17 60.91 60.82 60.69 60.21 59.12 58.49 59.23 59.73 57.54 59.07 57.80 58.03 57.19 52.76
53.16 54.56 55.43 55.60 56.32 55.33 55.38 55.18 55.31 56.55 57.11 57.12 57.51 57.10 56.47 58.05 59.05 59.57 59.59 59.34 60.41 61.16 63.61 62.68 63.73 63.51 63.90 62.75 61.10 61.38 61.06 61.06 60.26 59.03 59.36 58.86 57.74 57.34 56.90 55.39 57.24 57.63 56.30 53.97
54.39 54.46 54.39 55.07 54.74 55.37 56.09 56.51 56.17 55.62 57.08 56.93 55.93 56.12 57.11 58.26 58.62 58.54 58.20 57.64 58.96 58.17 59.20 60.49 58.64 59.77 60.96 60.36 59.20 58.16 59.69 59.91 58.98 59.36 57.83 57.17 56.71 56.67 56.38 56.80 57.04 58.02 56.53 54.82
53.42 53.10 53.63 54.71 54.75 54.57 55.20 56.51 56.93 56.79 57.14 57.04 56.66 56.76 56.70 56.99 57.56 57.40 57.90 56.89 56.67 55.83 56.74 55.97 55.63 56.35 56.01 58.83 58.60 58.67 58.80 58.40 58.74 56.97 57.33 57.55 56.53 54.82 55.20 57.94 57.40 57.31 57.18 57.60
52.21 54.51 54.87 54.31 54.16 54.14 55.35 55.10 54.96 56.35 55.30 55.74 54.65 54.94 56.01 55.79 56.47 55.38 54.28 55.81 57.08 54.70 55.57 53.95 55.35 54.01 54.49 55.92 56.49 55.10 56.08 55.98 54.50 53.54 53.89 54.15 53.95 53.05 51.72 51.49 53.30 54.15 55.29 54.85
52.74 53.06 54.51 52.39 54.73 54.87 52.21 52.78 53.70 56.40 56.74 56.32 55.60 55.95 54.94 54.05 55.52 55.90 55.25 53.86 53.83 56.36 55.47 54.64 52.99 53.74 52.90 53.98 53.98 55.26 55.44 54.39 54.26 52.49 51.55 50.06 50.74 50.14 49.62 49.56 49.60 50.69 53.28 52.07
54.28 51.98 51.00 49.71 48.71 49.04 48.82 51.46 51.41 51.32 53.23 53.29 52.71 52.67 53.64 55.02 54.42 53.49 54.47 53.47 51.89 53.07 55.42 52.41 53.10 53.19 52.61 53.79 53.46 52.51 53.15 52.58 52.74 52.84 53.94 52.75 52.58 51.29 50.72 50.62 50.13 50.22 49.34 49.09
49.26 49.87 49.35 48.68 47.80 48.38 48.79 48.82 47.79 48.90 49.20 48.48 50.15 50.62 52.25 53.37 53.64 53.37 54.05 53.53 54.30 54.34 55.05 56.49 55.34 54.48 53.97 54.09 54.97 54.54 54.49 54.74 53.93 53.59 52.33 52.30 53.83 51.81 50.61 50.15 49.99 49.18 49.72 49.47
48.30 46.85 47.79 47.39 47.50 47.99 47.60 47.03 46.87 47.53 47.95 48.29 47.94 50.33 51.57 50.94 50.46 50.24 49.53 51.58 52.01 52.78 53.60 53.76 53.16 52.22 53.38 54.13 53.35 53.17 53.23 54.36 50.15 54.34 53.51 53.65 53.22 54.32 53.91 52.78 52.51 53.06 51.48 49.21

GFSNGP_sfc_wetblb_018.txt.gz
Wetbulb
43.44 46.72 47.26 46.14 46.32 46.97 44.45 45.80 42.52 44.65 41.58 44.11 46.12 47.49 51.15 54.03 58.47 59.54 59.52 60.48 63.26 63.94 65.98 67.56 68.76 69.53 70.79 71.84 73.26 74.22 74.02 74.25 73.83 74.61 75.02 75.00 74.57 74.07 73.36 73.67 73.12 71.59 70.93 70.62
41.35 46.80 47.59 46.23 47.88 48.31 47.71 47.38 46.12 44.23 42.92 47.07 48.96 49.12 52.16 55.80 57.33 57.63 58.31 58.99 61.59 65.10 66.59 67.11 68.81 69.24 70.16 71.27 73.35 74.22 74.16 74.14 74.81 74.82 74.53 74.54 74.87 74.69 73.51 73.27 73.17 71.80 70.67 70.50
34.53 44.17 46.00 42.75 47.10 47.34 47.23 48.24 47.34 42.97 45.60 48.11 48.52 50.39 51.67 52.86 56.80 58.34 57.16 59.65 62.56 65.04 66.41 67.75 69.07 69.92 69.67 71.21 73.11 74.08 74.07 74.56 74.78 74.80 74.44 74.39 74.52 74.36 74.34 73.33 73.00 72.42 70.86 70.56
35.17 38.71 37.66 45.05 51.19 50.61 47.53 48.91 49.59 48.20 48.91 49.51 50.80 52.06 51.57 53.51 56.18 57.13 57.47 58.14 61.84 65.50 66.41 68.38 69.87 70.42 70.79 71.25 72.01 73.22 73.60 74.13 74.75 74.38 74.19 74.37 74.29 74.09 74.23 74.76 73.43 73.36 72.31 71.32
33.91 35.13 41.18 46.78 48.81 48.42 46.19 46.41 51.20 49.81 50.92 51.15 51.96 51.30 49.84 55.61 54.19 54.36 56.82 59.46 59.66 64.73 66.09 67.62 68.66 70.09 70.33 70.49 71.26 71.69 72.61 73.27 74.04 74.11 73.64 73.84 73.44 73.66 74.24 74.52 74.37 74.19 74.29 72.36
38.11 35.17 36.05 43.57 50.64 55.64 52.83 45.06 56.86 55.86 55.15 55.09 51.63 46.59 48.47 55.91 58.40 57.47 54.58 56.42 58.35 62.99 67.30 66.87 68.25 69.34 69.28 69.54 70.39 70.76 71.60 72.81 73.94 74.05 73.41 73.25 73.72 73.97 74.49 74.70 74.58 74.73 72.88 72.03
39.11 38.70 40.15 48.17 53.93 54.78 45.54 45.70 56.80 56.62 55.97 55.44 53.90 52.31 56.67 58.90 58.12 59.60 56.76 56.67 57.56 57.30 64.00 69.52 69.13 68.84 68.49 69.03 69.47 71.21 72.04 72.15 72.80 73.42 73.45 73.54 74.02 74.27 74.27 74.51 73.23 71.75 69.28 67.50
42.96 38.49 37.70 54.40 54.02 47.53 49.81 56.12 56.73 56.60 55.69 55.76 56.44 57.14 57.26 58.27 58.28 61.33 61.14 61.42 58.91 55.55 57.21 63.34 69.68 69.28 68.04 68.12 70.03 71.08 71.16 70.50 71.05 72.21 72.86 73.92 74.12 74.01 73.69 72.31 70.64 67.88 67.07 66.57
45.59 43.98 51.43 54.42 51.75 56.81 59.77 59.87 60.66 60.52 61.58 61.53 62.44 63.08 64.25 63.72 64.70 61.92 65.72 67.82 68.85 58.57 59.05 61.87 67.63 70.21 68.25 68.73 68.89 69.68 69.35 70.79 71.27 72.05 73.61 74.34 73.29 72.08 71.14 70.25 68.76 67.32 66.64 66.14
47.00 50.53 51.92 53.33 58.05 60.90 60.24 59.30 59.28 60.05 60.37 60.85 60.13 61.60 61.52 62.05 62.35 63.93 65.18 65.05 69.28 69.92 69.12 68.47 68.78 70.22 70.21 70.08 71.94 71.86 72.00 74.01 74.43 73.82 73.16 72.92 71.97 71.27 70.32 68.33 67.41 66.41 65.94 66.12
49.01 50.27 51.83 52.71 55.07 58.36 59.11 59.45 58.48 59.02 59.05 58.58 59.06 58.41 59.19 58.26 59.15 59.84 59.47 57.33 58.65 64.60 69.55 70.34 71.88 72.19 73.35 72.96 74.50 73.37 72.97 73.01 72.16 70.80 68.97 62.58 56.56 63.76 67.45 63.02 66.45 66.99 65.83 65.39
46.72 50.87 48.89 51.24 54.33 58.16 56.73 56.54 56.67 57.40 57.62 58.50 58.50 57.10 57.36 56.66 57.30 58.42 58.47 58.96 58.40 55.94 56.73 56.02 57.70 72.17 73.13 73.28 72.84 71.41 70.43 69.33 66.43 64.06 62.99 61.37 59.37 55.81 48.00 48.30 48.23 51.56 53.92 60.83
50.94 54.39 51.98 53.36 53.38 54.09 52.87 54.26 56.96 56.46 56.65 56.63 57.50 57.71 57.69 56.58 57.22 58.18 60.83 58.24 59.17 59.86 60.50 61.10 60.61 62.59 71.01 70.97 71.22 70.53 68.60 66.08 64.38 63.59 63.43 62.32 60.71 58.69 54.57 49.86 45.31 45.31 48.46 50.35
55.01 54.87 51.82 52.75 51.22 53.68 53.71 54.30 54.54 55.10 55.52 56.67 56.46 56.63 56.86 56.87 58.28 60.25 62.19 64.69 65.76 59.72 59.38 60.12 59.70 57.80 69.10 69.30 68.60 67.91 66.53 59.34 65.63 64.73 63.85 63.01 61.41 59.51 57.40 57.42 56.76 52.36 45.49 45.15
52.19 53.58 53.12 53.69 54.18 53.69 54.13 53.28 52.13 51.76 52.81 55.18 56.35 57.15 56.16 56.54 57.89 60.08 63.12 65.20 66.20 65.70 62.29 64.17 67.79 68.11 68.76 68.55 67.48 66.92 66.47 65.64 65.29 64.41 63.64 62.03 60.66 58.75 57.83 56.38 55.64 51.20 47.99 46.15
51.77 52.32 52.12 51.03 50.96 52.86 53.64 52.82 50.92 49.88 49.63 53.06 55.14 56.16 56.78 58.24 59.04 61.97 63.08 64.59 63.77 62.75 64.70 65.72 65.61 66.31 66.22 67.43 67.77 66.78 65.46 62.46 65.05 64.60 63.70 63.17 61.54 59.88 58.46 56.93 53.99 52.05 52.79 50.31
49.03 48.27 48.71 49.43 50.55 51.34 53.34 54.54 53.75 51.02 49.68 53.38 54.11 55.17 54.37 57.27 59.05 59.35 59.58 61.75 62.60 62.49 62.80 63.46 62.54 63.71 63.91 64.42 64.37 63.22 62.66 63.30 63.17 65.54 64.92 64.56 63.93 61.83 60.48 58.35 55.89 54.36 54.50 51.51
51.57 51.49 51.52 51.52 51.24 52.25 53.00 54.37 54.87 55.19 52.11 53.42 54.14 54.98 55.77 54.78 53.70 55.51 57.51 57.43 59.75 61.71 61.79 62.44 63.25 62.24 61.53 61.23 61.32 60.93 61.98 61.07 61.35 64.40 64.88 64.03 63.73 62.56 61.74 59.26 58.08 56.05 53.81 49.09
53.27 51.63 51.32 51.99 52.49 51.88 52.29 53.81 54.44 55.39 56.02 55.25 55.95 54.73 56.30 56.83 58.06 56.22 55.32 57.74 57.52 57.20 59.02 60.73 62.05 62.17 60.30 61.34 61.12 60.00 60.63 59.42 59.24 58.16 59.08 58.12 58.34 58.95 61.83 58.92 56.97 56.93 55.37 51.64
53.77 53.95 54.73 54.13 54.99 54.60 53.59 54.63 56.16 55.67 55.49 56.49 56.52 56.64 56.71 57.01 57.21 58.31 57.51 56.32 57.16 58.51 59.58 59.21 57.51 59.80 58.66 59.85 60.80 60.31 59.87 59.19 58.32 58.26 58.36 58.03 58.21 57.05 57.31 55.10 58.34 57.16 55.96 53.48
53.49 53.33 52.69 53.35 53.30 53.85 54.19 53.98 53.73 53.91 54.41 55.58 55.46 54.42 54.44 55.50 57.08 57.62 55.87 54.53 55.76 56.74 54.82 55.43 56.61 57.97 58.53 59.89 59.74 59.86 59.48 59.10 58.59 58.54 57.85 56.79 56.96 56.80 56.73 56.68 56.65 56.56 54.09 52.88
51.76 52.47 52.58 53.13 53.22 53.11 53.32 53.92 55.11 53.77 54.42 52.27 54.11 55.35 54.98 54.26 55.00 54.66 55.38 54.82 55.22 54.38 52.83 51.39 52.22 55.63 56.23 57.70 55.79 58.10 58.36 58.33 57.55 57.57 56.80 56.74 55.02 55.06 55.65 56.56 56.85 55.63 54.88 53.32
48.41 48.76 49.39 49.05 48.78 49.66 50.17 50.69 52.04 52.67 51.90 52.46 51.19 52.52 52.88 52.71 51.80 50.58 51.37 54.12 52.99 52.55 51.01 51.05 52.92 53.38 53.64 54.21 54.25 56.72 57.19 56.70 56.62 54.04 54.11 55.02 53.47 52.21 53.29 55.93 56.17 55.19 54.96 54.61
46.71 45.97 46.05 47.29 47.87 47.59 47.03 47.81 49.07 49.45 50.45 50.10 50.81 52.09 52.38 52.39 52.39 52.17 52.20 52.15 52.42 53.88 52.96 51.87 52.60 52.69 52.30 53.66 53.36 52.39 52.76 53.18 51.22 50.42 50.88 47.32 49.42 48.45 47.67 48.40 49.27 52.00 51.38 51.20
46.03 45.08 45.12 44.59 44.69 43.97 44.70 46.78 46.56 46.56 47.50 47.37 49.35 50.80 49.57 50.06 49.13 49.29 50.83 51.00 51.16 52.54 53.03 51.92 52.14 52.06 53.98 53.42 54.11 53.87 52.62 51.38 50.07 50.85 51.10 49.68 47.93 47.20 47.44 47.09 47.38 48.46 48.73 49.20
43.77 42.93 42.99 42.62 42.65 42.94 42.97 43.88 43.98 44.85 45.60 46.35 48.40 49.27 48.85 48.68 48.43 48.24 48.71 48.93 50.13 51.25 51.43 51.08 50.87 51.33 50.97 51.71 52.05 52.60 52.85 52.40 53.18 51.76 51.44 52.37 52.64 50.54 50.42 49.91 48.50 46.65 46.44 46.45
42.65 42.64 42.69 43.06 44.02 43.71 42.66 44.64 43.98 42.89 44.06 44.33 43.11 44.55 46.08 46.36 45.99 46.21 46.27 47.06 48.43 48.42 49.35 49.87 50.88 49.76 49.46 49.53 50.00 50.15 50.53 51.25 47.74 50.72 50.31 49.54 48.51 48.08 47.86 48.14 47.98 47.87 47.04 45.99

GFSNGP_sfc_wetblb_021.txt.gz
Wetbulb
38.05 41.19 42.77 43.03 43.04 45.61 42.32 44.43 41.73 44.36 40.83 44.60 45.78 46.87 48.44 50.95 54.51 56.80 59.53 61.75 60.05 62.63 61.86 63.76 65.58 67.63 68.77 70.12 71.37 71.89 71.65 71.97 72.10 72.63 73.01 72.75 72.34 72.06 71.96 72.00 72.06 70.54 69.93 69.88
36.23 42.42 43.77 42.73 44.67 45.52 45.92 45.83 44.43 44.29 41.53 45.59 48.42 47.66 47.02 48.68 50.09 55.40 57.69 61.61 61.99 63.19 63.69 64.29 65.87 67.24 68.21 69.77 70.83 72.25 71.66 71.94 72.47 73.00 73.09 73.06 73.08 72.65 72.26 71.77 71.79 70.69 69.97 69.47
30.40 38.64 39.52 38.64 44.10 45.52 46.37 46.75 46.20 43.37 44.95 46.22 46.27 46.51 47.31 48.90 51.09 53.68 56.86 58.74 57.97 61.97 63.07 64.58 65.80 67.78 68.02 69.42 70.81 72.08 71.99 72.34 72.57 72.49 72.76 73.21 73.43 73.05 72.41 71.65 72.06 70.54 70.45 69.95
30.33 34.14 31.27 42.83 48.28 49.02 47.18 46.81 46.53 45.55 47.56 47.92 48.91 50.48 50.46 50.66 51.86 54.34 56.11 56.77 57.46 59.94 60.85 63.26 66.29 68.16 69.04 69.71 70.45 71.28 71.87 72.26 72.75 72.83 72.49 73.23 73.29 73.31 73.27 72.33 72.06 71.81 70.45 70.17
30.15 30.62 37.93 44.02 47.50 46.79 44.44 44.63 48.25 47.66 48.26 48.65 49.40 48.69 48.56 51.30 51.40 52.88 54.83 57.40 57.74 61.21 62.73 64.46 65.80 68.10 68.86 68.98 69.93 71.14 71.42 72.07 72.80 73.50 73.06 72.96 72.90 73.03 73.74 73.43 72.07 72.12 71.71 70.81
32.02 30.45 31.56 40.35 51.40 54.51 48.13 43.77 53.39 49.90 49.63 49.67 48.50 44.35 49.43 51.14 53.95 53.79 53.76 54.54 57.64 60.85 62.43 62.96 65.77 67.88 68.23 68.12 69.25 70.52 71.82 72.36 73.34 73.87 73.46 73.15 73.28 73.34 73.83 74.06 73.71 72.95 72.48 72.49
34.45 33.17 37.61 48.72 53.17 54.54 41.62 44.76 55.33 53.23 51.59 50.25 48.82 49.36 51.76 54.54 56.47 56.63 57.04 54.44 54.29 57.14 63.42 64.01 65.55 67.72 67.85 68.30 68.51 70.57 72.36 73.16 73.49 74.03 73.72 73.75 73.66 73.78 73.92 73.71 73.98 73.72 73.51 73.01
35.37 34.83 33.00 53.60 53.75 48.52 51.21 56.10 55.48 56.16 54.91 55.01 56.08 58.83 59.11 61.58 59.35 62.37 65.43 67.46 66.32 54.67 54.05 60.18 63.68 66.77 67.28 67.68 69.63 70.42 71.22 71.96 72.79 73.49 73.86 73.58 73.43 73.28 73.66 73.46 73.69 73.18 71.08 69.74
41.76 40.60 52.03 54.03 53.53 57.59 58.42 56.48 57.44 58.07 59.74 61.59 62.06 61.94 62.05 61.48 62.40 59.75 60.64 64.53 68.14 67.78 63.60 58.64 59.85 64.80 65.10 67.91 69.13 69.43 69.76 70.59 71.21 72.70 73.26 72.97 72.93 72.93 73.30 73.63 72.89 70.26 69.42 68.38
46.25 49.98 52.62 54.52 55.55 57.55 58.05 57.14 58.17 58.90 59.78 60.36 58.92 58.69 57.52 58.70 58.96 57.52 56.84 56.95 61.54 63.28 64.65 62.08 64.24 66.64 65.76 66.90 67.08 68.03 68.75 69.64 70.24 71.42 71.87 72.58 73.43 73.49 73.38 73.04 71.03 69.27 68.77 66.46
47.43 50.30 53.93 55.09 54.48 55.25 55.88 56.92 57.33 57.32 57.39 56.99 56.64 55.72 55.66 55.96 56.74 57.06 57.19 57.03 56.80 61.14 60.99 58.93 57.84 59.49 60.17 63.77 65.79 66.23 67.86 68.51 69.15 70.63 71.18 71.81 62.23 68.09 72.58 68.07 67.48 68.52 67.75 67.12
45.68 50.59 50.94 51.49 53.39 54.12 54.64 54.36 55.13 56.13 56.33 57.17 57.19 56.42 56.92 56.88 57.34 57.77 58.05 57.59 57.58 57.25 58.21 59.76 60.64 60.97 61.34 60.29 69.65 67.34 67.86 70.52 71.07 71.00 64.76 62.01 61.10 58.33 53.88 53.34 55.33 54.61 55.15 59.24
50.67 52.33 51.88 53.17 53.88 54.95 53.27 54.13 55.72 55.71 55.61 55.02 56.03 56.62 56.90 56.32 57.46 58.33 63.44 62.84 61.60 58.81 57.94 58.75 58.93 59.18 60.05 61.72 68.54 71.27 71.48 67.98 65.85 64.18 64.66 65.60 65.78 64.16 61.94 59.04 51.34 45.90 50.07 48.80
53.47 52.66 50.72 52.62 51.38 52.93 53.29 54.84 55.54 56.73 56.89 56.85 56.76 56.99 56.79 58.26 60.21 61.42 62.58 62.61 62.39 60.52 60.81 64.79 63.29 65.11 65.47 59.95 63.57 65.68 65.02 59.14 65.78 65.67 65.36 64.76 63.21 62.18 61.63 60.55 61.35 56.92 44.66 49.15
52.27 52.94 52.29 53.24 54.38 53.68 53.04 53.09 52.39 53.65 54.58 54.79 56.35 56.73 57.71 58.09 59.99 61.29 62.15 63.01 63.41 63.86 63.42 63.73 63.29 64.22 64.74 61.16 63.18 65.71 66.00 65.18 64.47 64.09 63.16 60.58 61.59 61.82 61.56 61.62 60.03 53.19 49.99 46.22
51.75 51.59 51.80 51.52 51.96 52.68 52.07 50.68 50.42 50.94 53.62 54.21 55.27 56.12 57.32 57.07 56.51 56.99 59.61 61.49 61.40 61.25 61.82 61.46 61.92 63.31 65.23 62.26 60.96 56.58 60.36 60.04 62.03 63.21 61.34 60.09 59.63 59.38 59.70 59.13 56.97 55.70 57.19 53.81
49.60 48.86 49.94 50.42 50.96 50.91 51.99 52.90 52.40 51.11 53.00 53.77 54.91 55.46 54.51 53.94 54.36 55.26 55.84 56.76 59.95 60.32 61.33 61.12 60.45 61.29 61.71 63.92 64.88 61.25 64.40 64.21 61.83 63.20 61.73 61.02 60.30 59.26 58.47 57.22 55.84 55.88 55.37 50.94
51.06 51.37 51.77 51.70 51.69 51.03 52.15 52.98 53.27 53.42 53.23 54.74 55.99 57.42 56.72 54.03 51.76 53.42 55.72 57.18 57.20 56.43 57.38 59.24 59.79 59.87 60.60 60.95 62.27 62.89 63.30 64.26 64.63 63.79 62.86 62.22 61.17 59.83 58.31 56.97 56.24 55.86 51.46 46.21
52.31 51.42 52.42 53.56 53.62 53.70 53.73 54.34 54.96 55.10 54.77 55.13 54.73 54.38 55.27 56.18 56.06 55.06 56.02 57.03 57.12 57.36 57.83 57.60 59.27 58.46 59.23 61.23 60.34 59.65 59.88 60.92 61.58 62.69 62.70 59.42 61.41 61.11 59.32 57.79 56.36 53.65 52.09 49.53
53.68 54.48 54.36 52.74 53.91 54.53 54.18 54.74 54.74 54.31 55.00 56.22 56.83 56.22 55.77 55.97 55.82 54.93 54.22 52.86 53.37 54.81 54.26 57.10 57.61 56.96 56.94 59.45 60.16 58.88 58.95 58.35 57.94 57.58 58.99 59.65 59.95 58.53 58.39 54.29 56.76 55.28 54.25 52.15
52.37 52.90 52.91 52.94 52.23 52.95 53.81 53.93 52.68 52.42 53.10 55.93 55.86 55.05 55.09 55.29 55.47 55.49 53.42 50.70 52.20 53.03 51.24 53.23 54.57 55.08 55.87 57.00 59.30 58.76 57.55 57.43 56.98 56.28 56.38 56.88 56.78 56.76 56.52 57.55 57.75 56.51 55.63 53.87
46.91 47.17 47.80 48.39 48.50 49.32 50.93 50.76 50.46 49.91 49.73 51.93 53.28 53.70 52.57 51.92 51.61 52.88 53.36 52.24 52.50 51.09 51.43 51.21 51.67 54.24 54.00 55.28 56.75 58.07 58.39 58.35 57.73 57.03 57.12 56.53 56.42 56.47 55.86 56.13 56.24 55.41 54.83 53.62
45.17 45.42 45.54 45.83 46.01 46.43 47.33 47.80 48.82 49.71 49.12 48.90 48.78 48.28 48.43 48.11 48.92 48.88 48.81 51.21 51.80 50.34 51.35 52.39 52.82 53.38 53.80 53.00 53.72 53.45 55.49 56.00 55.94 56.06 55.29 54.54 55.90 56.43 56.56 56.51 56.69 55.54 54.95 54.01
43.71 43.83 44.46 45.50 45.90 44.66 43.86 45.24 46.36 48.23 48.65 47.55 47.15 47.23 45.70 45.91 46.71 47.60 49.76 51.08 50.19 50.72 51.04 51.20 51.98 52.34 52.60 53.62 53.16 51.94 50.75 51.10 50.89 51.32 51.07 47.24 50.12 49.05 51.82 53.54 54.04 54.47 55.15 53.91
42.39 42.67 42.53 42.97 42.05 40.71 41.89 45.28 46.23 46.79 45.81 44.66 44.78 45.36 45.49 45.92 46.00 46.97 48.92 49.75 49.24 50.38 50.19 50.52 50.83 50.94 52.29 53.04 52.68 52.29 51.00 50.77 49.78 50.22 50.01 48.03 46.78 46.25 45.78 44.96 45.20 45.57 46.25 47.93
40.33 41.02 41.54 41.56 41.24 41.72 43.09 44.19 42.83 42.99 43.22 42.51 43.23 44.15 44.67 45.54 46.09 45.41 45.52 44.92 44.22 44.33 45.19 46.18 46.98 48.14 49.04 49.41 50.89 51.78 51.44 51.26 50.62 49.35 48.17 48.48 47.95 47.54 46.78 46.23 45.68 45.02 45.00 45.07
39.31 39.78 39.78 40.01 40.70 41.92 42.24 41.97 41.05 40.39 41.22 41.56 40.53 42.12 42.79 43.01 42.88 43.19 43.48 43.60 43.13 43.44 43.18 42.83 43.13 43.22 43.14 44.31 46.63 48.37 49.19 49.56 46.60 49.51 48.86 48.71 47.82 47.00 45.37 45.03 44.81 44.91 43.71 42.12

GFSNGP_sfc_wetblb_024.txt.gz
Wetbulb
35.92 39.26 40.50 40.26 40.67 41.73 39.97 42.84 40.19 43.56 43.73 45.24 46.10 47.02 49.18 50.00 54.06 55.65 57.58 59.26 59.19 60.67 61.79 62.70 64.47 66.15 67.07 68.07 69.19 70.32 70.05 69.98 70.63 71.25 71.78 71.95 72.25 72.35 72.30 72.13 72.00 71.78 71.66 71.56
34.11 40.09 40.31 38.49 41.63 43.01 43.36 42.56 42.48 44.41 42.31 45.76 48.06 47.95 48.47 49.25 50.75 52.08 55.30 58.34 60.45 61.12 61.90 62.37 64.27 65.74 67.05 67.94 69.13 70.30 70.13 70.04 71.07 71.45 71.44 71.46 71.65 72.03 72.36 72.41 72.38 71.72 71.35 71.29
29.38 36.63 37.73 36.01 41.43 42.91 43.03 44.00 44.05 41.14 44.94 47.63 45.94 46.92 48.19 49.69 49.99 50.20 52.09 54.58 58.76 60.90 62.03 62.94 64.26 66.16 66.79 67.76 69.65 70.01 70.25 70.67 71.13 71.51 71.56 71.70 71.92 71.63 71.49 71.43 72.13 71.33 71.21 71.02
29.62 32.59 28.23 38.46 44.54 45.97 45.06 45.97 45.96 46.71 46.74 48.47 49.65 50.71 50.54 50.68 51.37 51.00 52.21 55.04 57.64 60.30 62.45 63.87 64.69 65.43 66.76 68.20 69.34 70.17 70.13 70.54 71.43 71.68 71.80 72.20 72.32 72.10 71.99 71.94 71.44 71.49 71.20 71.01
28.28 29.11 36.12 39.66 46.84 48.86 46.56 44.55 47.67 47.19 48.34 48.14 50.20 50.09 49.54 50.84 50.71 52.41 52.90 54.79 57.09 59.25 60.83 62.71 62.72 64.51 66.31 67.43 69.17 69.70 70.36 70.54 71.31 71.90 71.78 72.15 72.13 72.27 72.62 72.27 71.95 71.80 71.93 71.23
29.45 28.67 28.69 38.91 50.63 54.14 52.82 41.58 48.86 49.17 48.94 49.18 47.45 43.90 48.34 52.73 52.28 52.32 53.23 54.56 56.01 57.32 59.60 60.23 62.19 65.35 66.36 66.89 68.13 68.60 70.60 71.26 72.08 72.42 72.10 72.07 72.56 72.89 73.30 73.25 72.62 72.62 71.96 71.68
30.16 30.81 35.02 42.93 52.45 55.21 40.80 43.83 55.48 56.86 54.74 49.93 47.93 51.39 53.65 55.54 57.11 60.19 58.57 58.86 56.57 59.23 60.40 61.80 63.35 65.37 66.10 66.85 67.41 69.29 70.76 71.94 72.39 72.89 72.85 72.50 72.84 73.44 73.54 73.53 73.25 72.45 72.35 72.11
30.62 30.29 29.75 51.56 52.93 50.60 51.94 56.19 56.68 57.56 56.77 49.02 53.79 59.85 62.00 62.68 63.18 65.02 66.34 67.92 66.91 58.64 57.56 57.58 63.66 65.52 66.18 66.30 68.42 69.80 70.99 71.55 72.03 72.89 73.35 73.55 72.95 73.06 73.24 73.43 72.99 72.38 71.82 71.95
34.04 34.77 43.98 52.99 53.23 55.56 57.22 55.14 56.48 56.80 58.86 60.88 60.96 60.19 60.31 58.94 57.86 58.46 62.26 64.78 67.54 65.80 63.43 62.95 65.48 64.71 64.17 65.24 67.99 69.11 69.89 70.97 72.22 72.87 73.51 73.69 73.40 72.78 72.92 73.21 72.71 72.08 71.60 71.55
38.84 44.14 46.10 53.26 54.96 55.69 56.01 55.88 57.45 58.05 57.93 58.35 57.08 57.18 56.35 56.53 56.45 56.61 56.99 57.25 63.64 63.33 61.32 60.22 62.65 63.98 63.58 65.78 69.43 67.91 68.49 69.38 71.11 72.26 72.68 73.69 73.68 73.57 73.00 72.77 72.04 71.69 71.55 71.17
39.94 43.49 51.29 53.44 52.65 53.49 55.18 56.72 56.88 57.45 57.22 56.61 57.54 57.09 57.80 58.24 58.88 59.90 60.27 59.61 58.58 58.88 59.93 59.57 60.95 61.73 62.40 62.82 68.15 69.01 66.50 68.19 69.56 71.23 71.04 73.04 65.10 68.28 72.98 73.63 71.84 72.70 71.57 70.11
39.76 45.26 48.85 50.54 52.20 54.65 54.00 54.34 56.23 56.85 57.34 57.31 57.76 57.36 58.84 58.06 60.04 61.94 60.73 60.73 60.34 61.43 61.65 61.15 61.05 61.50 61.75 62.18 66.09 70.77 68.62 66.96 68.38 70.35 71.47 63.21 61.32 57.58 48.84 53.55 54.28 52.28 54.09 62.55
45.80 49.65 50.96 52.36 53.90 53.98 54.22 55.38 57.11 56.80 57.31 57.30 57.65 58.95 59.72 59.23 60.45 59.96 61.89 62.45 61.03 60.02 62.59 62.45 62.75 63.58 64.19 63.95 62.81 68.60 69.89 68.91 68.89 68.10 65.25 63.56 65.80 64.80 60.57 54.42 52.28 51.92 52.64 53.73
49.16 52.21 51.04 52.42 51.53 53.77 53.84 54.90 56.72 57.56 57.76 58.24 58.88 60.25 60.74 60.83 60.84 61.23 61.37 62.54 63.48 62.90 62.33 63.29 63.51 64.07 64.77 64.53 62.31 66.17 70.97 60.26 67.42 66.52 66.27 67.60 66.05 65.10 63.23 61.04 59.63 58.30 51.92 52.44
52.19 53.77 53.18 53.89 53.01 52.56 53.05 53.56 53.61 53.65 55.25 56.39 57.54 57.29 58.63 58.75 58.93 60.10 62.21 63.01 62.54 61.76 61.34 61.44 61.47 61.90 63.08 65.04 62.33 63.38 63.81 65.88 66.54 66.88 66.77 62.82 62.04 61.80 61.97 61.80 60.61 58.81 53.86 49.34
51.91 52.98 52.94 51.73 51.68 52.72 52.77 52.32 52.69 53.13 54.19 54.07 53.62 54.13 55.18 57.06 57.38 57.35 59.13 60.68 59.51 58.79 59.89 59.92 59.92 60.87 62.62 62.62 59.75 59.95 62.88 59.77 60.58 63.47 63.08 62.27 62.00 61.33 61.14 61.12 58.24 57.22 59.35 54.52
49.78 49.27 50.63 50.07 50.96 51.94 52.15 52.84 53.06 53.25 54.59 55.37 55.51 54.71 54.51 55.03 56.07 56.38 56.65 57.29 57.00 57.13 57.50 57.87 58.00 60.64 62.65 62.92 62.11 60.22 63.54 63.70 60.60 61.83 61.22 61.62 61.66 61.09 61.07 60.20 59.24 59.95 60.49 56.55
52.08 52.22 52.40 52.17 51.99 52.05 52.65 53.40 53.98 54.97 54.94 55.77 56.46 56.74 55.95 55.10 54.68 55.74 56.77 58.00 57.36 56.90 57.05 57.51 58.47 59.29 61.49 62.27 63.43 64.34 64.00 64.33 62.80 61.75 61.39 60.96 60.92 61.23 61.33 60.47 59.44 58.60 56.98 52.27
53.79 52.91 53.13 53.42 54.67 54.12 54.00 53.95 54.19 55.22 55.27 55.66 55.69 55.00 55.10 54.57 53.69 52.99 52.60 51.83 51.82 52.47 53.12 55.53 58.03 58.08 59.05 61.43 60.93 62.20 62.94 64.26 63.45 62.86 62.29 58.32 60.25 59.72 59.11 59.13 58.38 56.49 54.84 53.93
51.30 52.31 52.80 52.84 53.17 52.89 52.51 53.46 55.02 55.52 56.40 56.34 55.57 54.87 54.04 54.66 54.62 53.59 52.28 50.19 51.01 51.95 52.55 54.43 54.99 55.47 57.61 60.15 60.14 60.39 61.02 61.15 61.09 61.25 60.75 62.01 61.69 60.27 58.46 54.00 56.65 55.34 54.86 55.46
47.34 47.86 48.26 48.24 47.93 49.39 49.20 50.54 53.12 52.58 53.10 53.59 52.45 51.62 51.39 52.52 53.06 52.69 50.82 50.05 50.97 51.87 52.91 53.63 53.85 54.37 56.27 59.02 60.00 60.36 59.02 58.97 60.07 60.72 60.90 59.31 59.53 59.35 58.70 58.30 57.71 57.25 56.63 55.02
45.34 45.42 45.95 47.32 46.58 46.66 48.67 48.95 48.09 47.65 47.28 47.65 48.11 48.08 47.72 48.15 50.39 51.68 51.23 49.62 51.43 51.20 52.82 53.13 53.67 54.84 54.40 55.44 56.74 58.36 58.97 59.43 58.16 58.22 58.04 59.13 58.58 57.92 57.86 58.38 58.06 57.83 57.62 57.05
43.71 44.29 45.13 44.96 45.49 46.20 47.02 46.97 46.26 45.71 44.80 44.80 44.79 44.75 46.72 47.54 48.53 48.53 47.82 50.25 51.16 50.32 51.35 51.60 52.33 53.15 53.44 53.60 53.24 52.30 52.79 53.72 54.66 56.40 56.53 56.25 56.93 57.95 57.66 57.44 57.83 56.72 55.77 55.98
42.27 42.68 43.25 44.75 45.35 44.56 43.98 45.01 45.02 44.65 44.70 44.86 44.99 45.41 45.30 45.76 44.57 46.16 46.23 45.75 46.94 47.21 47.05 48.22 50.02 51.37 52.33 52.93 52.82 51.42 51.36 51.03 50.96 50.42 50.17 45.97 48.73 49.12 50.38 53.09 55.45 57.85 57.60 55.18
40.82 41.35 41.51 41.94 41.55 41.88 42.91 43.65 43.58 43.50 43.66 43.42 43.30 43.70 44.12 45.00 43.78 44.22 44.50 44.26 44.42 44.27 44.10 45.43 46.51 47.69 49.43 51.03 51.60 51.19 50.66 49.81 49.76 49.22 48.71 48.17 47.74 47.50 47.06 46.89 46.52 46.85 47.30 47.37
37.62 38.30 39.95 40.27 41.25 41.51 42.00 42.23 40.76 41.20 41.77 41.09 41.28 42.34 42.65 42.69 42.68 42.81 42.90 42.99 43.10 42.86 42.12 42.34 43.10 44.53 45.85 47.06 49.42 49.31 49.85 49.96 49.99 48.91 48.04 47.97 46.93 46.22 45.37 45.49 45.16 44.93 44.98 45.31
37.37 38.01 37.91 38.74 39.40 40.85 41.03 39.91 38.72 37.95 39.04 39.56 38.91 40.20 40.66 40.81 40.49 40.15 40.46 40.40 40.73 41.12 41.43 41.49 41.44 41.69 42.39 44.64 45.63 46.67 47.97 49.10 46.12 49.06 49.03 48.50 47.15 46.39 45.66 45.48 44.96 43.81 43.31 43.96

GFSNGP_sfc_wetblb_027.txt.gz
Wetbulb
41.92 42.61 43.27 43.53 44.08 45.30 45.02 47.96 46.38 48.19 48.94 51.52 53.83 55.45 57.24 58.52 59.87 59.79 61.40 62.92 64.77 66.48 68.83 70.16 70.57 71.14 71.46 72.24 73.15 73.59 73.70 73.74 74.19 75.15 75.74 75.75 75.45 75.61 76.06 76.27 76.10 76.44 76.59 76.70
38.98 42.12 43.35 41.94 44.45 44.91 45.66 46.35 46.54 47.29 47.76 53.92 54.28 57.27 57.66 58.01 59.50 60.39 60.02 62.47 65.33 67.77 68.29 69.01 70.30 70.63 71.28 71.81 72.38 73.57 73.32 72.99 74.39 75.45 75.51 75.45 75.48 75.57 75.94 75.94 75.87 76.45 76.22 76.36
35.31 40.50 40.60 39.40 43.84 45.41 46.57 48.14 48.01 45.22 49.84 53.36 53.26 54.46 55.88 58.18 59.88 60.94 61.49 62.64 64.01 67.08 68.32 69.29 69.46 71.04 70.58 71.48 72.35 73.00 73.26 73.59 74.11 74.83 75.01 75.09 75.56 75.72 75.36 75.58 75.87 75.74 75.82 76.06
35.30 37.74 31.57 44.40 48.99 48.37 47.87 49.56 50.36 50.30 51.58 53.41 55.22 57.42 59.03 59.90 59.85 60.94 61.85 62.39 64.27 63.03 66.61 70.05 69.48 69.47 71.62 72.24 72.64 72.76 73.34 74.00 74.02 73.87 74.46 75.20 75.37 75.19 75.54 75.66 75.44 75.50 75.52 75.77
33.10 35.02 39.67 41.95 45.77 50.42 50.17 49.31 55.10 53.36 52.73 53.52 55.03 56.48 58.00 59.42 59.97 60.98 62.49 63.46 63.98 63.40 65.25 70.34 70.26 71.25 71.91 72.05 72.62 72.89 73.12 73.69 74.23 73.98 74.50 74.97 74.49 74.62 75.07 75.35 75.44 75.49 75.97 75.84
35.30 31.23 31.76 43.43 48.01 51.95 55.20 45.14 57.11 57.98 57.64 55.42 54.49 51.23 54.84 61.84 60.29 59.67 60.34 61.78 63.00 63.77 65.72 66.83 69.90 70.07 71.06 71.11 72.07 72.40 73.41 73.75 74.43 75.20 74.88 74.69 75.07 75.14 75.41 75.55 75.22 75.44 75.65 76.03
32.90 32.74 37.56 45.53 49.87 57.53 45.21 47.94 58.54 59.40 59.53 59.91 58.17 56.43 61.78 61.75 61.13 62.99 63.60 62.35 62.79 63.55 65.10 67.42 68.40 69.21 70.62 71.60 71.78 73.25 74.10 74.57 75.36 75.95 75.72 75.53 74.66 75.69 76.26 75.82 75.74 75.40 75.21 75.57
33.35 31.42 29.43 47.17 50.71 45.38 53.90 58.94 59.71 60.63 59.92 58.75 61.71 62.72 59.69 64.62 67.66 69.98 70.37 69.19 62.56 63.55 66.31 68.89 69.92 70.05 71.30 72.46 73.60 74.31 74.61 75.10 76.11 76.31 75.61 75.19 75.55 74.98 76.17 74.84 75.33 75.59 75.29 73.84
37.37 37.27 45.94 49.69 50.63 57.25 59.96 59.30 59.95 60.11 60.12 59.19 61.11 63.07 63.62 66.35 67.99 69.40 70.45 70.29 69.67 68.84 69.35 70.04 71.00 72.02 71.31 71.85 73.15 73.88 74.52 75.31 75.91 76.54 76.48 76.67 76.09 75.80 73.45 72.94 72.75 73.33 72.33 72.40
38.77 41.37 44.70 47.10 51.07 52.48 58.82 59.62 60.78 60.47 58.66 59.71 62.95 64.25 63.66 63.54 63.91 65.98 68.01 68.71 68.30 67.68 67.70 67.99 70.47 71.78 72.30 73.66 74.15 73.83 74.34 74.90 75.51 75.77 75.74 76.57 75.86 75.59 74.50 72.86 72.09 71.44 71.65 71.17
40.16 43.45 45.56 47.94 50.28 51.17 55.19 60.21 59.81 60.21 60.96 61.13 61.89 62.01 62.98 63.24 63.71 63.70 64.16 65.20 66.48 66.68 66.78 66.66 68.14 68.14 68.12 68.68 73.08 74.48 73.32 73.23 73.98 74.39 74.22 75.62 76.13 75.66 74.41 74.37 73.44 73.45 74.29 72.16
36.34 44.32 45.53 48.86 51.22 55.14 56.70 59.06 59.87 59.25 60.85 62.04 62.23 59.58 59.74 62.44 64.46 64.64 64.39 65.76 65.71 65.77 65.93 66.17 66.87 67.25 67.62 68.30 67.87 69.99 71.37 72.35 71.96 72.56 73.60 74.62 74.27 69.40 53.63 52.95 54.74 53.47 56.19 68.22
41.09 46.59 47.69 51.35 53.10 57.07 57.91 59.21 59.90 60.44 60.15 60.77 60.69 61.43 60.95 61.03 61.78 60.84 64.28 64.79 65.27 66.50 67.60 67.89 67.85 67.88 68.96 69.21 68.33 68.25 68.22 69.86 71.31 68.37 72.10 73.61 67.69 69.51 65.51 55.81 48.22 50.03 50.94 51.84
46.36 47.59 46.80 49.66 51.76 56.00 57.03 58.54 57.85 60.79 61.15 61.27 61.17 61.54 61.35 61.30 61.38 61.95 62.60 64.48 65.85 65.85 65.69 66.59 67.34 66.82 66.36 64.61 67.02 66.88 68.49 57.72 66.55 69.66 71.90 68.48 68.68 66.65 62.97 62.62 60.92 58.12 49.47 53.76
44.37 47.99 50.86 53.17 55.23 54.99 56.52 57.47 58.12 57.67 58.43 58.73 60.10 60.98 60.48 60.10 60.15 61.34 63.31 64.06 63.63 63.68 64.38 66.00 66.54 65.52 64.85 66.19 67.35 67.58 67.21 65.95 65.97 65.08 63.06 63.52 66.58 65.88 64.83 62.19 60.64 59.83 53.34 48.58
46.64 48.03 50.66 52.80 52.94 54.40 55.92 56.50 56.55 57.26 58.05 56.44 57.68 58.66 60.22 60.67 60.29 59.87 59.99 60.36 59.26 59.03 61.78 64.03 65.06 65.78 66.79 66.40 66.19 66.32 66.46 59.60 62.18 64.83 63.01 60.79 61.75 61.63 61.79 61.80 60.61 57.62 57.96 56.05
49.42 48.81 51.32 51.89 52.88 54.67 54.98 57.19 57.62 57.39 57.43 58.32 58.77 59.38 59.15 59.15 57.65 58.87 60.31 60.29 60.14 60.40 60.58 61.74 63.03 65.92 67.79 67.13 66.18 65.38 65.38 66.51 60.91 66.19 65.03 64.07 62.05 61.35 62.22 60.78 60.26 61.28 59.59 56.20
53.42 53.61 53.89 54.45 53.79 53.88 53.91 55.09 57.10 58.41 58.05 58.17 57.23 56.84 54.65 53.39 53.51 54.38 57.60 58.05 59.02 59.27 58.39 59.70 60.30 64.49 65.79 67.61 67.49 67.02 66.37 66.17 65.67 64.24 64.90 63.64 62.74 62.76 62.29 61.65 61.57 60.27 56.84 53.31
48.75 50.00 52.61 53.72 54.55 54.73 54.62 55.44 56.64 56.80 56.65 56.27 55.69 54.60 54.63 54.40 54.31 55.58 56.22 55.23 55.58 55.71 56.46 59.18 58.64 61.80 63.76 63.24 65.50 66.86 65.38 65.07 64.38 63.90 64.56 59.88 62.31 61.64 61.15 60.29 59.21 58.35 58.03 58.70
48.64 48.08 49.11 50.10 50.42 51.30 52.38 52.96 53.38 52.94 54.57 55.37 54.79 54.01 53.52 53.56 55.29 56.17 55.68 53.45 54.01 55.29 57.81 58.50 60.70 61.67 62.88 63.38 62.36 66.07 66.20 65.70 64.21 63.64 63.66 63.15 62.55 60.76 60.42 55.72 59.11 59.68 59.67 60.75
46.72 47.46 47.28 47.12 46.53 47.28 47.71 48.87 48.17 47.87 49.32 50.49 51.78 52.76 53.19 53.68 51.95 52.53 51.88 50.37 52.03 54.62 56.00 55.96 56.75 59.09 59.59 61.00 62.46 62.71 62.65 60.14 62.05 64.70 64.63 63.73 63.29 60.98 59.95 58.81 58.45 58.63 57.86 57.66
46.30 45.87 46.99 47.22 45.29 45.02 46.28 46.97 48.00 47.83 47.39 49.47 51.89 52.16 52.33 52.85 53.82 51.88 49.89 48.64 48.56 49.78 53.29 54.47 55.61 55.16 56.84 57.67 58.61 59.06 59.07 58.89 57.69 59.36 59.77 60.82 61.73 62.13 61.78 58.99 58.20 58.05 56.96 56.50
45.86 46.78 46.96 46.95 45.98 45.84 46.87 46.69 46.85 47.31 46.01 46.16 48.98 49.81 48.14 47.84 48.37 47.72 45.61 47.57 49.69 47.97 50.47 51.44 51.59 53.11 53.75 55.37 55.16 55.24 54.78 54.44 53.82 52.97 51.78 52.23 57.62 56.73 57.68 57.52 58.42 58.01 57.26 56.86
44.78 45.62 46.58 46.96 46.94 46.63 45.49 46.30 46.67 46.65 46.70 46.58 46.95 47.57 46.05 46.30 46.37 47.98 47.36 46.03 45.66 47.98 48.54 49.14 49.95 51.01 52.60 52.21 53.38 53.72 54.03 52.24 50.62 50.63 51.81 47.89 54.09 54.37 52.53 50.79 50.81 50.64 52.91 54.43
44.26 44.46 44.62 45.50 44.64 43.92 44.68 45.20 45.17 45.38 45.87 45.39 45.44 44.90 45.12 46.25 45.36 45.38 46.16 46.14 44.71 47.08 47.83 46.36 48.22 49.28 51.55 52.16 51.45 50.48 50.52 50.75 51.17 53.64 50.53 49.87 51.39 51.63 51.38 50.90 50.49 50.31 50.37 50.76
42.68 43.83 44.00 44.12 44.13 44.11 44.28 43.96 43.09 43.56 43.49 42.35 42.66 43.44 43.61 44.14 43.62 43.66 43.81 44.06 44.67 44.47 45.00 45.02 45.60 48.68 49.58 49.02 49.66 50.27 51.01 49.83 51.02 50.07 49.25 49.73 50.03 50.42 50.32 50.71 49.70 49.87 50.09 50.55
42.80 40.70 44.28 44.67 44.08 43.56 43.00 42.45 42.31 40.97 41.78 41.79 40.75 41.66 41.76 41.73 41.52 41.65 41.21 42.07 41.97 42.12 42.36 43.40 44.03 44.81 46.82 47.40 47.48 47.85 48.03 48.64 45.19 49.34 50.69 49.41 48.34 47.77 48.21 48.19 48.06 49.52 50.53 51.28

GFSNGP_sfc_wetblb_030.txt.gz
Wetbulb
50.43 47.72 47.82 50.53 50.62 51.47 50.86 51.63 49.32 51.41 51.96 54.67 56.43 57.11 58.31 59.65 60.51 61.09 61.91 62.92 65.75 68.84 70.23 72.30 73.15 74.99 76.01 75.09 75.93 75.94 77.03 76.03 77.48 78.59 79.14 79.21 79.01 79.20 79.52 79.89 79.67 79.92 79.73 80.03
45.21 47.35 46.91 46.32 48.97 49.92 51.02 52.06 52.45 52.49 52.42 57.25 58.52 58.35 58.71 59.44 60.05 60.03 60.96 61.65 62.90 66.54 69.18 71.12 72.47 73.59 74.55 76.29 75.83 76.02 77.24 76.73 77.97 78.71 79.18 79.03 79.24 79.24 79.44 79.44 79.47 79.69 79.20 79.56
42.77 46.79 45.96 43.49 47.97 49.13 50.44 52.00 51.80 49.42 53.77 56.81 56.26 57.04 58.23 58.79 59.44 59.85 61.49 62.71 64.17 65.82 68.01 70.99 72.35 73.61 73.39 75.96 75.96 76.42 76.88 77.76 78.06 78.79 78.62 78.85 79.18 79.33 79.01 78.86 79.44 79.18 79.19 79.37
41.77 44.61 36.65 48.33 53.20 52.32 50.63 51.97 53.54 53.57 54.68 56.14 56.94 58.39 59.47 60.30 60.29 60.61 61.34 62.68 64.18 64.27 66.01 69.51 71.26 70.08 73.64 74.16 76.44 76.56 76.94 77.39 78.18 78.34 78.52 79.21 79.30 78.78 78.91 79.08 78.73 78.79 78.93 79.36
38.63 39.91 44.55 47.11 48.71 48.94 49.48 50.56 54.12 53.99 55.63 56.29 57.39 57.89 58.07 60.01 60.90 62.03 63.15 64.09 64.81 65.22 66.27 68.69 68.81 70.88 71.57 73.65 74.53 75.70 76.51 76.85 77.72 78.22 77.35 77.91 78.36 78.43 78.88 78.35 78.23 78.40 78.25 79.13
40.29 36.91 36.80 46.66 51.04 52.75 53.86 47.39 55.91 56.99 58.14 58.81 61.11 54.16 56.22 60.94 61.37 61.95 63.56 64.31 64.69 65.43 65.86 66.91 69.80 70.62 71.55 72.56 73.32 74.64 75.99 76.76 77.96 78.62 78.11 77.53 78.63 78.74 79.10 78.71 77.70 77.23 77.57 78.89
37.51 36.94 42.13 49.05 51.79 56.78 45.39 52.56 59.97 60.12 60.63 61.46 60.97 62.59 64.87 65.95 66.13 66.29 66.29 66.03 67.03 67.45 66.86 68.70 71.36 72.06 72.18 72.95 72.84 75.36 75.86 75.93 77.62 78.72 78.56 78.84 79.38 79.44 79.01 78.43 77.74 78.29 77.17 77.70
37.59 35.93 34.20 48.15 48.58 45.81 54.20 58.19 59.27 60.40 60.80 61.11 62.92 63.91 65.84 67.11 67.61 67.16 67.03 69.75 71.68 68.94 67.13 69.01 71.93 71.39 72.24 75.26 75.99 77.00 77.28 76.69 78.49 78.55 77.02 77.00 79.23 79.43 78.81 78.44 77.57 77.29 75.76 76.58
40.00 40.04 47.90 50.31 49.31 52.85 54.46 53.71 56.03 59.72 62.36 62.97 62.74 63.64 65.85 67.10 68.28 65.99 68.55 71.09 72.39 67.39 68.96 72.56 74.03 73.70 72.88 75.69 76.74 76.63 76.73 77.48 77.95 78.31 77.96 79.12 78.82 78.64 76.85 77.93 75.75 75.39 74.53 75.74
41.59 43.93 46.56 49.03 51.13 52.26 52.64 53.05 55.49 56.62 60.70 63.10 62.88 64.60 66.44 68.12 68.01 69.20 71.33 72.63 72.84 71.37 70.84 72.34 74.60 75.18 76.03 75.97 76.31 76.07 75.59 76.16 76.71 76.86 76.54 77.34 76.97 77.01 75.89 75.37 75.98 75.18 75.68 75.94
42.60 46.03 47.24 47.60 48.87 50.48 51.98 53.08 53.17 54.98 59.37 62.19 63.49 65.10 67.40 67.39 67.96 69.75 71.30 71.24 72.00 71.60 71.50 71.50 72.71 73.01 73.91 75.16 77.15 75.39 75.95 76.20 76.58 76.25 76.45 76.87 77.69 76.65 76.14 77.62 75.03 75.78 75.94 75.82
39.85 46.72 46.91 47.73 50.52 51.90 51.08 53.34 54.60 57.18 58.24 62.08 63.29 63.41 65.33 66.91 68.83 68.59 68.66 69.25 69.44 69.56 69.90 70.20 70.44 70.77 71.43 71.95 72.11 73.38 74.14 74.24 73.91 74.66 75.36 75.90 75.97 76.50 52.15 54.93 52.72 52.03 52.60 64.59
45.51 48.77 48.70 50.47 51.78 52.27 53.12 55.08 56.80 58.86 60.70 61.95 61.79 62.57 63.23 64.03 64.19 62.79 68.10 68.98 69.48 69.84 70.71 71.25 70.81 70.32 69.38 70.34 72.18 72.13 71.73 72.36 71.91 69.61 72.18 72.96 74.14 74.63 74.27 66.45 48.40 47.50 47.32 52.21
47.80 47.57 45.22 48.73 46.03 52.74 53.80 56.46 58.08 60.87 62.58 62.21 62.42 62.68 62.90 63.77 63.92 64.69 65.52 67.50 68.94 69.49 69.97 70.15 69.09 67.36 69.37 71.04 71.93 71.96 69.97 57.26 70.94 71.18 71.83 72.60 73.53 73.84 74.19 73.66 72.25 72.96 56.30 49.85
43.34 45.56 46.03 47.34 51.32 52.83 56.22 56.89 58.43 58.91 60.05 61.10 62.53 61.62 62.10 63.11 63.93 64.29 65.74 67.07 68.14 68.71 69.14 69.46 68.47 68.29 70.48 71.13 69.76 68.57 68.11 68.95 69.23 68.45 67.91 65.65 65.23 63.69 64.20 64.80 63.02 61.43 57.97 53.58
43.76 44.02 46.06 47.88 48.80 51.44 54.98 57.85 55.91 57.39 59.61 60.26 61.68 62.96 63.55 64.05 63.68 63.39 63.89 64.33 63.67 63.09 64.59 66.66 68.62 69.94 69.54 69.69 69.50 68.92 68.02 61.10 62.86 68.37 66.72 67.21 67.59 64.81 63.03 62.34 61.53 60.89 60.67 57.93
46.66 47.10 48.28 47.79 50.68 53.51 54.70 55.68 57.55 57.79 58.95 59.48 59.39 61.47 61.30 61.66 61.38 61.58 62.39 62.74 62.67 62.73 63.30 63.27 65.77 68.81 70.68 70.66 70.01 68.82 69.06 69.57 61.04 68.03 67.53 66.74 65.79 65.24 66.57 67.40 65.87 63.16 58.01 54.13
53.14 52.98 52.76 50.98 54.42 54.07 54.15 57.51 56.90 57.20 57.67 58.28 58.34 57.42 57.71 57.52 56.73 58.35 58.08 60.26 61.94 61.90 61.69 63.43 64.49 67.32 67.47 68.41 69.98 69.12 68.82 67.88 68.12 67.29 67.35 65.63 66.01 66.17 66.55 66.69 66.00 63.08 61.04 57.57
48.72 48.93 49.04 49.21 50.29 50.36 51.14 51.66 53.91 54.14 54.49 55.77 56.86 57.55 58.38 57.64 57.34 56.51 56.41 57.29 57.32 57.75 58.70 61.80 60.89 63.56 65.98 64.81 67.52 69.15 68.16 67.32 66.38 66.93 66.97 62.48 65.26 65.44 64.29 63.76 62.28 61.29 60.48 59.73
47.72 47.91 48.12 47.95 48.47 49.18 49.44 50.65 51.45 51.66 53.95 54.77 53.67 52.66 53.35 54.17 56.65 56.40 55.39 53.97 54.96 56.60 59.61 58.89 62.44 62.99 63.88 64.28 63.76 67.22 68.25 68.10 66.93 65.80 65.62 65.31 64.06 62.55 61.73 56.54 60.61 60.54 61.27 62.45
47.49 47.38 47.83 47.67 47.61 48.26 49.00 49.36 49.40 50.66 51.27 52.03 52.33 52.53 51.55 51.24 51.42 52.29 53.30 50.77 54.23 56.89 58.38 57.58 58.21 60.77 62.33 63.04 64.08 64.14 64.51 64.40 64.76 64.84 66.02 64.64 63.62 62.84 63.43 62.51 59.92 59.28 59.04 59.71
49.04 49.40 48.31 48.20 47.84 48.05 49.79 49.69 49.33 49.35 50.70 50.47 51.05 51.41 51.81 52.97 52.56 49.71 48.56 48.83 51.12 51.11 55.64 56.54 56.77 54.82 58.54 58.99 59.38 59.92 59.99 59.83 60.13 60.80 62.61 61.27 62.60 61.49 59.95 59.44 58.70 58.71 58.51 58.58
49.26 48.87 48.51 48.95 48.74 48.50 48.67 47.83 47.46 48.41 48.78 48.03 48.76 50.72 49.82 49.39 49.48 48.35 47.53 51.01 50.80 49.30 52.77 52.82 51.97 53.11 53.10 57.85 57.34 56.81 56.20 56.27 57.38 55.06 57.26 58.78 55.73 56.09 54.94 53.50 54.43 55.17 55.44 56.28
49.52 50.60 50.43 50.62 50.48 49.82 48.43 48.46 47.85 47.93 48.38 48.03 47.77 48.08 49.73 48.61 48.60 50.53 49.85 48.05 47.51 49.39 49.52 50.44 51.16 50.77 52.68 53.54 53.21 52.33 51.41 50.98 55.28 55.25 56.79 51.81 58.30 58.31 57.33 52.59 51.75 51.99 51.79 51.24
49.16 49.46 49.58 49.01 48.88 48.46 49.31 49.89 49.05 48.04 47.32 47.13 47.21 46.78 47.01 47.82 46.71 46.64 48.23 48.77 46.11 49.22 50.17 47.98 49.13 50.05 53.06 53.34 50.56 49.39 50.81 51.04 52.68 51.50 51.12 54.51 55.46 55.46 55.29 55.04 53.47 52.63 53.15 52.61
45.41 47.05 48.01 48.31 47.39 47.82 48.69 47.97 46.43 46.80 46.47 45.24 45.49 46.04 46.41 46.47 47.04 47.18 47.35 45.35 46.22 46.01 46.68 47.26 47.69 50.37 51.09 50.81 51.67 51.65 51.24 51.15 52.33 50.25 51.30 51.74 51.08 53.26 54.66 55.03 54.92 55.17 54.94 54.33
45.39 42.38 46.15 46.79 47.10 46.27 45.88 45.64 45.41 44.60 45.08 44.97 44.27 45.30 45.36 45.10 44.78 44.89 43.85 44.62 44.66 45.13 45.55 45.94 46.01 45.69 48.36 48.96 48.89 49.80 50.33 50.76 45.51 50.54 51.95 51.54 50.49 49.63 50.67 50.84 51.62 52.49 53.13 53.42

GFSNGP_sfc_wetblb_033.txt.gz
Wetbulb
52.65 53.85 53.35 52.68 51.74 52.25 51.66 52.94 50.61 53.04 53.52 56.24 58.06 58.48 59.61 61.17 62.24 62.81 63.82 64.68 66.16 67.55 70.01 73.15 75.36 77.15 77.73 76.50 77.85 77.47 78.10 78.00 78.26 79.68 80.32 80.43 80.21 80.72 80.87 80.96 80.82 81.00 80.53 80.56
50.39 53.10 51.59 50.35 53.08 52.87 52.83 52.98 53.39 53.91 54.24 58.94 59.83 60.19 59.74 59.97 60.45 60.69 61.87 62.68 63.89 65.22 68.48 70.55 73.31 76.20 76.96 77.74 77.54 78.05 78.58 78.06 79.08 79.84 80.29 80.39 80.76 80.56 80.92 80.58 80.80 80.75 80.46 80.27
46.03 51.25 50.45 47.09 51.42 53.06 53.95 54.70 54.28 52.09 56.03 59.25 58.18 58.44 59.53 60.25 60.87 61.11 61.88 62.53 63.59 64.55 66.06 69.73 71.12 74.41 74.97 78.05 78.42 77.61 78.06 78.95 79.10 79.81 79.85 80.42 80.79 80.83 80.14 80.22 80.70 80.39 80.22 80.48
44.70 48.57 41.73 51.47 55.72 54.72 53.61 54.73 56.03 56.35 57.66 58.42 59.00 60.29 60.94 61.51 61.33 61.76 62.46 63.13 63.97 63.86 65.72 68.45 68.49 70.54 74.21 74.87 78.85 78.37 78.02 78.18 79.09 79.33 79.85 80.56 80.72 80.31 80.53 80.70 80.25 80.25 80.14 80.48
42.20 44.78 48.55 50.52 52.66 53.31 52.42 52.28 56.10 55.96 57.07 57.40 58.50 59.07 59.58 61.48 61.93 62.60 63.43 63.81 64.44 64.85 65.55 70.27 67.94 70.13 72.17 74.36 76.96 78.08 78.15 78.19 78.53 79.54 79.47 79.93 79.63 80.05 80.45 80.11 80.11 79.85 80.29 80.42
43.71 41.09 41.32 49.84 53.67 54.43 55.55 49.15 56.96 56.94 57.08 56.92 59.11 55.51 58.90 65.68 66.53 65.38 64.15 64.61 65.19 65.69 66.17 66.63 69.47 68.22 68.71 70.01 74.08 77.16 77.49 78.77 79.32 80.22 79.74 79.60 79.96 80.39 80.50 80.33 79.68 79.40 79.64 80.24
40.65 40.89 45.90 52.13 54.69 56.55 47.13 53.19 59.40 58.95 59.00 60.18 59.82 62.72 65.65 66.60 67.00 68.75 69.46 69.57 69.58 69.44 68.66 69.69 70.23 69.43 73.55 73.17 73.02 76.32 78.03 79.22 79.68 80.09 80.05 80.18 80.33 80.84 80.59 80.22 79.35 79.49 79.26 79.65
41.22 39.46 38.42 52.31 51.13 49.34 54.74 58.72 58.39 59.43 60.74 61.39 63.29 64.01 64.80 65.58 67.03 68.37 69.60 69.92 69.60 69.55 71.86 73.09 71.66 72.49 76.07 76.08 77.58 79.44 79.12 78.73 79.42 80.11 79.06 79.13 80.34 80.67 81.07 80.33 79.52 79.23 78.90 78.86
42.89 43.11 50.84 52.55 52.04 54.15 54.20 53.81 55.24 56.31 57.61 58.65 59.61 62.67 64.46 65.18 67.54 69.45 70.25 69.87 68.03 69.02 73.04 71.43 73.06 73.60 75.59 78.37 80.57 80.30 79.98 80.01 80.14 80.49 80.33 80.26 80.22 80.10 78.62 79.54 77.90 77.57 77.31 77.82
43.45 46.66 48.39 49.94 51.87 52.89 53.86 53.61 54.71 55.62 56.01 56.19 56.18 60.72 63.67 65.68 68.30 69.72 70.31 71.35 72.99 73.10 72.48 71.70 74.71 75.87 75.86 78.37 78.73 79.29 79.74 80.17 80.21 80.27 79.65 79.75 77.86 78.17 77.35 76.81 76.93 76.57 76.57 76.77
44.02 46.50 48.89 49.93 51.18 51.85 52.46 53.68 53.52 54.10 55.40 56.01 56.77 58.75 63.36 66.06 69.36 69.54 71.32 72.70 72.76 73.43 74.23 73.81 75.63 76.46 77.32 77.66 77.43 76.49 76.87 76.81 77.15 76.77 77.60 78.96 79.09 76.95 77.17 78.42 75.05 76.81 76.96 76.85
41.10 48.12 48.12 49.49 52.07 53.74 52.30 51.71 52.72 53.60 54.35 58.05 59.20 60.75 64.61 65.10 68.68 70.56 70.66 71.24 72.25 72.34 71.98 72.25 72.73 72.89 73.67 74.20 76.62 77.44 76.46 76.38 76.04 76.08 76.52 76.79 76.90 77.34 59.64 60.66 57.13 51.36 48.09 59.48
45.16 49.29 49.94 50.58 52.10 53.21 52.57 52.85 53.97 54.90 56.70 56.99 60.04 62.15 65.37 64.43 68.04 66.32 69.86 70.03 70.79 71.43 71.97 72.44 72.08 70.40 71.53 73.90 74.31 74.20 74.18 74.41 74.47 71.31 73.73 74.03 75.55 75.37 74.58 68.20 52.08 51.90 48.27 48.64
46.59 46.40 46.01 48.88 48.70 52.66 53.45 53.88 53.83 54.63 55.62 57.18 60.16 64.31 64.59 63.54 64.49 67.48 67.66 69.17 70.51 71.43 70.74 70.47 70.52 71.07 73.16 74.04 74.14 72.79 71.45 58.26 73.02 72.92 73.18 73.22 73.78 74.13 74.18 73.58 73.63 74.04 54.50 51.09
42.66 44.47 46.64 49.98 49.23 51.06 52.79 53.36 52.38 54.11 55.72 58.19 61.28 63.81 62.89 63.24 64.29 65.77 68.54 69.13 68.59 68.74 69.18 69.84 69.79 69.93 71.86 70.98 70.36 70.66 71.29 70.67 70.60 70.29 69.77 67.90 69.80 69.33 69.26 68.60 66.40 64.32 64.61 57.38
47.51 44.57 44.97 45.32 47.96 50.18 50.02 50.04 52.28 55.36 56.15 60.01 61.82 62.41 62.77 63.57 65.24 66.50 67.06 67.01 66.59 66.51 66.75 67.85 68.61 70.19 71.03 71.37 71.26 70.10 68.63 62.21 64.72 69.31 68.45 68.44 68.82 69.27 68.49 68.14 67.71 66.32 65.27 64.42
44.79 43.21 44.59 45.06 47.39 48.76 50.64 52.25 52.67 56.48 59.34 59.68 60.93 61.60 61.43 61.87 61.89 63.39 64.14 64.35 65.40 65.74 66.74 68.01 68.39 70.30 71.36 71.52 70.90 70.08 69.99 69.72 61.66 68.76 67.83 67.98 68.04 67.58 66.91 67.03 65.57 65.72 64.26 60.24
49.26 50.97 52.19 51.78 51.44 51.06 51.15 53.81 55.83 58.22 57.95 58.33 59.22 58.55 59.00 58.12 58.74 61.19 62.48 62.89 62.62 63.57 64.77 65.42 67.60 69.22 69.71 69.90 70.39 69.53 69.33 69.45 69.05 68.57 67.72 66.91 67.54 67.19 67.25 66.27 65.32 64.47 65.19 62.78
49.80 49.25 49.72 50.27 51.26 51.10 51.11 51.73 52.34 52.45 52.75 52.92 53.62 53.94 54.48 54.87 56.05 57.27 59.11 59.63 59.91 59.71 61.95 64.79 61.94 65.74 67.50 65.60 67.23 68.29 68.21 68.15 68.19 67.96 67.83 63.69 66.63 66.59 64.64 63.40 62.96 62.05 62.78 63.08
49.46 50.33 50.10 49.79 50.26 49.75 49.99 50.27 50.44 50.39 51.83 50.43 49.43 48.54 48.00 51.85 54.08 54.06 54.65 55.14 57.39 58.15 60.32 60.91 63.75 63.53 64.89 64.97 63.64 67.03 66.48 66.23 66.31 66.72 66.27 66.20 66.09 65.49 63.15 57.08 61.10 62.05 62.99 63.04
48.20 49.58 49.26 49.44 48.82 49.05 49.27 50.39 50.06 49.48 49.82 49.66 50.22 49.66 48.38 48.18 48.72 49.98 50.30 50.03 53.93 58.10 58.02 56.41 56.26 60.31 60.74 61.69 62.17 63.23 63.62 64.77 63.92 63.59 65.01 62.87 62.72 62.47 62.48 61.25 60.18 59.63 59.46 59.56
49.87 49.37 49.85 49.00 47.75 47.43 49.35 49.69 48.74 48.07 49.20 48.90 49.42 49.23 48.54 48.94 48.67 47.75 48.28 48.94 52.32 51.60 55.85 56.36 56.16 54.64 57.85 58.75 59.49 60.34 61.32 61.57 62.09 62.34 62.22 61.65 59.06 57.39 56.18 55.48 55.14 55.44 56.13 56.67
50.32 50.52 50.00 50.21 50.18 49.60 49.64 49.26 48.50 48.20 47.62 48.17 49.36 49.78 49.27 49.20 49.76 48.15 46.88 50.10 50.02 49.13 52.23 52.92 51.63 52.98 53.68 56.87 56.27 55.82 56.18 57.65 58.98 59.60 59.28 57.56 57.86 57.12 55.68 52.95 53.19 53.60 52.33 52.71
50.29 50.41 50.54 51.07 50.52 49.74 48.95 49.37 48.65 49.20 49.23 48.26 47.96 48.52 48.28 47.13 46.99 48.64 49.09 47.52 46.93 49.59 49.60 49.86 51.14 50.92 52.62 53.71 51.79 52.05 51.87 52.75 53.68 54.52 57.46 52.59 58.00 58.34 57.11 54.38 52.73 52.49 52.08 50.86
47.85 49.98 49.76 49.24 49.16 48.20 49.25 49.76 49.05 48.50 48.39 48.08 48.56 48.87 48.88 48.29 47.52 46.72 47.10 47.39 46.17 47.89 48.42 47.68 48.91 50.04 52.96 53.75 53.79 52.35 52.25 52.84 53.35 53.88 54.78 55.61 56.25 56.93 56.90 56.37 55.79 54.26 52.84 51.17
47.00 46.81 48.63 49.12 48.32 48.36 48.98 49.17 47.64 47.86 48.28 47.24 47.43 47.88 47.98 47.14 47.00 46.63 47.27 46.50 47.06 47.10 47.30 47.43 47.26 49.53 51.11 51.29 51.65 51.57 51.74 51.45 51.75 50.75 50.01 51.12 53.05 53.60 53.53 54.10 54.11 54.09 54.11 53.46
47.44 44.36 47.90 47.61 48.19 48.17 47.69 47.23 46.57 45.58 45.66 46.85 46.16 46.92 46.69 46.77 46.14 45.79 44.62 46.07 46.18 46.18 46.52 47.08 46.95 46.21 47.69 48.48 49.52 50.47 50.86 51.49 46.59 51.19 51.68 52.42 52.47 51.08 49.03 47.00 46.28 46.65 47.96 47.87

GFSNGP_sfc_wetblb_036.txt.gz
Wetbulb
52.05 53.88 53.85 51.79 51.21 51.92 51.65 53.22 50.44 52.23 52.85 56.10 59.00 59.57 61.32 62.56 64.95 65.73 67.18 68.50 70.42 70.58 72.05 73.02 74.14 75.03 75.69 76.09 76.17 76.47 76.22 76.82 77.09 77.46 78.11 78.21 78.22 78.41 78.80 78.44 78.14 78.52 78.44 78.47
49.62 52.54 53.09 51.87 52.20 52.14 52.35 52.32 53.03 53.42 53.73 58.44 60.36 62.00 61.78 63.04 63.35 64.46 65.37 66.17 68.44 70.22 72.55 75.45 74.61 75.56 75.27 75.88 76.49 76.80 76.05 76.34 76.97 77.42 77.60 78.30 78.08 78.27 78.54 78.70 78.62 78.48 78.30 78.09
44.20 50.72 51.36 49.08 52.35 52.69 53.03 53.85 53.48 52.02 56.59 59.53 59.41 60.18 61.12 61.70 61.92 61.96 61.86 63.35 65.44 68.63 70.74 72.41 73.69 77.17 76.51 76.33 77.38 77.27 76.28 77.06 77.14 77.43 77.35 77.69 78.50 78.21 77.96 78.29 78.72 78.28 78.43 78.47
43.78 47.74 41.64 52.25 56.61 55.54 54.32 54.73 55.45 56.38 58.30 60.18 61.72 62.34 62.49 62.69 61.98 63.18 63.76 65.88 68.21 64.92 67.80 72.98 70.34 70.56 75.28 77.73 77.32 76.88 77.74 77.24 77.92 77.89 77.52 78.11 78.21 78.17 78.38 78.49 78.45 78.21 78.38 78.57
42.28 44.00 49.12 51.82 54.23 54.02 53.16 53.50 56.77 56.83 58.34 58.88 59.50 59.94 60.15 61.47 62.20 62.95 65.43 66.82 67.42 65.90 67.32 74.29 71.81 72.45 73.47 74.44 77.41 77.35 76.53 77.53 77.60 78.27 78.01 78.02 78.01 78.03 78.51 78.73 78.38 78.68 78.59 78.61
43.43 40.84 41.31 51.04 55.10 56.73 56.63 49.63 57.94 57.35 57.05 57.21 58.19 53.76 60.82 66.06 66.68 67.17 68.47 70.14 70.99 70.91 71.10 69.70 75.50 72.42 74.92 74.11 75.45 76.40 76.59 76.76 78.10 77.98 77.91 77.73 78.25 78.68 78.95 79.13 78.67 78.83 78.57 78.90
40.83 40.46 46.77 51.06 53.53 56.13 48.30 51.08 59.21 59.77 60.00 60.15 58.88 62.68 64.89 65.91 66.27 67.70 69.37 70.48 72.03 71.87 71.26 75.35 76.01 74.84 76.67 74.33 73.73 76.01 77.49 77.84 78.20 78.31 77.86 78.21 78.72 79.35 79.30 79.10 78.90 78.56 78.42 78.69
41.17 39.84 38.94 52.83 52.62 49.31 54.86 57.00 56.46 56.97 57.41 57.98 59.35 60.92 63.41 64.72 66.22 67.62 69.37 70.75 71.07 71.66 72.34 73.08 78.34 77.68 76.09 77.35 78.82 80.68 78.99 77.83 78.13 79.22 78.04 78.38 78.83 79.13 79.26 78.97 78.28 77.92 77.83 77.68
43.07 43.25 53.64 54.05 52.33 54.09 54.18 53.87 55.24 54.90 55.65 56.25 55.94 56.64 58.65 62.02 66.07 68.11 70.47 71.78 71.84 71.09 72.52 73.56 78.60 79.07 75.93 80.17 82.01 81.40 81.24 79.96 78.66 79.62 79.09 78.33 78.99 78.41 78.25 78.66 77.80 77.48 77.11 76.88
43.19 46.48 48.39 50.27 52.06 52.90 53.40 52.86 54.13 54.78 54.42 54.65 54.94 56.05 57.10 59.96 63.78 67.29 70.52 71.85 74.14 74.08 74.70 76.56 77.92 77.39 78.98 79.32 80.50 81.26 81.54 81.35 79.93 79.45 78.59 78.95 78.16 78.55 77.66 77.55 77.47 77.35 77.09 76.47
43.25 46.48 49.35 50.15 50.93 51.97 52.41 53.21 52.93 53.48 53.76 53.84 54.43 54.93 58.35 60.54 64.97 65.56 67.89 72.21 73.36 74.07 75.38 76.01 77.38 77.00 77.21 78.53 80.24 79.12 79.55 79.64 79.96 78.94 78.15 78.83 78.73 77.53 78.07 78.47 76.17 77.44 77.32 76.86
40.69 47.16 47.85 49.92 51.79 53.23 52.21 52.07 53.60 53.54 53.42 54.70 55.53 57.10 59.43 60.64 65.55 65.89 68.45 71.46 72.78 73.64 73.47 73.31 73.39 73.68 74.68 75.85 77.51 79.26 78.35 77.34 76.64 76.69 77.19 77.59 77.73 77.58 63.40 63.73 56.87 49.42 49.42 61.70
42.69 47.26 47.50 49.46 51.69 52.35 52.09 52.89 53.98 54.38 54.85 54.70 55.85 57.12 58.73 59.58 65.72 64.60 67.56 70.67 71.20 72.23 71.56 72.89 72.75 71.32 72.43 75.21 75.84 76.54 77.06 78.41 77.17 74.08 77.04 76.58 76.22 77.04 76.02 59.96 49.05 48.87 46.52 46.52
42.35 43.12 43.25 45.81 46.83 51.18 52.04 52.88 53.70 54.35 54.31 54.73 55.06 56.47 57.32 58.71 64.72 65.22 66.23 68.91 70.24 71.35 70.55 71.31 70.81 71.39 73.60 74.79 74.35 73.78 73.31 59.10 74.45 72.67 73.20 73.56 73.35 72.81 73.14 72.67 72.98 71.60 53.42 53.18
47.37 46.71 44.45 47.30 48.64 50.37 52.37 52.82 52.08 52.28 53.44 53.84 54.93 56.76 58.13 60.11 63.65 65.10 67.07 69.10 68.03 68.24 68.22 70.92 70.07 71.03 71.81 71.71 72.47 73.66 74.77 71.76 71.48 70.29 70.14 68.41 70.54 69.73 68.84 68.68 67.73 67.30 67.99 60.42
48.02 46.88 49.45 45.13 47.25 48.90 50.72 51.43 50.95 51.64 52.61 53.06 55.23 57.60 59.73 64.50 64.32 65.33 66.15 67.82 66.34 64.78 66.97 68.21 69.41 71.92 72.03 73.06 72.06 69.88 69.18 63.35 66.71 70.04 69.37 69.85 69.63 69.24 68.92 68.36 68.36 67.47 65.57 63.08
47.45 44.75 42.82 43.74 45.98 48.43 49.42 51.01 51.54 51.79 52.33 53.38 56.68 57.77 62.46 63.74 62.39 61.98 63.92 64.17 64.47 64.55 65.74 67.36 67.87 72.01 72.63 73.11 73.94 70.83 68.73 69.65 64.83 68.75 68.52 68.69 68.84 68.31 68.07 67.59 66.39 66.05 64.95 58.96
48.73 49.88 49.70 49.18 48.70 48.80 49.60 51.67 52.36 53.35 53.01 54.86 57.66 59.96 61.28 58.44 57.43 59.16 60.69 61.17 61.49 63.54 63.74 66.11 67.34 70.44 69.51 69.62 71.44 70.41 69.92 69.44 69.09 67.45 67.29 67.22 67.59 67.03 66.39 65.32 64.04 63.64 64.12 60.85
47.79 47.49 48.43 48.47 49.54 49.62 50.80 50.86 50.58 50.43 49.97 50.42 52.39 53.30 53.10 54.28 54.66 55.27 56.19 55.74 55.81 55.85 56.60 58.49 61.57 65.22 65.60 65.96 68.22 68.49 67.69 67.78 67.84 67.27 66.58 64.61 64.98 63.77 62.91 62.18 62.28 63.58 64.16 64.16
48.25 47.54 47.77 48.56 48.58 47.99 48.19 49.30 49.52 49.98 49.94 48.69 48.15 47.54 46.65 47.51 49.91 51.06 51.10 49.79 52.02 53.65 55.56 56.00 58.96 59.77 62.42 63.88 64.34 64.79 65.69 65.43 65.45 63.55 62.41 61.54 61.66 61.88 60.47 56.35 59.10 59.97 59.58 60.60
48.53 48.38 47.35 46.86 46.38 46.92 47.20 47.88 48.54 47.92 48.21 48.60 47.70 46.92 46.72 47.40 47.47 47.65 47.21 46.90 50.30 51.33 53.06 54.83 55.06 57.15 58.18 61.16 62.97 63.25 63.20 63.37 62.25 61.61 60.56 59.86 58.27 56.68 55.64 54.92 55.06 55.31 55.93 56.88
48.72 48.53 49.00 48.25 47.21 46.05 46.35 46.69 46.16 47.50 48.44 48.06 47.88 48.10 47.01 45.81 46.24 46.20 47.37 46.86 48.58 49.72 50.20 51.54 53.63 54.49 55.39 56.92 56.70 57.65 59.76 60.42 60.15 60.11 60.64 59.42 57.14 55.11 54.27 54.86 54.17 53.77 53.72 54.68
49.30 48.61 49.46 48.78 46.95 46.67 47.55 46.30 45.51 45.74 44.83 46.31 47.01 45.82 46.23 46.33 45.83 43.95 43.53 48.52 48.90 48.01 48.56 49.41 51.11 52.79 53.14 53.18 54.13 54.01 54.01 53.92 54.81 58.72 58.89 58.54 56.50 54.52 52.80 53.53 53.75 53.29 52.55 51.40
47.75 48.71 48.68 49.72 50.79 47.75 45.28 45.56 46.35 47.69 47.82 47.07 46.31 46.25 46.87 44.91 44.69 46.96 46.51 46.83 47.26 47.69 47.14 47.34 49.43 50.77 51.79 52.59 51.77 51.46 52.78 53.06 52.63 53.32 53.52 50.77 55.79 55.68 53.63 52.42 51.58 51.50 50.68 50.07
48.39 49.59 48.70 48.97 48.71 47.90 48.43 49.05 48.49 48.21 47.71 47.34 47.45 46.77 46.60 47.05 46.03 46.96 47.53 47.47 46.44 47.66 46.95 47.26 48.40 49.95 51.44 51.86 52.49 51.98 51.08 50.88 50.82 50.99 50.85 50.79 52.44 53.11 53.04 53.29 53.38 52.46 50.89 49.07
47.55 47.14 47.88 49.35 47.38 47.09 46.98 47.12 45.32 44.80 45.65 45.24 45.40 45.91 46.17 46.15 46.20 45.74 47.23 46.31 46.60 46.31 46.98 45.91 46.25 48.38 49.52 49.89 50.51 50.94 50.68 51.17 51.94 51.50 49.61 48.88 47.39 46.10 45.71 46.87 47.24 46.81 47.61 48.44
47.32 44.72 47.36 47.10 47.37 46.94 46.40 45.46 44.45 43.43 44.07 45.33 44.02 45.35 45.39 45.36 45.57 45.41 45.05 45.85 45.72 45.84 46.23 46.76 46.33 46.67 47.05 47.12 47.37 48.26 48.94 49.36 45.94 50.40 50.81 51.35 51.26 50.04 49.18 47.87 46.27 44.71 43.45 42.46

GFSNGP_sfc_wetblb_039.txt.gz
Wetbulb
46.59 48.96 49.72 50.70 48.82 49.27 46.99 46.99 44.73 45.74 46.99 50.64 52.28 55.14 57.06 58.21 59.32 61.02 61.82 64.31 66.48 68.84 69.61 70.78 71.10 71.00 71.47 71.73 72.43 73.48 74.27 74.77 74.85 75.30 75.28 75.32 75.25 75.67 75.50 74.40 75.96 75.46 75.83 75.56
43.25 49.38 50.84 49.70 51.40 50.29 49.60 49.26 48.50 48.92 47.23 54.33 55.99 57.65 58.00 58.58 58.69 57.83 59.38 62.41 63.49 66.18 69.16 70.34 71.35 71.62 71.99 72.13 72.45 73.07 73.78 74.19 75.42 75.15 75.19 74.91 75.16 75.21 75.84 75.71 74.77 75.31 75.26 75.41
37.91 46.76 47.32 44.22 49.29 50.78 50.07 50.99 49.73 46.72 49.24 54.66 54.00 56.97 56.48 57.53 57.99 57.53 58.18 59.47 60.07 60.45 63.60 67.66 70.92 72.26 72.28 72.94 73.35 73.05 72.83 73.99 74.76 75.02 74.74 75.02 75.16 75.45 75.24 75.69 76.09 75.21 75.17 75.69
37.22 42.28 35.54 46.69 53.08 53.92 51.45 51.95 52.01 51.41 55.52 55.72 57.45 59.32 59.68 58.98 57.26 58.32 60.06 60.52 60.45 60.12 61.54 62.68 67.79 72.92 73.17 73.31 73.24 73.10 72.89 73.02 74.08 74.60 74.83 75.06 75.30 74.85 75.62 75.82 75.87 75.95 75.85 75.73
36.56 40.03 43.79 49.16 51.20 50.83 49.47 50.66 54.52 55.70 56.95 57.25 59.67 61.10 60.21 62.88 63.87 63.32 63.83 64.91 65.51 65.63 65.22 64.84 64.72 65.73 73.46 73.00 73.43 73.47 72.94 73.16 73.81 74.80 74.49 75.03 74.84 75.32 75.62 75.63 75.72 75.97 76.56 76.31
38.42 37.68 38.00 45.68 49.38 51.95 53.20 45.56 53.58 55.22 57.41 56.89 59.84 54.96 56.75 61.96 63.72 64.56 65.43 66.01 66.55 66.80 66.42 66.43 66.79 66.98 70.09 73.20 73.16 72.93 73.72 74.59 74.89 74.99 75.02 74.49 75.04 75.32 75.96 76.27 76.02 76.40 76.06 76.77
37.02 36.88 41.35 46.56 50.24 54.61 45.07 45.88 51.72 52.58 53.06 52.89 50.97 53.50 57.18 62.80 63.23 64.77 66.13 66.62 67.08 66.43 66.11 66.94 67.56 66.91 67.18 67.85 72.13 73.83 73.66 73.42 74.84 75.63 75.49 75.66 75.49 75.99 76.15 76.30 76.38 76.21 76.09 76.57
35.88 36.69 35.72 47.91 49.06 44.22 50.48 51.90 51.23 50.70 51.40 51.49 52.08 53.71 54.80 56.57 61.58 64.63 64.34 67.31 68.51 66.28 65.71 66.58 66.61 67.66 66.32 66.11 70.71 72.12 72.88 73.43 73.91 74.42 75.18 75.64 75.44 76.02 76.38 76.37 76.02 75.99 75.93 76.12
38.10 38.28 45.58 47.24 46.74 49.92 50.56 48.93 49.68 49.44 50.20 50.48 51.10 51.72 54.28 55.37 58.55 62.40 63.14 63.90 69.27 69.92 70.46 70.50 66.74 68.02 67.03 71.28 72.82 74.45 72.82 73.18 73.50 74.77 75.25 73.57 75.45 75.22 76.15 76.34 76.31 75.88 75.72 75.63
37.94 41.76 43.56 47.14 49.16 50.61 50.65 49.86 49.53 49.98 49.91 50.45 49.30 51.23 52.77 55.05 56.59 60.73 62.59 63.80 68.12 69.55 70.64 72.80 73.16 73.40 73.11 73.91 72.94 71.29 73.55 75.01 74.39 74.92 75.02 74.47 75.87 76.21 76.07 76.25 75.78 75.68 75.24 75.18
38.31 41.53 43.41 46.99 45.95 48.31 48.69 49.71 50.88 51.44 51.32 50.76 50.41 51.42 52.46 53.51 54.71 61.38 62.24 64.09 66.41 67.66 69.61 70.51 71.81 71.39 71.84 72.08 73.21 74.30 72.09 75.84 74.97 75.05 74.81 75.04 74.55 75.06 75.62 75.64 74.56 75.65 75.65 75.53
34.04 40.40 40.08 41.25 45.07 46.25 46.06 47.07 49.70 50.35 51.86 53.34 51.98 52.21 53.56 52.59 54.06 61.43 62.29 63.52 65.08 66.87 68.72 69.29 70.03 69.54 69.15 69.89 71.54 72.35 73.82 75.06 74.77 74.34 74.69 75.11 75.14 72.84 52.08 53.75 53.67 51.52 49.95 64.98
38.63 42.02 42.02 43.01 44.68 45.88 45.34 46.69 49.62 50.28 51.00 50.70 51.79 52.37 51.44 51.03 51.58 56.21 62.58 63.35 64.23 66.10 68.12 69.03 68.90 68.49 68.62 69.84 71.29 69.88 69.66 72.41 72.36 71.12 72.97 74.30 74.37 74.52 65.93 56.19 46.90 46.38 48.64 48.15
46.83 43.07 41.02 42.65 41.93 46.39 47.95 48.95 50.92 51.02 51.27 51.62 51.66 51.74 51.75 52.18 52.00 55.87 61.60 63.35 64.69 66.29 68.29 68.47 68.70 68.88 69.61 70.75 70.13 69.42 68.39 60.52 67.90 68.75 68.51 69.45 69.45 69.43 69.47 65.63 65.46 62.13 49.60 49.91
47.55 47.52 44.19 45.91 46.62 46.75 48.14 47.59 46.88 48.84 49.83 50.60 51.33 50.61 51.28 52.81 53.06 57.03 63.29 64.89 66.32 66.22 66.15 67.30 67.32 67.23 68.45 67.59 67.92 67.31 69.77 66.94 66.58 65.95 66.38 65.65 65.96 65.87 65.68 64.56 63.44 63.06 59.93 52.78
48.14 47.93 45.65 45.04 47.19 47.03 46.57 47.63 46.68 48.23 49.13 49.50 49.86 50.04 51.21 54.30 54.51 61.11 62.48 64.13 64.85 64.60 65.62 66.28 66.16 67.25 68.56 68.35 66.75 65.51 64.10 63.10 64.50 65.33 65.38 65.35 65.34 64.47 63.70 63.33 62.73 61.00 58.51 57.28
42.98 43.59 46.27 44.44 45.19 45.78 46.60 47.35 48.41 48.93 49.43 49.38 49.84 51.95 53.54 54.29 55.65 60.40 61.30 63.72 61.76 56.66 56.71 58.03 61.45 67.29 66.43 65.87 68.50 65.91 64.86 64.44 63.92 64.54 64.08 64.20 63.99 63.85 63.29 62.37 61.36 60.81 57.97 54.85
45.12 45.82 46.37 46.05 46.51 48.11 49.24 49.85 49.34 50.16 50.68 53.03 53.39 53.17 53.44 54.01 56.21 54.63 55.00 56.69 56.39 54.55 54.75 55.95 58.87 62.00 64.68 67.08 67.26 67.26 64.94 64.40 64.13 63.55 62.67 62.22 61.73 61.56 61.45 61.20 60.73 60.32 59.41 58.01
45.79 45.22 45.93 45.68 45.75 46.39 48.67 48.58 48.37 48.58 50.10 49.79 49.41 48.69 49.52 49.99 50.10 49.86 50.47 50.54 51.52 51.72 52.79 54.54 57.45 56.71 61.08 64.08 65.43 65.18 63.66 63.09 62.70 62.32 61.56 58.98 59.81 59.24 59.48 59.93 59.50 59.15 59.09 59.86
45.98 45.88 45.90 46.14 46.34 45.50 45.31 47.88 48.28 47.80 48.52 48.37 47.72 46.52 45.99 47.05 48.34 48.41 48.23 46.92 48.04 50.47 53.50 54.06 54.64 54.81 55.34 59.60 63.16 62.81 62.84 61.31 59.64 58.61 57.88 57.62 56.67 56.09 55.67 52.51 55.31 56.15 56.40 56.62
46.79 46.23 45.50 45.29 45.08 45.76 45.67 45.94 46.16 45.19 45.94 46.59 45.56 45.20 45.09 46.01 46.87 47.12 46.19 45.33 47.25 49.67 52.22 53.10 53.29 54.05 55.23 56.19 55.11 56.51 60.98 60.10 58.76 56.86 55.97 54.92 54.70 54.55 53.90 53.66 53.48 53.11 53.01 53.26
47.12 46.87 45.95 45.08 44.04 43.98 45.80 45.75 45.25 45.68 45.23 44.66 45.37 45.07 43.81 43.43 44.40 45.54 46.60 45.42 46.46 48.12 49.60 51.46 52.19 53.35 52.93 54.73 53.49 53.60 53.88 58.02 58.24 56.70 54.52 53.88 53.97 53.37 52.56 52.54 51.77 51.31 50.19 49.10
46.00 47.54 46.41 45.54 45.39 44.56 44.85 45.46 45.01 44.50 44.22 45.55 44.09 43.43 43.57 44.33 44.69 42.93 42.35 46.76 46.71 46.41 46.73 49.77 51.84 51.96 51.80 50.80 50.76 51.03 51.28 51.81 51.71 54.21 53.67 51.63 50.89 50.59 49.34 48.61 48.79 48.33 48.67 48.07
45.57 46.63 47.04 46.61 45.89 44.37 43.27 44.96 45.97 45.65 45.10 44.91 45.30 45.62 44.27 42.97 44.07 45.96 46.02 46.13 46.66 45.51 45.15 46.91 50.24 51.71 51.11 50.67 50.32 50.11 50.01 50.20 50.05 49.31 50.15 49.05 51.87 50.61 49.64 48.46 46.54 45.36 44.38 43.62
46.57 47.15 46.04 45.28 44.92 43.86 43.95 43.66 42.27 43.24 43.87 43.81 43.17 43.25 43.66 44.66 43.73 45.07 45.67 45.73 46.03 44.83 44.16 46.54 48.46 48.86 49.09 50.25 50.15 49.99 49.53 49.53 49.08 47.96 46.89 46.51 46.00 46.27 45.19 44.04 43.07 45.37 44.90 43.36
45.12 45.67 46.34 45.20 43.70 43.55 43.09 42.17 40.84 41.48 42.26 41.26 42.06 42.69 42.62 42.75 43.12 43.62 43.59 44.44 43.78 44.48 42.95 43.97 44.62 45.39 45.23 46.30 47.20 47.02 46.31 46.28 48.39 47.37 46.00 45.53 44.77 43.53 42.72 42.58 41.59 40.42 40.36 39.70
44.11 43.10 43.32 43.02 44.52 44.37 43.25 41.72 40.73 40.32 41.15 40.96 40.47 42.18 42.70 42.89 43.16 42.74 43.30 43.01 43.09 43.37 43.34 43.43 44.20 44.50 44.56 45.15 45.15 44.88 44.97 45.13 42.85 45.25 46.59 46.47 45.46 44.32 43.14 42.14 41.52 41.68 41.38 40.91

GFSNGP_sfc_wetblb_045.txt.gz
Wetbulb
32.56 34.54 35.17 34.44 34.67 36.91 38.26 42.30 41.01 42.36 41.07 44.95 45.56 47.33 51.68 53.94 51.55 52.34 60.29 63.85 65.44 66.17 66.29 67.13 67.41 67.80 68.93 69.63 70.60 70.67 70.36 70.46 70.71 71.96 72.20 72.08 71.22 70.85 71.88 73.00 72.26 71.73 71.46 72.57
30.85 35.15 35.85 34.04 38.50 41.05 42.10 45.43 42.76 42.06 42.67 45.08 53.80 56.14 57.79 57.14 53.41 53.35 62.00 64.37 65.80 66.50 66.64 66.79 67.32 67.45 68.43 69.51 70.68 71.25 70.70 70.47 71.30 71.51 72.23 72.38 72.28 71.87 70.85 71.88 73.11 71.98 71.24 71.64
25.46 33.98 35.94 36.76 40.95 43.23 45.87 44.06 44.09 41.26 43.89 52.03 55.25 57.24 57.89 58.96 58.06 55.64 60.61 64.12 65.66 66.31 66.71 67.18 67.52 68.14 68.00 69.47 70.84 71.30 71.18 71.38 71.62 71.71 71.59 72.30 72.92 72.70 71.62 71.16 71.74 72.63 72.61 71.94
26.26 30.59 33.05 40.71 44.98 45.52 43.55 43.71 44.74 45.81 50.92 56.31 57.81 59.05 59.36 60.62 61.11 61.58 59.74 62.47 65.65 67.12 67.42 67.86 68.37 68.37 68.62 69.54 69.69 70.78 71.30 71.51 72.10 72.23 72.00 72.18 72.47 72.86 72.83 72.47 71.72 71.63 71.63 72.69
27.03 28.57 40.28 41.23 42.09 41.72 39.93 40.11 45.15 44.75 47.88 54.47 59.26 59.56 58.28 57.83 61.13 62.79 64.65 60.75 61.23 65.09 66.28 66.93 68.23 68.42 68.18 68.75 69.22 69.74 70.41 71.20 72.05 72.52 72.35 72.74 72.31 72.51 73.12 73.32 72.89 72.49 72.51 71.64
31.44 29.93 33.36 38.78 42.94 47.01 47.73 35.71 45.56 45.49 46.03 49.33 55.45 52.29 50.81 54.96 59.87 62.24 66.19 67.28 63.36 62.56 64.36 67.19 67.68 68.59 68.09 68.05 68.37 68.41 69.99 71.07 72.19 72.57 72.80 72.58 73.09 72.95 73.45 73.35 73.30 73.82 73.72 73.74
31.60 31.36 37.31 42.86 43.54 47.82 36.12 36.55 44.39 44.99 44.59 46.33 46.17 47.62 52.93 55.55 59.39 60.92 63.40 66.51 69.95 68.56 64.03 62.66 63.92 69.22 68.55 68.64 68.32 69.75 69.79 70.23 71.32 72.61 72.93 73.49 73.37 73.62 73.42 73.05 73.35 73.05 73.18 73.79
34.43 34.26 33.85 43.60 44.86 39.42 40.01 44.92 44.62 43.93 44.81 44.80 48.45 52.08 52.70 52.03 56.27 59.75 60.63 64.05 67.04 69.23 69.08 68.42 64.01 66.09 66.09 67.07 68.42 69.47 69.86 69.76 70.09 71.06 72.91 73.51 73.41 73.22 73.22 73.10 72.54 72.52 72.79 73.12
34.22 36.12 42.21 43.51 44.70 45.47 45.08 43.39 43.68 43.10 44.70 47.32 49.27 50.57 51.15 50.63 50.13 53.89 59.99 62.00 64.61 65.81 67.96 69.14 69.32 69.42 68.53 68.59 71.11 69.73 69.58 69.81 70.08 70.79 71.31 72.61 72.67 72.82 72.70 72.78 72.53 72.46 72.47 72.34
34.66 37.33 38.62 42.33 45.01 45.01 45.42 44.71 45.53 46.12 45.92 46.72 47.08 49.87 49.70 49.88 50.08 50.09 54.21 60.14 62.70 63.66 64.77 66.29 67.44 67.40 67.05 67.49 69.05 70.19 69.63 69.13 70.09 70.97 70.95 72.10 72.91 72.92 72.81 72.68 72.26 72.28 72.39 72.62
35.74 38.20 40.70 43.48 44.43 45.52 46.09 46.37 46.47 47.13 46.98 46.65 47.15 48.66 47.25 48.56 50.18 51.53 52.90 57.19 61.32 61.83 62.44 64.20 66.12 65.52 66.18 67.70 68.36 68.26 68.92 69.23 69.27 70.28 68.68 70.26 65.47 65.16 71.77 72.97 70.83 72.90 73.05 73.53
34.42 40.67 40.68 41.19 44.28 46.43 45.09 45.59 46.21 45.82 45.95 47.20 47.33 48.78 49.65 48.12 49.80 51.20 54.72 57.05 60.69 61.29 62.32 63.55 65.22 65.17 66.03 68.02 68.60 67.06 66.84 66.90 66.56 69.92 70.12 69.54 64.03 59.78 48.96 47.04 46.26 48.69 53.40 66.71
40.87 44.32 45.39 46.08 47.47 47.70 45.30 46.16 47.17 47.08 47.35 46.61 47.63 49.48 50.07 48.22 49.71 51.50 52.48 55.54 59.33 60.11 61.98 63.71 64.46 64.83 65.79 67.59 67.61 66.05 64.65 66.12 65.36 65.00 70.78 70.33 66.14 64.57 58.72 54.60 47.71 44.68 44.61 47.73
44.05 44.04 42.42 45.30 44.56 46.23 46.96 47.65 48.40 48.78 49.03 49.11 48.88 49.96 50.36 48.92 49.95 49.99 50.97 53.91 59.53 61.25 62.57 63.75 64.68 64.23 64.85 64.66 64.59 64.28 64.01 59.99 64.92 66.67 69.69 71.62 69.15 64.29 61.37 61.51 59.01 56.71 48.67 47.06
43.10 44.03 43.54 44.63 45.59 46.24 47.65 47.30 45.89 45.89 47.53 48.29 48.80 49.18 49.67 50.06 49.35 50.58 54.46 57.87 59.67 59.04 56.64 56.76 59.65 63.36 63.44 65.36 65.08 63.79 63.53 64.70 64.35 63.96 64.11 66.16 68.20 64.87 63.73 61.17 59.25 57.96 58.16 53.39
42.70 43.40 43.38 42.86 43.79 46.05 47.19 46.10 45.75 45.69 46.76 47.63 47.46 48.47 51.14 53.32 53.02 53.90 53.70 53.90 54.40 51.72 52.08 52.72 53.52 55.52 56.35 60.97 63.15 64.23 62.84 60.84 61.75 63.69 63.75 65.27 65.68 64.87 62.73 60.34 59.75 59.83 59.47 58.97
39.90 39.99 41.33 41.24 41.99 42.87 44.26 47.27 48.04 48.14 47.22 46.76 47.22 50.50 53.31 54.46 51.61 52.79 53.01 52.56 51.64 51.08 50.30 50.35 51.39 54.07 55.30 57.05 61.39 63.43 62.72 61.89 60.35 61.62 61.22 62.11 62.64 61.69 60.96 60.39 59.56 58.56 56.35 53.16
42.89 43.29 41.99 42.88 42.13 42.42 42.90 43.89 45.15 46.29 47.66 49.52 49.58 50.08 49.86 49.40 49.36 48.53 46.93 50.02 50.42 49.75 50.25 51.02 51.96 54.42 54.83 57.45 62.34 62.27 61.17 60.12 60.11 59.83 60.00 60.13 60.33 60.66 60.63 60.19 59.69 58.39 57.61 54.86
43.37 42.19 42.49 42.34 43.21 42.92 42.77 42.79 43.25 44.27 44.94 46.51 47.04 46.70 47.42 47.98 48.77 48.77 48.58 47.37 47.15 47.98 49.69 51.39 54.01 53.61 53.80 56.23 62.63 61.79 60.66 59.81 58.98 57.81 57.47 55.71 57.26 57.48 56.90 56.35 55.89 55.97 56.07 55.25
42.75 42.80 42.64 42.29 42.79 42.42 42.13 42.73 42.64 42.18 42.57 43.59 44.12 43.77 43.94 44.83 45.59 47.39 47.82 46.08 45.94 46.65 50.68 51.80 50.92 51.13 52.76 55.85 59.70 59.47 59.33 58.82 57.64 56.39 55.71 55.59 54.75 53.39 52.11 49.53 51.92 51.35 51.00 50.27
41.32 41.96 41.86 41.74 41.80 42.82 43.02 42.85 42.22 41.54 42.42 42.41 41.41 41.01 41.90 43.52 44.90 44.85 44.30 45.00 46.01 47.94 51.00 52.32 51.79 51.71 52.13 55.55 57.62 56.59 56.25 55.49 54.98 54.60 53.81 53.04 52.49 51.61 50.57 49.78 49.14 48.65 48.02 47.64
42.85 41.66 41.12 41.67 41.87 42.66 43.31 43.13 42.34 41.78 42.02 41.58 41.74 41.50 41.54 41.27 42.60 44.01 45.33 44.00 46.27 48.73 50.52 50.96 51.71 52.76 52.81 54.50 56.54 56.05 55.77 55.19 54.23 53.61 52.77 51.87 50.70 49.62 48.88 47.90 46.92 46.38 45.81 45.35
42.58 42.77 41.66 41.47 41.13 41.70 44.16 43.51 43.20 41.85 41.40 41.64 41.02 41.41 41.58 41.85 42.48 41.52 41.88 45.93 47.24 47.98 48.23 48.48 49.58 50.96 51.41 50.49 50.36 51.16 50.61 49.63 48.82 47.86 47.35 46.95 46.26 45.39 44.63 44.24 44.15 43.79 42.26 40.96
40.28 41.52 41.62 41.86 41.82 41.74 39.72 42.00 42.72 42.48 40.62 40.94 41.27 42.26 42.48 41.46 42.22 44.53 45.82 45.78 46.17 47.48 47.35 47.26 47.33 47.89 48.45 49.37 48.97 48.30 48.09 47.53 47.46 47.13 46.79 44.58 44.78 43.63 41.90 40.95 40.09 39.58 38.51 37.43
38.10 38.47 39.96 40.22 39.58 37.25 34.93 36.86 38.41 40.83 39.79 38.60 39.90 41.01 42.47 42.52 42.31 42.53 43.72 45.31 45.98 46.37 46.45 47.20 47.24 46.53 45.93 46.24 47.24 46.24 45.39 45.35 44.98 44.48 43.80 43.18 42.39 40.91 40.20 39.68 39.03 38.49 37.97 37.33
34.26 33.98 33.46 34.74 34.74 33.54 33.75 34.75 34.93 36.45 36.23 36.51 37.47 38.44 39.88 40.40 40.09 41.80 42.64 43.43 43.50 45.28 45.05 45.34 45.37 45.19 44.94 44.29 43.92 44.20 44.38 44.63 44.63 43.79 43.08 42.79 42.47 41.95 41.35 41.00 40.47 39.42 38.65 37.84
33.91 36.13 34.42 34.39 34.12 34.08 34.60 34.64 33.76 33.40 35.21 35.80 35.83 37.36 38.22 39.41 39.65 39.47 41.15 40.48 39.79 40.97 42.65 43.73 44.10 44.26 44.06 43.69 43.16 42.73 42.34 41.96 41.28 43.31 43.96 43.62 43.28 42.65 41.84 40.92 39.61 38.48 37.71 37.17

GFSNGP_sfc_wetblb_048.txt.gz
Wetbulb
31.94 33.77 34.42 33.96 34.08 35.61 33.68 35.02 33.72 41.63 40.67 43.80 47.07 47.74 49.41 53.36 53.80 53.66 53.98 54.75 62.10 64.15 64.88 66.18 67.49 67.49 68.71 69.23 69.41 69.79 69.25 69.88 70.06 70.66 70.98 71.30 71.71 72.47 72.66 71.17 70.99 71.59 71.42 71.71
29.61 34.22 34.75 33.60 36.50 37.59 37.76 38.03 38.72 40.39 40.94 47.07 53.15 56.78 58.31 59.04 60.16 59.75 56.90 54.16 58.47 64.13 65.48 66.15 67.28 67.61 68.26 69.08 69.48 69.81 69.12 69.35 70.68 70.84 70.98 70.82 70.79 70.85 72.05 72.78 72.23 71.97 71.55 71.83
24.83 31.67 32.52 32.64 37.43 40.78 41.25 41.81 42.10 39.57 43.29 49.09 55.33 56.97 56.08 56.78 58.58 60.36 61.56 57.50 56.51 63.66 65.76 66.74 67.40 68.10 67.65 68.75 70.00 69.62 69.20 69.62 70.10 70.86 71.18 71.45 71.63 71.18 70.67 71.10 72.54 72.38 72.08 72.09
25.35 29.33 27.22 38.04 45.08 45.12 41.56 41.85 42.32 43.27 46.07 55.83 57.44 57.48 56.86 56.21 55.74 59.77 63.14 62.17 62.46 65.17 66.45 67.19 68.26 68.43 68.56 69.36 69.87 69.87 69.66 69.95 70.66 70.90 71.17 71.89 72.04 71.86 71.82 71.36 71.04 72.25 72.59 72.29
26.94 27.62 33.86 41.01 41.24 40.34 40.16 38.64 43.00 41.83 43.62 49.27 53.76 56.99 57.22 56.43 57.29 60.04 63.08 66.09 61.52 65.21 66.04 66.90 67.77 68.15 68.16 69.00 69.53 70.07 69.86 70.37 71.03 71.40 71.28 71.73 71.89 72.16 72.70 72.20 71.88 71.58 72.29 72.90
31.64 27.81 32.12 38.52 41.67 44.80 45.68 35.50 43.46 42.44 42.51 44.57 55.02 52.46 52.35 53.27 57.02 60.30 63.41 66.90 65.28 65.68 65.87 65.98 66.61 67.64 67.77 68.30 69.00 69.81 70.52 71.28 72.12 72.26 72.05 71.66 71.91 72.41 73.26 73.52 73.01 72.88 72.60 72.75
28.30 29.75 34.70 40.07 40.50 45.94 37.87 36.66 43.16 42.59 42.79 45.59 46.92 49.68 51.63 51.90 53.03 57.38 61.87 65.10 68.32 65.19 65.04 66.49 67.34 67.66 67.37 68.01 68.12 70.08 71.38 72.13 72.27 72.86 72.77 72.87 72.93 73.17 73.19 73.28 73.63 73.71 73.54 73.86
31.01 31.11 32.83 41.16 43.00 38.58 40.04 42.73 42.97 42.88 43.69 44.01 47.03 50.09 51.16 51.85 51.99 54.27 58.64 62.79 65.61 68.38 68.34 66.83 67.04 67.91 67.21 67.42 69.22 69.76 70.51 71.13 71.89 72.46 73.14 73.36 73.22 73.62 73.65 73.42 72.95 73.11 73.11 73.34
34.21 33.87 40.14 41.67 42.21 43.36 44.05 42.52 43.51 43.75 45.58 45.92 46.01 48.31 50.08 51.60 53.52 55.67 57.75 61.00 63.40 65.50 66.94 67.73 69.37 70.51 69.93 70.67 71.09 70.21 69.36 69.58 70.49 72.08 72.64 73.53 73.26 72.98 72.99 73.38 72.71 72.51 72.60 72.65
34.29 37.96 39.82 42.67 44.82 45.16 45.88 45.07 46.10 47.10 46.76 46.85 45.65 47.69 49.32 51.40 52.36 55.20 58.45 59.72 61.66 63.18 64.34 65.56 66.41 67.55 68.08 69.63 71.70 71.12 70.65 70.19 70.15 69.97 70.86 72.74 73.50 73.65 73.11 72.87 72.53 72.65 72.53 72.44
34.80 39.53 41.82 44.05 44.95 45.27 46.53 47.12 47.16 48.20 47.75 47.08 47.03 46.58 49.20 50.47 52.03 52.18 55.80 59.49 60.93 61.59 63.21 64.57 66.12 66.97 68.84 69.86 70.13 69.81 70.14 71.10 71.54 71.61 70.47 71.35 69.86 69.42 73.03 74.12 70.69 72.98 73.28 73.60
34.65 40.70 41.40 42.27 45.79 47.77 46.68 46.03 46.89 47.24 47.35 48.42 48.44 47.13 48.88 50.01 52.08 51.26 52.03 56.31 59.60 61.67 63.03 64.55 65.65 66.35 67.62 69.03 69.16 68.73 68.47 68.79 68.17 71.69 70.70 71.57 64.95 61.17 49.01 47.75 47.40 48.85 53.20 66.94
40.33 43.05 43.91 44.54 45.91 46.44 45.63 47.01 47.44 47.44 48.05 47.50 49.11 48.93 49.03 49.57 51.01 52.27 51.91 54.61 58.33 60.75 62.20 63.08 64.98 65.23 65.46 65.92 66.94 66.94 66.41 67.37 67.77 65.52 72.01 69.18 67.06 66.30 63.29 54.64 45.85 43.56 44.14 49.58
43.67 43.10 41.54 43.62 42.93 46.23 46.89 47.76 48.34 48.42 48.47 48.42 48.43 49.15 49.30 49.47 51.46 51.12 53.18 55.22 58.83 59.70 58.21 58.63 60.34 63.85 61.02 63.65 65.90 65.15 66.21 58.22 66.77 67.24 69.14 71.62 68.34 67.28 64.59 64.13 64.65 59.61 47.40 46.70
41.90 43.51 42.77 43.90 43.93 44.12 45.87 47.51 46.81 46.34 47.65 47.66 48.88 48.65 48.75 48.87 51.18 51.98 55.55 57.27 57.45 57.30 55.84 55.37 56.29 57.69 57.02 58.24 61.99 65.39 65.19 66.83 66.53 66.63 66.99 69.31 67.87 65.29 64.44 62.81 61.22 58.93 58.26 53.58
42.41 42.59 42.96 41.71 42.32 42.83 43.16 43.99 44.86 45.78 47.38 47.50 48.26 48.10 48.40 51.26 54.12 55.77 55.55 54.14 53.42 54.16 53.32 52.91 53.88 54.76 55.66 57.04 58.34 62.92 65.12 60.56 62.52 65.72 66.36 67.22 66.45 64.93 62.13 60.85 61.38 61.16 61.07 59.96
38.87 38.82 39.92 40.64 41.12 41.59 41.77 42.27 42.84 44.12 45.67 48.60 49.24 50.40 51.91 51.77 52.76 51.02 50.41 50.52 50.84 51.87 51.39 51.17 51.37 53.28 55.67 57.28 58.59 62.61 64.48 64.04 60.77 63.51 64.08 64.17 62.98 61.73 61.64 61.42 60.79 58.33 56.63 53.89
42.09 41.90 42.51 42.08 41.65 41.23 41.27 41.88 41.92 42.11 42.84 45.38 47.11 47.29 47.04 46.88 47.53 48.12 48.48 49.52 49.90 50.20 50.97 51.26 52.16 54.15 54.41 55.62 57.64 61.86 63.82 62.90 62.70 62.36 62.38 62.28 62.11 61.82 61.19 60.06 58.83 57.01 56.05 52.75
42.69 41.36 41.39 41.37 41.43 42.00 41.81 41.78 42.07 42.37 42.63 42.83 43.29 43.62 44.63 45.03 45.66 47.26 48.39 46.99 46.34 46.36 48.65 50.04 53.84 53.20 52.65 54.53 58.37 62.60 62.66 61.67 60.64 60.43 60.37 57.76 60.01 59.92 59.09 58.00 57.01 55.69 54.12 52.79
42.27 42.59 42.10 41.71 42.05 41.58 40.80 41.88 42.76 42.19 42.44 42.30 42.34 41.80 42.11 43.50 45.39 45.28 45.95 46.14 45.76 46.76 50.10 51.80 53.00 52.54 52.76 54.21 58.65 61.80 61.21 60.39 59.24 58.55 58.32 58.07 57.34 56.17 54.37 50.81 53.41 52.16 51.01 50.20
42.08 42.23 41.92 41.57 40.99 41.81 41.95 41.71 40.96 41.34 41.71 42.02 41.53 40.83 41.27 42.37 44.17 44.75 43.53 44.04 46.45 48.32 49.06 49.83 51.28 52.42 53.51 56.33 57.74 58.02 58.24 58.14 57.01 56.43 55.73 54.23 53.25 52.34 50.98 50.31 49.80 49.08 48.27 47.78
42.11 41.59 41.31 41.66 41.31 41.25 42.15 42.21 41.98 41.18 41.72 41.54 41.85 42.07 41.57 41.77 42.64 42.98 43.58 43.34 46.75 48.26 47.76 47.51 48.86 52.32 52.53 54.42 56.58 56.94 56.16 55.12 54.07 53.23 52.02 50.98 49.95 48.71 47.96 47.20 46.26 45.98 45.71 45.34
42.30 42.38 41.66 41.01 40.76 40.80 41.89 42.78 42.33 41.92 41.06 41.74 42.02 41.66 41.41 42.18 42.64 40.68 40.18 44.35 45.77 47.10 46.97 47.24 48.51 49.65 50.25 49.73 50.33 49.31 48.44 47.62 46.69 45.64 45.16 44.80 43.58 43.07 42.48 42.08 41.50 41.06 41.19 41.09
40.81 41.81 41.73 42.29 41.61 41.05 39.55 40.69 41.13 42.99 42.22 41.19 42.01 43.35 43.25 42.83 44.05 45.39 45.48 45.52 46.07 45.71 45.49 47.19 47.22 47.20 47.08 46.83 46.94 46.72 46.11 45.75 45.11 44.35 43.48 42.17 42.11 41.14 40.25 39.37 38.68 38.34 37.93 37.75
38.77 39.62 40.32 40.58 40.02 37.83 34.64 35.95 38.19 38.65 38.35 39.71 39.58 39.92 41.58 42.91 42.64 43.41 45.47 45.80 45.96 45.36 44.69 46.46 46.63 45.92 44.82 44.67 45.18 44.85 44.25 43.79 43.13 42.87 42.41 41.82 41.54 41.10 40.39 40.22 39.87 38.86 38.39 37.97
35.43 34.87 35.08 37.24 35.73 34.58 35.35 35.71 35.34 35.86 36.23 36.56 38.21 38.55 39.71 40.45 41.12 42.28 43.50 44.66 45.12 45.05 45.13 45.38 45.34 44.82 44.03 43.51 43.29 43.35 44.06 43.97 43.49 43.06 42.61 42.45 42.26 41.51 40.82 40.29 40.56 39.45 38.44 37.46
35.14 36.10 35.41 35.43 35.43 35.81 35.96 35.45 35.60 35.55 36.26 36.87 36.99 38.94 39.71 40.39 40.87 41.40 42.20 41.61 42.77 44.44 44.23 44.56 45.23 44.53 44.04 43.45 42.24 41.88 42.14 42.40 41.54 43.40 43.49 42.90 42.41 41.78 40.99 39.81 39.43 39.46 39.02 37.90

GFSNGP_sfc_wetblb_051.txt.gz
Wetbulb
35.31 36.19 36.68 36.12 37.02 39.30 39.11 43.67 43.01 48.39 48.92 53.82 55.86 56.74 57.97 57.08 60.05 62.07 62.29 61.21 66.40 68.46 69.97 70.78 72.12 72.65 72.95 73.50 73.59 73.39 73.27 73.16 73.44 74.19 74.74 75.04 75.18 75.55 75.79 75.70 75.97 75.95 75.50 75.40
32.06 35.99 37.12 35.30 38.60 39.79 40.85 42.11 42.57 44.11 45.72 52.68 58.89 60.51 59.95 61.89 62.88 63.33 64.59 65.80 65.01 64.60 69.49 70.14 71.22 72.01 72.40 73.07 73.34 73.80 73.14 73.21 74.08 74.52 74.69 74.92 75.35 75.51 75.84 75.42 75.80 76.38 75.58 75.39
28.45 36.14 35.93 34.01 39.44 41.00 43.46 45.25 45.81 44.13 49.79 53.62 56.30 59.76 59.26 60.08 60.98 61.53 63.40 64.97 67.00 67.09 64.75 70.33 70.39 72.28 71.88 72.74 73.77 73.44 73.33 73.91 74.45 74.83 74.50 74.79 75.31 75.59 75.85 75.75 75.56 75.61 75.22 75.36
29.23 31.19 26.87 41.63 47.66 46.48 44.92 44.58 46.02 46.93 49.22 51.91 58.73 61.13 61.14 58.02 57.01 60.37 63.02 64.49 66.39 68.48 66.51 68.91 70.44 71.23 72.78 73.09 73.44 73.25 73.33 73.64 74.60 74.90 74.62 75.10 75.07 75.09 75.62 75.58 75.98 75.34 75.31 76.03
27.48 30.92 36.11 42.30 43.11 42.57 43.94 42.33 45.85 45.75 48.22 51.50 57.14 61.77 61.72 56.13 55.25 56.15 61.04 64.11 67.60 70.16 68.21 70.15 71.82 72.87 72.73 72.98 73.27 73.12 73.02 73.43 74.12 74.75 74.64 75.12 74.81 75.07 74.96 74.43 74.55 75.25 75.64 76.09
30.14 28.42 31.29 38.35 42.89 45.97 46.58 40.97 44.19 45.29 46.04 50.01 59.30 57.52 54.29 54.35 56.06 57.43 62.49 65.25 69.09 69.38 69.50 71.17 72.54 72.96 72.21 71.74 72.70 72.59 73.39 74.02 74.75 74.95 75.02 75.08 75.52 75.55 76.11 75.44 74.96 74.43 74.45 76.08
30.00 28.38 33.96 38.61 41.72 47.37 39.42 39.82 44.00 44.33 45.44 48.49 50.25 51.74 53.28 55.61 58.18 60.92 64.40 65.71 70.90 70.41 71.27 72.25 72.98 72.33 72.15 72.33 72.48 73.42 74.01 74.03 74.73 75.44 75.36 75.88 76.28 76.76 76.01 75.55 75.97 75.39 75.06 76.24
31.64 28.72 28.71 40.39 41.70 41.43 43.53 46.95 45.41 45.10 45.91 47.38 48.83 50.92 52.20 55.35 57.86 59.73 61.78 65.83 68.71 70.34 69.62 71.59 72.84 72.66 72.37 72.38 74.57 75.46 75.63 75.23 75.69 76.06 74.96 74.93 76.32 76.13 75.92 76.28 75.73 75.72 75.57 75.35
35.72 35.27 40.52 43.31 42.49 45.41 48.48 47.49 47.00 45.66 46.87 47.28 47.59 48.57 51.42 53.13 55.05 57.96 60.46 64.60 67.93 69.58 70.26 71.71 72.16 72.66 72.05 73.38 74.40 75.12 75.51 75.83 75.70 75.94 76.05 77.19 75.88 75.87 74.64 75.71 74.68 74.71 74.68 74.71
35.69 38.98 40.80 42.78 45.17 47.32 47.73 48.35 48.65 48.34 48.25 48.03 47.12 48.08 49.64 52.49 53.64 54.32 58.08 62.91 67.62 69.17 69.10 69.83 72.20 73.41 74.20 74.74 74.41 74.13 74.27 75.13 75.42 75.02 75.35 76.36 75.55 75.57 74.96 74.87 74.55 74.62 74.68 74.76
36.74 39.21 42.51 43.90 45.00 46.65 47.19 49.04 48.80 48.71 48.75 48.30 48.33 48.29 49.30 51.45 54.10 54.50 55.86 61.11 65.15 66.84 67.76 68.59 70.67 71.14 71.94 73.37 75.40 74.17 73.78 73.41 73.89 74.19 74.11 75.09 75.85 74.56 75.23 77.01 72.81 75.12 75.50 75.88
34.94 39.59 41.23 41.87 44.70 46.71 47.41 47.75 49.06 47.96 47.30 48.78 49.12 48.91 49.99 50.47 54.39 56.08 57.45 60.31 61.24 61.36 65.30 68.05 69.03 68.66 69.24 70.15 70.79 72.40 73.16 73.87 73.78 73.70 70.92 73.35 74.67 69.50 48.02 49.09 48.78 49.87 52.95 66.40
39.78 43.02 43.55 43.99 45.34 46.07 46.23 48.17 49.88 49.21 48.85 48.09 49.23 49.62 49.95 51.06 53.99 55.04 57.55 59.22 59.96 59.62 60.72 63.21 66.79 65.81 65.02 66.43 70.22 69.79 69.22 70.23 70.60 72.78 75.65 74.19 73.45 72.18 70.93 58.22 45.45 43.62 43.71 50.60
43.12 43.29 41.16 42.89 42.01 44.61 45.51 46.90 49.29 49.63 49.77 49.34 49.89 50.51 51.06 50.29 53.39 56.23 57.25 59.06 59.82 60.24 60.83 61.29 61.74 61.91 62.44 64.23 66.17 69.01 70.09 58.82 71.38 72.25 73.39 73.15 72.14 71.90 73.02 72.02 71.10 67.56 50.44 49.21
41.80 43.02 42.43 43.85 44.03 43.66 44.75 44.93 45.05 45.19 46.72 49.63 50.00 50.26 50.75 50.69 52.55 56.20 57.08 57.22 58.98 59.40 59.00 58.51 58.62 58.49 59.80 61.76 63.98 66.41 69.29 69.81 71.13 72.70 72.29 71.46 71.60 70.21 71.11 72.04 71.95 63.89 60.31 53.45
42.38 42.47 42.47 42.37 42.01 42.51 42.36 42.29 42.10 42.86 44.10 46.92 49.25 50.50 52.16 54.26 53.58 53.81 53.24 54.71 54.44 55.37 56.37 56.06 56.53 56.77 58.55 59.91 61.77 64.80 68.24 62.84 63.91 71.21 70.16 69.88 68.42 67.68 69.10 70.26 68.66 67.70 67.09 64.90
40.13 39.39 39.96 40.05 40.33 41.17 41.36 42.35 42.51 42.64 43.00 44.24 45.83 47.92 48.81 49.79 50.55 52.01 51.15 52.24 53.25 54.49 55.73 55.37 54.10 56.04 57.28 58.35 59.60 62.12 65.30 68.84 61.97 69.78 70.18 68.70 66.22 65.25 66.62 67.38 66.64 65.81 65.41 61.52
44.19 43.56 42.63 42.11 41.32 40.78 41.11 42.14 42.38 42.99 42.78 43.80 45.15 46.03 46.81 46.71 47.39 48.37 48.41 49.83 51.23 52.24 53.61 53.19 53.99 54.92 56.70 57.50 58.83 60.38 63.24 66.68 68.22 68.86 69.94 67.19 65.96 64.71 63.03 62.18 60.05 58.51 56.94 54.14
44.56 43.51 43.66 43.04 43.09 42.94 42.12 41.95 42.14 42.60 43.88 43.64 43.02 43.14 44.36 45.60 46.21 47.08 48.32 47.60 46.97 47.19 48.80 51.59 53.01 54.52 56.26 57.41 57.63 60.21 63.51 66.23 67.17 67.55 67.91 61.83 64.57 64.02 61.91 59.71 58.24 57.11 56.49 56.47
44.50 44.49 44.41 44.24 44.68 43.97 43.33 44.10 44.33 42.93 42.82 43.34 43.36 42.79 42.44 43.53 44.42 44.88 46.85 45.62 46.56 47.35 49.39 49.22 50.11 51.85 54.62 56.46 57.03 60.59 62.81 64.93 65.89 65.74 63.30 63.58 62.84 61.99 60.44 54.15 55.50 54.32 53.15 53.02
45.99 45.33 44.78 44.84 45.26 45.84 45.59 45.09 44.27 43.46 43.92 42.97 42.39 41.99 42.09 42.83 43.78 44.12 43.35 42.98 45.82 47.71 48.85 49.05 50.21 50.67 52.23 54.26 56.00 60.28 60.68 61.14 62.02 60.65 59.87 58.71 56.94 56.25 54.70 53.92 52.47 51.70 50.65 50.24
47.34 46.47 45.66 45.73 45.95 46.09 47.14 47.42 45.77 44.76 44.66 44.39 43.70 43.35 42.70 42.23 42.50 43.31 45.06 44.54 45.88 46.95 47.92 47.80 48.33 50.13 51.19 52.43 52.09 55.86 56.68 56.18 55.44 55.06 54.50 53.54 52.59 51.21 49.88 49.23 48.41 48.71 49.04 48.95
47.29 47.99 47.28 46.29 45.97 46.49 46.99 46.97 46.85 46.87 45.27 44.98 44.69 44.96 44.53 45.03 45.38 43.52 42.00 45.13 45.65 46.19 46.85 46.94 47.43 48.02 47.85 47.42 47.73 47.31 47.17 46.49 45.74 44.68 44.56 44.34 43.87 43.80 43.36 43.17 43.05 43.58 42.11 44.49
47.62 48.33 47.66 48.08 47.90 46.26 43.80 44.74 45.53 45.90 45.59 45.78 45.50 45.90 45.06 44.28 45.75 47.15 47.93 46.27 45.93 45.99 46.26 46.83 46.37 46.60 46.16 44.75 44.34 43.93 43.19 42.70 42.36 41.87 41.34 40.42 40.56 40.08 39.56 39.52 39.44 39.32 39.50 38.80
46.46 46.41 47.32 47.00 44.86 43.14 43.51 44.21 44.17 43.85 44.13 45.05 45.40 45.82 46.13 46.07 45.57 46.28 47.45 47.32 45.65 45.91 45.00 45.66 46.26 45.39 44.40 44.40 44.45 43.84 43.13 42.91 42.93 42.57 41.89 41.23 40.48 40.04 39.93 39.83 39.22 39.06 38.67 38.31
44.41 45.10 45.24 44.05 43.35 43.81 43.51 43.65 42.48 43.30 43.86 43.60 44.43 45.22 46.10 46.60 46.51 46.76 47.23 46.64 46.91 45.14 44.97 44.71 44.47 44.38 43.64 43.53 43.42 42.75 42.95 42.60 42.55 41.96 41.43 41.29 41.08 40.47 40.14 39.72 39.65 39.06 38.62 37.74
43.88 41.33 43.99 43.40 43.84 43.56 43.60 43.06 43.42 43.18 43.63 44.02 44.07 45.71 46.05 46.54 46.29 45.79 44.64 46.53 46.60 46.35 45.28 44.53 44.56 44.65 43.52 42.89 42.29 42.25 42.31 42.19 40.95 41.87 41.87 41.84 42.20 41.44 40.77 40.37 40.58 40.40 39.97 39.85

GFSNGP_sfc_wetblb_054.txt.gz
Wetbulb
39.84 39.93 39.89 40.03 40.48 42.55 42.69 46.52 45.59 49.48 50.66 55.25 56.53 57.00 58.75 60.58 61.66 61.87 62.26 63.06 66.59 68.90 71.11 73.87 74.47 75.90 75.81 74.69 75.43 75.45 76.27 74.52 75.80 77.35 77.51 77.72 78.13 78.37 78.03 78.15 77.60 77.64 77.63 77.68
36.33 39.18 38.99 37.54 40.62 42.34 43.22 44.44 46.11 48.59 48.82 57.15 58.34 60.95 62.04 61.61 63.54 64.27 64.82 66.49 66.78 67.60 70.79 72.05 73.26 75.00 75.96 76.16 75.99 76.26 76.86 76.14 77.28 78.16 78.00 78.14 78.56 78.86 78.92 78.25 78.37 78.15 77.23 77.37
33.30 38.24 37.66 35.05 40.34 43.17 44.55 46.37 46.86 45.37 51.43 57.18 57.21 59.59 62.38 63.17 64.18 64.24 65.57 67.17 68.59 69.81 69.85 70.07 72.67 74.26 74.86 76.79 76.72 76.54 77.09 77.25 77.63 78.28 77.94 78.33 78.68 78.90 78.56 78.58 78.21 78.28 77.31 77.54
33.46 36.33 28.14 38.83 44.14 47.02 46.24 47.51 49.60 50.69 52.93 56.34 58.24 62.05 64.57 63.73 62.95 63.75 65.00 65.97 68.14 69.83 70.91 72.43 70.66 72.56 74.78 75.51 77.11 77.19 77.39 77.18 77.76 78.16 77.96 78.56 78.56 78.64 78.91 78.13 78.14 77.75 77.38 78.69
31.98 32.95 36.36 40.46 46.14 46.14 45.71 46.84 51.38 51.75 53.81 55.75 58.31 62.54 64.44 62.91 63.52 64.35 65.12 66.50 68.02 70.01 71.20 72.62 73.58 71.76 73.90 74.53 75.87 76.43 76.83 77.14 77.76 78.10 77.88 77.57 77.72 77.94 77.66 77.91 77.52 77.54 77.61 78.28
34.29 28.47 27.90 37.47 41.24 45.41 48.45 41.48 49.38 50.71 52.50 54.52 58.93 55.89 59.85 61.43 63.32 64.60 65.91 67.58 68.49 70.84 72.56 73.08 73.66 71.05 72.12 73.43 74.41 76.01 76.70 77.16 78.10 78.27 78.38 77.83 78.19 78.42 79.04 77.85 77.74 77.34 77.38 78.37
32.82 30.72 35.98 40.82 40.54 42.58 37.89 42.30 47.43 49.01 51.15 54.55 57.90 56.93 58.52 57.63 58.58 61.03 63.71 67.21 71.08 73.27 72.87 72.73 73.09 71.26 74.23 74.52 74.57 76.13 76.15 76.26 77.41 78.40 78.50 78.89 79.26 79.15 78.89 77.66 78.09 77.83 77.48 78.67
33.78 30.77 29.40 42.64 38.69 37.81 43.20 48.36 47.62 48.11 49.76 49.99 53.30 54.00 53.37 53.73 54.35 56.53 61.65 67.98 72.31 72.54 72.81 72.82 73.56 73.60 75.21 75.69 76.15 77.00 77.09 76.97 78.07 78.26 76.93 76.94 79.08 78.19 78.08 78.19 77.87 78.12 77.55 76.97
36.88 38.30 42.48 43.30 41.17 44.27 47.89 46.91 48.37 47.98 48.85 48.68 49.23 49.79 51.05 52.59 54.09 54.52 59.95 64.23 70.21 71.75 72.87 73.60 74.19 74.67 74.00 77.13 77.42 77.27 77.38 77.70 76.70 77.02 76.94 78.82 77.86 77.45 76.68 77.46 76.77 75.99 76.07 75.95
36.93 41.70 40.78 42.79 44.47 45.22 47.53 48.12 49.77 49.54 48.61 49.80 48.73 49.95 50.53 51.29 53.94 55.12 58.25 57.69 62.61 69.42 70.33 71.99 74.40 75.00 75.54 76.39 76.67 76.53 76.22 76.48 76.90 76.62 76.29 76.98 76.94 77.19 76.46 76.29 76.02 75.99 75.99 75.99
36.59 39.62 40.08 42.68 43.73 45.45 47.58 49.31 49.51 50.00 48.89 49.08 49.47 49.79 50.04 50.90 53.76 56.31 57.96 59.37 59.52 60.58 67.31 68.14 70.26 71.38 72.73 74.78 76.34 75.69 76.05 76.43 76.81 76.80 76.42 76.82 77.65 75.86 77.06 78.73 71.58 76.55 76.76 77.21
34.31 38.71 40.34 41.46 44.90 46.23 46.85 47.79 49.59 49.26 48.91 49.94 50.36 50.26 50.75 51.02 53.95 57.24 58.30 58.60 59.21 60.39 61.79 64.62 66.02 68.85 70.88 73.49 74.19 75.46 74.69 75.07 75.23 75.74 76.20 76.60 76.71 74.66 48.99 49.32 48.76 49.33 51.32 64.26
38.62 42.10 42.86 43.46 44.96 46.12 45.54 47.83 49.13 49.17 50.74 49.44 50.47 51.57 51.60 51.54 54.71 57.60 58.86 59.23 60.31 60.67 60.40 62.89 63.99 64.69 67.48 70.35 72.93 73.74 73.83 75.55 75.67 72.86 75.45 75.48 75.09 74.85 71.65 60.76 47.66 46.59 46.43 49.87
42.99 42.55 41.39 42.69 41.87 44.82 45.77 47.42 48.30 47.50 48.46 51.21 50.81 51.97 52.13 52.34 55.97 57.22 56.51 58.37 60.17 60.02 59.86 60.95 61.04 61.95 64.45 67.80 70.41 72.61 71.79 59.49 74.66 73.77 72.16 71.78 71.18 70.05 69.83 70.09 73.50 74.79 52.04 52.18
42.48 42.65 42.72 43.68 44.27 43.93 45.74 46.21 45.14 44.25 45.01 47.30 49.06 51.85 53.06 54.40 53.84 53.70 55.28 57.72 58.49 59.21 59.61 59.56 59.53 60.70 62.99 64.30 66.95 70.41 71.21 72.15 73.74 72.89 71.94 69.35 73.35 72.53 71.55 73.25 74.68 74.97 70.68 55.68
42.90 42.55 42.43 41.53 42.12 42.82 43.63 44.44 43.83 43.78 44.10 45.31 46.39 47.81 50.00 52.40 54.66 54.34 54.02 55.46 56.45 56.36 58.04 58.57 58.57 59.87 61.58 62.69 64.31 67.61 69.77 63.80 66.71 73.01 72.79 72.54 72.35 71.79 72.73 74.53 74.66 73.79 72.30 69.84
42.52 40.50 40.86 40.65 41.28 41.41 41.69 42.88 43.56 44.10 44.70 45.02 45.89 47.92 49.17 49.31 50.17 51.36 52.95 53.67 54.35 55.92 55.71 56.99 57.58 58.63 60.76 61.97 62.27 63.55 66.24 69.21 64.50 73.33 72.32 71.09 69.92 69.03 69.85 71.92 73.69 73.71 72.31 63.44
46.41 45.73 44.70 43.56 41.97 41.76 42.32 42.69 42.55 42.99 43.27 44.30 45.51 46.26 45.37 46.08 46.69 47.63 49.04 51.22 52.67 52.78 53.00 53.58 54.84 55.52 59.07 60.56 60.59 61.80 63.38 65.99 69.15 70.45 70.71 70.76 69.55 67.71 67.03 69.81 67.94 63.79 61.33 60.94
47.30 46.29 46.58 45.67 45.52 45.07 44.60 44.18 43.07 43.22 43.75 43.91 43.90 43.45 44.51 44.97 45.53 46.24 47.96 46.97 46.78 46.86 49.18 52.66 52.49 55.48 58.10 59.00 57.72 60.22 62.46 64.16 66.37 70.28 71.15 64.01 69.16 68.33 66.74 66.10 66.98 65.82 65.83 65.88
48.04 47.65 47.35 47.16 47.47 46.99 46.44 46.60 46.12 43.61 43.49 43.77 43.64 43.04 42.97 43.98 45.26 45.58 47.21 46.78 46.64 47.75 49.32 49.84 51.84 53.93 55.86 57.48 56.40 59.48 62.07 64.64 66.09 67.84 66.37 67.87 68.80 66.76 65.04 58.88 62.26 61.94 61.25 60.77
48.04 48.42 47.30 47.14 47.28 47.92 47.77 48.00 46.76 45.63 46.81 45.42 44.18 43.57 43.29 44.03 44.51 44.58 45.24 44.69 47.22 48.89 48.44 48.64 49.46 49.75 53.62 54.87 56.50 60.61 62.35 63.34 61.92 61.92 62.39 61.69 62.01 62.21 61.92 60.65 59.47 57.90 57.34 58.01
48.17 48.02 47.85 47.25 46.88 46.83 47.67 47.98 48.19 48.04 47.24 46.06 46.21 46.75 46.28 46.07 46.91 46.25 46.03 44.93 46.87 47.75 48.22 47.39 47.61 48.44 48.67 49.50 49.20 50.00 50.15 52.20 52.55 50.95 49.81 49.99 51.17 51.25 51.18 52.97 53.52 53.08 53.45 53.29
49.65 48.39 48.10 47.48 47.23 47.30 47.20 47.28 47.35 47.38 47.20 47.42 47.22 47.49 47.29 46.85 47.07 45.45 42.26 45.59 46.24 46.58 47.74 47.15 47.02 46.79 46.48 45.43 44.88 44.41 44.37 44.27 44.01 43.11 42.70 42.31 42.21 41.35 40.58 40.42 41.08 42.89 46.13 47.06
49.52 49.36 48.88 49.05 48.22 46.49 45.40 46.87 47.02 47.43 47.73 47.93 47.94 48.39 47.73 44.88 45.76 46.81 48.64 45.23 45.34 45.59 45.89 46.49 45.39 45.54 45.10 44.01 43.39 42.66 42.76 42.47 42.68 42.68 41.60 40.43 40.64 40.40 39.62 39.18 38.74 39.04 39.75 39.54
49.33 48.33 49.52 48.36 47.23 45.76 46.03 46.98 46.73 46.75 47.09 47.49 47.77 48.71 48.94 48.94 46.40 46.24 47.11 46.38 44.87 45.01 45.01 44.98 45.09 44.67 43.56 43.06 42.77 42.24 41.63 41.49 41.52 41.45 41.22 41.22 40.27 39.46 39.25 39.21 38.93 38.41 38.35 38.05
48.43 47.38 47.37 47.21 46.18 46.51 46.68 46.77 45.56 45.95 46.58 46.11 46.82 47.70 47.78 47.86 47.70 46.86 47.01 46.62 46.69 44.97 44.61 44.46 43.73 43.72 43.50 42.57 42.01 41.67 41.80 41.72 41.40 41.34 41.12 41.01 40.66 40.40 40.17 39.70 39.26 39.25 39.10 39.15
47.35 40.13 48.31 46.90 47.14 46.85 46.37 45.80 45.61 45.34 45.90 46.19 45.18 47.14 47.37 47.28 47.17 46.81 45.26 46.21 46.25 46.17 46.55 45.27 44.91 45.01 46.03 46.35 45.51 44.65 43.74 42.85 41.19 41.87 42.00 41.78 41.21 41.12 41.24 41.03 40.64 40.19 39.98 40.07

GFSNGP_sfc_wetblb_057.txt.gz
Wetbulb
42.03 42.94 42.85 42.37 43.83 46.63 47.02 49.01 46.75 50.26 51.05 55.10 57.36 58.47 59.83 61.01 62.27 62.97 63.98 65.62 67.78 69.19 73.07 76.03 76.15 77.16 77.07 75.88 76.69 76.07 76.27 76.01 76.38 77.80 78.38 78.73 78.29 79.27 79.30 79.72 79.69 80.02 80.11 80.11
39.50 42.03 41.82 40.15 42.10 43.44 45.40 46.79 47.58 48.85 49.45 56.18 57.80 60.13 60.92 60.44 62.20 62.20 63.44 64.47 65.57 69.08 70.91 72.51 74.14 76.90 77.55 77.19 77.20 76.97 77.23 76.26 77.14 78.22 78.49 78.26 78.22 78.89 79.40 79.58 79.85 80.00 79.66 79.75
36.27 40.86 40.52 37.26 40.78 41.80 43.45 46.04 46.63 45.12 51.04 55.70 56.39 57.35 60.78 62.25 63.58 64.08 65.70 66.71 67.97 69.10 68.99 70.98 72.69 75.31 76.58 77.64 77.88 77.94 77.75 77.89 77.91 78.27 78.21 78.34 78.66 78.95 79.17 79.18 79.91 79.85 79.69 79.89
35.81 37.55 29.82 41.28 45.37 44.89 43.97 45.47 48.69 49.77 51.48 53.87 55.76 57.96 60.14 66.37 65.45 65.74 66.72 67.51 68.77 69.85 70.83 71.75 71.90 73.31 74.92 76.68 78.27 77.99 77.89 78.71 78.11 78.78 78.32 78.77 79.04 78.97 79.43 79.56 79.34 79.57 79.68 80.04
33.42 33.87 38.57 40.76 44.77 45.15 40.57 44.41 50.66 50.29 51.83 53.40 55.61 57.29 58.82 63.90 66.27 66.78 68.10 68.98 69.71 70.62 71.10 72.48 73.18 73.21 73.55 75.52 78.21 77.77 78.48 78.06 78.67 78.86 78.90 79.11 78.64 78.95 79.59 79.61 79.51 79.55 80.00 80.16
35.57 31.32 28.65 39.76 45.98 46.71 47.74 42.09 52.36 54.28 52.51 53.38 54.60 52.36 55.98 62.87 64.26 65.34 67.18 69.16 70.33 71.65 72.36 72.66 73.45 74.05 73.81 72.76 76.35 77.51 78.12 78.26 79.50 79.43 79.62 79.16 79.54 79.91 80.10 79.91 79.59 78.79 79.23 80.47
34.66 33.25 37.20 45.13 45.83 46.71 36.88 41.00 45.60 52.58 54.56 55.74 55.05 58.00 59.47 60.02 60.59 62.65 64.58 67.68 69.68 72.67 73.00 73.95 75.16 74.70 74.82 73.91 75.22 77.71 79.00 79.54 80.04 79.95 80.04 80.36 80.67 80.67 80.39 80.02 78.90 79.71 79.44 80.02
36.04 32.80 30.22 46.57 45.46 38.93 42.39 42.50 42.81 49.69 51.67 52.88 55.24 55.57 55.90 57.14 56.59 58.15 61.39 61.79 65.55 71.80 74.55 75.22 75.66 75.59 76.50 75.70 76.41 79.19 79.20 79.27 79.60 80.20 78.86 79.01 80.42 80.44 80.50 79.96 79.63 80.16 79.64 79.56
38.98 38.36 45.54 45.97 45.03 48.41 46.03 42.88 43.60 49.21 50.20 51.22 52.11 53.04 52.11 52.70 55.16 56.96 58.18 58.50 61.97 67.86 75.25 76.12 76.11 75.57 76.38 76.31 79.50 79.55 79.43 79.28 79.44 79.90 79.90 80.18 79.80 79.92 78.43 79.60 77.16 77.08 76.85 76.15
38.97 42.29 41.71 42.93 45.42 45.41 44.83 43.70 46.75 50.32 50.60 50.50 50.50 52.72 50.98 53.64 54.35 57.00 57.54 57.88 60.05 63.56 67.06 71.72 73.58 75.04 77.49 78.30 79.87 79.69 79.18 79.05 79.36 78.98 78.69 79.48 78.67 78.46 77.33 76.85 76.37 76.23 76.07 75.85
36.97 39.77 40.40 42.71 43.97 44.20 44.98 47.64 49.92 51.13 50.51 50.02 50.03 51.73 51.05 51.65 53.56 57.44 58.11 58.38 59.12 59.74 61.40 63.43 66.25 68.18 70.77 73.90 78.51 77.09 78.26 77.91 77.95 77.40 77.12 78.27 78.44 77.64 77.26 79.15 74.06 77.03 76.27 75.96
34.28 39.37 39.10 40.55 43.39 44.81 44.66 47.73 48.93 49.29 49.85 50.64 51.06 51.52 52.20 52.30 54.58 58.27 57.51 58.58 57.98 58.07 59.14 60.13 61.31 61.99 65.02 67.91 73.92 76.42 75.43 76.06 76.14 76.49 77.04 77.09 77.05 74.66 51.03 55.72 52.53 53.62 53.56 64.84
39.04 41.83 42.52 43.46 44.60 44.90 45.22 47.89 48.36 47.87 48.57 50.06 51.15 52.13 52.36 53.33 56.80 56.93 57.76 57.32 58.10 58.12 58.66 59.73 61.01 61.17 62.49 65.01 67.59 75.52 75.78 75.93 76.91 74.34 76.81 77.48 77.34 75.74 74.20 64.22 50.12 49.81 50.17 53.44
42.66 41.50 40.50 42.45 41.28 44.11 45.69 47.09 47.64 47.00 48.09 49.31 49.90 53.04 53.92 54.59 55.32 55.27 55.22 57.23 59.18 58.82 57.74 58.35 58.60 58.58 61.24 62.79 65.24 69.97 75.03 63.40 76.37 75.97 75.64 76.46 76.01 76.01 76.09 74.66 73.41 74.87 53.91 56.32
44.46 43.77 42.70 44.54 44.11 43.92 45.00 45.61 45.05 44.47 45.61 46.73 48.71 49.61 51.37 53.23 53.99 54.48 55.80 56.98 58.42 58.42 57.45 57.79 58.09 58.65 61.92 62.80 62.77 67.57 69.19 71.03 71.83 75.59 75.82 73.05 74.44 72.86 72.10 71.24 72.42 71.74 68.89 59.25
45.67 44.70 44.69 42.74 42.67 42.88 43.23 43.13 42.95 43.61 44.49 45.71 46.96 48.25 49.22 51.04 51.19 52.51 53.45 54.66 54.96 54.87 55.84 56.41 57.47 58.38 61.65 63.54 63.16 65.70 68.88 64.38 68.17 73.53 72.10 72.16 71.63 71.06 71.01 70.53 69.81 64.82 64.85 70.90
43.79 42.87 42.92 43.19 42.64 42.94 42.66 43.22 43.55 43.45 44.22 44.92 45.97 47.31 47.79 47.92 48.54 48.01 49.68 51.70 52.91 53.64 54.34 55.12 54.47 55.98 58.93 61.28 60.57 61.59 64.14 69.55 66.97 73.09 71.95 71.33 71.50 69.24 70.59 71.74 71.91 73.03 72.52 64.77
46.42 46.56 46.24 46.18 45.65 44.58 44.56 43.76 43.17 43.81 43.86 44.97 45.37 45.87 46.29 46.10 45.73 47.42 47.41 49.07 49.53 49.75 50.04 52.56 53.39 54.39 58.22 60.33 57.85 59.46 61.42 64.27 67.80 70.15 70.76 72.42 71.76 72.01 72.63 72.78 73.33 70.94 68.08 63.58
47.83 47.01 46.73 46.24 46.18 45.97 46.55 46.16 43.49 43.64 44.34 45.32 45.71 45.47 45.33 45.25 46.21 47.24 48.85 47.02 46.68 47.11 48.31 51.52 51.99 54.98 55.50 57.88 56.54 57.61 59.78 61.96 65.54 69.16 69.46 64.95 70.24 70.13 70.50 70.64 71.13 70.41 68.97 67.66
47.96 47.63 47.92 47.08 47.46 47.20 46.90 47.22 47.09 47.08 46.21 47.05 47.69 47.51 47.34 47.91 47.90 47.07 46.49 45.84 46.74 47.60 48.89 48.50 49.94 52.16 53.55 54.71 54.79 57.54 59.27 62.16 65.11 67.54 68.09 67.11 64.53 66.47 66.03 58.50 60.69 63.69 63.92 66.87
48.52 48.18 47.08 47.97 47.23 48.49 47.70 47.76 47.15 46.11 47.06 46.74 46.71 46.18 46.01 46.85 47.57 46.39 44.03 43.62 45.90 48.15 47.67 48.20 48.44 48.71 49.76 50.43 52.46 54.18 58.94 63.35 59.93 57.99 59.29 63.56 63.88 59.84 59.65 59.41 58.89 57.16 57.39 57.51
49.25 48.58 47.27 47.01 47.75 47.23 48.20 48.43 48.31 48.08 47.09 46.91 47.00 47.29 47.04 46.65 46.97 45.95 45.02 44.24 46.40 46.76 46.07 46.17 46.30 47.47 47.22 47.10 45.95 46.02 46.50 48.05 47.84 47.30 46.24 46.48 47.54 48.90 47.44 47.80 50.23 50.35 51.06 53.70
49.91 49.48 48.79 47.70 47.33 47.90 48.44 48.50 48.40 48.67 48.21 48.23 47.65 47.35 46.83 46.94 46.27 45.89 42.18 45.11 46.11 46.14 45.94 45.63 45.84 45.71 45.30 43.03 42.95 42.85 42.93 42.61 42.40 42.29 42.13 41.87 42.06 41.60 41.11 41.64 42.37 42.01 41.54 41.85
48.25 50.29 49.89 49.86 48.90 48.02 47.14 48.62 48.37 48.77 49.26 49.42 49.33 50.01 48.12 46.30 47.68 47.19 46.27 45.44 44.94 44.79 45.73 45.59 45.14 45.07 44.29 43.06 42.15 41.65 41.49 41.26 41.22 41.46 41.17 40.00 40.18 40.16 40.14 40.21 39.74 40.03 39.74 39.67
50.63 49.73 49.02 48.62 48.05 47.11 48.80 48.56 48.94 48.52 49.18 49.08 49.57 49.93 50.07 49.47 47.98 48.11 48.14 46.11 44.68 44.38 44.43 44.85 45.71 46.24 45.26 44.09 42.92 42.79 42.27 41.55 41.08 40.65 40.68 40.25 40.03 39.85 39.76 39.64 39.69 39.50 39.93 39.06
49.51 48.46 48.54 49.33 47.61 47.54 47.64 47.38 46.13 47.17 47.23 47.35 47.85 49.11 48.86 49.35 49.57 48.62 48.50 48.32 48.34 46.40 47.96 48.08 47.97 46.75 47.05 46.63 45.81 45.17 44.03 42.90 42.79 41.76 41.27 41.17 40.72 40.38 40.35 40.59 40.58 39.76 40.08 41.58
49.43 42.56 49.86 47.65 47.64 47.45 47.41 47.12 46.61 46.06 46.21 46.54 47.01 48.83 48.20 48.91 49.02 47.98 46.64 48.22 47.09 47.40 47.56 47.03 47.77 46.57 46.78 46.74 46.91 47.68 47.51 45.75 42.71 44.28 43.58 42.04 41.52 41.55 41.69 41.12 40.78 40.61 40.72 41.84

GFSNGP_sfc_wetblb_060.txt.gz
Wetbulb
41.36 42.50 43.02 42.92 43.29 44.49 44.40 46.88 45.24 47.71 48.98 53.19 56.14 57.27 58.67 61.50 63.09 63.29 63.97 66.95 66.74 69.78 70.96 72.90 73.97 74.19 74.61 74.88 74.55 75.11 75.00 74.99 75.37 76.13 76.13 76.15 75.60 75.76 74.54 76.18 76.96 77.51 77.50 78.02
39.19 42.73 42.78 41.21 43.00 43.53 44.26 45.99 47.11 48.87 49.38 55.53 56.73 59.28 58.71 60.50 61.59 64.20 65.05 64.34 67.96 69.72 71.50 71.60 74.61 74.86 75.00 74.94 75.23 75.46 74.68 74.83 75.48 76.28 76.01 76.13 75.68 76.12 76.32 76.06 76.67 77.29 77.48 77.44
34.95 41.23 41.08 37.52 41.57 42.52 43.72 45.65 46.53 45.05 50.28 54.01 53.70 55.93 59.08 60.36 60.99 62.52 67.07 67.38 68.49 70.04 71.11 67.85 67.42 70.93 75.52 75.75 76.02 75.63 75.43 75.47 75.46 76.25 76.12 75.78 76.60 75.78 76.67 76.00 77.00 76.89 77.08 77.55
35.08 37.60 28.87 41.73 46.69 45.80 43.94 45.06 46.15 46.79 48.75 50.75 52.59 55.21 57.87 59.94 61.87 60.86 65.75 68.03 69.11 68.82 70.19 70.95 68.36 68.99 76.38 76.86 76.46 76.54 75.46 76.13 75.90 75.84 75.85 76.29 76.14 76.49 76.05 77.08 76.63 76.87 77.00 77.34
32.26 32.53 37.26 40.67 44.49 45.05 44.53 43.55 47.63 49.08 51.30 53.53 53.30 53.46 55.50 61.03 63.46 62.18 61.02 64.64 69.05 69.79 70.52 72.54 72.98 73.35 74.80 76.56 76.16 75.75 76.60 75.65 76.76 75.94 76.06 76.13 76.01 76.06 76.47 76.47 76.81 76.85 77.36 77.42
35.85 30.25 28.41 39.68 45.01 48.36 47.64 39.55 49.45 49.37 48.58 49.74 54.07 49.79 52.02 58.80 61.13 61.21 62.01 64.50 67.28 69.23 70.41 71.74 72.79 73.62 73.31 73.71 76.91 75.43 75.33 77.14 76.88 76.92 76.37 76.35 76.30 76.46 76.80 77.01 76.84 77.26 77.16 77.68
35.17 32.60 36.86 43.66 46.35 48.08 36.29 39.24 47.59 48.62 48.27 47.62 49.59 52.47 56.43 58.51 58.31 59.36 60.35 62.33 64.05 65.76 68.65 71.44 74.99 74.64 73.12 73.45 73.51 77.39 77.16 76.83 78.24 78.25 76.75 77.69 77.23 77.49 77.43 77.21 77.18 77.35 77.27 77.62
36.61 32.81 30.00 47.11 45.96 39.99 44.92 48.16 48.24 47.26 48.36 47.14 50.12 53.17 55.47 55.70 56.53 57.15 58.57 59.03 60.77 62.70 67.51 73.63 76.36 76.15 74.04 73.85 74.69 76.98 78.37 77.38 77.85 77.94 78.03 77.88 77.99 78.07 77.83 77.51 77.09 77.16 76.96 77.29
36.87 38.01 46.08 46.84 45.41 47.93 47.84 47.07 47.60 47.02 47.93 47.64 47.93 51.94 53.52 53.73 55.18 56.81 57.87 58.42 59.32 60.58 63.66 65.88 69.01 73.22 75.49 76.21 76.98 76.55 79.26 77.37 77.99 78.52 78.36 77.83 77.95 77.56 77.58 77.77 77.02 76.66 76.68 76.58
37.14 43.03 40.88 44.49 46.94 46.82 46.24 46.29 47.51 48.26 46.86 46.50 48.53 51.65 52.47 53.76 54.45 54.39 57.98 58.22 58.17 59.15 58.88 60.95 63.37 67.04 70.30 72.00 77.26 77.82 76.04 77.88 78.05 78.28 77.60 77.85 78.43 78.24 77.69 77.34 76.96 76.82 76.07 76.62
36.95 39.82 40.19 43.44 43.17 43.52 44.87 45.95 46.49 46.90 49.25 50.15 50.81 51.55 52.16 53.28 54.26 54.51 57.46 58.02 58.96 58.58 57.50 57.90 60.27 64.21 65.91 67.99 70.80 76.46 77.78 77.91 77.79 77.87 76.85 77.68 77.45 77.88 77.74 78.21 76.37 76.76 77.03 76.58
34.25 39.40 38.69 39.26 43.48 44.47 42.59 43.26 45.03 48.19 48.66 51.02 51.57 51.35 52.83 52.92 53.79 56.47 56.85 57.29 58.52 57.68 57.20 57.84 58.98 60.15 62.60 64.89 66.15 71.01 78.02 77.78 77.00 77.11 77.18 77.34 76.46 73.27 53.42 58.79 54.42 57.01 58.68 71.82
38.22 40.75 42.20 43.11 43.59 44.28 43.01 44.83 47.11 47.03 48.49 50.32 51.36 52.07 52.70 53.15 54.93 55.32 55.56 55.95 56.77 57.87 57.41 57.88 58.04 57.88 60.09 62.73 63.74 66.65 71.32 77.64 76.73 73.99 76.24 76.24 76.06 74.99 72.57 62.68 49.20 47.75 50.11 55.00
44.10 42.60 40.27 42.65 40.76 43.93 44.50 44.96 46.89 46.74 47.82 48.75 49.70 50.42 50.34 53.17 54.79 54.46 54.15 55.40 56.51 57.29 56.54 56.72 57.06 56.63 57.31 60.70 61.64 62.88 68.20 64.94 75.53 75.49 74.94 75.40 76.21 75.55 74.79 73.35 72.18 69.64 51.94 54.61
44.24 44.85 43.13 43.89 43.66 43.17 44.23 44.24 43.96 43.62 45.26 46.27 49.31 49.02 49.52 49.86 49.68 50.90 52.48 54.30 56.05 54.94 54.22 54.69 54.20 53.76 56.49 58.26 60.27 61.97 62.56 65.03 68.71 71.22 70.67 69.77 75.90 75.68 75.10 75.12 75.01 74.79 69.78 59.56
45.37 45.58 44.82 43.38 43.52 42.95 42.16 42.51 41.91 42.41 44.28 45.60 46.24 48.19 48.54 48.95 48.55 48.77 49.24 50.68 51.57 50.62 51.42 51.91 51.76 53.04 55.44 59.03 59.37 59.40 61.02 60.64 63.28 68.96 71.16 68.48 71.98 69.54 70.89 73.13 74.76 73.00 72.37 70.87
44.27 43.16 43.69 43.64 43.95 43.01 41.98 42.66 43.25 43.53 44.05 44.69 45.56 47.05 47.65 47.15 47.92 47.60 48.40 48.42 50.88 50.58 50.88 51.12 50.56 52.03 55.23 58.01 57.69 58.26 59.19 61.32 62.29 66.84 69.02 69.13 69.54 70.51 69.50 70.89 69.72 69.24 69.52 64.83
46.90 47.44 46.17 46.17 45.10 44.58 43.40 43.21 43.21 43.52 43.83 45.41 46.28 46.17 45.62 45.44 46.15 46.51 46.44 47.24 47.31 47.22 48.70 49.30 50.67 52.15 54.70 56.32 56.04 57.20 58.20 61.08 65.09 69.64 69.20 70.50 70.95 71.87 72.73 71.07 70.84 68.34 66.57 64.14
48.85 46.75 47.05 47.38 47.02 46.50 46.50 45.04 45.08 45.73 46.13 46.96 46.92 45.40 46.31 46.44 45.94 46.19 47.19 46.12 45.44 44.34 46.00 48.30 50.13 51.34 52.09 53.13 54.20 56.31 59.58 60.86 66.19 63.59 67.39 64.77 66.94 64.11 61.79 62.98 63.61 64.87 66.80 68.21
49.44 49.33 48.43 47.66 48.63 47.89 46.88 48.16 47.62 47.19 47.52 47.37 46.93 45.98 45.86 45.62 45.86 45.09 45.77 44.33 45.10 45.17 46.71 46.80 46.67 47.47 48.42 50.69 52.82 54.86 58.57 58.98 59.50 60.11 59.38 62.13 64.14 63.73 59.39 55.21 57.90 58.00 58.52 60.83
49.20 49.53 48.76 48.36 47.81 48.48 48.57 49.31 47.93 47.10 47.66 47.95 47.23 46.94 45.75 46.46 45.49 44.01 43.03 42.47 44.94 46.57 45.70 46.09 45.58 45.17 45.91 46.80 48.03 48.89 49.12 49.56 48.31 48.73 48.77 52.98 52.34 53.26 58.80 59.76 57.59 57.02 57.37 57.86
49.61 49.11 48.18 48.81 48.14 47.82 48.58 48.95 48.74 48.99 48.10 48.17 48.46 48.59 47.13 45.58 45.10 44.08 44.00 43.16 45.10 45.82 45.30 44.80 44.55 45.83 44.95 45.27 42.82 43.23 43.14 43.07 42.84 42.91 42.72 42.59 43.23 43.42 43.58 44.68 45.73 46.03 50.52 53.03
50.43 50.27 49.09 48.92 48.20 48.04 48.37 48.66 48.56 48.31 48.44 49.01 48.22 48.05 46.32 45.71 46.06 44.07 41.50 44.21 44.94 45.70 45.40 45.14 45.27 45.44 44.70 42.12 41.68 41.23 41.13 41.14 40.68 40.29 40.08 40.13 40.15 40.23 39.86 39.50 40.00 40.14 40.68 41.47
50.56 49.98 50.40 49.95 49.43 48.68 47.40 48.79 48.83 49.52 50.83 51.53 49.26 50.19 48.19 46.51 45.15 46.11 45.43 44.57 44.24 45.22 45.87 46.10 46.58 46.52 44.63 43.06 41.98 41.22 40.81 40.81 40.38 40.33 40.42 39.50 39.27 39.03 38.94 38.85 38.53 38.71 38.38 38.85
48.59 49.98 49.71 49.33 48.02 47.78 48.72 48.96 48.84 49.01 49.07 50.23 48.49 49.92 49.48 48.94 46.81 46.77 47.55 45.31 44.58 46.59 47.45 47.19 47.18 47.03 46.44 45.30 43.61 42.86 42.18 41.13 40.65 40.25 40.14 40.25 40.35 39.82 39.12 39.26 39.52 38.97 38.69 38.96
50.92 48.32 48.39 49.65 48.09 47.92 47.59 47.34 46.68 46.59 46.78 47.14 47.75 48.43 48.98 48.56 48.52 48.15 48.26 47.72 47.55 46.54 47.02 47.43 48.05 47.77 47.42 47.06 46.08 45.15 44.61 43.64 42.84 42.04 41.31 41.03 40.30 39.85 39.87 39.89 40.16 40.26 39.45 39.25
50.36 44.31 49.12 48.16 48.96 48.41 47.16 47.12 46.59 46.37 46.15 46.70 46.61 48.34 48.95 48.50 48.17 47.73 46.76 47.04 47.10 47.23 47.52 47.92 47.84 47.13 47.20 46.79 46.78 46.45 46.03 45.51 43.21 43.93 43.66 43.23 42.90 41.94 41.39 41.11 40.75 40.75 41.02 40.87

GFSNGP_sfc_wetblb_063.txt.gz
Wetbulb
36.56 39.20 39.82 39.19 39.22 40.65 38.76 38.35 33.76 39.35 41.88 45.87 49.45 51.40 54.16 57.46 61.30 62.48 63.27 64.57 64.14 63.94 63.52 67.05 66.80 68.20 70.54 71.72 71.78 72.76 73.77 73.66 73.45 73.57 73.50 73.26 71.88 71.28 69.65 73.11 72.68 74.55 73.73 74.82
35.48 39.78 39.59 38.19 40.61 41.52 41.14 41.38 40.78 41.61 41.98 49.01 50.95 51.79 53.23 55.38 58.38 60.11 62.18 61.18 64.50 65.49 64.71 67.28 66.35 66.17 70.08 71.50 72.15 72.32 72.97 73.47 74.00 73.53 73.73 73.47 73.06 72.79 70.94 70.33 73.89 72.82 73.55 73.92
29.66 37.68 38.12 33.33 38.82 40.25 41.25 41.86 40.60 37.29 41.79 48.46 49.46 49.95 52.25 58.57 60.21 60.08 60.23 60.77 61.81 65.25 65.46 66.02 67.27 69.53 68.46 70.11 72.11 72.38 72.15 73.23 73.49 73.47 73.45 73.29 73.46 72.94 72.78 70.57 71.92 73.82 73.74 74.08
29.30 32.60 25.49 36.60 43.54 44.68 42.74 44.41 45.13 44.21 46.97 47.69 48.55 52.25 54.43 56.72 57.48 58.25 59.54 60.56 61.88 63.42 63.80 65.89 66.96 68.48 69.54 69.19 69.22 70.00 71.59 71.99 73.10 73.31 73.21 73.71 73.43 73.15 72.73 73.24 71.55 71.99 73.37 74.35
28.04 27.82 33.54 37.35 40.66 41.88 39.37 40.41 45.99 45.10 46.63 47.30 49.68 52.35 52.15 54.77 56.60 56.51 57.49 59.63 60.75 61.86 63.06 64.39 67.12 66.61 68.24 68.26 68.52 68.59 71.23 72.19 72.83 73.22 73.46 73.68 72.92 73.32 73.14 73.61 73.52 73.02 74.06 74.28
32.64 26.29 24.63 34.90 44.18 46.19 44.55 33.98 45.35 44.96 44.69 45.89 47.96 43.97 46.80 52.08 55.10 55.96 57.83 59.02 58.38 60.21 62.33 63.65 66.59 69.07 68.81 67.60 68.89 68.76 72.59 73.23 73.50 73.51 73.64 73.41 73.75 73.23 74.19 73.59 73.56 74.46 73.83 74.77
32.17 30.05 33.25 41.76 45.61 46.24 33.29 34.25 44.90 45.14 44.15 44.74 43.30 45.84 48.94 53.10 53.12 56.12 57.12 57.84 59.09 60.07 59.86 62.65 66.18 66.75 71.51 69.72 70.12 70.88 74.03 73.86 74.04 74.05 73.60 74.16 74.08 74.41 74.00 74.24 74.08 73.71 74.32 74.56
33.53 29.53 27.32 43.36 44.32 37.53 40.68 43.36 44.31 44.58 44.58 43.86 45.84 47.57 49.41 51.42 52.64 53.94 55.17 57.82 58.41 57.94 59.48 61.50 63.23 63.65 65.18 68.21 69.97 71.87 72.97 73.37 74.10 74.74 74.05 74.62 74.16 74.16 74.24 73.91 73.69 73.45 73.61 74.20
35.52 34.58 40.34 42.19 41.81 44.16 43.61 41.88 42.84 42.66 44.09 44.81 45.07 46.09 48.33 49.71 51.27 53.48 55.33 57.17 57.44 57.47 58.21 59.26 59.90 60.49 62.31 63.62 65.41 67.15 71.68 73.83 73.08 74.87 74.97 74.59 74.34 74.05 73.89 74.14 73.76 73.47 73.58 73.54
34.56 39.93 38.91 40.30 43.08 43.65 43.38 42.90 43.61 43.80 44.70 44.98 45.43 47.31 48.72 49.80 50.46 53.41 54.96 56.75 57.68 56.57 56.70 57.10 58.57 59.20 59.92 61.70 63.01 63.92 68.36 72.65 74.74 74.55 74.66 74.74 75.63 75.02 74.58 74.13 74.07 73.77 73.86 73.71
35.38 38.71 38.29 41.47 41.10 43.29 43.51 43.76 42.89 44.42 44.82 46.51 48.00 49.11 49.00 48.97 50.60 53.40 53.16 56.88 57.08 57.31 56.77 56.83 57.78 58.06 58.75 59.28 61.57 62.11 65.41 72.82 74.37 74.76 73.56 75.16 75.20 75.78 75.42 75.94 74.27 74.67 74.69 74.83
32.88 38.33 38.29 38.42 41.75 44.04 42.94 42.02 43.34 44.22 45.61 47.30 48.38 48.16 49.97 50.59 51.20 53.77 55.60 55.87 55.44 56.93 56.69 56.34 57.15 56.67 57.22 57.67 58.90 60.58 62.39 69.43 74.03 74.85 75.05 75.33 74.65 68.91 52.32 56.09 58.04 59.52 61.35 71.22
38.76 41.30 41.49 42.55 43.73 43.85 42.33 43.60 44.13 44.84 45.88 46.03 48.05 50.32 51.71 51.72 51.23 54.66 55.48 54.05 54.64 55.74 55.48 55.28 56.01 54.51 55.01 56.31 57.83 59.46 60.31 63.54 66.81 72.51 74.98 74.67 74.70 73.81 70.59 61.39 49.06 46.70 48.70 58.26
43.64 42.85 40.86 41.86 40.23 43.29 42.99 43.58 44.58 45.33 45.42 46.80 46.91 49.57 50.60 50.52 51.15 51.51 50.36 52.18 53.80 54.02 52.50 52.26 52.24 52.69 53.68 54.47 56.95 58.42 58.35 57.42 62.25 67.94 73.01 74.39 74.72 74.34 73.02 70.22 69.06 65.65 53.23 53.05
43.39 44.29 43.09 43.71 44.24 43.52 43.74 43.29 42.24 41.85 43.34 44.89 46.82 48.22 48.71 47.82 47.23 47.75 47.82 49.33 51.03 50.12 49.71 49.89 50.52 50.37 52.44 53.30 55.80 56.95 58.13 59.13 60.28 63.97 69.81 69.47 73.33 73.79 72.97 70.87 70.69 68.01 61.14 56.67
43.90 44.18 43.80 43.30 43.15 43.01 42.37 41.50 40.76 41.74 42.78 44.35 45.38 45.88 46.98 48.03 47.46 47.28 47.44 47.81 47.48 46.55 47.71 47.90 47.56 49.21 51.39 53.44 55.74 55.20 56.63 57.65 58.39 61.61 67.78 68.03 70.01 70.44 70.71 71.78 71.99 68.37 67.01 64.97
42.45 41.39 41.86 41.98 42.84 42.42 41.79 42.64 42.35 42.75 44.20 44.37 44.45 45.87 46.39 46.19 46.80 46.07 45.92 46.91 47.05 45.37 46.66 46.58 46.71 49.35 50.90 52.60 52.80 53.49 54.57 57.19 58.27 65.68 65.57 67.83 67.53 67.65 68.05 68.39 68.89 67.46 67.44 64.88
45.36 44.99 44.43 44.78 43.74 42.66 42.57 43.16 43.79 44.33 44.46 45.96 45.53 45.36 44.19 44.49 44.09 44.59 45.18 45.80 45.47 44.84 45.17 45.78 47.65 48.61 48.38 49.57 51.97 52.53 54.97 58.07 61.20 64.39 68.07 67.37 66.47 67.92 67.53 67.83 67.42 65.70 65.40 61.82
48.25 46.20 46.16 46.99 46.51 44.96 44.33 43.57 43.81 44.78 45.69 45.53 45.79 44.78 44.87 45.04 44.60 44.50 45.19 43.76 43.05 42.56 43.41 45.57 48.16 46.44 46.44 48.51 51.41 52.48 53.14 54.94 56.83 58.43 63.49 60.59 60.65 61.25 62.04 61.79 62.44 64.32 65.97 65.79
48.45 48.69 48.66 47.01 47.77 47.10 45.45 46.09 46.26 45.08 45.60 45.58 45.72 45.44 44.53 44.06 44.32 43.79 44.07 42.58 43.33 43.96 45.11 45.46 45.22 44.36 45.00 45.93 48.20 46.20 47.41 47.80 48.43 48.82 52.50 53.26 59.01 58.06 57.26 55.45 57.98 58.52 60.53 60.08
48.82 48.73 48.07 46.07 45.55 48.10 46.38 46.18 46.32 44.89 45.35 45.79 45.12 44.31 43.76 43.40 43.29 43.08 42.32 41.29 43.64 45.37 45.01 45.88 44.99 44.17 44.72 43.94 43.35 42.99 42.98 43.35 42.84 43.15 43.12 44.06 46.06 46.28 47.39 48.36 48.63 50.92 54.02 55.27
47.47 47.49 47.35 47.42 45.66 44.80 46.28 47.19 46.34 46.61 46.67 45.98 46.08 45.63 44.16 43.22 42.97 42.35 42.67 42.19 44.15 46.21 44.99 44.48 44.52 46.05 44.28 43.98 41.77 41.28 41.21 40.95 40.46 40.42 40.31 40.52 40.13 40.00 40.16 41.13 42.55 43.12 42.96 43.16
47.33 46.85 47.48 46.14 45.84 44.87 45.32 45.98 46.11 47.64 46.11 46.61 45.92 44.82 44.02 43.51 43.27 41.07 39.46 43.02 43.79 45.23 44.72 44.12 45.73 45.50 44.64 42.02 41.35 40.85 40.43 40.23 39.51 39.12 39.02 39.04 39.00 39.24 38.64 38.13 38.55 39.29 40.06 40.72
48.46 47.94 47.98 48.89 48.30 46.39 45.23 45.42 45.84 48.34 46.03 46.59 46.53 46.46 44.93 43.51 42.40 42.96 43.54 44.54 45.34 45.60 44.91 45.32 47.00 46.02 44.53 42.51 41.36 40.51 40.13 39.99 39.59 39.82 39.39 38.97 39.13 39.26 38.89 38.53 38.59 38.89 38.97 38.93
49.22 48.55 47.54 47.22 47.08 44.84 45.06 45.24 43.67 47.03 45.89 45.50 46.55 46.89 45.79 45.31 43.78 44.04 44.16 44.14 45.46 44.97 44.84 46.58 47.04 47.29 44.26 43.26 42.31 41.49 40.68 40.07 39.65 39.57 39.27 39.30 39.01 39.05 38.95 38.75 38.54 38.57 38.82 39.10
48.68 47.69 46.95 47.40 47.12 45.27 44.80 44.94 42.69 42.90 44.41 44.78 44.87 45.90 46.04 46.05 45.30 45.26 45.37 45.24 45.55 46.03 42.91 44.00 44.80 44.43 44.14 43.71 43.11 43.01 42.04 41.52 41.33 40.64 40.25 39.87 39.44 39.51 39.75 39.99 39.49 39.49 39.52 39.60
45.35 45.34 46.07 46.87 47.32 45.36 44.86 44.30 44.39 42.71 44.07 44.27 44.72 46.01 46.64 45.65 45.82 45.23 45.14 44.38 44.17 45.51 44.62 44.02 42.91 43.66 42.67 43.73 43.51 43.38 42.25 41.43 40.96 41.36 40.76 40.33 41.01 40.99 40.76 40.04 40.11 40.18 40.00 40.02

GFSNGP_sfc_wetblb_066.txt.gz
Wetbulb
31.71 36.99 37.81 37.06 37.27 38.65 35.24 33.69 30.21 35.44 36.83 41.28 46.19 52.23 57.26 59.08 60.15 60.75 60.81 62.72 63.79 64.53 65.23 65.39 65.82 65.87 66.04 68.01 70.45 71.50 70.79 70.97 70.54 71.80 72.18 70.72 68.79 69.55 69.75 70.00 70.51 70.62 72.37 73.42
32.56 38.37 38.32 36.39 38.87 39.39 39.54 39.26 38.01 38.00 36.12 46.08 49.66 53.96 55.48 56.73 57.54 57.92 59.41 60.85 61.74 62.21 62.85 64.18 65.55 66.76 67.30 68.27 69.25 71.92 71.41 71.19 71.97 71.43 72.18 72.01 70.94 68.91 69.30 68.71 70.40 70.88 71.93 72.73
25.08 34.91 35.27 31.08 35.35 37.71 39.08 41.52 40.84 33.63 40.63 45.98 46.48 50.44 52.16 53.13 54.46 55.19 57.86 60.83 61.41 61.24 61.77 62.70 65.52 66.37 67.29 67.30 68.75 70.37 71.89 72.25 72.36 72.66 71.94 72.02 72.32 71.14 69.87 69.24 68.49 70.51 71.03 72.61
26.78 29.96 22.58 32.76 39.92 40.91 41.56 42.44 43.43 43.69 44.63 45.84 46.19 48.62 49.98 52.51 53.09 54.64 56.31 57.17 58.10 60.09 61.73 63.35 65.19 68.00 68.46 69.69 69.52 68.89 69.57 72.25 72.99 73.01 72.63 72.63 72.26 71.98 71.33 71.05 69.05 68.73 71.33 71.11
26.32 25.92 30.95 35.93 38.75 39.39 37.18 37.97 43.26 41.66 43.10 45.66 46.41 49.62 48.47 50.11 53.52 54.52 56.23 57.94 58.66 59.94 61.30 62.64 65.12 66.54 69.30 69.10 66.28 65.87 67.32 69.04 70.98 73.14 72.80 72.74 72.25 72.32 72.41 71.98 71.31 69.47 70.77 72.67
30.90 24.77 23.63 32.38 40.89 45.06 41.71 32.47 43.54 43.43 42.33 42.65 44.92 39.98 44.31 48.15 51.00 53.65 56.44 58.07 57.70 58.80 60.80 62.12 63.31 64.02 66.75 67.89 66.84 65.21 67.76 68.89 70.34 71.96 72.75 72.64 72.87 72.65 73.00 72.75 72.46 72.22 71.09 71.14
29.38 27.37 32.91 39.83 41.97 44.45 31.41 31.73 41.44 42.76 41.99 41.86 39.90 43.04 46.04 47.97 49.37 53.12 55.17 57.51 58.23 57.63 59.28 59.97 61.55 61.26 63.48 65.05 66.61 67.10 68.24 70.29 71.60 72.30 72.57 73.29 73.08 73.35 73.18 72.89 72.54 72.43 72.18 72.10
32.69 27.24 26.00 41.46 41.47 36.32 39.49 40.63 40.90 41.06 41.04 40.90 42.49 44.26 45.47 46.78 48.01 49.82 54.07 56.49 57.22 56.03 56.32 59.41 59.80 59.35 60.12 61.43 62.16 64.11 64.39 66.32 68.75 72.46 73.06 73.29 73.17 73.29 73.10 72.78 72.22 71.77 72.01 72.62
32.23 35.35 40.96 40.88 39.20 42.32 41.15 39.10 39.59 39.74 41.39 41.30 42.66 43.16 44.76 45.90 47.48 49.10 52.53 54.68 56.97 55.89 55.27 56.50 58.31 58.39 58.30 58.88 60.29 61.31 62.80 64.50 66.30 70.80 73.10 73.03 72.68 72.61 72.57 72.43 72.26 72.07 71.51 71.44
31.00 36.95 38.50 38.42 40.65 40.86 41.81 41.32 42.77 43.05 42.37 42.72 41.98 43.62 46.06 47.48 48.17 48.31 50.82 52.23 56.10 55.71 56.62 56.42 57.00 57.72 57.92 57.85 58.44 58.83 60.11 61.80 64.27 67.68 72.77 73.42 73.43 73.26 72.87 72.60 71.98 72.08 72.06 71.95
31.26 34.80 37.01 39.78 40.72 40.98 41.73 43.58 43.46 43.39 42.89 42.98 45.19 44.78 46.18 46.25 48.20 48.90 50.69 51.84 54.58 54.42 54.46 55.57 56.02 56.84 56.44 56.41 57.09 57.03 58.90 60.54 62.80 68.36 72.64 73.68 73.61 73.45 73.07 73.69 72.56 72.60 72.69 72.89
28.47 35.12 36.08 38.09 41.03 42.08 41.50 40.79 42.41 43.08 43.07 44.19 45.59 45.11 46.26 46.38 50.05 49.46 50.85 52.37 52.48 55.27 54.13 53.03 53.36 54.21 54.17 53.81 54.38 54.87 57.55 59.17 61.34 62.85 66.58 73.25 73.82 69.56 53.20 55.15 57.60 57.32 58.97 68.65
35.52 38.92 39.30 40.04 42.06 43.40 41.92 42.53 43.41 43.46 44.16 44.14 45.08 46.91 47.06 47.93 49.82 50.96 51.93 53.30 50.77 53.22 51.62 49.87 50.59 51.46 51.91 52.41 53.06 53.96 55.88 57.31 58.83 59.07 64.41 71.75 73.04 72.66 70.80 60.45 49.01 50.66 52.29 55.54
40.29 39.62 38.41 40.77 40.08 43.49 43.53 43.47 44.19 44.33 43.94 44.49 45.35 47.52 48.77 49.03 50.33 49.58 48.83 50.22 52.18 50.06 49.24 47.99 48.28 48.63 50.01 50.91 51.70 52.53 55.47 53.56 57.53 59.08 60.15 66.13 72.98 73.76 72.63 71.64 70.65 68.93 51.02 55.19
41.81 41.79 40.58 40.92 41.77 42.74 43.34 42.32 42.29 41.75 42.35 43.65 46.06 46.05 46.88 47.13 46.72 46.72 47.61 48.83 49.09 47.59 45.82 46.38 45.91 46.03 48.50 49.72 51.66 51.36 52.73 54.11 55.93 56.93 58.71 60.70 66.78 71.44 72.89 72.44 71.66 72.17 61.50 54.29
42.85 42.92 42.33 41.33 41.35 41.95 41.53 41.53 41.26 41.97 43.05 43.13 44.13 44.48 45.46 47.02 46.86 46.27 46.66 47.08 45.78 44.63 44.74 44.10 45.24 46.59 48.70 49.43 49.62 50.91 52.74 53.37 54.57 56.43 58.47 61.28 65.63 69.51 71.61 71.07 69.51 68.02 67.35 68.77
38.45 37.87 39.51 39.48 40.53 41.07 40.79 41.17 41.34 42.89 44.71 43.89 44.05 44.70 45.12 45.41 45.11 44.96 45.15 46.02 45.53 45.63 44.72 44.52 44.71 47.09 46.99 47.56 48.31 50.77 51.72 53.39 55.97 59.05 61.14 64.03 66.27 68.18 70.89 71.36 70.64 69.33 66.98 63.99
42.24 41.54 41.59 40.96 40.71 41.17 41.33 41.77 42.74 43.24 44.27 45.26 45.68 44.72 44.29 43.59 42.98 43.38 43.75 44.14 44.17 43.77 43.95 44.63 46.36 46.06 45.04 45.77 49.51 49.78 50.07 50.60 52.44 51.78 58.11 61.49 61.52 66.23 68.16 69.95 68.20 66.03 63.88 62.18
45.58 43.70 43.32 43.63 43.21 42.06 41.90 42.87 41.94 43.24 44.71 44.49 44.55 43.49 43.98 43.37 43.48 43.32 43.89 41.95 42.20 41.75 42.80 45.19 47.43 45.45 44.94 46.45 47.23 46.27 46.82 47.13 48.49 47.00 49.13 53.76 58.73 59.01 59.25 65.60 65.22 65.02 64.50 63.82
46.18 47.02 45.93 44.61 44.71 43.81 42.84 43.50 43.42 43.37 44.59 43.97 44.29 43.36 41.87 42.18 43.23 42.80 42.94 41.69 42.94 43.61 44.73 45.50 45.16 43.90 44.41 44.56 46.10 43.73 43.51 44.02 44.83 45.51 44.61 46.01 47.35 47.35 51.19 52.54 59.48 61.13 61.27 60.72
46.81 47.54 47.81 46.64 43.22 44.34 43.65 42.64 42.99 42.92 44.30 44.02 42.99 42.55 41.73 41.76 42.62 42.54 41.49 40.59 42.95 45.29 44.68 45.36 44.77 43.87 44.36 43.60 43.05 42.46 43.10 41.65 41.43 42.65 41.62 42.53 42.64 42.29 43.24 45.76 47.40 48.48 49.35 52.16
45.45 45.84 45.64 46.75 44.23 41.28 42.75 42.23 42.88 43.07 43.10 44.05 44.20 43.64 42.39 41.47 41.83 41.97 42.71 42.07 43.92 46.03 45.30 44.16 44.12 45.43 44.02 44.22 41.63 41.13 41.18 40.61 40.34 40.11 39.82 39.87 39.57 39.75 39.85 40.00 40.87 41.95 43.43 44.15
45.54 46.03 45.31 45.66 43.49 43.08 41.27 42.04 41.88 43.05 43.05 43.77 43.47 42.36 40.83 40.71 41.06 39.78 39.19 42.99 44.45 45.02 45.58 44.91 45.42 45.21 44.17 41.42 41.12 40.55 40.06 39.80 39.17 39.11 39.23 39.33 39.07 38.92 38.79 38.90 39.31 39.52 39.25 39.49
43.21 44.07 44.24 45.61 43.69 41.63 40.03 40.96 42.39 42.68 42.80 43.61 42.98 42.67 41.90 40.63 40.78 42.03 42.24 43.89 45.35 45.50 45.21 45.31 46.12 44.97 43.92 42.10 40.81 40.32 39.93 39.64 39.30 39.17 39.41 39.20 39.00 38.71 38.70 38.81 38.59 39.18 39.35 38.97
45.08 44.62 43.00 42.89 42.00 40.22 40.25 40.82 41.91 41.30 41.27 41.74 42.48 43.08 43.15 42.65 41.63 42.76 43.27 43.69 45.26 45.33 44.11 46.33 47.70 45.95 42.95 42.76 41.76 41.12 40.54 40.32 39.87 39.74 39.44 39.46 39.01 38.61 38.80 38.79 38.75 38.79 39.02 39.05
43.98 44.60 45.28 44.56 44.40 40.60 40.41 39.20 39.91 40.07 40.57 40.02 41.26 43.00 43.12 42.15 42.70 42.94 43.03 44.36 43.65 43.91 42.90 43.47 43.91 43.20 42.31 42.19 41.84 41.90 41.40 41.13 40.94 40.45 39.94 39.40 38.97 38.89 39.16 39.22 39.36 39.36 39.41 39.47
42.25 43.40 43.18 44.55 45.25 45.00 40.30 40.00 41.21 40.06 40.54 40.81 41.08 41.92 42.89 42.87 43.22 43.58 43.79 41.67 41.79 42.13 41.84 41.93 41.62 42.84 42.43 42.33 42.00 41.77 41.30 41.06 40.26 40.65 40.40 40.79 40.73 40.12 39.77 39.67 39.65 39.90 40.12 39.95

GFSNGP_sfc_wetblb_069.txt.gz
Wetbulb
31.61 36.75 36.43 35.60 36.22 37.14 32.83 32.38 29.61 33.40 33.68 41.61 45.24 51.26 53.00 53.87 55.97 58.02 59.11 59.85 60.38 60.68 62.00 64.31 65.20 65.08 65.19 66.13 68.76 69.28 68.70 69.20 69.42 69.89 69.48 68.59 68.09 68.59 69.03 69.22 69.04 68.77 70.28 72.48
31.56 36.61 36.47 33.99 36.78 37.53 37.69 37.30 36.13 37.82 35.14 44.07 46.96 51.43 51.06 51.87 53.35 54.87 56.08 57.24 58.66 60.69 61.68 62.49 63.50 65.84 66.51 67.13 67.10 69.78 69.34 68.92 69.91 70.16 70.29 69.34 68.13 67.54 67.92 68.72 68.74 68.29 68.84 70.08
24.58 33.00 33.21 28.66 34.40 35.71 38.62 41.22 39.39 34.17 38.99 44.53 44.27 47.33 47.56 50.18 51.61 53.02 55.28 56.23 57.16 58.39 60.75 62.15 63.39 65.97 66.50 67.58 67.71 68.18 69.72 69.74 69.91 69.86 70.21 70.72 70.03 68.27 67.32 67.63 68.23 67.73 68.68 69.51
25.17 28.10 21.01 31.49 37.64 40.12 40.61 41.06 41.80 41.01 42.00 43.81 44.31 45.66 47.25 47.20 47.58 51.84 54.90 55.62 56.71 58.08 59.13 61.18 63.58 64.84 65.62 67.83 68.06 68.35 68.95 70.23 70.47 70.75 69.78 70.39 71.16 70.24 68.71 68.05 67.83 67.43 67.48 68.03
25.19 24.23 28.97 34.56 37.60 37.06 35.59 37.12 42.13 40.37 42.05 42.87 44.07 46.10 46.72 47.02 47.80 48.79 53.03 55.87 56.79 57.89 59.11 61.16 62.39 62.36 65.19 68.50 67.54 65.15 66.71 67.89 69.99 71.31 71.36 70.84 70.57 70.87 71.09 69.91 68.95 68.68 68.30 67.93
26.91 22.91 23.06 31.10 39.93 42.97 40.72 32.41 41.79 41.85 40.96 40.77 42.16 37.93 44.21 45.12 46.54 47.57 49.64 54.28 57.17 57.18 58.69 59.31 59.37 60.44 63.00 64.51 64.51 64.37 66.26 67.90 69.19 68.59 72.01 71.87 71.85 71.56 71.90 71.60 70.98 70.56 69.83 69.03
26.07 23.86 29.90 38.48 39.78 42.56 29.78 30.51 40.19 41.26 40.29 39.59 37.33 40.29 42.73 45.29 45.43 46.94 48.60 51.13 56.83 57.36 57.33 57.45 59.55 59.86 60.26 61.46 60.54 62.13 64.43 64.60 66.06 68.71 69.47 70.24 72.52 72.82 72.56 72.04 71.94 71.36 71.11 70.73
30.82 26.23 23.72 40.09 39.00 34.55 37.45 37.45 39.08 39.95 39.88 39.63 40.46 41.63 42.83 44.34 44.20 46.18 47.25 49.39 55.08 55.91 57.28 57.25 58.66 58.16 57.91 58.07 59.92 61.58 62.43 63.66 64.89 66.26 69.27 71.45 71.31 72.22 72.64 72.32 71.44 71.21 71.18 71.11
31.59 30.28 37.87 38.93 37.02 39.31 39.82 38.08 37.93 38.27 39.63 40.28 41.27 41.47 42.38 43.01 44.02 47.06 48.01 48.78 52.62 55.34 56.45 56.99 57.48 57.41 55.91 57.17 57.69 58.58 60.21 61.26 62.35 63.63 65.71 69.51 71.58 71.14 71.50 72.04 71.69 71.13 70.95 70.65
29.88 32.28 34.86 38.35 39.48 39.77 39.51 39.53 41.02 41.30 41.19 41.89 40.84 41.46 41.40 44.17 45.98 46.47 47.71 48.55 51.11 53.83 54.25 55.95 56.01 56.46 55.63 56.33 55.62 55.74 57.43 59.73 61.09 62.01 62.28 66.37 71.16 72.18 71.54 71.48 71.44 71.20 71.01 70.62
28.99 32.74 34.64 38.08 39.59 39.43 40.51 41.88 41.72 42.39 42.51 42.34 41.88 40.94 42.11 43.46 44.18 45.90 47.20 48.96 50.79 52.19 55.06 55.72 54.17 54.88 54.86 54.62 54.10 53.31 54.25 57.85 59.32 60.13 60.81 62.21 65.33 72.05 72.08 72.57 71.41 71.61 71.80 71.76
26.95 32.82 33.32 34.12 38.35 40.63 40.94 41.28 41.65 42.77 42.59 43.85 43.92 43.13 44.54 44.13 45.38 45.92 46.70 49.27 51.20 53.46 54.39 52.75 50.04 50.58 51.55 51.20 51.42 51.89 52.69 54.85 56.59 57.82 59.14 60.60 63.48 66.64 57.34 56.83 55.49 55.89 56.49 66.36
34.31 36.14 37.22 38.30 39.99 41.34 41.81 43.09 43.29 43.20 43.62 42.90 43.86 44.28 44.73 45.18 46.81 49.03 49.16 49.79 52.89 53.98 52.23 50.92 47.74 47.98 48.95 48.88 49.82 49.96 51.15 53.36 54.38 54.25 57.57 59.86 60.77 62.64 68.17 63.89 51.74 50.47 49.20 52.82
38.50 38.90 37.03 38.97 38.15 40.93 42.90 44.77 44.17 44.03 43.69 43.60 44.30 45.91 46.99 47.62 47.97 47.24 48.91 50.54 52.20 50.98 49.19 48.32 46.13 45.80 46.87 47.69 48.50 49.73 51.92 50.52 51.74 54.01 55.77 56.37 58.44 60.44 64.07 69.86 71.14 70.99 55.61 53.55
40.83 40.50 39.83 37.76 39.58 40.82 41.80 43.69 41.83 42.29 43.00 43.17 44.25 44.26 44.78 45.32 45.59 45.66 46.63 47.37 48.20 46.76 44.28 43.84 43.89 43.95 45.54 47.15 47.53 48.82 48.81 50.11 51.71 53.25 54.77 55.51 57.17 58.58 59.69 65.32 71.62 72.11 68.14 55.54
41.69 41.30 40.82 39.80 40.19 40.71 40.35 40.50 39.43 41.38 43.37 43.39 43.09 43.59 44.55 45.70 45.49 45.57 45.86 46.11 44.54 44.54 44.30 43.46 44.25 45.65 47.02 46.43 45.55 46.76 48.14 51.17 52.31 53.52 55.21 56.95 58.42 59.12 61.27 64.37 69.50 71.41 71.35 70.15
37.84 37.81 38.72 38.78 39.43 39.58 40.11 40.32 39.88 41.79 43.57 43.67 42.21 42.85 44.34 44.23 44.28 44.08 44.21 44.67 44.76 44.79 44.98 44.27 44.01 45.81 47.31 45.88 45.98 46.36 48.62 50.24 52.20 52.85 53.03 53.30 55.57 61.38 63.29 64.91 67.18 70.76 71.03 67.94
41.92 41.22 40.61 39.98 39.31 39.23 40.18 41.07 41.04 41.02 40.93 43.41 44.16 43.49 43.05 42.62 42.00 42.57 43.35 43.65 43.87 43.94 44.59 44.83 45.52 47.06 45.17 45.96 45.40 47.35 46.32 48.41 49.56 50.21 49.85 49.58 50.44 56.47 60.95 64.73 66.75 68.60 66.47 59.11
45.47 43.95 42.59 42.35 41.93 41.15 40.69 40.54 40.76 41.21 41.77 42.55 43.12 42.03 41.32 42.68 42.60 42.78 43.35 42.79 42.31 41.40 42.43 44.86 47.23 44.98 44.03 44.86 48.23 44.97 45.00 46.40 46.26 47.03 47.15 46.79 47.60 48.74 50.11 52.18 64.20 68.42 65.64 63.83
46.36 45.93 45.58 44.87 44.90 42.75 41.59 41.99 41.93 41.33 42.11 42.59 42.85 40.65 39.56 42.11 42.42 42.36 42.63 41.49 42.38 43.54 44.04 44.73 44.92 43.48 43.78 43.94 46.00 43.36 43.45 43.95 43.65 43.66 43.47 43.78 43.93 43.87 45.58 46.12 49.23 54.12 61.16 60.95
45.61 46.96 46.81 45.98 44.75 44.95 43.46 42.55 41.31 41.31 41.65 43.23 42.54 40.00 39.15 41.97 42.64 42.80 41.56 40.71 43.29 45.32 44.40 44.86 44.27 43.71 43.69 43.47 42.19 41.83 41.80 41.66 40.93 41.05 41.30 41.23 41.72 42.36 41.67 44.20 44.63 46.16 50.35 50.26
44.34 45.39 45.98 45.28 44.11 44.30 42.85 41.87 40.85 41.36 41.42 42.10 42.60 41.27 40.28 39.79 40.15 40.85 42.92 42.24 43.90 46.40 45.54 43.80 43.58 45.26 43.62 43.46 41.30 40.75 40.56 40.42 39.62 40.12 39.74 39.59 39.79 39.61 40.18 40.12 40.67 41.97 43.56 43.96
43.76 44.99 44.74 42.25 42.49 42.07 41.71 39.95 40.75 41.45 41.72 42.09 41.56 41.12 38.92 39.85 40.26 39.27 39.19 43.67 44.39 45.23 45.32 45.03 44.42 44.71 44.05 41.21 40.72 40.39 39.98 39.58 39.51 39.36 39.30 39.00 38.98 38.87 38.90 38.75 40.00 40.03 39.99 40.17
44.07 44.52 44.98 44.86 42.78 42.49 39.47 39.50 40.32 41.23 41.40 42.10 41.56 40.78 39.61 38.65 40.13 41.35 42.54 43.99 45.37 45.40 45.24 45.17 44.36 44.02 43.32 41.48 40.39 39.97 40.03 39.76 39.54 39.53 39.59 39.23 39.07 38.84 38.71 38.87 38.76 38.95 38.79 38.48
45.49 45.88 45.29 44.14 42.44 40.99 38.01 39.20 39.75 39.83 40.57 40.52 40.88 41.81 41.79 41.06 40.89 42.46 42.91 43.06 44.90 44.76 43.59 46.39 44.88 43.93 42.29 41.81 40.97 40.29 40.02 39.87 39.92 39.82 39.22 39.17 38.94 38.95 39.00 38.77 38.71 38.54 38.69 38.60
42.37 43.50 44.02 43.62 41.35 38.85 38.50 39.43 39.48 39.22 39.66 39.51 40.25 41.19 42.08 41.88 41.66 42.59 42.31 42.85 41.51 43.68 42.08 42.77 42.55 42.07 41.33 41.63 41.76 41.51 40.99 40.37 40.08 40.02 39.79 39.61 39.43 39.48 39.38 39.46 39.35 39.17 39.02 38.94
40.83 41.12 39.61 40.40 41.38 42.88 38.85 38.63 39.07 38.95 39.53 39.63 39.53 40.43 41.53 41.43 41.88 43.08 42.99 41.60 40.17 40.82 41.16 40.91 42.07 42.48 41.73 41.58 41.45 41.18 41.30 41.15 39.72 40.78 40.60 40.73 40.65 40.34 40.26 40.10 40.03 39.67 39.38 39.13

GFSNGP_sfc_wetblb_072.txt.gz
Wetbulb
32.90 35.38 35.53 34.76 35.06 35.88 32.08 31.96 29.47 32.17 35.61 41.04 45.78 48.99 49.35 51.17 52.87 54.48 55.82 56.85 58.34 59.73 61.45 62.92 64.42 66.35 67.10 67.30 67.85 68.44 69.04 69.16 68.94 69.24 69.31 69.22 69.21 69.33 70.47 70.39 70.35 70.67 70.96 72.19
30.36 35.63 34.95 33.42 35.82 36.70 36.24 36.61 34.75 36.09 36.98 43.86 46.80 48.68 47.97 48.21 49.89 51.29 53.74 55.87 57.12 58.59 59.91 61.07 63.43 65.21 66.91 67.54 67.80 68.84 68.53 68.55 69.99 70.22 69.82 69.15 68.83 68.87 69.08 69.99 70.22 69.99 70.01 71.09
24.38 31.62 31.55 28.61 32.67 34.97 38.45 40.33 39.37 34.24 39.18 43.71 42.78 46.15 44.91 45.27 46.03 47.45 49.39 53.12 55.84 56.96 58.03 59.88 61.48 63.74 63.86 65.93 68.23 68.22 69.08 68.96 69.07 70.13 70.01 70.01 69.61 68.84 68.32 68.52 69.52 69.74 69.47 70.04
25.22 26.20 21.10 29.36 36.80 38.68 39.85 40.77 41.60 40.64 41.66 42.50 42.76 44.12 46.53 45.90 44.82 45.17 46.61 48.39 52.01 56.28 57.34 58.91 61.37 61.46 62.10 66.71 68.97 68.13 68.12 69.25 69.63 69.74 69.90 70.57 70.65 69.61 68.67 68.53 68.22 68.52 69.04 69.61
24.45 22.57 27.34 33.90 37.87 38.07 36.73 36.53 41.80 40.42 41.58 42.01 42.74 43.98 45.41 45.73 45.78 45.46 46.41 47.67 49.88 53.68 57.69 58.91 59.68 60.40 61.05 64.59 65.10 65.98 66.20 67.43 69.62 70.31 70.04 70.35 70.28 70.84 70.62 69.51 68.71 68.38 68.95 68.66
25.11 23.09 22.58 30.35 39.33 41.73 40.44 30.46 41.37 41.46 40.12 39.76 40.24 37.20 43.99 43.77 44.53 45.71 46.14 47.38 48.87 51.03 56.03 57.65 58.04 59.75 59.52 61.96 62.36 62.17 63.50 64.68 65.60 67.29 70.61 71.28 70.62 70.73 71.21 71.54 70.65 69.96 69.60 69.58
25.85 23.01 28.95 37.78 39.51 41.77 29.42 30.63 40.17 41.03 40.27 39.51 37.45 39.40 41.87 43.87 43.65 45.50 45.98 47.04 49.47 50.68 53.29 56.72 58.44 58.90 57.74 59.27 59.56 60.58 62.54 64.05 64.99 65.91 67.59 70.33 71.60 72.10 71.63 71.56 71.59 71.71 70.74 70.93
27.09 24.04 23.48 40.17 38.76 34.26 36.30 38.34 39.79 39.48 40.20 39.47 40.19 41.20 42.34 42.75 42.64 44.09 44.52 46.59 49.36 49.24 50.79 54.96 58.05 58.28 57.24 57.10 59.49 59.58 60.27 61.40 63.96 65.19 65.42 67.54 68.33 69.93 72.19 72.52 71.78 71.70 71.66 71.44
29.35 28.70 36.81 38.88 37.45 39.33 39.66 38.09 39.04 38.82 39.74 40.01 39.91 40.21 41.30 41.51 42.21 43.26 44.14 46.71 48.59 48.61 50.06 53.12 56.55 57.32 56.24 57.03 57.58 56.83 57.84 59.21 60.80 63.40 64.32 65.77 66.64 67.79 70.46 71.89 72.07 71.68 71.59 71.31
29.54 31.07 34.59 38.17 39.11 39.63 40.15 39.30 40.59 40.66 40.66 41.13 40.40 41.81 41.81 41.79 41.98 42.57 43.89 45.86 47.16 47.30 48.86 51.33 55.00 57.33 55.71 56.42 56.04 54.70 55.11 56.56 59.02 60.56 61.69 63.15 65.06 65.83 67.79 71.44 71.52 71.64 71.64 71.48
28.66 32.02 33.44 36.18 39.15 39.95 40.46 41.59 41.40 41.67 42.72 42.65 42.84 42.37 42.85 42.45 42.28 43.08 44.96 45.87 47.08 47.03 47.75 50.41 55.03 55.14 54.15 53.92 52.75 51.52 53.07 54.40 56.81 59.23 59.11 59.59 61.60 63.18 64.95 67.92 70.08 71.90 72.18 72.38
28.56 33.31 33.38 34.04 38.68 40.47 40.11 40.53 41.83 42.66 42.62 43.42 43.76 43.11 43.73 43.49 44.71 45.74 45.38 46.29 46.61 47.06 48.38 50.41 54.33 54.07 51.96 51.84 50.46 50.14 50.24 52.26 54.67 55.73 56.57 57.06 59.33 61.11 56.29 54.86 52.94 52.22 54.39 66.00
33.96 35.12 36.74 38.35 40.02 41.26 40.46 41.01 44.23 43.86 43.78 42.87 43.63 43.79 44.11 44.31 45.71 46.02 46.87 47.89 49.16 49.28 50.01 51.60 52.76 51.06 50.00 49.39 48.70 48.62 48.95 50.46 52.99 52.51 53.88 56.15 58.62 58.68 58.95 60.09 54.21 51.31 48.95 50.58
37.57 38.43 37.21 38.87 38.69 40.99 41.45 43.50 45.83 44.94 44.66 44.53 44.23 44.60 44.75 44.65 45.52 46.18 45.84 46.57 47.43 48.23 49.81 48.03 47.16 47.05 47.61 47.15 47.34 47.52 48.09 48.94 50.41 51.55 53.35 54.77 55.19 56.32 58.18 58.92 60.51 63.48 58.23 53.01
39.16 39.94 39.52 39.34 40.07 40.57 41.44 41.99 42.22 41.54 43.43 44.38 44.95 43.87 44.01 43.76 44.05 44.91 46.07 46.34 46.37 46.48 46.50 45.64 45.22 45.58 47.39 47.54 46.55 45.81 45.61 47.04 49.26 50.41 52.03 53.03 54.77 55.61 57.66 59.38 59.51 62.85 66.78 59.22
40.29 40.60 40.22 39.55 39.96 40.48 40.54 40.77 40.20 40.47 42.21 44.41 43.48 41.85 42.98 43.86 44.43 44.69 45.33 45.32 43.47 43.03 44.22 45.03 44.19 45.37 46.64 47.14 46.69 45.21 45.09 47.13 48.32 49.61 51.20 52.75 54.19 55.73 57.28 59.76 60.82 62.44 65.15 68.82
39.77 38.79 39.85 39.58 40.16 40.58 40.59 40.79 40.48 40.95 41.92 42.64 44.39 44.31 44.53 42.71 43.20 42.99 43.48 44.52 44.35 44.29 44.65 44.45 44.23 45.67 46.82 47.44 46.32 45.38 46.13 46.59 48.00 47.89 49.79 51.71 51.72 53.34 55.87 59.60 61.80 62.96 65.27 67.03
43.33 43.33 42.29 41.46 40.74 40.18 39.88 40.87 41.22 41.39 40.92 42.32 43.29 44.98 43.35 41.21 41.59 42.14 42.74 43.47 43.37 43.29 43.31 43.89 44.76 46.32 46.02 45.44 45.49 45.55 46.50 46.46 46.82 47.51 49.55 49.66 49.73 51.03 52.15 54.10 56.59 58.83 63.25 65.53
45.02 43.55 43.41 42.23 41.60 40.86 40.99 41.38 41.02 41.70 42.17 42.16 42.41 43.31 42.28 42.25 42.40 42.34 42.94 42.24 41.67 41.29 41.28 43.16 46.83 45.43 44.03 44.77 47.31 46.84 44.43 44.58 45.74 46.48 46.98 46.85 47.25 48.06 48.04 48.85 49.59 50.60 57.11 63.65
47.06 46.60 45.55 44.76 44.96 43.24 42.49 42.35 42.40 41.77 42.42 42.22 42.38 41.79 40.69 41.22 42.48 42.66 42.92 41.83 42.63 43.25 45.36 43.88 43.52 43.60 43.44 44.12 46.08 42.95 42.65 43.30 43.55 43.41 43.89 43.79 44.00 44.50 44.39 43.58 45.27 47.39 54.30 54.74
45.74 45.94 45.85 45.85 45.77 45.74 44.74 43.58 42.65 41.90 42.55 43.06 42.50 41.39 39.98 40.75 41.72 41.94 41.46 40.89 43.35 45.30 45.00 45.05 43.45 43.30 43.39 44.12 42.34 41.41 41.33 41.02 40.99 41.16 41.00 41.26 41.69 41.83 42.14 41.59 41.57 44.20 44.89 45.14
43.55 43.50 45.70 46.59 45.88 45.09 44.31 43.16 42.60 41.90 42.36 42.92 43.18 42.58 41.01 40.42 40.43 40.79 43.36 42.26 44.40 45.85 44.78 44.43 43.80 44.53 43.25 43.60 41.23 40.80 40.39 40.51 40.33 40.15 39.76 39.77 39.82 39.54 39.36 40.64 39.89 40.63 40.97 41.20
44.60 45.17 45.25 44.27 43.33 43.28 43.86 42.61 41.14 42.03 42.51 43.08 42.68 42.34 41.42 41.22 41.31 40.16 40.36 44.42 45.72 45.17 45.84 44.40 44.37 44.39 43.63 40.29 40.16 40.18 40.16 39.64 39.56 39.59 39.53 39.23 39.22 39.23 38.71 38.28 39.03 39.10 38.85 39.17
45.51 45.49 45.49 46.20 45.56 43.47 42.68 44.37 42.28 42.54 43.11 43.68 43.20 43.21 41.07 40.49 41.37 42.41 43.35 44.26 45.29 45.72 45.48 45.27 43.83 44.23 43.17 41.16 39.72 38.79 39.12 39.66 39.54 39.56 39.56 39.41 39.07 39.02 38.71 38.23 38.17 38.49 38.71 39.22
46.32 45.87 45.62 45.53 45.58 44.46 43.83 42.30 42.66 43.26 41.97 42.56 42.78 43.11 43.75 44.47 42.59 44.07 43.30 43.17 44.67 45.48 44.61 45.34 44.40 43.89 43.09 42.08 40.88 39.33 38.87 39.05 39.53 39.74 39.51 39.41 39.04 39.04 38.82 38.43 38.27 38.27 38.22 38.53
42.71 42.87 43.87 44.37 44.67 43.38 42.64 42.07 42.94 42.05 41.95 41.76 41.78 43.05 44.36 45.76 45.55 44.43 43.30 42.71 43.44 44.84 44.33 44.58 43.51 43.07 43.29 42.76 42.05 41.32 40.67 39.67 38.92 38.68 38.50 39.10 39.61 39.53 39.25 39.10 38.77 38.81 38.67 38.59
42.13 41.99 42.41 42.97 43.45 41.59 41.68 43.78 42.71 42.10 42.50 41.76 41.88 42.54 43.07 42.98 45.05 43.90 42.67 41.77 42.08 42.43 42.34 43.64 43.83 43.45 42.76 42.19 41.95 41.68 41.63 41.44 39.93 40.23 39.37 38.80 38.86 39.40 39.45 38.99 38.91 38.45 38.27 38.69

GFSNGP_sfc_wetblb_075.txt.gz
Wetbulb
40.23 40.57 40.55 39.72 39.55 40.10 39.70 40.41 40.14 41.14 42.99 47.61 50.07 51.43 51.91 53.38 54.41 54.12 53.85 55.67 57.06 57.62 59.11 61.50 63.52 65.35 68.09 70.05 70.57 71.11 71.92 71.67 71.91 73.02 71.93 71.07 73.16 74.80 74.64 74.58 74.45 74.92 75.17 75.31
36.63 39.29 39.28 37.95 39.95 40.20 39.89 40.33 40.70 41.38 43.21 49.36 51.15 52.54 51.40 50.67 51.47 51.21 51.71 52.81 54.86 57.06 58.56 58.41 60.74 62.45 63.48 65.88 69.09 70.15 70.09 71.61 73.22 73.68 74.05 73.76 74.31 74.37 74.45 74.22 74.27 74.46 74.11 74.70
33.79 37.34 37.81 35.08 38.93 40.12 41.18 44.09 43.27 40.47 45.23 48.21 47.44 49.11 48.47 47.72 47.99 48.13 49.22 51.09 52.90 54.45 56.71 59.20 59.80 61.41 60.91 62.62 67.44 70.07 70.51 70.82 72.08 73.32 73.07 73.75 73.53 73.80 73.85 73.97 74.33 73.86 73.61 73.86
34.98 35.50 29.08 38.42 43.35 42.05 42.49 44.29 46.01 46.10 46.66 46.68 46.41 47.66 49.07 49.16 49.13 48.69 49.22 49.88 51.39 53.42 55.19 57.80 59.88 60.20 60.40 62.88 65.25 68.52 71.10 70.83 72.07 72.37 72.30 73.54 73.58 73.31 73.79 73.35 73.64 73.55 73.47 74.23
33.74 33.20 34.95 38.14 40.83 41.65 40.88 40.92 45.49 44.94 45.28 46.00 47.02 48.64 48.64 49.68 49.46 49.16 49.76 50.37 51.28 52.95 54.38 56.80 58.91 60.98 61.01 61.04 63.29 62.81 64.95 67.78 69.28 71.33 72.72 72.90 72.90 73.19 73.63 73.15 72.87 72.77 73.28 73.86
35.63 31.01 29.58 38.01 42.80 44.85 45.24 36.91 44.18 45.36 44.09 44.36 46.34 44.00 48.13 48.79 48.89 49.07 49.75 50.69 50.85 52.07 54.00 55.04 57.26 59.65 60.84 60.35 61.89 62.56 61.26 62.47 66.02 68.75 69.86 72.70 73.40 73.80 74.10 74.31 73.56 73.45 73.04 73.56
35.16 33.81 36.41 41.18 43.62 45.47 35.25 38.00 44.47 44.70 44.41 44.18 43.48 45.52 47.29 48.43 48.67 49.35 49.17 49.71 50.69 51.75 53.02 54.09 55.96 58.43 59.08 60.53 59.99 60.89 61.75 61.26 62.44 66.49 67.03 67.96 72.76 74.69 74.06 74.41 74.30 74.22 73.97 74.49
35.63 33.46 30.84 44.14 42.83 39.07 42.39 44.17 44.20 43.98 43.87 43.52 44.87 45.46 46.24 47.14 47.71 48.13 48.15 48.73 49.83 50.64 51.65 53.03 54.24 56.00 57.89 58.70 61.26 60.87 60.23 59.97 61.28 62.95 65.22 66.87 67.81 68.58 70.29 72.24 72.52 73.15 73.60 74.20
38.63 38.56 42.89 44.68 43.52 44.89 44.50 42.42 43.44 43.76 43.48 43.59 43.68 44.29 45.23 45.82 46.72 47.42 47.99 48.38 49.18 49.56 50.66 52.10 53.23 54.71 55.85 58.74 60.81 59.96 57.87 57.73 59.14 60.35 62.69 65.20 64.95 68.04 69.72 70.90 71.67 72.81 72.98 72.77
37.08 41.04 42.82 44.99 44.70 44.77 45.10 44.47 44.69 44.63 44.33 44.73 43.41 44.53 44.98 45.95 46.65 47.07 47.93 47.97 48.71 49.11 49.12 50.13 52.30 53.27 55.12 58.20 60.11 58.70 57.35 55.98 57.19 58.04 59.47 62.27 62.69 64.74 66.89 67.73 69.71 70.68 72.08 72.98
38.67 40.20 40.82 42.81 43.66 44.75 44.98 45.37 44.67 45.17 44.99 44.57 44.77 44.64 44.42 44.59 45.78 46.96 48.00 49.15 49.56 49.25 49.28 50.02 51.77 52.48 54.52 56.78 58.76 56.60 56.62 56.03 56.35 56.87 58.53 59.35 61.25 60.94 63.87 66.78 65.87 69.54 71.21 72.54
39.18 43.74 43.30 42.55 45.05 46.25 44.75 44.74 45.36 45.16 44.14 45.40 45.16 45.36 45.15 45.09 45.14 45.63 47.20 48.67 49.39 50.11 50.00 50.21 52.53 54.17 54.81 57.22 57.01 55.16 54.62 55.21 55.17 54.67 54.88 57.74 56.04 58.72 55.34 53.04 52.20 50.97 48.80 54.11
43.51 45.19 45.27 45.82 46.37 46.88 45.54 45.76 46.39 46.50 46.39 45.48 46.53 46.60 46.58 45.17 45.99 46.69 46.99 46.86 46.72 47.11 47.62 49.38 48.22 50.50 53.61 54.44 51.14 52.06 53.43 53.60 53.83 52.72 54.84 55.01 55.80 55.95 56.76 58.35 51.04 50.31 48.25 48.43
44.29 43.76 42.39 44.07 44.36 46.21 46.54 47.29 47.34 47.96 47.70 47.43 47.16 46.65 46.29 46.32 46.99 45.94 45.19 46.45 46.90 46.71 46.34 47.24 47.24 46.84 49.26 49.57 50.25 50.41 51.47 48.41 49.45 52.28 53.54 54.38 54.83 55.85 56.91 57.89 59.12 59.47 57.36 55.32
43.98 45.58 45.75 47.51 47.28 46.48 47.25 47.38 46.62 46.69 47.14 46.76 47.85 46.55 46.59 45.85 45.67 45.95 47.15 46.40 45.91 45.66 45.61 45.62 45.52 47.01 47.39 48.75 49.73 49.43 49.67 47.96 48.35 49.24 50.57 51.10 52.23 53.76 54.65 56.14 57.45 59.53 61.94 59.80
43.95 44.31 44.73 45.19 46.56 46.76 46.35 46.46 46.19 46.67 47.17 46.94 46.77 46.30 46.59 46.45 45.45 45.53 45.50 45.17 43.59 43.09 44.21 43.79 43.83 45.21 46.87 47.00 48.15 47.97 48.30 47.96 47.84 47.93 48.31 48.90 50.46 51.53 53.50 56.15 57.12 58.38 60.22 61.65
41.97 41.07 42.78 43.89 45.83 46.53 46.50 47.64 47.44 47.31 47.74 47.50 47.60 47.65 47.53 47.03 46.13 45.30 44.07 44.33 44.43 44.49 44.39 44.62 43.62 46.83 48.07 47.47 47.62 46.78 46.79 47.42 48.14 48.37 47.61 47.95 49.65 50.87 52.27 53.32 54.12 56.58 60.24 62.46
46.91 46.90 47.17 47.82 47.44 47.20 47.12 47.34 47.60 47.81 47.63 48.39 48.62 47.98 47.26 45.53 44.88 43.83 43.43 44.05 44.24 44.38 45.28 44.50 46.75 46.48 45.19 46.56 46.46 45.50 46.08 46.53 47.05 46.97 47.39 48.61 48.84 50.04 50.56 51.21 51.92 53.69 55.32 58.57
48.91 47.41 47.76 47.11 47.79 47.81 47.70 47.48 48.03 48.96 49.25 48.54 48.22 47.72 47.69 46.43 45.20 43.90 43.74 43.90 44.03 44.29 45.94 46.52 47.06 44.98 43.61 44.81 46.29 46.38 46.31 45.80 45.43 46.41 47.48 47.86 48.11 48.51 48.54 49.42 49.83 50.45 51.33 53.05
49.60 50.14 49.81 48.44 49.21 47.42 47.74 49.05 49.07 48.82 48.92 48.33 48.14 48.04 46.91 46.54 45.62 45.26 45.81 43.55 45.48 46.24 47.22 46.76 45.85 44.42 43.06 43.63 45.70 42.94 42.33 43.04 43.39 44.35 44.93 45.16 45.08 45.34 45.41 44.52 45.46 46.43 47.92 51.09
49.14 49.51 49.47 49.30 50.21 50.27 49.38 49.67 49.47 48.88 49.12 48.66 48.32 48.20 47.79 47.01 46.29 46.58 45.62 45.05 45.77 46.72 47.12 46.27 45.84 44.53 42.97 43.26 41.36 41.08 41.44 41.57 41.76 41.81 41.61 42.41 42.70 42.87 42.53 43.66 43.36 43.46 44.05 43.89
49.17 48.76 48.75 48.75 49.20 49.77 50.32 49.78 49.28 49.07 48.81 48.79 49.18 49.15 48.13 46.80 46.63 46.41 47.41 46.33 47.86 47.43 48.39 46.76 45.94 45.23 43.81 43.24 39.93 38.65 39.31 40.33 40.59 40.68 40.25 40.24 40.47 40.40 40.33 41.28 40.84 41.09 40.66 41.27
47.79 48.65 49.35 49.26 47.51 48.61 48.37 48.66 48.14 47.62 48.55 49.15 49.28 48.91 47.30 46.81 47.07 45.14 44.55 49.09 48.85 48.40 48.51 47.69 45.19 44.52 43.86 41.46 39.24 37.54 37.01 37.88 38.39 39.18 39.83 40.01 39.80 39.55 39.08 39.04 39.45 39.34 39.12 39.19
47.74 47.89 47.07 47.54 47.75 47.46 47.25 48.29 46.92 46.00 48.16 49.81 50.11 49.89 48.05 46.53 47.26 48.83 49.00 47.59 46.28 46.54 48.47 47.48 44.81 43.74 43.31 43.08 40.94 39.14 36.83 35.81 35.43 36.83 38.80 39.21 39.53 39.32 39.01 38.77 38.63 38.83 38.85 38.67
45.17 46.71 48.41 46.91 46.11 46.34 45.89 45.35 45.24 46.08 46.97 48.79 49.18 49.24 48.49 49.29 47.67 48.13 48.97 48.31 45.93 46.46 48.59 45.77 44.26 43.26 44.03 43.30 42.40 40.46 39.11 38.19 37.40 35.45 35.07 37.81 38.44 38.22 38.35 38.86 39.16 38.57 38.42 38.44
46.59 46.33 46.21 46.95 44.34 45.61 45.83 45.61 45.33 45.35 46.41 47.36 48.19 48.97 49.52 49.90 49.43 48.86 48.15 46.05 48.14 47.24 48.22 48.07 46.74 46.43 46.55 44.24 42.94 41.76 41.14 39.68 38.59 37.59 35.74 35.27 37.42 38.11 37.68 37.21 37.65 38.27 38.29 38.47
46.60 44.56 46.04 45.57 45.73 44.78 45.76 46.43 46.38 44.38 46.66 47.42 46.57 48.28 49.27 49.90 49.45 47.78 46.22 47.21 47.16 47.14 47.13 47.01 47.14 46.51 46.54 45.58 44.11 43.81 43.30 42.62 39.81 39.49 38.42 37.57 37.04 37.22 37.53 37.20 36.12 34.89 36.11 36.99

GFSNGP_sfc_wetblb_078.txt.gz
Wetbulb
45.71 45.39 45.66 44.62 44.01 44.39 46.23 47.43 47.07 48.69 51.07 52.96 55.31 55.61 56.55 57.83 58.02 57.26 56.79 56.85 58.08 58.68 59.41 60.74 61.11 63.58 65.58 67.41 69.94 74.00 73.74 73.83 74.41 75.23 75.25 75.19 74.17 75.67 76.50 76.77 76.66 76.93 76.36 76.72
42.91 43.85 43.91 42.72 44.16 44.10 43.98 44.87 47.15 49.42 49.51 55.14 56.33 56.56 54.77 54.74 54.67 54.34 54.70 55.69 57.36 58.59 59.63 59.96 60.85 61.43 61.33 62.81 66.33 71.47 72.95 73.36 74.86 75.30 75.67 75.68 75.39 72.84 76.08 76.35 76.76 76.90 76.30 76.11
40.38 42.19 41.82 39.76 43.78 44.37 45.31 46.40 46.89 45.94 51.04 53.58 53.59 53.64 53.28 53.31 53.67 52.99 53.19 53.87 54.79 56.14 57.74 59.19 60.10 61.42 61.13 61.63 64.62 65.42 70.72 73.42 73.28 73.95 74.79 75.24 75.78 75.98 75.55 75.52 76.36 76.40 76.30 76.30
42.65 41.09 34.28 43.48 46.97 46.24 45.75 47.69 48.78 50.51 51.13 52.04 52.05 52.93 53.92 55.03 54.16 53.89 54.23 54.02 54.71 55.33 56.45 58.01 59.47 59.37 62.17 63.20 64.01 63.80 63.49 64.46 65.86 71.88 73.09 74.72 74.90 75.16 75.75 75.87 75.82 75.57 75.80 76.82
39.52 38.71 40.85 41.55 44.04 44.33 45.34 45.30 48.97 49.53 50.08 50.60 51.36 52.50 52.85 53.81 53.86 53.74 54.09 54.79 55.22 55.72 56.74 58.47 58.59 59.87 61.37 62.18 64.81 63.95 62.17 62.79 63.29 64.90 68.17 72.03 73.87 74.12 75.57 75.26 75.55 75.59 75.95 76.10
40.37 36.67 34.62 43.95 46.82 49.05 48.56 42.78 49.26 49.90 49.26 49.46 50.75 46.95 51.39 52.94 52.95 53.37 54.14 54.65 54.79 55.44 56.35 57.40 57.94 58.55 59.40 60.69 61.58 63.82 63.98 63.24 63.56 64.69 64.78 66.23 70.96 73.08 74.73 75.86 74.88 75.39 75.61 76.29
40.33 38.33 41.44 46.10 47.45 49.21 38.69 43.30 49.34 50.05 49.68 50.06 48.97 50.73 51.55 52.62 52.75 53.54 53.91 53.95 54.42 55.17 55.36 56.79 57.61 57.58 57.62 59.54 60.33 62.57 63.78 64.02 63.22 63.59 64.68 65.72 66.27 69.54 73.09 75.35 76.74 76.37 75.55 76.41
41.32 38.19 36.07 48.67 46.98 42.96 48.09 50.02 49.50 48.78 48.93 48.85 49.22 50.05 50.62 51.58 51.96 52.45 52.55 53.24 53.79 53.71 54.26 55.94 56.98 56.83 56.66 57.36 60.57 62.49 62.98 62.84 63.45 63.54 62.35 64.34 67.14 67.62 67.80 71.19 72.12 74.87 75.63 76.58
42.92 44.44 48.07 49.98 49.41 50.36 49.08 47.73 48.71 49.13 48.86 48.56 47.83 48.47 49.43 50.21 51.09 51.83 52.35 52.87 53.58 53.31 53.59 54.94 55.94 56.26 55.71 57.32 58.90 60.48 61.87 61.75 62.08 62.73 63.41 63.98 64.42 66.10 67.28 68.89 70.32 71.90 72.98 72.82
42.19 46.06 46.97 48.77 49.28 49.44 48.86 48.68 49.00 48.97 48.58 48.93 47.51 48.56 48.98 49.80 50.28 50.84 51.74 51.84 53.39 53.73 53.37 53.74 55.30 55.93 56.43 57.23 57.95 58.56 59.88 60.65 61.05 60.82 60.91 62.65 62.88 64.02 65.53 65.87 66.38 68.67 70.42 72.65
44.11 46.32 45.71 48.45 49.28 49.03 48.38 48.71 48.23 48.67 48.64 47.98 47.82 48.18 48.97 49.19 50.10 50.41 50.29 50.09 50.38 51.10 50.60 49.62 51.09 52.94 55.51 57.47 58.70 57.35 58.87 59.59 59.51 59.65 60.56 60.54 61.48 62.43 61.93 62.89 62.52 63.73 65.39 68.18
42.50 46.94 47.33 46.59 49.78 49.95 48.66 48.18 48.49 47.87 47.58 48.66 48.97 48.19 47.50 47.44 47.36 46.97 47.97 49.61 50.23 49.18 50.50 51.23 51.66 52.19 54.26 53.94 54.17 56.01 57.48 57.72 57.83 58.14 58.40 59.07 59.43 60.14 54.66 50.77 48.80 48.29 48.54 53.18
47.44 49.72 49.08 49.63 50.12 50.40 49.05 49.13 48.98 48.43 48.70 48.11 49.26 48.63 48.38 47.76 47.10 47.14 47.73 49.00 48.30 48.13 47.73 49.00 49.17 50.15 52.20 53.60 52.70 50.63 51.71 55.50 55.59 55.79 57.45 57.31 57.84 58.39 57.94 58.47 51.35 48.68 47.35 47.08
49.90 48.66 46.83 48.30 47.85 50.18 49.66 49.82 49.17 49.58 49.63 49.43 49.31 48.99 49.32 49.13 46.81 46.77 46.20 47.38 48.15 47.71 47.67 46.73 47.27 47.58 48.34 51.17 52.33 51.39 50.44 49.72 53.33 55.21 56.12 56.70 57.28 57.78 58.32 58.07 58.07 58.71 55.01 52.14
45.90 48.61 49.17 50.82 50.27 49.84 50.20 49.97 48.96 48.99 49.76 49.11 50.05 49.26 49.58 48.34 48.51 46.61 46.81 48.45 47.71 47.34 46.85 47.93 48.24 47.95 48.05 48.37 48.24 49.15 50.49 51.15 52.86 54.29 55.33 54.47 55.28 55.77 56.22 56.31 56.73 57.83 59.65 56.46
46.64 45.74 46.18 48.70 49.31 49.05 49.09 49.10 48.51 48.92 49.50 49.57 49.41 49.52 49.04 49.42 49.26 47.80 47.15 47.89 46.70 46.53 47.58 47.18 46.89 46.33 47.84 48.37 47.33 47.51 48.47 49.02 49.77 51.29 52.68 53.95 54.54 54.51 54.78 54.47 54.56 56.96 57.96 58.94
43.48 41.97 44.78 46.04 47.27 48.45 48.38 49.51 49.93 49.86 49.60 49.91 49.97 50.62 50.52 49.55 49.44 48.76 47.10 47.68 46.97 48.15 48.39 48.27 48.25 49.62 49.30 47.53 44.73 44.77 45.87 47.59 48.41 50.33 51.07 52.46 52.34 50.78 50.83 52.95 52.98 53.84 55.74 57.99
47.16 48.74 48.90 47.98 46.81 47.43 49.46 50.30 50.81 50.74 49.84 50.68 50.79 51.12 50.50 49.44 48.49 49.10 49.10 48.82 48.39 47.97 48.19 48.86 49.36 48.57 47.73 47.27 45.82 45.39 45.52 45.20 45.43 46.08 47.63 48.67 49.72 50.42 50.17 50.96 51.39 51.83 54.61 56.82
50.35 49.95 50.97 50.58 51.03 50.72 50.64 50.67 51.04 51.44 51.55 51.76 51.19 50.61 50.93 50.61 49.63 48.70 48.90 46.67 47.17 46.65 48.19 48.25 47.82 47.62 47.38 47.06 46.51 45.85 44.30 43.67 43.97 44.74 46.13 46.71 47.73 48.80 49.32 49.71 50.64 51.87 52.64 53.19
51.72 52.05 52.00 51.47 52.07 51.69 50.90 51.19 50.55 51.44 51.86 51.98 51.60 50.98 50.49 50.85 49.80 49.24 49.14 47.92 48.96 48.90 50.08 48.80 48.91 47.67 47.53 45.49 44.95 41.94 40.89 41.37 42.10 42.34 43.11 43.99 44.91 46.47 47.25 46.88 48.56 49.27 50.10 50.47
51.59 51.76 51.71 51.86 51.98 52.85 52.31 52.77 52.13 51.38 52.16 52.28 51.40 50.84 50.81 51.16 50.21 49.82 48.53 47.42 50.01 51.62 50.44 48.85 48.10 47.08 46.91 45.17 42.26 40.12 39.39 39.11 39.55 40.66 41.47 41.72 42.32 43.18 44.23 45.21 46.05 46.65 46.49 46.58
51.93 51.37 51.47 51.75 51.57 51.91 53.12 53.56 53.24 52.95 52.23 51.85 51.90 51.72 51.37 50.42 49.83 49.65 50.60 49.38 50.69 49.12 50.20 49.89 47.94 45.87 45.98 44.82 42.39 40.49 39.22 38.39 37.52 38.14 39.17 40.43 40.58 40.70 41.53 42.37 42.45 43.42 43.59 43.54
51.34 50.15 50.96 51.21 50.91 51.17 52.06 52.61 52.53 52.63 50.51 51.12 51.25 51.41 51.15 49.91 50.00 48.38 47.36 51.04 50.73 48.51 51.04 50.99 45.36 43.87 43.76 45.96 42.90 41.68 40.33 38.98 38.02 36.53 36.37 37.78 39.27 39.71 39.76 39.55 40.32 40.45 40.71 40.85
49.75 50.03 49.91 50.30 51.25 48.25 46.15 47.67 48.87 50.75 51.28 52.08 52.43 52.28 51.18 49.08 49.39 50.57 50.35 49.28 47.67 47.52 50.81 50.21 46.96 43.89 44.28 46.82 43.73 42.08 41.00 40.24 38.91 37.96 37.08 36.33 36.71 36.68 37.72 38.91 39.01 39.66 39.65 39.26
49.26 49.49 49.76 49.37 47.13 46.13 45.80 46.82 46.88 47.80 49.41 50.65 51.34 51.70 51.13 51.05 49.71 49.25 50.19 49.77 46.32 46.73 48.91 47.09 45.72 44.76 47.05 46.92 45.74 42.83 41.83 41.22 40.14 38.48 36.92 36.32 35.58 34.87 33.73 34.52 36.63 38.74 39.19 39.12
48.71 48.73 48.53 48.74 49.80 46.40 47.13 46.24 45.03 46.25 47.67 47.93 49.41 50.08 51.05 51.89 51.78 51.25 49.87 48.00 49.19 47.14 48.18 48.18 48.44 49.38 48.22 47.78 47.44 44.08 43.68 41.96 41.30 40.09 37.80 37.22 36.90 36.32 33.68 33.08 33.25 33.47 35.40 37.57
48.41 45.43 48.27 47.93 48.59 48.70 47.66 45.55 44.76 45.17 47.09 48.05 48.05 50.57 52.05 51.33 50.95 48.16 47.08 47.92 47.72 47.52 47.17 47.20 47.97 47.19 47.20 47.24 46.83 46.86 45.87 45.21 40.90 41.52 39.57 38.98 37.88 34.38 36.17 35.58 33.41 33.17 33.05 33.67

GFSNGP_sfc_wetblb_081.txt.gz
Wetbulb
48.21 48.66 49.96 49.90 49.48 49.17 49.63 51.36 49.28 53.13 53.95 56.59 58.33 59.08 59.84 60.89 59.85 59.20 59.56 59.68 58.53 59.38 60.10 61.72 62.31 62.61 63.68 67.10 69.87 71.86 73.50 73.26 75.91 76.48 76.34 76.75 77.01 77.47 78.06 78.69 78.77 78.66 78.68 78.31
46.33 46.75 47.39 46.10 46.97 47.36 48.84 49.45 50.97 53.43 52.34 58.67 59.08 59.24 58.13 58.27 58.12 57.33 57.81 58.51 59.36 60.58 61.42 60.53 61.35 62.66 63.30 64.32 66.38 69.10 69.35 71.13 71.06 75.38 74.94 77.04 76.76 76.79 76.83 77.10 79.27 79.61 78.50 78.48
43.40 46.25 44.97 42.77 46.47 47.31 48.21 49.48 51.36 51.43 55.40 57.90 56.54 56.10 56.05 56.46 56.77 56.24 56.60 57.15 57.78 58.77 59.61 60.98 61.23 62.09 61.89 63.51 65.46 64.50 64.83 65.30 66.49 69.83 72.25 74.05 76.30 77.36 76.93 76.16 77.46 79.03 78.62 78.56
43.23 46.02 37.63 47.08 50.06 49.16 48.38 49.50 52.12 54.84 55.84 56.83 56.87 56.60 57.25 57.88 56.89 56.49 57.17 57.43 57.44 57.76 59.05 60.24 60.68 61.17 62.01 63.49 65.35 64.45 63.70 63.79 64.23 66.20 68.77 71.50 72.82 74.80 75.81 76.89 76.54 76.93 78.10 78.97
41.28 41.55 44.32 45.23 47.15 46.83 47.47 48.48 51.80 53.58 54.41 55.07 55.54 55.90 54.99 56.22 56.53 56.29 56.42 57.19 57.78 58.21 58.79 60.41 59.81 60.59 61.52 62.98 64.27 66.02 64.65 64.07 63.76 63.88 65.21 67.94 69.70 69.82 74.20 76.36 75.43 75.31 75.82 77.68
43.82 39.92 37.69 46.29 49.51 51.71 50.73 45.52 52.09 53.72 53.21 52.95 53.61 49.59 52.84 55.34 55.26 55.46 56.23 56.83 56.72 57.39 58.45 59.06 59.58 59.95 59.98 60.47 61.94 62.68 63.67 64.88 66.24 65.71 64.49 65.24 65.93 68.76 70.52 74.24 75.53 77.18 75.66 76.86
42.79 41.27 44.66 50.17 50.26 50.71 41.02 46.08 52.91 53.36 53.21 52.15 51.74 53.86 53.98 55.05 54.80 55.38 55.61 55.99 56.50 57.17 57.17 57.93 59.11 59.29 59.02 59.57 59.69 61.54 63.14 64.19 64.69 65.41 65.73 65.22 66.27 68.24 68.36 69.15 72.07 74.63 75.44 77.22
44.15 41.87 39.07 51.40 49.25 45.31 51.14 53.77 53.45 53.28 52.45 51.83 52.78 52.75 52.95 53.45 53.90 54.24 54.27 54.98 55.90 56.17 56.37 57.49 58.33 58.29 58.02 58.44 60.15 60.74 61.19 62.36 64.08 64.47 64.04 64.64 66.38 66.58 68.17 68.74 68.52 70.75 73.45 74.84
45.87 47.06 52.13 52.39 52.13 54.40 54.35 52.44 51.73 52.22 51.92 51.50 51.34 51.59 52.02 52.98 53.15 53.87 54.17 55.05 55.92 55.91 56.55 57.49 58.12 58.20 57.18 58.64 59.94 60.07 59.86 60.47 61.92 63.34 63.64 64.25 63.88 65.39 65.09 69.38 69.58 69.32 69.63 72.03
45.83 49.62 49.91 50.82 52.64 52.82 52.28 51.91 52.64 52.47 51.78 51.31 50.88 51.46 51.73 52.50 52.85 53.62 54.15 53.63 53.70 54.19 54.08 54.20 54.93 55.86 56.38 57.38 58.13 58.42 59.71 59.92 60.63 61.73 61.68 62.24 62.70 62.97 63.24 64.29 65.05 65.53 67.72 67.08
46.30 49.14 49.31 51.09 52.09 52.37 51.43 51.56 51.26 51.81 51.09 50.26 50.69 50.68 51.33 51.73 52.40 52.49 52.46 52.52 52.35 51.78 51.84 51.89 52.83 53.21 53.92 55.93 56.36 56.10 56.72 57.93 59.81 60.54 61.06 61.78 63.04 61.68 61.75 64.28 60.98 61.39 61.64 62.48
45.11 50.15 50.18 49.57 52.61 52.89 50.97 50.26 50.80 50.48 50.19 50.93 50.78 50.88 50.70 51.22 51.26 51.84 51.48 51.58 52.01 51.60 51.45 51.43 50.80 51.71 53.36 54.31 53.70 52.83 54.16 55.04 56.53 57.43 58.45 59.15 59.50 59.95 55.07 51.67 50.72 48.25 47.34 53.20
50.03 52.48 52.18 51.88 52.00 53.03 51.43 51.65 51.77 51.23 51.09 50.54 51.43 51.46 50.87 50.92 50.64 49.45 50.70 50.64 50.50 50.62 50.82 50.47 50.82 49.25 50.07 51.67 51.55 51.10 50.44 52.54 54.31 54.21 56.14 56.98 57.71 58.13 57.48 58.04 48.31 47.15 46.22 46.43
53.47 52.17 49.91 50.78 50.05 52.00 52.33 52.51 50.51 51.74 52.15 51.78 51.46 51.94 51.40 51.19 50.49 50.68 49.37 50.45 50.34 49.30 48.68 48.89 48.51 48.26 49.38 50.56 50.91 51.02 51.08 48.88 51.18 53.47 54.59 55.17 56.41 56.99 57.43 57.44 57.52 58.88 52.45 50.25
51.89 52.55 52.29 51.30 52.37 52.27 52.68 52.22 50.75 50.32 51.39 51.29 52.18 50.78 50.51 49.81 49.04 49.30 51.06 50.31 50.07 48.50 47.98 47.77 47.88 48.63 50.83 50.22 49.92 49.35 49.59 49.23 49.37 50.59 50.86 51.85 53.97 55.66 56.35 56.20 56.29 57.17 58.69 54.84
51.54 51.52 52.06 49.12 49.13 50.83 51.60 51.16 50.39 50.56 51.22 51.65 51.22 50.61 50.25 51.31 50.99 49.95 51.14 50.24 48.16 47.40 48.02 48.02 48.49 50.79 49.74 49.82 48.29 49.07 49.12 48.93 48.16 47.63 48.79 49.57 51.08 53.11 54.48 55.82 56.36 56.65 56.78 57.72
48.84 48.03 48.18 47.11 46.60 48.20 50.06 51.60 51.46 51.10 51.37 51.52 51.65 51.77 50.81 49.99 49.76 50.76 50.39 50.36 50.23 48.42 48.87 49.52 49.88 51.02 50.99 50.62 49.16 48.40 47.62 47.48 47.13 47.87 47.83 47.59 47.85 49.33 51.46 53.18 54.23 55.25 55.40 56.74
50.98 50.36 49.17 47.98 47.09 48.30 49.33 50.72 50.75 50.87 50.70 51.40 52.22 52.37 51.03 50.17 50.24 51.18 50.48 50.90 49.99 49.21 49.73 50.61 50.28 50.41 49.96 49.95 48.60 47.68 46.66 45.81 45.18 45.20 45.24 45.85 46.60 47.00 46.76 47.35 49.22 51.52 53.45 54.82
51.64 50.24 49.72 49.47 49.78 50.51 50.99 50.67 50.55 51.66 52.98 52.92 51.66 51.39 52.07 51.81 51.82 51.65 51.40 50.53 49.69 49.20 49.10 50.81 48.56 49.09 48.78 48.98 47.12 46.71 45.49 43.88 42.42 42.41 42.89 43.29 44.17 44.89 44.88 46.29 47.40 48.16 49.79 52.05
51.60 52.30 52.00 51.64 52.65 51.32 50.68 52.41 52.93 52.25 52.65 52.46 51.66 51.64 51.29 51.33 51.85 51.72 51.49 49.86 50.48 49.81 51.75 50.52 50.75 49.49 49.61 48.53 45.90 45.44 42.87 41.03 40.08 39.92 40.52 41.38 41.66 42.21 43.05 42.87 44.88 46.52 47.70 48.69
51.44 52.02 52.03 52.30 52.28 53.09 53.47 53.30 52.76 51.36 52.98 52.06 50.68 51.84 52.73 52.89 52.95 52.11 50.35 49.05 51.59 51.89 51.66 49.77 50.51 49.98 49.07 47.12 46.52 44.50 42.39 41.11 40.03 38.94 38.39 38.58 39.91 40.34 41.00 41.66 42.42 43.40 44.62 46.12
51.77 52.06 51.10 51.00 50.92 50.72 51.84 53.75 54.26 52.91 53.87 52.74 50.82 51.94 52.34 51.96 51.75 51.79 52.24 50.76 51.40 49.64 51.45 49.73 49.45 46.59 47.34 45.45 46.96 44.97 42.57 41.63 40.74 39.40 37.87 37.47 37.50 38.29 38.80 40.08 40.78 41.59 42.57 43.44
51.93 51.78 51.45 51.21 51.29 51.21 52.17 52.83 53.16 52.46 53.31 54.28 53.45 50.76 51.97 50.70 50.88 49.74 48.85 52.28 51.91 49.82 50.67 50.32 47.12 46.00 45.46 47.71 47.03 46.11 43.63 43.83 41.26 39.08 38.08 37.52 36.62 36.65 36.66 37.55 39.27 40.10 40.51 41.26
50.37 50.71 50.77 51.36 51.71 50.59 49.90 50.41 50.09 51.19 52.41 51.62 52.17 52.41 51.70 50.42 50.65 51.55 52.01 50.28 48.38 48.64 50.15 50.32 49.73 46.86 45.38 48.81 48.00 46.06 43.95 44.25 43.49 40.31 38.94 37.52 37.37 37.36 36.64 36.09 35.59 37.76 39.73 39.92
49.89 50.06 50.48 49.48 49.71 49.63 49.72 50.72 49.98 49.94 48.57 48.72 50.43 52.59 52.46 52.49 50.27 49.81 51.84 52.33 47.81 48.98 50.75 48.64 47.99 47.30 48.70 49.46 49.95 48.21 46.78 44.10 43.17 42.55 39.63 38.45 37.51 37.15 36.80 37.00 36.63 36.11 35.16 36.55
49.49 48.84 48.93 49.16 50.27 49.98 49.83 47.57 46.26 47.38 48.49 48.06 48.95 50.96 50.63 50.59 51.34 51.40 50.98 49.84 51.48 49.57 50.21 49.78 49.35 50.29 49.73 48.34 48.72 49.23 48.01 47.27 43.25 43.76 40.95 39.27 38.63 37.28 36.91 36.58 36.37 35.93 35.73 35.70
49.18 46.47 48.58 47.86 50.10 50.02 49.49 47.71 45.02 45.21 46.69 46.29 47.07 49.48 49.43 50.02 50.32 50.26 47.92 50.27 49.86 49.07 49.75 49.81 49.30 48.81 48.53 48.16 48.64 48.26 47.77 48.49 43.64 44.41 43.93 41.55 39.89 38.81 37.45 37.41 36.01 35.13 34.75 35.96

GFSNGP_sfc_wetblb_084.txt.gz
Wetbulb
49.45 49.55 50.60 49.66 49.65 50.20 49.98 51.25 49.17 52.57 52.99 55.76 57.76 58.85 59.32 59.58 59.94 59.39 58.99 59.88 60.40 60.11 60.83 62.47 62.92 62.78 64.41 66.36 67.12 69.51 70.63 71.33 71.09 72.36 76.86 78.64 78.29 77.51 78.63 78.34 78.15 78.50 78.24 77.80
46.62 48.29 49.07 48.53 49.90 50.48 50.48 51.08 52.23 53.67 53.13 58.71 58.56 60.07 59.28 58.84 58.53 57.95 58.28 58.81 59.91 61.08 61.04 60.88 61.75 62.29 63.51 65.02 65.04 66.43 67.33 67.35 69.89 72.37 72.86 74.85 76.57 77.61 77.67 78.36 78.53 78.48 77.65 77.71
44.31 46.94 46.29 44.37 47.53 47.91 49.20 51.05 54.46 51.23 53.97 58.25 57.09 56.81 56.90 56.97 57.22 56.77 56.98 57.61 58.45 59.06 60.22 60.53 60.85 63.09 63.92 65.21 65.05 63.96 64.40 65.49 66.27 68.57 70.12 70.26 72.27 75.20 76.03 76.35 76.99 77.43 77.54 77.68
43.49 45.99 38.22 47.49 51.18 50.27 49.30 50.38 55.57 56.49 56.69 57.09 56.86 57.08 57.80 58.21 57.18 57.00 57.18 57.26 57.64 58.43 59.36 60.50 60.18 61.11 63.98 65.39 65.80 65.62 65.11 64.89 65.50 65.45 66.98 68.85 70.35 69.94 71.01 73.25 75.64 75.80 76.04 77.08
40.99 41.70 45.35 46.40 48.41 47.94 47.67 48.09 55.63 56.43 56.86 56.11 56.37 56.38 55.03 57.36 57.22 56.72 56.98 57.32 57.36 58.43 59.43 61.15 60.05 61.75 62.93 63.14 65.00 64.33 64.36 65.93 65.36 64.86 64.89 65.62 67.07 67.38 69.00 69.65 70.45 73.74 75.51 75.78
43.99 38.93 37.01 46.00 50.14 52.46 50.66 45.20 53.72 56.25 56.16 55.76 55.54 50.29 51.73 55.74 56.23 56.14 56.88 57.10 56.59 57.57 58.58 58.74 59.54 59.75 60.45 59.96 61.97 61.45 62.20 64.29 66.11 66.64 66.99 66.12 66.53 67.17 69.40 69.76 69.83 71.57 72.97 75.37
42.71 40.73 43.98 50.49 50.34 51.21 42.41 46.61 54.19 55.90 55.57 54.71 52.80 54.20 55.51 56.26 55.83 56.36 56.25 56.30 56.70 57.39 57.21 58.06 58.87 58.83 59.30 59.61 59.05 60.25 61.40 62.36 64.14 66.08 65.77 67.20 68.03 68.52 68.17 69.04 70.10 70.42 71.58 74.10
43.13 41.02 38.82 52.17 49.62 45.37 52.08 54.87 54.45 55.39 55.07 54.42 54.60 54.98 54.87 55.01 54.89 54.88 55.04 55.69 56.18 56.31 56.85 57.82 58.72 58.34 57.73 58.96 60.36 61.35 61.75 61.68 62.48 63.73 64.20 63.93 65.99 66.69 66.65 67.78 68.82 69.59 70.01 71.25
46.56 46.44 52.43 53.56 52.94 55.10 54.74 53.38 53.73 53.81 53.70 54.12 52.88 52.83 53.36 53.62 54.01 54.59 55.18 55.15 55.67 55.60 56.74 57.32 56.59 56.22 55.19 57.68 59.33 59.36 59.08 59.64 62.08 62.60 62.67 64.57 65.11 63.76 63.82 66.05 67.20 68.47 68.62 68.88
47.44 50.80 51.38 52.40 53.93 54.24 54.73 53.63 53.59 54.05 52.95 52.37 51.74 52.61 52.78 53.46 53.70 54.05 54.34 53.59 53.83 53.92 53.63 54.03 54.81 54.95 54.72 56.38 57.83 57.16 57.01 57.93 58.55 58.41 60.78 62.73 62.67 62.47 62.67 62.01 62.90 64.33 63.84 63.07
46.87 49.69 50.68 51.53 52.65 53.18 52.42 53.18 53.23 53.01 52.67 52.18 52.06 51.56 52.64 52.50 53.39 52.86 53.02 53.02 53.16 52.27 52.32 52.53 53.15 53.10 53.59 54.50 54.99 52.55 53.26 54.51 56.17 57.05 57.80 58.72 61.30 62.00 61.92 63.63 59.90 60.26 60.87 60.64
44.66 50.58 50.84 51.28 53.70 54.32 52.46 51.25 52.05 51.73 50.71 51.37 51.40 52.48 52.17 51.93 52.02 52.35 52.00 52.23 52.16 52.07 52.04 51.59 51.59 51.77 51.92 52.16 52.28 51.14 50.57 50.99 51.98 53.26 54.80 55.93 56.85 57.59 55.43 50.87 49.22 47.35 46.89 52.70
50.41 53.04 52.93 53.09 52.93 53.84 52.51 51.92 52.05 51.81 52.39 51.55 51.99 52.43 51.80 51.46 51.62 48.75 51.15 51.15 50.88 50.56 51.09 51.29 51.02 50.08 50.38 51.00 51.16 50.26 48.99 50.05 50.41 50.58 51.90 53.68 55.07 55.43 54.94 56.48 51.76 48.71 46.14 45.56
53.88 53.50 51.07 52.16 50.58 53.09 52.81 53.01 52.65 52.89 52.67 52.64 52.67 52.75 52.29 51.81 49.82 51.15 50.15 50.34 51.14 50.75 50.00 49.98 49.82 49.80 50.63 51.30 51.26 50.82 50.58 48.76 50.23 50.62 50.51 51.14 52.09 52.57 53.48 53.76 54.83 57.23 54.30 47.76
51.78 52.75 52.12 52.09 52.74 53.51 53.07 52.93 51.41 50.65 51.54 51.81 52.47 51.92 51.94 51.40 50.70 50.88 51.27 50.91 50.67 49.65 49.22 49.06 49.15 49.78 51.44 50.62 50.19 49.69 48.90 48.61 48.82 48.99 49.69 49.19 49.43 50.79 51.33 52.27 53.29 54.71 56.75 54.31
51.07 51.30 51.34 50.79 51.70 51.12 50.39 51.38 50.76 50.66 51.28 51.74 51.99 51.82 51.60 51.93 51.80 51.75 51.60 51.01 49.23 48.87 49.00 48.80 49.40 51.74 51.48 51.75 50.84 49.30 49.31 49.68 48.71 47.70 47.84 48.01 48.42 48.67 48.29 49.07 50.24 51.73 53.35 54.80
49.21 48.56 48.93 49.27 49.93 51.46 50.08 50.33 50.60 51.44 52.47 52.17 52.77 53.54 52.23 51.72 51.47 51.15 51.33 51.33 50.88 49.71 49.94 50.04 50.17 50.90 51.45 50.53 49.46 47.23 47.39 47.47 48.20 46.96 46.04 45.72 45.69 45.96 45.90 46.32 47.94 48.85 49.42 51.47
51.93 51.73 51.74 51.20 50.40 51.21 50.20 50.73 51.68 51.77 51.80 52.40 53.28 53.25 52.64 51.54 51.07 51.96 51.34 51.67 50.85 50.11 50.75 51.79 51.86 50.51 50.24 50.10 48.61 46.94 46.34 45.50 44.78 43.97 43.53 43.15 43.43 43.46 43.37 44.06 45.04 45.14 46.66 49.28
52.02 51.36 52.00 51.71 51.71 51.26 50.24 50.41 50.73 51.28 52.04 53.39 53.38 52.69 52.94 52.74 52.52 52.62 52.83 51.32 50.46 49.09 50.14 52.23 50.42 50.04 49.81 48.06 47.29 46.91 45.55 44.34 43.36 42.24 41.76 41.58 41.66 42.02 42.04 42.19 42.38 43.07 44.50 45.42
52.43 52.86 52.79 52.35 52.53 52.20 51.78 52.28 53.21 52.44 52.55 53.24 53.90 53.21 52.67 53.29 53.14 51.93 51.38 51.25 51.71 50.99 53.13 51.72 50.68 50.66 50.77 49.36 46.25 46.93 45.73 44.45 43.02 42.10 40.37 39.29 38.90 38.55 39.01 39.90 40.53 40.99 41.98 42.81
51.96 52.83 52.35 51.44 51.99 52.24 51.64 53.82 50.96 51.81 51.68 52.95 51.75 51.83 53.49 54.22 53.43 53.06 49.78 49.07 52.21 53.86 52.79 52.38 51.30 50.25 50.20 48.06 46.92 47.14 46.10 44.61 43.34 42.16 41.02 39.51 38.03 37.12 36.73 38.07 38.63 39.32 39.90 40.86
50.99 51.33 51.36 51.78 52.36 52.44 52.46 51.05 51.60 52.58 52.86 50.86 53.02 51.93 53.76 52.55 53.21 53.32 51.96 52.04 52.58 51.16 52.31 50.92 50.86 51.14 50.20 46.90 47.07 47.17 45.98 44.43 43.73 43.24 40.93 39.64 38.23 37.19 36.82 36.05 36.34 37.07 37.97 39.28
49.73 50.02 50.15 49.98 49.61 50.66 50.77 52.52 52.89 51.51 51.58 51.44 51.63 53.56 53.84 53.86 50.29 49.27 49.77 54.00 52.50 51.14 51.68 51.79 51.29 50.10 48.53 47.69 47.91 48.04 47.56 46.17 45.03 43.44 41.77 40.15 38.41 37.47 36.67 36.14 36.15 36.44 36.46 37.62
49.68 50.28 50.33 50.13 50.49 50.03 49.40 51.47 51.77 51.53 51.61 51.40 52.40 53.97 52.80 51.64 50.87 51.06 52.49 50.76 51.31 49.11 51.25 50.86 50.39 49.31 48.26 48.54 49.34 49.11 48.10 46.10 46.04 44.52 41.86 39.56 39.34 38.07 36.95 36.37 35.41 35.78 36.16 36.18
49.87 49.84 50.19 49.22 48.38 48.60 49.85 50.70 50.00 49.60 50.23 50.57 51.37 52.56 53.64 51.16 50.00 50.19 51.01 50.58 48.75 49.45 50.75 50.11 49.97 49.10 48.81 49.35 50.30 51.37 51.05 48.68 46.67 45.86 43.36 41.29 39.85 38.12 37.42 35.90 36.03 35.14 34.75 35.63
50.12 48.52 49.08 49.75 49.42 50.17 50.91 49.85 46.45 47.58 48.56 49.01 48.94 51.03 50.53 50.92 50.69 50.63 50.99 49.81 51.58 49.71 50.24 50.50 50.40 49.68 50.00 49.21 49.22 47.99 49.15 48.60 46.18 45.06 44.35 43.69 40.79 40.07 38.91 36.67 36.58 35.19 34.63 35.01
49.77 47.25 48.87 48.10 48.90 48.94 49.07 47.42 47.03 46.43 46.42 46.46 46.48 48.58 49.57 50.16 50.05 49.47 49.24 49.58 50.25 50.37 50.38 50.07 49.88 48.94 48.94 48.53 48.22 48.71 48.11 49.24 45.19 46.22 45.17 44.39 43.27 41.65 40.50 39.17 37.36 35.13 34.51 35.30

GFSNGP_sfc_wetblb_087.txt.gz
Wetbulb
46.54 48.20 48.19 46.68 46.93 48.20 44.18 49.47 47.97 49.66 50.97 54.42 55.24 55.30 56.15 57.17 57.87 58.43 57.57 57.68 58.72 59.69 60.70 62.02 62.94 64.06 65.17 65.54 67.01 67.57 67.34 67.84 66.96 70.47 71.19 72.58 72.56 73.74 73.67 74.44 74.74 74.84 74.34 74.33
44.61 47.99 46.76 45.11 48.11 48.98 47.87 52.61 51.68 52.27 51.48 56.90 57.54 57.54 57.25 57.12 57.07 56.96 57.73 57.59 58.12 58.65 58.82 59.62 61.20 61.88 63.85 63.18 64.80 66.38 65.71 66.37 67.35 69.37 69.64 69.39 71.11 72.70 73.01 72.65 73.03 74.03 74.52 74.45
37.55 45.12 44.46 41.68 46.11 46.22 47.93 53.93 52.88 48.56 52.61 57.39 55.82 54.87 54.72 53.99 54.33 54.17 55.56 55.68 55.89 56.55 56.75 57.10 59.45 62.03 62.54 62.89 63.95 64.38 64.45 64.46 65.69 67.16 67.88 68.18 69.33 68.67 68.09 69.06 72.84 72.43 72.71 73.23
38.69 41.82 34.94 43.14 47.31 48.24 47.53 55.17 54.58 53.77 54.32 55.68 54.40 54.10 54.43 54.63 53.27 53.28 53.77 54.06 54.57 54.84 54.54 55.14 56.54 58.99 62.69 63.48 64.07 63.98 63.55 63.94 64.30 64.67 65.62 66.76 67.21 67.10 68.00 68.11 68.92 70.84 72.18 73.07
35.98 34.91 42.39 44.71 46.34 45.85 48.00 51.04 55.74 54.26 55.11 54.42 54.54 53.49 51.75 54.47 54.33 53.35 52.67 52.79 53.52 55.76 55.53 55.39 55.54 56.76 57.96 59.24 58.56 58.75 59.32 61.79 64.03 64.38 64.21 64.12 64.57 65.63 66.89 67.61 68.42 68.85 69.70 71.39
37.99 33.13 32.87 41.08 47.44 49.10 48.26 46.27 55.78 53.83 52.61 52.72 52.60 45.55 47.16 52.15 53.25 52.88 52.77 52.55 52.84 54.30 54.77 54.37 54.37 56.20 55.78 56.35 56.35 56.39 57.71 58.49 60.04 62.97 62.18 61.58 63.31 63.81 65.49 66.49 68.15 70.05 69.79 70.53
37.64 36.65 41.99 47.17 48.47 48.82 39.45 43.47 53.27 53.87 53.12 52.25 48.07 49.58 50.83 52.40 52.11 52.66 52.28 51.98 53.33 53.92 53.16 53.93 54.93 55.31 55.34 54.75 54.64 56.42 57.28 58.57 59.36 59.72 60.00 60.53 61.02 62.19 62.76 62.89 64.85 66.40 68.56 69.01
38.46 36.69 34.83 51.18 50.25 44.85 47.37 49.21 51.78 52.84 52.33 50.43 50.72 51.60 51.81 51.61 50.96 51.66 51.50 52.31 53.27 52.85 53.04 52.94 53.29 52.71 52.51 52.30 54.65 55.07 55.09 55.15 55.81 57.62 59.44 59.64 59.68 60.91 60.16 59.49 61.11 63.56 65.86 66.92
43.12 41.74 47.98 50.44 49.59 51.02 51.13 49.82 49.86 49.08 51.01 51.45 50.33 50.02 50.42 49.45 50.13 51.29 51.15 50.88 51.56 51.37 51.58 51.86 52.02 51.19 49.53 51.00 52.87 52.63 52.11 51.88 53.48 54.42 54.82 56.83 58.77 58.62 57.52 58.66 57.84 59.71 61.24 59.98
44.45 47.66 48.77 50.62 51.53 52.05 52.27 50.32 51.46 50.26 49.30 49.46 48.55 49.23 49.19 49.47 49.63 49.94 49.70 48.96 49.89 49.65 49.35 48.95 49.99 50.26 49.64 50.40 50.50 49.38 48.76 49.17 50.53 51.27 51.24 52.29 53.96 56.54 55.84 56.36 56.20 55.60 55.64 55.57
42.50 46.43 47.95 50.04 50.91 50.58 50.56 52.25 51.27 51.38 50.55 49.81 49.13 49.13 49.09 49.10 48.28 48.84 48.89 48.93 48.84 47.83 48.30 47.34 47.87 48.29 48.20 48.19 48.66 47.31 47.44 47.91 47.35 48.53 48.27 49.14 51.47 51.70 53.22 53.72 51.29 51.02 53.46 54.77
40.19 46.83 45.97 47.41 50.24 51.48 49.65 49.16 50.12 49.30 48.63 49.47 49.99 48.73 49.23 47.73 48.18 48.36 47.70 47.99 47.60 47.79 47.18 46.66 47.56 46.64 46.63 47.21 47.37 46.03 45.16 45.75 46.33 45.99 46.60 48.17 49.45 49.94 50.16 48.95 47.99 46.84 45.80 46.00
46.54 49.85 49.58 50.31 51.38 52.86 50.96 49.65 50.34 49.56 48.97 47.60 49.82 49.20 49.08 48.13 46.99 47.14 47.44 47.22 46.55 46.55 46.68 46.32 46.03 45.48 46.32 47.00 46.28 46.05 44.92 45.07 45.00 46.07 46.02 45.77 46.56 46.54 45.77 47.97 48.04 47.05 45.97 45.98
50.23 50.14 48.11 49.99 47.60 50.28 51.15 51.51 51.58 50.39 50.29 49.90 49.87 49.47 49.43 47.71 46.06 47.30 45.88 46.75 47.54 46.68 46.01 45.86 45.22 45.06 45.85 46.36 46.37 45.16 44.51 47.46 43.44 43.43 44.13 44.53 44.55 45.03 45.46 45.87 45.68 47.02 48.42 47.81
49.93 49.88 49.50 48.97 48.82 49.47 51.51 50.72 48.78 48.24 48.82 48.40 49.77 48.54 48.96 46.74 46.14 47.49 47.55 47.48 47.07 46.07 45.28 44.97 45.02 45.43 46.40 46.04 45.63 44.34 43.95 43.46 43.20 43.08 43.16 44.59 44.01 43.88 44.80 44.66 44.53 45.24 46.80 46.83
49.47 49.59 49.12 49.71 48.80 50.17 49.35 49.57 48.79 47.63 48.11 48.74 48.42 48.42 48.59 49.28 49.76 47.97 47.43 46.77 44.83 43.80 44.66 44.61 44.32 46.15 46.90 46.37 44.03 42.77 42.79 48.54 46.06 42.06 42.19 42.05 42.12 42.12 42.25 42.34 42.49 42.95 43.04 43.74
45.26 47.02 47.05 47.40 48.10 48.44 49.45 49.23 49.44 49.81 49.04 48.48 48.89 50.46 49.77 48.55 48.17 47.43 47.47 46.86 46.36 45.50 45.58 45.37 45.37 46.48 45.75 45.66 43.06 41.66 41.82 41.33 44.68 40.70 39.92 39.88 40.02 39.78 39.53 39.69 40.26 41.05 41.60 43.27
49.64 48.97 48.84 48.18 48.33 48.83 49.20 49.69 49.57 50.36 49.13 50.86 52.03 50.22 48.97 46.86 46.87 47.08 47.69 47.85 47.08 45.52 46.04 46.74 47.17 45.97 45.71 45.38 43.12 41.72 40.80 40.36 40.17 39.03 38.78 38.45 38.29 38.86 38.61 38.54 38.87 39.07 39.69 40.73
51.55 50.32 50.56 51.17 49.97 49.04 48.80 49.50 49.84 49.88 50.68 50.32 50.37 49.55 49.45 49.14 48.62 48.31 48.88 47.34 45.94 44.29 45.73 47.84 52.24 48.19 45.50 46.00 44.71 41.12 40.84 40.34 39.39 38.75 38.51 39.22 37.46 37.24 37.42 37.53 37.13 36.98 37.58 38.24
52.74 52.08 51.51 51.39 51.40 50.34 49.49 49.98 51.04 49.81 50.14 49.80 49.17 49.32 50.04 49.90 49.14 48.94 49.03 47.04 47.29 47.74 47.78 48.85 48.79 45.54 45.68 45.83 47.66 41.33 41.08 40.52 39.95 38.87 38.36 37.56 36.70 36.46 37.52 37.21 36.61 36.58 37.18 37.13
50.31 51.02 51.00 51.65 50.30 50.92 51.21 50.70 50.38 50.28 51.08 50.75 48.56 48.18 48.07 50.46 49.96 49.64 47.78 46.64 47.46 49.98 48.40 51.77 48.26 47.04 46.01 46.50 45.53 41.22 40.84 40.41 39.66 39.46 40.58 37.15 36.65 36.01 36.56 36.71 36.13 36.27 35.51 36.51
48.32 47.58 48.37 49.59 49.16 50.04 50.91 51.02 50.86 50.90 50.67 50.62 48.70 49.45 49.46 48.92 50.77 49.61 49.92 48.41 48.68 51.02 50.02 49.40 48.54 50.07 47.07 50.90 41.59 40.64 40.92 41.24 40.23 39.73 39.03 37.61 37.22 35.40 36.20 36.90 35.89 36.25 36.01 35.72
47.39 48.69 47.78 47.03 47.18 47.12 48.27 48.79 49.37 49.69 50.48 49.15 49.70 49.33 49.78 49.94 49.47 49.31 47.97 50.51 50.00 50.04 49.16 48.17 49.89 51.96 51.80 44.01 41.96 41.83 42.37 41.83 41.64 40.94 39.22 38.19 36.43 35.19 37.34 36.48 36.15 35.88 34.82 35.02
47.32 47.76 49.14 48.45 47.79 46.72 46.66 47.94 48.77 48.74 48.16 48.54 49.14 49.73 49.99 49.58 50.73 51.74 51.20 50.85 50.51 49.98 49.78 49.24 49.92 50.96 49.43 43.58 43.34 43.52 43.89 43.70 42.65 41.49 40.51 39.86 36.42 37.33 37.91 37.04 36.45 35.99 35.85 34.89
48.05 48.18 47.94 46.95 46.26 46.06 47.23 47.88 46.80 46.28 47.26 47.91 48.47 49.62 50.33 51.57 50.11 50.55 49.71 50.10 49.50 49.69 49.75 49.98 50.31 49.77 45.69 44.01 44.16 44.92 45.28 44.61 43.46 42.48 40.71 38.58 39.02 37.98 37.81 37.64 37.01 36.51 35.36 35.12
47.26 46.80 46.78 47.74 46.45 47.06 47.58 45.96 44.13 44.70 46.16 47.62 47.96 47.96 48.52 49.86 49.40 49.13 49.34 49.68 49.39 48.53 48.19 48.66 47.98 47.18 45.54 45.30 45.69 45.18 45.18 45.44 44.45 41.95 40.67 40.20 38.92 37.60 36.44 36.22 37.74 37.10 35.96 35.18
46.19 46.55 46.51 47.00 47.15 46.46 45.87 45.24 44.68 43.78 45.35 46.36 45.83 47.72 47.70 47.85 48.71 48.36 48.89 49.42 49.06 48.95 48.32 48.75 47.22 47.63 46.53 46.75 46.24 44.13 43.41 44.86 44.08 43.69 42.44 42.17 41.26 39.86 38.97 38.18 38.28 36.38 35.82 35.89

GFSNGP_sfc_wetblb_090.txt.gz
Wetbulb
41.38 45.00 46.53 45.39 44.73 45.18 42.54 44.98 43.91 49.83 50.21 53.49 54.86 55.40 57.23 58.56 58.58 58.11 58.24 59.84 60.61 61.11 61.89 63.22 64.50 64.64 65.81 67.44 68.07 68.46 67.65 67.19 67.62 69.36 69.20 70.17 71.72 71.85 73.41 72.72 73.13 73.02 72.64 72.86
40.00 45.61 44.74 43.08 45.56 46.11 49.82 52.32 51.69 51.65 51.30 55.49 55.60 56.38 56.31 57.41 56.79 55.89 56.58 57.79 58.68 60.06 60.74 61.04 62.57 63.30 63.56 64.71 65.66 66.43 66.32 66.29 67.03 68.21 68.66 69.13 68.89 68.57 69.88 71.00 71.57 72.21 72.87 72.50
36.81 41.90 41.06 37.73 41.98 45.47 51.67 53.62 53.12 49.10 52.44 54.76 54.55 54.89 55.48 55.76 56.34 56.01 55.21 54.88 55.56 56.71 58.43 60.25 61.16 61.51 62.03 63.46 64.64 63.65 64.06 64.49 65.79 66.85 67.10 67.58 67.51 68.10 67.58 67.98 68.98 70.13 70.16 71.32
37.10 39.81 33.12 40.37 46.93 52.37 53.61 54.61 54.33 54.14 54.57 55.36 54.76 54.44 53.77 53.24 53.72 54.29 54.45 53.29 53.28 53.89 53.80 54.76 59.32 62.79 62.45 62.40 62.61 63.62 63.63 63.73 64.53 64.90 64.65 65.09 65.49 65.42 66.81 67.35 67.53 68.12 69.40 69.63
36.40 34.26 37.57 42.44 45.59 44.58 47.03 49.38 55.73 54.73 54.15 52.35 52.58 52.20 50.23 52.59 52.15 50.84 51.71 52.31 52.65 53.39 53.23 55.04 55.46 56.78 56.59 55.66 55.55 56.34 56.99 58.21 60.76 62.62 62.69 64.10 64.34 65.26 65.80 66.88 66.61 67.40 68.84 68.37
37.51 34.88 32.52 40.18 46.69 48.53 51.07 44.96 53.91 52.94 51.47 50.81 51.48 45.37 47.15 51.07 51.51 50.56 51.05 52.48 52.15 52.40 53.44 53.70 53.78 55.08 54.21 53.83 53.78 53.48 54.86 56.37 58.24 59.20 59.93 61.57 61.37 62.30 64.75 64.19 65.18 66.79 66.88 68.75
36.27 33.50 40.79 47.51 50.26 51.11 38.90 41.41 51.07 53.23 51.82 51.04 47.18 48.00 49.76 51.13 51.26 51.24 50.99 51.53 52.89 52.27 51.26 50.98 52.60 52.35 51.59 51.77 51.51 52.77 53.86 54.30 54.81 54.53 56.24 57.99 58.30 59.07 60.74 58.90 59.70 61.75 64.25 66.39
35.77 33.80 31.33 49.32 49.23 44.29 45.59 47.80 50.67 49.59 48.58 49.42 50.22 49.59 49.87 50.16 48.77 50.06 50.55 51.91 51.44 50.36 49.99 49.99 50.58 49.92 49.21 49.42 50.61 50.81 50.40 50.51 50.76 51.84 53.65 54.90 55.28 57.50 57.86 57.29 58.16 58.96 60.62 65.23
40.05 39.34 45.20 46.71 46.70 49.14 48.94 48.65 48.09 49.25 49.87 51.53 50.13 49.29 49.10 48.54 48.58 49.06 49.97 50.10 50.50 48.84 48.20 48.33 48.36 48.44 46.89 47.21 48.45 48.41 47.80 47.69 48.20 48.63 49.71 50.82 52.13 52.98 53.47 54.13 53.40 52.90 53.84 54.67
41.99 44.30 45.70 47.62 48.27 49.52 50.20 47.87 49.05 50.48 50.49 48.98 47.34 48.13 48.39 48.46 47.85 47.54 47.96 48.17 48.12 47.51 46.47 45.88 46.47 46.59 45.99 46.77 46.95 46.34 46.01 46.08 46.26 46.12 46.33 46.93 50.22 51.77 51.41 50.51 49.54 49.70 51.03 50.79
40.07 43.89 46.32 47.82 48.09 47.76 49.83 50.11 49.03 48.61 49.03 47.94 48.13 47.34 47.96 47.11 46.72 46.70 46.73 46.79 47.20 46.18 45.08 45.15 45.26 44.71 45.41 46.22 45.62 44.56 44.28 44.60 44.09 44.76 44.18 45.43 46.72 47.64 48.41 47.77 47.06 47.40 48.54 48.21
37.04 43.45 42.49 44.49 48.43 49.69 48.47 48.48 48.40 47.69 46.92 48.51 48.93 47.17 47.43 45.96 46.23 46.18 46.41 46.36 45.92 45.37 44.83 44.89 44.16 44.15 44.54 45.03 44.40 43.46 43.21 43.40 43.38 42.83 42.99 43.78 43.90 44.14 46.35 45.73 45.21 43.34 42.66 44.22
43.35 46.18 46.28 47.02 49.68 50.53 48.23 48.35 48.34 46.64 47.37 47.23 47.63 47.23 46.98 45.95 44.96 47.59 45.59 45.43 44.97 44.75 44.58 44.32 43.31 43.82 44.19 44.56 44.65 43.62 41.47 41.71 41.11 42.22 42.09 41.94 42.20 42.19 42.35 44.69 45.74 44.11 43.11 43.36
46.44 46.19 45.20 46.83 44.70 47.95 49.02 49.55 50.55 48.35 47.05 48.42 47.78 47.74 47.15 45.27 45.43 45.07 44.69 45.21 45.36 44.72 44.15 43.90 43.52 43.09 43.98 44.57 44.13 42.61 41.38 45.82 40.56 40.84 40.89 41.17 41.60 41.35 41.80 41.46 41.08 41.68 43.52 43.04
45.56 45.65 45.38 46.87 47.00 46.84 47.85 47.97 46.49 46.37 46.96 46.67 47.94 47.44 46.49 44.50 44.16 44.45 44.91 46.00 45.62 44.38 43.75 43.92 43.39 43.59 43.93 43.81 41.98 40.44 40.68 40.47 39.66 39.48 40.07 41.00 39.88 40.24 40.39 39.83 39.58 39.82 40.99 41.60
44.60 45.59 46.14 45.75 46.26 47.82 48.82 47.60 45.04 44.97 45.91 46.22 47.07 46.79 47.17 46.14 45.76 45.72 44.64 45.24 43.59 42.63 43.41 43.31 43.24 44.36 44.63 43.02 40.64 40.06 41.29 45.24 42.21 38.31 38.38 38.19 38.65 38.19 38.05 38.21 38.31 38.70 38.93 39.39
41.32 41.24 42.15 42.91 45.40 45.03 46.10 47.46 48.43 47.98 47.54 47.65 46.37 47.22 47.37 45.86 46.10 45.62 45.10 45.42 44.65 44.05 43.96 43.34 43.38 44.67 44.28 42.55 40.78 39.96 39.26 40.12 43.05 38.21 37.56 37.37 37.07 36.80 36.91 37.01 36.89 36.90 37.25 38.80
45.96 45.77 46.02 45.56 45.42 45.39 45.84 47.94 47.73 48.18 49.13 49.87 50.01 47.95 47.91 47.54 46.96 46.38 45.39 44.62 43.76 43.62 44.03 44.33 44.60 44.33 43.99 43.12 41.17 39.86 38.95 39.14 38.92 38.06 37.44 37.24 36.55 36.25 35.68 35.43 35.46 35.88 36.73 37.49
49.03 47.97 47.47 48.09 47.27 46.31 45.53 46.28 47.28 48.79 48.75 49.23 49.60 47.71 48.03 48.74 47.96 47.60 47.35 44.65 43.82 43.09 44.13 44.38 49.77 48.75 42.87 44.93 43.67 39.15 38.79 38.57 38.06 37.64 37.70 38.99 36.69 35.83 35.04 34.53 34.97 36.93 36.98 36.79
48.91 49.60 49.05 48.57 49.12 47.38 46.72 47.34 47.19 46.92 48.56 49.15 49.29 47.85 48.56 49.03 48.36 47.28 47.01 45.44 45.80 46.41 46.43 45.67 48.32 45.76 43.44 44.61 50.83 39.17 39.16 39.09 38.48 37.87 37.47 36.74 35.99 35.50 34.87 35.86 35.06 35.64 36.22 36.17
47.27 48.03 48.45 47.91 47.66 47.95 48.12 48.16 47.96 47.38 47.47 48.02 47.71 47.86 49.13 49.98 49.93 49.13 47.91 46.35 46.35 47.58 46.36 49.25 47.90 46.47 44.97 45.07 48.36 39.68 38.44 38.12 38.21 38.13 37.96 37.01 36.14 34.96 34.15 33.91 34.67 35.78 35.69 35.88
43.72 44.09 44.97 45.60 45.65 44.77 46.29 46.52 46.96 48.35 49.58 48.64 48.78 49.15 48.35 47.84 48.68 49.54 49.39 49.13 49.17 49.17 48.37 48.05 48.27 48.83 46.46 51.26 43.48 40.69 37.72 38.79 38.51 37.75 37.60 36.91 35.80 34.72 33.76 33.32 34.51 36.02 35.71 36.02
42.72 43.45 43.40 43.27 42.64 42.08 44.45 45.08 45.24 45.74 45.58 45.75 46.19 46.66 47.38 47.77 47.95 47.27 46.66 49.31 50.68 49.88 49.02 48.37 49.39 50.90 51.38 48.53 43.78 40.09 38.57 39.11 38.68 38.42 38.46 37.51 36.51 34.93 33.68 33.53 34.42 36.45 35.62 35.16
41.85 43.27 43.01 43.41 43.93 43.54 42.41 43.31 43.93 44.03 44.22 45.19 45.16 45.46 44.91 45.01 46.87 48.77 50.62 50.76 50.04 50.06 50.15 49.37 49.69 50.88 50.95 44.25 41.21 39.95 39.64 40.42 39.77 39.64 39.18 39.33 36.59 34.80 34.57 34.18 33.70 35.20 36.42 35.60
43.60 43.12 42.71 42.43 41.55 41.46 41.47 42.14 41.34 41.41 41.94 43.73 44.08 44.49 47.14 47.18 47.72 48.39 50.54 51.07 49.86 50.61 50.26 50.48 50.35 49.92 50.05 45.34 42.89 41.45 41.63 41.77 41.74 41.03 40.00 38.51 36.78 36.45 36.70 34.54 34.21 34.33 35.70 37.00
42.00 42.11 42.43 42.11 42.22 42.54 41.62 40.71 39.59 40.77 45.31 45.58 46.40 46.01 48.03 48.86 49.15 49.55 49.49 49.38 49.99 49.79 49.99 49.64 49.60 49.18 47.74 45.00 44.21 43.48 42.53 42.15 42.58 42.45 40.72 40.10 39.10 38.01 36.96 35.25 34.42 33.96 36.83 37.60
42.02 42.37 41.50 41.06 41.48 41.98 41.98 41.12 40.17 40.35 41.38 42.25 41.42 43.88 46.50 47.84 48.39 48.53 48.96 48.77 48.49 47.32 47.56 48.10 48.45 48.11 47.50 46.16 43.96 43.11 42.75 42.72 43.22 43.22 42.08 41.70 39.98 39.06 38.66 37.21 35.97 36.57 37.43 37.35

GFSNGP_sfc_wetblb_093.txt.gz
Wetbulb
39.12 41.76 42.82 43.12 43.62 42.58 40.20 40.93 42.89 47.00 49.91 53.52 54.84 56.05 58.52 59.04 59.26 59.47 60.10 60.89 61.52 62.12 63.27 64.54 65.28 66.37 67.99 68.24 68.38 68.33 67.39 67.12 67.43 68.74 69.03 68.99 68.36 68.74 70.03 71.33 72.06 71.09 70.41 70.82
39.39 44.19 42.84 41.00 42.87 43.59 48.96 51.11 50.32 50.67 50.84 56.07 56.30 58.09 57.64 56.59 56.96 57.71 58.46 59.90 61.10 61.61 62.39 63.17 63.79 64.29 65.24 65.60 66.57 67.72 66.95 66.66 67.54 67.34 67.41 67.23 67.39 67.88 67.84 68.45 69.17 70.23 70.66 70.76
34.82 41.32 40.25 36.13 40.37 41.13 48.28 51.98 51.67 47.60 50.64 54.32 54.80 56.16 56.24 55.33 54.89 55.86 56.65 57.63 59.16 60.40 61.43 62.04 62.19 63.19 63.12 63.67 64.43 64.26 64.41 65.13 66.08 66.62 65.36 65.52 65.93 66.09 66.67 66.75 67.55 67.84 69.19 70.12
35.59 37.71 32.97 38.36 45.18 46.64 52.84 53.57 53.20 52.52 53.34 54.79 55.25 56.50 56.26 56.55 54.33 54.23 54.64 54.00 54.05 55.09 58.88 61.31 62.37 61.88 59.34 58.78 59.14 60.54 61.75 63.36 64.51 64.35 64.21 64.50 64.39 64.04 65.30 65.28 65.65 66.62 67.66 67.84
36.10 34.76 39.24 42.22 43.61 43.89 41.48 50.90 54.43 53.04 53.54 53.38 52.09 52.50 50.53 54.89 55.27 54.02 53.41 53.14 52.92 54.64 55.78 56.40 55.98 55.57 55.31 54.73 54.97 55.66 56.18 57.29 58.60 60.22 62.47 63.03 62.89 63.85 64.36 63.60 63.26 64.23 66.65 67.25
38.67 34.96 32.81 40.37 47.05 50.16 50.13 46.92 55.68 54.79 51.10 50.24 51.53 45.21 46.44 51.33 53.36 53.32 52.82 53.02 54.58 55.45 54.85 53.25 51.93 53.42 52.89 52.13 52.42 52.27 53.02 53.82 54.20 54.98 57.45 57.65 59.24 60.68 63.02 61.22 61.90 62.98 64.83 67.09
38.09 35.82 40.53 46.85 48.42 49.60 37.55 42.39 53.50 52.90 51.55 51.10 47.23 47.30 48.70 49.80 51.19 51.27 51.68 51.79 52.23 51.75 50.76 50.39 50.57 50.90 49.70 49.43 48.90 50.13 51.04 51.04 51.27 51.78 53.60 53.84 55.83 57.84 57.86 57.59 58.15 62.53 65.63 65.81
33.03 33.17 33.81 48.12 48.24 42.55 43.45 46.21 52.59 51.81 51.40 49.41 49.92 49.79 48.85 48.20 49.68 51.03 50.20 50.35 50.67 49.28 48.15 48.17 48.86 48.64 46.88 46.81 47.73 48.25 48.48 48.33 48.05 48.10 50.13 51.37 51.49 52.14 53.26 53.08 52.59 53.07 53.97 55.16
37.81 38.10 45.05 46.81 44.17 47.73 49.29 47.82 48.73 49.95 51.56 50.91 50.18 48.80 48.81 48.85 50.66 51.00 50.05 49.25 48.89 47.42 46.85 46.72 46.69 46.61 45.36 45.33 46.72 46.64 46.01 45.65 45.70 46.22 46.91 48.04 48.54 49.02 48.84 48.40 48.96 50.23 50.43 50.42
39.94 43.17 44.07 46.16 47.86 48.13 50.27 48.33 50.66 51.20 51.76 51.46 49.75 50.10 49.13 47.87 48.42 48.61 48.44 47.62 47.52 46.26 45.09 44.25 44.96 45.43 45.22 45.27 45.26 44.57 43.78 43.54 43.99 43.98 44.07 45.00 46.68 47.21 45.85 45.43 46.11 47.47 47.30 47.96
38.48 42.15 45.37 47.02 47.03 47.81 47.84 48.95 50.33 50.65 51.80 51.21 50.04 48.95 48.47 46.80 47.36 47.83 46.99 46.33 45.77 44.92 44.53 43.34 43.45 44.04 44.27 44.26 44.13 43.17 42.81 42.63 41.77 42.32 42.08 42.45 43.39 43.75 44.44 44.17 44.81 43.75 43.85 45.18
37.22 42.34 41.14 43.04 46.67 48.99 47.66 47.40 47.95 48.19 47.54 48.46 48.71 47.15 46.94 45.37 45.80 45.82 45.47 45.19 44.30 43.91 43.80 43.04 42.78 43.06 43.31 43.42 43.33 41.51 40.94 40.91 41.12 40.52 40.86 41.49 41.51 41.37 44.94 44.50 43.83 42.33 42.04 42.50
42.09 44.56 44.93 45.18 47.05 48.17 46.50 46.83 47.41 47.66 47.82 47.35 47.25 47.21 46.52 45.12 45.01 47.27 45.09 44.94 44.13 43.80 43.58 42.82 42.75 42.92 43.65 43.18 42.91 41.22 39.95 39.17 39.49 40.51 40.08 39.69 39.81 39.48 38.60 40.37 43.55 42.13 41.24 41.74
45.72 44.47 43.73 46.02 44.66 46.41 47.74 48.52 48.93 47.53 47.86 48.19 47.07 46.45 46.28 44.94 45.73 44.94 44.65 44.90 44.56 43.84 43.18 42.79 42.22 42.10 43.35 43.26 41.21 39.71 40.53 42.93 38.37 38.24 38.20 37.69 38.11 38.09 38.33 37.52 36.82 37.74 40.58 40.71
44.78 44.75 43.78 45.21 47.61 48.03 47.11 46.84 45.38 44.72 46.04 46.45 47.48 46.96 46.15 44.94 44.27 44.50 44.59 44.75 44.54 43.34 42.85 42.43 42.19 42.25 42.53 42.38 39.73 39.35 38.37 37.46 37.21 37.22 37.67 37.98 36.91 36.70 36.61 36.38 36.19 36.23 37.28 38.69
43.96 44.72 45.26 43.53 43.80 45.84 47.44 45.86 44.04 43.75 44.46 46.53 46.57 46.13 46.50 46.61 45.77 44.87 44.43 44.54 43.11 42.38 42.47 42.19 42.19 42.96 43.47 40.63 39.47 40.14 40.30 43.32 39.55 36.49 36.52 36.12 35.92 35.77 35.30 35.06 34.78 34.88 35.03 35.24
40.08 39.97 40.46 41.34 43.93 43.46 43.93 46.10 46.29 46.63 47.25 47.33 47.20 47.38 45.67 44.49 44.16 43.72 43.73 44.78 44.21 43.03 42.70 42.23 42.81 43.54 43.55 39.90 39.28 38.45 39.46 39.81 42.04 37.05 36.42 36.12 35.86 35.12 34.89 34.57 34.06 34.05 34.06 36.03
44.69 44.05 44.24 44.20 44.35 44.33 44.46 44.99 46.45 47.21 48.10 48.57 49.04 47.43 47.26 44.17 44.27 44.46 44.39 44.61 42.87 42.46 42.80 43.21 43.24 43.64 42.84 40.84 39.50 38.88 38.27 37.97 37.43 37.16 36.79 36.64 36.00 35.39 34.65 34.15 33.99 33.99 33.91 35.28
46.57 46.09 46.19 46.73 46.19 45.10 44.59 44.76 45.33 46.21 46.52 46.73 47.97 47.61 47.59 47.57 46.78 46.72 46.79 44.37 44.25 42.14 43.80 43.44 48.68 47.71 41.78 43.43 41.86 38.26 37.90 37.68 37.25 36.99 37.20 38.47 36.68 35.52 34.44 34.02 33.67 33.70 34.16 34.63
47.80 47.87 47.59 46.69 47.48 46.11 45.54 45.95 46.01 45.73 46.29 46.16 46.33 48.73 47.57 48.17 48.35 47.86 46.95 44.88 46.13 46.55 47.78 45.07 47.19 46.77 43.28 43.78 49.99 38.43 38.24 38.02 37.69 36.95 36.75 36.30 35.68 35.35 34.89 35.46 34.66 33.88 34.05 34.03
45.76 47.08 47.19 47.29 46.27 46.17 46.49 46.63 46.60 46.12 46.49 45.82 45.43 45.93 47.70 49.14 48.52 48.51 45.23 45.43 47.11 48.13 47.77 48.75 46.59 46.83 45.47 44.66 49.07 40.33 38.57 37.86 37.28 37.10 36.77 36.87 35.94 35.50 34.66 33.91 33.40 33.63 33.63 34.03
42.30 43.29 44.01 44.35 43.61 43.85 44.30 44.26 44.70 45.06 45.04 46.47 48.53 48.33 46.83 46.33 48.07 49.29 49.05 48.74 50.18 50.30 48.43 47.43 47.60 48.51 47.13 50.59 45.64 42.22 39.38 38.35 38.04 37.19 36.47 36.34 35.57 34.89 34.56 33.82 32.95 33.33 33.58 34.61
41.96 42.30 41.99 42.01 41.06 40.70 42.69 43.25 43.31 43.69 43.18 42.97 43.21 43.72 44.05 45.19 45.91 46.05 46.50 50.05 51.20 51.25 50.06 48.90 49.23 50.57 51.04 48.79 44.49 43.47 41.33 39.10 37.49 37.59 37.82 37.05 36.92 35.75 35.09 34.15 33.45 33.12 32.79 33.09
41.07 41.77 41.39 41.95 41.74 41.32 40.26 40.94 40.98 41.04 41.34 43.19 43.04 43.10 42.63 42.77 43.39 46.07 47.82 48.56 49.76 50.20 49.93 50.06 50.16 50.50 50.73 48.66 45.50 42.58 41.00 40.37 38.48 38.03 38.02 39.50 37.75 36.14 35.48 34.74 33.85 33.15 32.80 33.25
41.65 41.28 41.30 40.75 40.16 40.36 39.79 39.23 39.52 39.74 40.88 41.90 42.00 43.06 45.69 48.34 47.13 47.78 46.81 47.96 49.20 49.24 49.81 50.57 50.73 50.52 50.34 46.90 43.91 42.58 41.92 40.69 40.22 39.73 38.76 37.93 37.93 36.98 36.69 35.69 35.60 34.99 33.46 32.94
41.41 41.08 41.16 40.96 40.68 40.54 39.58 38.68 38.67 39.43 40.66 40.75 41.77 42.50 44.14 45.94 48.45 49.21 50.10 49.32 50.30 49.63 49.79 50.18 50.15 49.85 49.31 48.36 46.22 44.10 42.94 43.10 41.97 42.03 40.33 39.50 39.12 38.45 37.60 36.56 35.69 35.45 35.39 34.86
41.21 41.69 40.83 40.00 40.44 40.71 40.44 39.95 38.82 39.44 40.59 40.26 40.08 41.63 42.67 44.21 44.29 47.08 48.00 48.28 47.70 48.06 49.84 49.19 49.19 48.83 48.37 47.99 47.45 45.59 44.21 43.17 41.88 42.12 41.28 41.31 40.58 40.35 39.12 38.20 37.07 35.24 34.70 36.25

GFSNGP_sfc_wetblb_096.txt.gz
Wetbulb
38.76 40.97 41.53 41.19 40.62 41.29 38.04 38.52 40.76 43.51 47.12 52.22 55.44 56.65 58.95 59.81 59.79 60.28 61.13 62.10 63.24 64.35 65.09 65.66 66.56 67.83 68.23 68.71 68.59 68.30 67.69 67.83 67.98 68.50 68.35 68.95 68.71 68.77 69.70 70.24 71.50 72.48 72.04 71.72
39.35 42.61 42.14 39.86 41.94 43.83 43.55 48.50 48.99 48.33 47.58 54.29 57.27 58.89 58.41 58.05 58.79 58.94 60.11 61.28 62.09 63.25 63.88 64.53 65.43 66.40 66.45 66.27 67.85 68.30 67.72 67.47 67.51 67.67 67.18 66.46 67.92 67.92 67.94 68.14 68.75 69.54 70.73 71.41
34.92 39.89 39.70 35.03 40.46 41.23 42.05 50.41 50.04 46.45 49.63 55.48 55.88 56.40 55.94 55.58 57.86 58.17 59.60 60.48 61.39 61.77 62.08 62.34 63.42 64.38 63.56 64.31 65.38 65.37 65.68 65.98 66.50 65.53 65.51 65.67 66.15 65.99 65.72 66.06 67.20 67.99 68.57 68.75
35.20 36.69 30.72 37.70 44.20 46.29 48.61 52.64 52.70 52.17 54.01 56.13 56.02 55.47 56.06 56.35 55.66 56.70 56.59 56.33 58.55 60.77 60.93 58.17 58.12 57.84 58.41 59.12 59.13 59.40 59.36 60.72 63.41 64.90 64.72 64.77 63.79 63.68 63.48 63.73 64.83 65.59 66.95 67.99
34.14 32.75 37.13 41.52 43.87 43.97 41.73 48.98 53.83 53.23 55.07 53.29 53.80 53.48 52.64 55.32 54.51 53.57 54.48 55.34 56.65 57.12 57.29 56.23 55.65 55.81 55.21 54.93 55.11 54.87 54.70 55.44 56.59 59.74 60.49 61.76 62.78 63.04 62.77 61.73 61.77 62.59 65.21 68.12
36.04 34.27 32.58 39.33 46.51 49.42 49.53 43.18 55.22 54.15 51.90 52.04 54.07 48.03 48.84 52.72 53.25 53.18 54.84 56.79 55.65 55.30 55.28 54.66 55.25 54.75 52.63 51.75 51.78 51.61 52.53 53.01 54.48 55.29 56.60 58.03 59.74 61.52 61.89 60.89 62.10 63.88 65.31 65.25
36.02 34.61 38.13 45.64 46.50 48.91 38.42 39.98 53.42 53.74 52.36 52.88 48.88 49.37 49.39 53.00 52.25 53.70 54.42 54.31 54.67 54.27 51.68 51.19 51.53 51.72 50.22 50.23 49.39 50.71 51.61 51.32 51.55 52.60 53.44 54.44 54.50 55.17 55.95 55.49 56.38 60.61 59.27 57.56
32.59 30.86 33.26 47.35 47.15 43.94 44.88 47.20 51.94 52.48 52.72 51.29 50.07 49.01 49.34 49.66 51.18 50.98 50.63 50.86 50.86 49.65 49.05 49.26 49.44 49.36 47.95 47.53 48.73 49.52 49.51 49.28 49.65 50.11 51.68 52.24 52.40 50.53 51.22 52.92 53.09 52.59 53.07 53.78
36.33 36.31 44.04 47.06 46.01 48.15 49.66 49.24 50.25 51.00 52.42 52.51 50.28 49.05 50.01 50.01 50.44 49.48 49.48 48.83 49.06 47.85 46.90 47.05 47.76 48.20 47.03 47.02 48.37 47.61 47.03 46.84 47.39 48.11 48.90 49.83 49.21 48.82 48.41 49.20 50.13 50.06 50.35 49.90
39.04 41.73 44.40 46.35 48.26 48.87 50.41 51.05 52.16 52.56 53.03 52.51 50.17 49.87 50.13 50.70 49.61 48.70 48.02 47.49 47.37 46.71 45.68 45.46 46.70 46.78 46.44 46.70 46.95 46.20 45.54 45.33 45.54 46.00 45.88 46.78 47.52 47.48 47.02 46.43 46.30 46.24 46.48 46.31
39.35 43.26 44.99 46.58 46.73 47.66 49.21 51.04 52.01 53.57 53.32 52.41 50.98 49.75 49.86 49.15 49.04 48.57 47.95 47.57 47.30 46.19 45.31 44.95 46.03 45.73 45.98 46.07 45.94 44.21 43.84 43.79 43.84 43.91 44.37 44.70 45.33 45.60 45.74 45.18 45.09 43.66 43.69 44.57
38.55 41.77 42.02 43.57 46.85 48.47 48.86 48.78 50.00 50.21 50.34 53.07 51.42 49.49 50.05 49.47 48.93 48.55 47.57 46.56 45.93 45.51 44.66 44.12 44.66 44.42 44.93 45.44 45.07 43.32 42.52 42.70 42.85 42.90 42.89 42.82 42.69 42.48 43.50 43.56 42.21 41.06 41.20 42.30
41.95 44.64 44.15 46.20 47.73 48.60 47.74 48.49 49.01 48.84 48.90 48.51 49.17 49.81 49.06 47.12 47.30 47.93 46.75 45.89 45.66 45.29 44.75 44.29 44.45 44.29 44.58 44.77 44.22 43.20 41.54 41.81 42.41 41.46 41.13 40.65 40.44 40.20 39.37 40.89 42.22 40.64 40.10 40.19
44.86 45.01 44.23 46.14 45.14 47.30 48.07 48.82 48.54 49.03 49.43 49.10 48.66 48.11 47.51 47.19 47.58 47.03 46.56 46.76 46.33 45.64 44.24 44.26 44.42 44.54 45.12 44.72 43.70 42.60 42.36 42.02 40.04 39.73 39.66 39.41 39.36 39.19 39.25 38.46 37.80 38.26 39.85 39.82
44.54 44.93 44.22 45.42 47.02 47.56 47.57 47.28 47.06 46.45 47.72 47.49 48.20 47.80 47.36 46.34 46.17 46.45 46.76 46.52 46.07 45.26 44.28 44.24 43.59 43.91 44.58 43.11 42.48 41.22 40.27 39.64 39.69 39.53 39.22 39.25 38.93 38.61 38.45 37.98 37.62 37.34 38.05 38.76
43.98 45.02 45.08 44.42 44.59 45.99 47.19 47.29 46.71 45.72 46.13 47.21 47.07 47.04 48.07 48.38 47.88 46.48 45.86 45.45 44.35 43.81 43.93 44.10 43.85 44.64 44.40 42.61 41.99 40.53 40.69 41.86 40.07 39.47 39.30 38.92 38.86 38.40 37.82 37.47 37.15 37.20 37.19 37.23
41.33 40.73 41.38 42.15 43.54 44.23 44.85 46.31 46.66 47.01 47.42 47.66 48.03 48.71 47.86 46.24 45.89 45.19 45.17 45.68 46.25 45.47 45.07 44.57 44.64 45.26 45.04 42.66 42.47 41.91 42.47 43.31 41.60 39.58 39.53 39.42 38.96 38.55 37.92 37.61 37.23 37.18 37.06 38.07
44.47 44.41 44.07 43.63 44.37 44.75 44.83 45.80 46.14 47.38 46.95 47.31 47.88 48.49 47.21 45.37 46.32 46.52 46.12 46.03 44.69 44.58 44.86 45.40 45.66 45.51 44.88 42.30 42.32 42.14 41.88 42.07 40.71 40.10 39.83 39.71 39.41 39.15 38.36 38.00 37.66 37.38 37.28 37.80
47.26 46.30 45.79 46.33 46.26 45.58 45.10 45.51 45.83 46.66 47.14 47.49 48.01 47.10 48.23 47.43 47.12 47.17 46.80 45.02 44.85 44.85 45.77 45.13 48.46 48.22 45.02 43.69 43.29 41.45 41.22 40.70 40.09 40.19 40.29 40.75 40.82 39.69 39.12 38.71 38.23 37.91 37.98 37.64
47.07 47.60 47.14 47.04 47.56 46.56 46.13 46.48 46.75 46.53 47.13 46.60 47.12 47.11 46.92 47.91 48.20 47.19 46.31 45.00 45.92 47.29 48.38 46.49 48.04 48.31 45.53 45.43 49.17 41.52 41.25 40.97 40.69 40.24 40.14 40.09 40.16 40.10 40.04 38.47 39.01 38.42 38.36 37.79
46.70 47.48 47.28 46.85 46.88 47.09 47.11 47.00 47.07 46.67 46.65 47.24 46.17 46.08 46.65 47.66 49.02 49.06 46.67 45.71 47.48 48.91 49.18 49.14 47.55 47.88 46.62 45.93 49.55 42.77 41.54 40.97 40.75 40.46 40.20 40.95 40.34 40.18 40.07 40.01 39.15 38.51 38.33 37.80
43.57 44.34 44.85 44.92 44.24 43.96 44.55 44.63 44.88 45.18 44.95 45.14 45.94 47.42 47.65 47.93 48.58 48.87 49.51 48.33 50.52 50.02 49.16 48.63 48.34 49.00 48.03 50.34 47.49 45.66 42.72 41.81 41.54 40.98 40.78 40.68 40.77 40.46 40.37 40.32 39.66 39.11 38.56 38.43
42.42 42.65 42.51 42.77 42.13 41.85 43.60 43.53 43.58 44.48 44.17 44.34 44.57 44.59 44.68 45.69 46.23 46.55 47.40 51.12 51.71 50.93 49.40 49.06 49.47 50.30 50.54 49.16 47.19 46.84 44.76 43.14 41.85 41.41 41.78 41.48 41.30 41.43 41.21 41.09 40.82 39.92 39.44 38.93
41.76 42.34 42.15 42.38 43.01 42.78 41.79 41.99 42.34 42.43 42.29 43.39 44.35 44.32 44.60 44.80 45.60 46.52 47.33 48.15 48.74 50.26 51.57 51.29 50.24 50.40 50.54 49.67 48.35 45.70 45.58 45.06 43.88 42.72 42.63 40.57 41.82 41.30 41.02 41.29 40.89 40.79 40.04 38.37
42.25 42.42 42.66 42.41 41.90 41.89 41.23 41.11 41.44 42.21 43.23 43.82 44.20 44.45 45.58 47.92 47.02 48.26 48.98 48.94 48.10 48.82 49.93 50.48 51.11 50.88 50.63 49.82 49.21 46.25 45.52 45.31 44.90 44.03 42.84 43.05 42.57 41.98 42.00 42.03 41.90 42.25 40.86 40.65
41.62 41.78 42.15 42.06 42.18 41.81 41.53 40.89 41.60 41.97 42.18 42.92 43.74 44.16 45.09 45.80 46.18 48.32 49.15 49.24 50.33 49.34 49.99 50.44 50.91 51.12 50.85 50.17 49.22 47.56 46.23 45.01 44.02 43.50 43.65 43.63 43.56 43.06 42.42 42.10 42.14 42.05 42.20 41.93
42.43 41.90 41.39 41.63 42.28 41.92 41.46 40.83 41.03 41.53 42.47 42.68 42.83 44.26 44.66 45.95 46.20 46.18 46.67 48.02 47.14 48.13 49.93 50.52 49.95 49.48 49.80 49.03 48.05 47.06 46.55 45.68 44.23 44.47 43.82 44.36 44.61 44.30 44.25 43.83 43.42 41.84 41.75 41.26

GFSNGP_sfc_wetblb_099.txt.gz
Wetbulb
46.31 46.89 46.40 45.76 44.73 47.57 45.68 48.84 47.33 49.75 52.99 56.91 58.59 58.89 60.02 61.06 62.30 63.24 63.71 64.76 66.28 67.03 67.80 68.80 69.41 69.94 69.81 69.62 68.40 67.95 68.49 68.52 68.70 70.45 70.88 72.93 73.46 73.63 73.39 74.93 75.15 75.84 75.91 75.95
44.83 46.45 46.59 44.34 45.82 48.44 49.49 48.06 48.43 53.00 53.06 59.04 60.60 60.55 59.91 60.44 61.18 61.65 62.53 63.16 65.31 66.30 66.93 67.38 68.42 69.04 69.67 69.10 68.56 68.38 67.91 67.64 68.67 68.31 69.70 71.08 71.74 71.69 71.84 72.10 73.24 73.73 73.63 73.66
42.10 45.05 44.89 42.38 45.42 46.95 49.17 51.60 52.68 51.36 55.75 60.16 57.93 58.77 59.16 59.19 60.27 60.65 61.87 62.75 63.46 63.97 64.07 65.05 66.35 67.05 66.78 67.50 68.47 68.40 68.54 68.31 67.80 67.12 66.81 67.41 69.17 69.70 69.40 70.36 71.21 71.46 71.88 72.64
44.09 43.90 37.44 45.42 50.23 50.58 51.03 54.48 56.05 55.93 56.46 58.23 58.43 59.62 59.95 61.22 59.97 60.12 60.50 60.67 61.31 59.57 58.95 59.01 60.46 60.90 61.60 62.06 62.03 61.93 62.47 63.89 65.68 65.72 65.62 65.69 67.13 67.50 67.91 68.88 69.00 69.98 71.53 67.56
42.49 41.13 43.36 44.79 47.91 47.21 47.20 50.03 56.58 55.60 56.24 57.00 56.81 56.84 55.40 59.80 61.94 59.83 59.13 58.32 58.21 57.84 57.04 57.51 57.27 57.83 58.28 58.08 58.63 58.80 58.48 58.64 61.32 65.16 64.12 64.67 64.45 65.11 65.94 67.16 67.72 70.45 66.77 65.56
43.91 39.46 37.08 45.05 49.10 52.01 51.63 48.43 56.81 56.39 55.48 54.66 55.87 53.57 53.10 56.04 58.65 58.24 57.43 57.05 56.21 56.30 56.53 55.41 55.41 56.12 54.78 54.98 55.94 57.43 56.75 57.15 58.68 60.32 62.75 61.49 63.87 63.41 64.89 66.12 67.06 64.76 60.12 58.47
43.15 42.01 44.14 48.03 50.40 51.75 44.36 46.29 57.00 57.80 55.41 56.42 55.57 56.77 57.12 58.49 57.95 58.61 57.05 55.39 55.42 54.27 54.23 54.29 55.27 56.47 55.67 56.73 55.23 56.18 56.84 57.03 57.63 59.30 59.99 60.10 59.38 59.96 61.00 61.07 58.97 57.94 57.06 55.87
41.39 40.27 37.72 51.21 51.36 46.82 49.46 53.76 56.12 56.08 54.12 52.85 54.40 56.54 56.24 56.50 56.48 54.55 53.45 52.83 52.79 52.02 52.05 53.19 54.64 54.48 53.07 51.99 54.19 55.39 55.92 56.25 56.61 56.94 57.32 56.70 57.72 57.91 56.68 58.11 57.33 57.87 57.24 55.58
44.20 44.27 49.75 51.63 50.53 52.58 53.03 53.38 55.21 55.76 54.67 53.82 54.99 54.64 54.58 52.96 53.83 53.89 53.50 54.20 54.19 52.68 52.28 54.25 55.11 55.98 54.29 53.46 54.25 54.50 54.38 54.24 54.49 54.69 54.71 55.43 56.29 55.73 55.77 56.13 54.86 53.11 53.20 53.62
45.65 47.36 48.74 50.76 52.57 53.19 53.98 54.29 55.39 56.42 54.91 54.24 53.68 53.49 51.96 52.29 54.28 54.96 55.16 54.52 54.68 54.28 53.47 52.62 53.32 53.51 53.49 53.23 53.57 53.49 52.96 52.96 53.16 53.16 52.79 53.56 53.57 53.46 53.05 52.78 52.92 53.12 51.55 49.75
45.53 47.55 49.07 50.12 51.05 50.77 54.30 55.66 55.39 55.75 54.54 53.16 52.32 52.06 52.46 50.78 50.95 53.44 53.73 53.74 54.24 53.73 52.73 51.80 52.10 52.05 52.37 52.61 53.02 51.78 51.41 51.27 51.43 51.65 51.73 50.53 50.19 50.33 48.54 47.11 48.26 49.20 48.66 47.77
46.12 47.91 49.09 48.68 50.92 51.54 53.10 54.62 55.74 54.32 53.25 54.39 52.34 51.85 52.25 51.79 51.34 50.55 50.50 51.19 52.11 52.77 52.43 51.29 50.38 50.31 51.31 51.91 51.82 50.87 49.98 49.88 50.01 49.76 49.75 49.53 48.21 45.03 42.80 42.73 41.53 40.29 39.88 42.96
48.66 50.27 50.14 50.73 51.90 52.24 51.01 52.38 53.93 54.55 54.49 52.98 53.98 54.19 52.98 52.11 51.70 51.15 50.63 50.54 50.70 50.44 51.36 50.83 50.73 50.49 51.15 51.38 50.89 50.21 49.14 48.73 47.44 47.68 47.66 47.26 47.26 46.67 44.22 42.25 41.41 40.12 39.34 39.32
51.05 51.33 49.96 51.45 49.86 52.46 52.17 51.76 52.21 53.62 54.48 54.35 53.77 54.83 54.44 52.54 51.52 51.06 51.41 52.66 51.66 50.59 49.14 48.77 49.03 49.10 50.27 50.70 50.54 49.71 48.90 45.31 46.97 46.36 46.32 46.09 46.21 45.96 46.18 45.65 44.62 44.18 40.02 39.97
50.75 51.38 51.10 51.78 52.40 52.47 53.41 52.70 51.32 51.25 52.60 52.72 53.36 53.35 52.64 51.44 51.14 51.83 52.52 52.26 51.79 52.00 51.13 50.72 50.22 49.79 50.97 50.61 49.73 49.10 47.83 46.44 46.23 46.21 45.90 45.34 45.52 45.34 45.20 45.01 44.73 44.30 44.91 42.21
50.21 50.62 50.15 49.65 50.45 51.17 51.58 52.07 51.69 51.56 50.75 52.31 52.57 52.89 53.40 53.92 54.75 53.53 52.96 51.78 50.44 49.93 50.54 50.17 50.03 51.10 50.74 49.88 49.24 48.16 46.94 45.04 45.95 46.16 45.10 45.43 45.27 44.87 44.33 44.32 44.19 44.07 43.71 43.40
49.01 48.19 48.00 48.47 49.28 50.11 50.59 51.68 52.31 52.28 52.69 52.14 52.26 53.44 52.98 52.10 52.51 52.66 53.17 52.90 52.64 53.01 52.42 51.19 50.75 51.46 50.77 49.63 48.74 47.11 46.53 46.42 45.67 46.41 46.00 45.73 45.38 44.80 44.64 44.36 44.00 43.98 43.47 41.26
51.65 51.82 51.28 50.50 50.58 50.31 50.29 50.94 51.70 52.05 52.12 53.04 53.60 52.81 52.59 51.72 50.98 51.14 53.27 53.18 52.58 52.54 52.89 52.99 52.92 51.69 50.98 49.83 48.95 47.64 46.86 46.83 46.65 46.32 46.47 45.93 45.87 45.94 45.74 45.06 44.52 44.17 44.10 42.41
52.49 52.69 52.39 51.59 51.87 51.79 51.49 51.80 52.11 52.39 52.63 52.79 53.11 53.01 53.38 53.24 53.26 53.63 53.72 52.26 51.05 50.65 51.41 52.08 51.55 51.42 51.05 50.63 49.66 48.62 47.60 47.01 46.80 46.74 46.90 45.99 45.83 46.85 46.53 46.43 45.98 45.68 45.13 44.60
52.61 53.03 52.55 52.39 52.61 52.07 51.99 52.40 52.54 52.59 52.98 53.08 52.73 52.69 52.78 53.26 53.47 52.22 52.89 52.22 52.67 50.73 51.93 50.52 49.95 50.83 51.45 51.39 50.22 48.84 47.94 47.32 46.51 46.52 46.58 46.79 47.08 47.15 47.19 43.53 46.75 46.17 45.52 44.82
52.25 52.82 52.74 52.54 51.95 52.40 52.42 52.90 52.75 51.99 51.38 51.83 51.70 52.00 52.54 53.38 53.75 53.58 52.19 49.41 53.18 53.63 53.88 51.50 48.92 49.06 49.61 50.51 50.96 49.71 48.62 47.87 47.31 46.83 46.75 46.32 47.00 46.94 47.25 47.47 47.09 46.77 46.26 45.45
52.17 52.03 52.04 51.84 51.63 50.57 50.85 50.83 50.32 50.74 50.54 50.43 50.45 50.94 51.27 51.90 52.89 53.46 54.19 52.59 54.17 51.24 52.50 51.05 51.01 51.37 51.02 51.30 49.51 50.79 49.52 48.60 48.15 47.89 47.44 47.20 47.15 47.18 47.35 47.62 47.51 47.45 47.47 47.07
50.86 51.02 50.49 49.58 48.80 48.96 49.46 49.59 49.54 49.73 49.69 49.74 49.95 49.87 49.85 50.06 50.36 49.26 49.35 53.61 54.30 53.06 54.00 53.54 52.28 51.66 51.13 50.42 49.08 48.87 50.29 49.30 48.97 48.44 48.14 48.37 48.38 48.33 48.54 48.13 48.23 48.29 48.19 48.17
49.73 49.44 49.17 49.24 49.51 49.22 47.76 48.25 48.68 48.52 48.85 49.39 50.27 49.79 48.87 47.11 48.18 50.13 51.03 49.63 48.44 49.33 51.08 53.02 52.73 50.79 50.68 52.77 49.05 48.23 48.20 50.19 49.85 49.94 49.87 45.13 49.75 49.55 49.32 49.19 48.41 48.92 49.07 46.91
49.99 49.06 48.50 48.58 48.54 47.92 48.16 47.94 47.90 48.64 49.43 49.43 49.65 49.86 49.86 50.58 49.60 49.23 50.42 50.82 49.44 49.66 50.02 50.11 51.39 51.15 52.22 51.51 50.58 51.31 49.12 47.77 48.29 50.89 50.46 50.79 50.48 50.52 50.64 50.28 49.55 49.31 49.41 49.40
48.85 48.25 48.80 49.16 48.51 48.10 48.63 48.16 47.23 48.01 48.52 48.68 49.36 50.75 51.25 51.44 51.82 51.67 51.43 49.76 50.88 49.53 50.69 51.73 51.48 52.71 53.13 52.42 51.45 50.68 50.35 49.63 47.21 46.96 48.87 49.38 50.43 50.74 50.95 50.55 50.54 50.06 49.88 49.87
49.21 46.33 47.86 47.34 47.84 47.82 47.95 47.92 47.39 47.51 48.01 49.44 49.20 50.18 50.59 50.59 50.52 49.53 48.32 50.93 50.65 50.73 50.49 50.40 49.05 47.99 49.75 51.67 52.20 50.64 50.33 49.44 47.16 47.82 47.86 48.08 49.61 51.23 49.96 49.74 50.32 50.79 50.63 50.48

GFSNGP_sfc_wetblb_102.txt.gz
Wetbulb
49.94 49.94 49.67 50.48 50.18 50.80 50.54 51.18 48.82 50.70 51.92 55.62 62.28 63.83 65.19 65.08 64.89 65.68 66.13 67.23 68.07 68.46 69.45 70.71 71.04 71.19 70.90 69.25 69.09 69.70 71.07 70.80 72.31 74.15 75.16 75.67 75.76 76.49 76.65 76.86 76.25 77.11 76.68 77.18
47.93 49.88 50.39 48.64 49.94 50.50 51.92 52.28 51.57 52.29 52.90 61.25 64.41 65.57 64.63 64.22 63.89 63.98 65.54 66.82 68.37 68.93 69.56 69.98 70.78 71.09 71.05 71.05 70.22 71.21 68.73 68.33 69.00 69.63 71.57 73.24 74.18 74.89 75.69 76.08 76.78 77.01 76.59 76.75
44.74 49.46 49.20 46.34 50.06 50.14 51.43 54.44 54.15 50.76 55.87 62.18 62.71 63.31 63.74 64.18 64.48 64.37 64.65 66.06 68.02 69.06 69.39 70.33 71.45 71.65 71.49 70.94 70.80 70.57 68.72 68.62 68.51 69.54 69.60 69.94 71.12 72.80 73.85 74.57 75.13 74.93 75.12 74.72
45.50 48.04 40.08 49.86 53.74 53.50 51.81 54.47 58.24 58.64 59.77 61.71 62.94 62.70 63.85 64.77 64.24 63.52 63.81 63.40 62.81 63.26 63.27 64.38 67.20 69.55 69.95 69.96 70.15 69.96 69.19 68.80 70.24 68.92 67.79 67.54 67.67 68.65 70.28 71.64 72.63 73.56 72.09 70.94
43.92 44.24 47.00 48.56 51.13 50.73 50.15 52.93 58.50 59.18 59.93 60.50 61.13 60.88 59.44 62.30 63.25 62.97 62.64 61.81 60.47 61.25 60.28 59.55 59.34 61.95 63.02 62.61 63.80 64.49 64.19 66.18 67.61 66.40 65.77 65.54 65.31 66.78 68.34 70.60 71.18 71.10 70.03 67.53
46.25 41.12 39.43 47.44 52.05 54.64 53.83 49.31 58.02 59.26 58.20 58.28 58.44 55.07 57.57 61.69 63.28 60.99 60.51 59.18 58.05 57.33 57.43 57.34 56.58 58.64 57.75 59.10 59.96 60.01 60.91 61.10 63.21 65.10 67.56 68.09 68.33 66.46 65.92 69.46 65.86 64.25 64.28 61.54
43.49 43.35 46.66 52.60 53.54 54.97 46.25 48.53 57.65 57.82 58.19 58.29 57.31 58.08 61.82 62.43 60.73 59.10 57.63 56.67 56.44 55.49 54.77 55.83 57.13 57.37 56.33 55.90 56.53 59.11 60.75 62.99 62.63 63.23 64.34 65.13 65.41 66.67 64.92 60.74 59.20 60.53 58.93 53.73
46.34 43.26 40.61 54.81 54.55 50.28 54.31 56.63 58.47 58.48 56.85 55.49 57.20 59.48 60.69 58.10 56.36 54.80 53.38 53.21 53.54 53.13 53.22 54.62 55.40 56.20 55.84 55.71 58.09 60.13 61.71 61.83 62.30 62.49 62.00 63.31 64.59 64.74 62.71 60.95 60.00 59.68 58.51 57.40
48.20 48.19 53.95 56.04 55.35 57.83 58.18 55.84 58.48 58.85 55.95 57.19 57.58 58.66 58.74 54.72 53.82 53.12 53.06 52.65 52.90 52.80 53.11 54.47 57.42 57.26 54.45 55.57 59.02 59.78 60.08 60.19 60.36 61.03 61.35 62.11 62.95 60.24 59.15 61.90 61.57 61.01 60.16 58.62
50.04 51.47 52.45 54.21 56.64 58.75 59.19 58.43 59.72 59.92 57.13 57.12 57.58 57.17 57.26 54.93 53.35 53.18 53.54 53.22 53.97 53.99 52.63 52.62 54.87 55.42 56.89 56.63 57.86 58.66 58.66 58.79 58.90 58.82 59.01 60.03 59.93 60.65 60.98 60.67 60.80 59.50 58.88 57.98
49.77 51.73 52.93 54.01 55.38 57.24 58.95 59.67 58.87 59.39 58.73 54.68 56.53 54.31 53.54 52.91 53.72 54.57 54.38 55.31 55.44 54.68 53.26 53.18 54.33 54.56 54.91 55.45 57.29 56.94 57.07 56.99 57.17 56.97 57.51 56.37 53.14 53.29 53.39 48.51 47.75 57.88 56.38 55.28
48.81 53.52 54.03 53.12 54.56 56.58 57.26 57.90 58.69 57.85 56.42 54.15 53.84 52.34 52.53 52.82 52.75 53.80 53.33 55.59 55.54 55.36 53.95 53.52 53.22 53.28 53.89 54.86 56.81 57.21 56.16 56.26 56.18 56.09 55.68 54.42 52.25 48.37 42.18 41.60 40.53 39.72 39.64 45.28
53.05 55.06 55.31 55.13 55.39 55.48 55.86 57.03 58.03 58.65 58.31 56.48 56.02 54.28 54.02 52.62 52.72 54.52 54.60 53.17 53.77 54.47 55.29 54.52 53.97 53.54 54.06 54.86 55.66 55.96 55.90 55.78 55.43 53.34 54.62 53.55 52.39 50.66 46.83 42.73 41.09 39.83 39.09 39.39
55.63 55.64 53.48 54.43 53.89 55.43 55.40 55.34 55.30 57.71 59.09 59.49 58.38 58.42 56.77 56.13 55.70 56.35 55.50 55.98 56.02 54.60 54.74 55.03 54.63 54.34 54.81 55.19 55.13 54.43 55.31 46.22 52.90 53.01 52.38 52.27 52.01 52.00 50.94 49.53 48.84 46.14 39.91 41.75
54.16 55.18 55.24 55.30 55.30 55.33 56.12 55.72 54.88 55.46 57.25 58.02 58.96 58.36 57.92 56.87 57.70 57.61 56.75 55.73 55.47 54.89 53.14 52.51 52.56 52.15 53.14 53.25 52.72 51.80 51.02 49.20 50.27 51.51 51.27 51.62 51.13 50.94 51.03 50.53 50.02 49.16 48.01 42.76
54.42 53.92 53.45 52.59 52.99 53.33 53.71 54.02 54.58 54.72 54.67 56.58 57.50 57.60 57.47 57.38 58.06 58.47 57.70 55.61 53.34 52.83 54.14 52.69 52.19 53.17 53.04 52.63 51.82 51.33 50.13 48.60 49.46 50.40 49.23 50.03 50.13 49.78 49.69 49.56 49.35 49.19 49.42 49.45
52.02 51.39 51.23 50.81 51.31 52.00 52.34 54.09 55.09 55.64 56.25 55.77 54.86 56.66 57.89 57.18 57.08 57.97 57.74 57.01 56.64 56.21 55.73 55.53 54.66 55.04 53.44 51.99 51.83 50.04 49.32 48.38 49.35 50.06 49.78 49.80 49.82 49.42 49.58 49.51 49.21 48.93 47.98 44.02
53.65 53.34 52.64 52.75 52.39 52.43 52.65 53.32 53.68 53.89 53.99 55.18 56.44 57.00 56.12 56.31 56.37 57.29 57.77 58.24 57.83 57.52 57.90 57.10 56.43 55.90 55.29 54.02 53.27 51.81 50.00 49.35 48.99 49.50 50.11 49.88 49.62 49.83 49.45 49.40 49.16 48.60 48.03 44.14
54.36 53.28 53.21 53.18 53.40 53.20 53.69 53.93 54.70 55.08 55.59 55.75 55.35 55.43 56.11 56.40 56.79 56.94 57.83 57.33 56.67 55.97 57.01 58.16 56.11 55.67 55.17 54.16 53.04 52.20 50.63 49.93 49.87 49.88 49.98 48.69 48.99 49.89 49.79 49.70 49.43 49.46 49.86 48.42
54.17 54.86 55.08 54.90 55.58 55.29 54.64 55.49 55.43 55.71 56.78 56.11 54.76 53.67 53.69 54.98 56.34 56.43 56.76 56.41 57.28 57.35 58.98 58.52 56.53 55.42 55.68 54.90 52.13 52.62 51.56 50.43 50.05 50.05 49.73 49.79 49.73 50.03 50.36 46.42 50.08 49.77 49.17 48.65
54.72 55.34 55.43 55.90 55.61 56.06 55.95 55.99 55.71 55.03 55.86 54.83 53.24 53.23 53.52 54.61 55.43 56.17 55.68 54.61 57.43 58.21 57.23 55.71 55.16 55.93 55.17 52.99 51.81 51.72 50.16 51.29 50.68 50.26 49.75 49.25 50.12 50.29 50.64 50.66 50.09 50.09 49.80 49.08
55.60 55.54 55.58 55.49 54.88 54.59 55.52 55.43 54.20 53.38 53.02 52.98 52.70 52.67 52.49 52.58 53.29 54.14 55.46 55.06 56.64 52.11 56.10 56.92 56.65 55.57 54.22 53.56 53.58 49.83 49.31 49.72 51.47 51.15 50.03 49.88 49.66 50.04 50.35 50.64 50.45 50.54 50.54 50.35
56.29 56.08 55.43 54.76 53.91 53.94 53.83 52.89 52.88 52.35 52.23 53.19 53.24 53.41 52.91 52.20 52.39 51.02 50.24 54.27 54.35 52.52 52.60 53.09 54.27 52.73 52.81 54.44 52.67 50.40 50.56 49.68 49.77 51.26 50.91 50.62 50.37 50.51 50.63 50.68 50.81 50.97 50.95 50.88
56.31 55.55 54.46 54.14 53.59 52.45 51.26 51.87 52.87 52.92 52.88 52.70 52.69 52.54 53.03 52.34 52.73 53.40 52.60 50.93 49.55 50.24 52.33 51.93 52.06 51.94 51.13 54.26 54.55 53.52 52.21 50.85 49.20 49.20 50.67 45.77 50.98 51.04 51.23 51.52 51.17 51.60 51.48 50.07
55.51 54.62 53.70 52.65 51.73 51.11 52.01 51.87 51.48 51.84 52.12 52.30 52.14 52.58 53.13 53.00 52.06 52.28 53.05 53.10 49.84 51.40 53.06 51.27 50.38 50.56 53.38 53.92 52.49 51.07 51.10 52.01 49.75 51.12 49.99 50.33 50.61 51.93 52.03 51.46 52.19 52.07 51.99 52.04
53.60 52.71 52.26 52.71 51.83 51.32 50.84 50.88 49.80 50.50 50.88 50.72 51.51 52.58 53.56 53.61 52.95 53.66 54.96 51.77 52.87 51.12 52.53 52.34 49.94 51.61 52.46 53.03 52.29 51.57 51.11 51.42 51.64 50.21 51.35 49.70 51.80 52.90 53.90 53.62 53.72 53.46 53.00 52.83
53.77 48.78 51.29 51.27 51.20 51.07 50.74 50.14 50.02 49.35 49.88 51.62 51.29 52.19 52.84 54.07 54.15 51.44 49.62 53.04 52.70 52.87 52.53 52.27 52.26 50.78 50.97 49.69 51.30 52.09 53.39 52.71 49.50 50.44 49.65 49.45 50.37 51.59 51.52 51.49 52.37 53.18 53.47 53.69

GFSNGP_sfc_wetblb_105.txt.gz
Wetbulb
51.03 51.49 52.34 51.31 51.02 51.34 51.31 52.25 50.04 51.87 52.47 56.08 62.68 64.43 66.50 68.05 68.36 69.16 68.65 68.88 69.48 69.23 71.53 72.37 72.33 71.85 72.50 71.13 71.88 70.92 71.64 72.56 72.35 76.26 76.50 76.42 76.17 76.84 76.20 76.34 76.28 76.36 76.25 77.58
49.64 50.74 51.19 49.98 51.92 52.42 52.12 52.28 52.06 52.58 52.74 60.05 65.71 67.21 67.47 66.62 65.59 66.05 66.79 67.94 70.10 70.42 71.12 71.34 72.16 72.47 72.29 72.02 72.57 71.42 70.99 71.83 72.93 74.20 74.67 75.07 75.66 75.86 76.36 75.92 76.25 76.49 75.96 76.25
45.96 49.47 50.02 46.59 50.56 51.68 52.11 53.43 53.43 50.89 54.72 62.20 63.09 64.45 66.29 66.06 65.15 65.17 67.17 67.73 68.81 69.53 70.23 71.10 72.16 72.50 72.12 71.76 72.00 72.17 69.90 70.52 70.98 71.67 70.88 71.60 72.45 74.42 74.36 74.81 75.66 75.85 75.47 75.26
46.59 48.00 41.27 50.59 55.46 55.26 52.62 54.79 55.37 57.66 56.94 62.51 63.78 66.24 66.91 67.41 65.49 65.34 65.81 67.43 67.95 67.88 68.56 69.57 72.15 73.07 73.41 72.96 72.55 71.42 71.52 70.86 70.84 69.53 69.55 70.69 70.08 69.34 70.63 72.00 74.13 74.30 73.65 72.08
45.50 44.71 45.75 50.16 52.95 53.08 51.92 52.60 58.52 59.09 60.38 61.74 65.20 64.96 61.97 64.86 65.57 65.39 64.97 64.40 63.23 64.12 64.58 64.01 66.23 70.13 71.59 71.33 71.29 70.95 70.58 71.22 70.86 70.90 69.42 67.46 67.10 68.31 69.46 70.59 71.25 70.04 69.62 68.86
47.90 43.25 41.08 47.84 52.65 56.35 55.76 48.78 57.94 57.79 60.44 60.80 62.13 58.15 61.77 63.60 63.65 63.98 62.25 61.48 60.17 59.65 59.60 58.38 58.80 62.51 62.67 62.65 64.79 64.41 65.64 67.55 68.21 69.25 66.83 66.36 66.45 66.11 67.61 67.46 66.47 66.67 64.11 63.75
45.53 44.48 47.40 52.53 54.47 55.07 46.92 50.37 58.47 60.08 59.90 59.02 59.50 60.19 63.94 64.21 61.96 60.91 58.56 57.66 57.28 55.93 55.99 57.36 58.03 58.12 57.31 57.84 58.45 61.09 62.51 63.42 64.11 65.54 65.80 66.76 67.43 68.30 66.46 65.46 64.04 63.37 61.85 59.60
47.81 42.93 39.84 56.02 55.54 51.33 55.91 58.75 59.31 60.09 59.97 59.06 58.89 60.40 59.21 58.08 56.94 56.06 54.72 54.55 54.54 54.08 54.41 55.78 56.65 56.61 55.94 56.09 58.54 60.55 62.10 63.15 63.32 64.17 63.18 64.50 67.02 64.05 62.65 62.48 62.15 61.67 60.49 59.98
46.10 48.54 55.55 57.95 57.33 59.44 59.44 57.41 59.67 60.49 59.95 60.01 58.80 56.91 57.12 54.53 53.92 53.14 52.69 52.88 53.90 53.98 54.61 56.43 56.81 56.46 54.41 56.37 59.27 59.66 60.57 62.24 63.15 63.69 64.41 65.63 65.02 64.24 62.21 62.02 61.63 61.69 61.98 60.99
50.81 52.80 54.53 56.20 58.76 60.38 60.76 59.92 60.90 61.65 59.82 58.23 54.89 54.39 53.38 53.47 53.07 53.28 53.65 52.91 53.51 53.38 52.81 53.14 55.57 56.11 56.23 57.96 59.20 58.70 58.65 60.41 61.22 61.06 62.34 64.08 64.78 63.95 63.38 63.95 63.46 63.19 62.44 61.45
50.31 52.43 54.57 55.40 57.06 59.26 60.54 60.77 60.46 61.04 60.06 55.93 53.88 52.86 52.77 53.35 54.09 54.52 54.37 55.04 55.05 53.56 52.64 52.68 54.73 54.97 56.09 56.45 58.72 58.89 59.70 59.62 59.08 58.44 60.70 57.08 51.85 47.26 56.00 47.63 45.50 52.36 60.66 60.08
49.82 54.99 55.31 55.03 56.74 58.44 58.50 59.71 58.81 58.71 57.97 57.21 54.04 52.98 53.27 52.58 53.72 53.14 54.61 55.84 54.70 54.18 54.60 54.23 53.99 54.16 55.26 56.18 56.06 57.31 58.01 58.13 57.58 58.06 58.13 56.97 55.08 50.46 41.00 41.40 40.78 40.05 40.21 47.12
55.54 57.19 57.25 57.34 57.25 57.63 57.40 58.42 60.26 59.86 58.90 55.43 54.61 54.91 54.48 53.10 54.22 54.14 53.69 53.68 55.02 55.34 55.12 54.95 54.59 53.91 54.23 55.21 57.12 56.47 55.13 55.79 56.92 53.44 57.11 56.31 55.06 53.50 50.04 43.08 40.90 39.97 39.27 39.81
57.82 57.75 55.59 56.56 55.80 57.28 57.20 57.53 58.05 60.89 60.62 59.28 58.45 57.90 56.07 56.11 57.29 56.87 54.78 55.26 55.84 55.51 55.27 55.44 55.37 54.12 55.39 55.16 55.17 56.05 54.77 48.60 54.23 54.22 54.89 55.43 55.41 54.56 53.39 51.09 50.15 48.27 40.73 42.81
56.99 57.80 57.43 58.03 57.73 57.53 57.88 57.78 57.00 57.58 59.10 59.26 59.80 58.09 58.48 56.41 56.74 55.67 58.02 58.19 57.81 57.27 56.39 56.00 54.60 54.87 55.77 55.37 54.48 54.44 53.91 54.38 53.28 54.56 54.59 52.54 54.06 53.90 53.23 53.06 53.79 51.39 47.67 42.72
56.68 56.41 55.92 55.48 55.70 56.01 56.34 56.50 56.14 56.53 57.66 58.33 59.06 59.01 59.45 59.70 58.99 59.02 59.41 58.29 57.19 55.82 56.91 56.30 55.76 56.19 55.13 54.33 53.91 53.35 53.04 49.30 49.67 51.86 51.91 51.05 52.64 51.34 51.47 52.16 51.89 51.62 51.37 52.09
54.95 53.23 53.70 52.98 53.36 54.11 54.36 55.73 56.50 57.18 57.39 57.01 57.80 58.54 59.23 59.54 59.35 59.56 60.01 59.31 58.14 58.28 58.57 58.30 57.38 57.65 56.26 54.69 53.22 51.46 51.51 50.71 49.90 49.85 50.24 50.68 51.40 50.32 50.49 50.65 49.71 49.84 50.69 47.57
56.33 55.83 55.49 54.31 53.82 53.64 53.85 54.66 55.22 55.56 55.93 57.07 57.81 58.18 58.26 58.29 58.24 58.72 59.53 60.05 58.64 57.58 58.57 59.06 59.42 58.47 56.64 54.66 53.81 52.78 51.74 50.47 48.63 49.07 49.98 49.77 50.24 50.45 50.06 49.53 49.71 50.17 49.49 46.50
55.45 54.71 54.16 54.29 54.59 54.71 54.96 54.86 55.13 55.89 56.09 56.00 55.57 55.48 56.73 57.78 58.06 58.18 59.23 58.85 58.25 57.62 58.25 60.50 58.05 57.38 57.53 56.52 55.08 54.38 52.82 50.61 50.12 49.69 50.07 49.83 49.66 50.10 49.78 50.07 50.13 49.94 49.71 48.56
55.15 55.26 55.12 55.02 55.54 55.41 55.18 56.14 56.35 56.08 56.89 57.12 55.79 55.22 54.95 55.76 57.22 56.74 57.96 57.54 58.46 58.49 59.77 59.10 59.73 58.54 57.87 57.96 55.49 54.68 53.84 52.60 51.39 50.62 50.65 50.54 50.07 49.84 50.32 47.29 50.04 50.43 49.97 49.25
55.40 55.43 55.39 55.85 55.94 56.77 56.54 56.67 56.51 56.04 56.59 56.94 54.46 53.86 54.48 55.48 56.23 56.48 55.96 54.91 58.19 58.64 59.03 57.23 59.36 58.20 58.42 56.79 55.90 55.26 53.36 53.77 52.52 51.40 51.42 50.51 50.73 50.59 50.91 51.41 50.87 50.67 50.90 50.57
56.09 55.81 56.09 56.53 56.45 56.43 56.66 56.63 56.46 56.68 56.39 54.56 53.96 53.89 53.83 54.00 54.46 54.88 55.88 55.21 56.43 53.42 56.58 57.19 57.78 56.95 57.97 56.81 55.19 54.62 54.74 53.16 52.70 51.40 50.49 50.76 51.38 50.98 51.15 51.75 51.67 51.50 51.48 51.86
56.57 56.68 56.94 56.83 56.23 56.37 56.48 56.04 55.23 54.69 53.91 53.83 53.58 53.98 54.06 53.84 53.67 52.38 52.29 55.37 55.45 52.15 54.58 55.30 54.44 53.31 53.79 55.44 55.22 55.05 54.40 53.72 52.95 48.74 49.48 51.14 50.49 51.06 51.31 51.26 51.81 52.11 52.09 52.03
57.48 57.39 57.52 57.92 57.23 55.26 54.04 54.41 54.27 54.15 53.89 54.46 54.35 55.08 53.86 52.30 53.34 54.38 54.88 52.18 50.16 50.31 53.21 53.50 51.95 50.14 50.79 54.67 55.87 55.28 54.31 53.80 54.43 50.42 50.61 46.87 51.24 50.71 50.05 50.67 51.36 52.09 52.15 50.95
58.42 58.37 58.06 56.35 54.95 52.66 53.51 54.71 53.91 53.32 53.67 54.07 54.06 54.05 54.03 54.61 53.12 53.81 54.68 53.61 49.10 51.43 53.67 50.24 51.18 51.00 52.91 53.01 54.92 54.37 54.85 54.64 52.87 51.98 51.92 53.18 51.14 50.49 51.01 52.12 51.78 51.96 52.06 52.36
58.06 55.47 55.01 55.86 53.24 52.11 53.47 53.51 51.70 52.61 52.64 52.08 52.69 53.27 53.49 53.63 53.67 53.47 53.51 52.98 53.45 51.33 53.52 53.30 52.84 53.34 53.38 53.48 53.74 54.61 55.09 54.86 52.33 52.03 51.93 52.99 50.47 49.52 51.97 52.96 52.46 52.25 50.72 51.11
56.09 51.55 53.81 51.62 51.80 52.00 52.48 51.82 51.73 51.52 50.84 52.07 51.81 52.73 52.79 53.28 53.56 51.93 51.15 51.56 52.33 51.87 51.81 52.07 53.16 51.81 53.20 52.36 52.51 53.32 54.71 53.24 49.69 52.73 52.20 51.21 50.65 50.44 51.05 50.57 51.04 50.62 51.96 52.53

GFSNGP_sfc_wetblb_108.txt.gz
Wetbulb
50.61 51.89 51.95 51.73 51.59 52.15 50.21 51.32 48.92 51.44 52.53 59.82 62.41 63.53 65.32 68.18 69.01 69.20 69.28 69.66 69.67 69.71 70.76 72.45 70.29 70.92 71.06 70.70 73.04 74.21 73.42 73.57 71.39 73.07 75.39 76.11 76.12 77.43 77.31 77.43 76.32 76.61 77.42 77.14
49.28 51.53 51.59 50.00 51.17 52.60 52.19 51.52 52.00 52.64 52.72 61.98 64.58 65.55 66.68 67.93 68.73 68.49 67.90 68.62 69.49 71.12 71.30 71.54 71.91 71.54 71.42 71.73 72.26 72.67 71.44 71.50 73.25 73.34 72.82 72.34 73.32 76.08 76.71 76.59 76.93 77.54 76.09 76.45
45.32 49.99 49.11 46.32 50.35 51.43 52.86 53.89 52.83 50.09 56.31 58.95 61.76 63.53 61.86 65.64 66.78 67.93 68.42 69.37 69.91 70.47 70.97 72.25 72.72 73.49 72.28 73.15 73.69 72.40 71.69 71.93 73.00 73.99 73.06 72.00 72.10 74.29 73.04 74.16 75.72 75.69 75.90 74.94
46.06 48.57 40.76 50.64 55.31 54.80 53.00 53.81 57.05 58.40 58.79 59.75 63.15 59.88 55.42 65.54 66.10 66.21 67.58 66.87 67.43 69.16 70.06 71.61 72.70 72.83 72.70 73.26 72.45 72.16 71.63 71.79 71.48 71.25 70.74 70.34 69.97 72.40 72.46 71.20 70.72 70.77 70.23 70.14
44.41 44.08 47.78 50.96 52.63 52.31 50.85 53.41 58.07 57.27 57.21 57.64 61.33 61.06 62.26 64.63 65.22 64.85 63.02 62.44 62.00 62.35 63.11 64.46 66.08 70.94 72.28 72.34 72.21 71.79 71.70 70.98 70.85 70.82 69.64 69.52 68.57 69.25 69.50 69.38 69.05 67.38 66.75 64.31
48.10 42.47 40.66 49.61 53.71 56.14 55.26 48.87 58.57 59.46 59.07 57.28 59.62 54.72 59.17 64.26 63.06 60.73 59.93 59.40 59.84 60.46 60.07 59.28 60.80 64.53 64.04 64.34 67.69 68.07 70.29 70.22 70.83 70.82 69.76 68.52 67.86 67.07 68.57 68.72 66.20 64.28 61.51 59.09
46.47 44.50 48.28 52.68 54.65 55.69 44.71 49.42 57.97 59.64 59.89 60.68 59.22 58.75 58.29 59.24 57.89 57.63 57.64 56.73 56.61 57.29 57.08 57.62 58.65 60.15 59.41 60.51 59.67 61.95 63.56 65.70 67.98 69.00 68.77 68.05 67.15 69.53 67.38 65.17 63.23 61.18 58.89 57.38
46.28 42.05 41.48 54.29 55.60 49.52 55.40 57.68 57.34 59.38 59.93 59.90 61.27 59.84 57.57 56.85 55.50 55.24 54.42 55.03 55.79 54.80 55.37 56.32 57.36 57.55 57.00 57.47 59.49 61.45 62.55 62.45 63.16 64.82 64.18 66.08 64.65 62.63 64.38 63.39 61.78 60.95 59.77 59.96
46.70 47.57 53.62 56.59 55.77 58.67 58.47 58.22 59.13 59.87 60.11 58.22 54.36 54.40 54.36 53.37 52.86 52.71 53.20 54.14 55.07 54.59 54.34 55.39 56.36 56.27 55.57 57.32 59.56 59.98 59.77 60.28 61.73 64.69 64.71 65.42 63.58 63.30 61.79 61.96 60.44 60.74 61.06 60.53
50.23 50.93 50.81 56.45 58.36 59.77 60.30 59.80 60.79 60.44 57.67 55.90 52.93 53.06 52.36 52.66 52.52 52.48 52.81 53.08 53.70 53.73 52.90 53.40 54.69 55.42 56.81 57.78 58.83 58.18 58.49 59.86 60.34 59.60 58.16 54.86 56.33 60.44 58.59 53.37 58.48 61.54 63.24 61.80
51.23 53.25 54.49 55.52 57.81 59.11 60.06 60.79 59.80 59.31 57.35 55.91 54.03 52.79 53.09 52.61 53.13 53.96 54.30 54.46 52.99 51.80 52.03 53.15 54.54 54.33 55.46 56.04 57.89 57.81 58.42 58.19 58.24 58.01 57.48 50.76 46.06 47.46 49.66 43.62 43.61 50.19 49.53 51.04
49.86 54.65 56.11 55.43 57.09 58.85 59.59 59.05 59.64 58.38 57.14 56.99 56.04 53.83 53.02 52.47 53.16 53.59 54.07 55.15 53.25 53.98 53.32 53.50 53.41 53.60 54.67 57.48 57.53 56.46 56.36 56.43 56.87 58.64 58.15 55.78 54.98 47.50 41.70 41.89 40.92 40.10 40.52 47.26
54.06 57.17 56.14 57.65 57.49 58.24 57.74 60.29 60.08 58.68 58.47 56.36 56.36 55.72 54.22 53.70 53.58 54.02 54.10 54.42 54.84 54.09 54.17 54.73 54.27 53.33 55.11 54.51 55.10 55.30 56.15 54.33 55.30 54.65 57.91 56.03 55.88 52.67 50.12 42.90 41.29 40.44 39.86 40.37
58.34 57.59 55.47 56.04 54.95 57.42 57.55 58.47 60.02 59.72 58.57 57.42 56.95 57.33 56.61 55.40 54.62 54.32 53.33 54.14 54.89 54.40 53.89 55.54 54.82 54.18 54.79 54.59 55.30 55.04 53.23 50.66 50.39 54.62 55.42 55.64 55.99 54.18 52.73 51.31 49.29 46.87 41.69 42.59
56.43 57.15 56.68 57.18 58.30 57.58 58.10 57.71 57.32 57.67 57.64 57.38 58.08 57.27 57.07 56.68 56.32 56.66 57.78 58.02 57.17 56.67 56.29 55.98 54.85 54.86 55.51 54.59 53.78 53.29 53.03 52.96 52.81 55.44 52.80 50.38 52.62 53.09 54.25 53.56 54.94 48.94 44.82 41.82
56.68 56.51 56.43 56.17 56.00 56.56 56.51 56.85 55.96 57.36 58.47 57.49 57.66 58.64 58.91 58.64 58.17 58.45 58.78 59.14 57.15 56.08 57.41 56.89 56.61 56.78 57.44 57.15 56.04 55.01 54.11 51.65 51.65 52.78 52.56 51.11 53.10 50.70 53.71 52.26 53.35 51.67 49.76 50.66
54.69 54.00 54.15 53.62 54.19 54.72 55.02 56.04 56.47 56.71 57.24 58.92 58.59 58.16 58.66 59.07 59.24 59.09 59.56 59.53 59.45 58.98 59.02 58.43 57.67 58.51 57.12 54.96 55.04 53.29 52.92 52.23 51.73 50.74 50.98 51.34 51.78 50.39 51.74 50.80 51.00 52.73 49.55 44.40
58.00 57.25 56.40 55.47 54.32 53.94 53.90 54.63 55.36 56.09 56.36 57.58 58.68 59.13 57.98 58.48 56.49 58.08 59.34 60.16 59.65 59.67 60.03 60.69 59.78 58.89 56.74 55.58 55.06 54.13 52.49 51.68 50.37 48.92 50.48 51.76 51.21 50.12 51.63 50.73 51.68 51.56 48.84 44.68
56.86 55.77 55.77 54.95 55.49 55.20 55.26 54.83 55.36 56.37 56.60 55.92 55.63 55.39 56.65 57.46 59.42 59.98 60.61 58.77 59.21 58.51 59.84 61.20 59.51 59.26 58.13 56.74 55.68 54.12 52.53 52.11 51.32 49.68 50.36 50.59 50.80 50.83 50.32 49.78 49.26 50.59 50.66 47.27
55.55 55.68 55.23 55.02 55.53 55.64 55.60 56.37 56.50 56.51 57.48 56.68 57.16 56.08 55.23 55.58 56.96 57.05 57.44 56.70 58.53 58.28 60.96 60.16 58.37 59.59 58.71 58.85 57.03 54.66 54.94 53.89 51.82 51.17 50.94 50.68 50.63 50.80 50.82 48.06 50.40 51.29 51.12 48.59
55.34 55.27 54.96 55.29 55.57 56.62 56.32 56.69 56.46 56.09 56.75 57.19 56.09 54.56 55.02 56.55 56.81 57.48 56.84 53.99 57.20 58.52 59.74 58.79 59.06 58.78 59.52 58.88 56.72 55.35 54.41 54.13 52.91 53.22 52.75 51.58 51.32 50.54 50.53 50.78 50.83 50.78 51.49 51.16
56.07 55.46 55.36 55.66 56.02 56.20 57.35 57.12 56.81 56.90 57.02 56.95 55.23 54.35 54.16 54.26 54.94 55.22 57.60 55.71 55.07 51.70 55.73 56.98 57.67 54.84 57.59 57.59 57.88 55.26 55.62 54.36 53.89 53.95 53.38 52.71 52.22 50.85 50.78 51.72 51.22 51.46 51.17 51.60
57.16 57.61 57.50 57.00 56.92 57.03 57.16 56.77 56.77 56.13 55.48 55.27 54.53 54.32 53.86 53.86 54.32 52.83 52.48 54.56 55.41 51.37 54.22 54.49 52.16 52.00 52.49 55.36 55.98 56.21 54.88 54.28 54.44 53.64 52.38 53.34 51.87 51.43 50.22 51.60 51.74 51.87 52.15 52.18
59.97 60.22 59.32 59.20 58.06 57.47 56.53 56.32 56.13 56.64 55.48 54.88 54.71 55.35 54.48 52.59 53.26 54.27 53.97 51.27 49.85 51.23 53.17 51.83 50.99 51.13 49.64 52.65 53.87 55.49 55.91 56.08 55.25 55.17 54.28 47.26 50.30 50.29 50.70 52.07 51.52 51.84 52.87 52.34
60.83 60.60 59.58 58.67 57.65 56.04 57.37 56.36 55.73 54.41 54.24 54.23 54.92 54.74 54.73 54.24 54.04 53.32 54.43 52.93 49.59 51.37 54.03 49.71 50.87 50.64 53.04 53.34 53.66 54.39 55.87 55.66 55.90 55.88 55.54 53.70 52.39 50.56 49.63 49.93 50.86 49.76 50.46 51.26
61.46 58.20 58.30 58.61 56.73 55.67 54.39 53.89 53.01 52.98 52.38 52.52 52.53 52.98 53.34 53.54 53.40 52.98 54.06 52.60 53.35 51.31 52.33 53.25 53.19 53.03 52.31 52.29 52.09 53.58 54.50 55.94 54.83 55.05 54.15 54.65 54.44 52.77 51.23 50.74 52.90 50.11 50.62 50.72
59.94 54.55 57.27 56.74 56.09 53.45 52.81 53.10 52.46 51.78 51.88 53.11 51.89 53.13 53.22 53.01 53.50 52.58 51.02 52.60 52.49 52.58 52.28 52.78 52.51 51.63 51.99 52.21 52.42 52.60 53.15 54.17 49.77 53.82 54.17 52.62 52.15 54.14 53.70 53.81 53.19 51.22 50.99 51.64

GFSNGP_sfc_wetblb_111.txt.gz
Wetbulb
46.22 49.32 50.28 48.63 49.05 49.79 46.41 45.84 41.48 46.96 52.96 54.62 57.21 58.36 60.30 59.85 63.44 64.86 64.36 64.97 66.22 66.23 66.14 65.75 65.19 65.92 67.18 67.39 67.83 70.26 69.67 70.55 70.48 71.81 71.87 72.68 72.96 71.15 73.46 73.18 72.98 72.54 72.28 72.08
44.04 49.26 49.67 48.65 50.21 50.42 50.13 50.69 47.95 52.86 52.77 56.99 59.58 62.56 61.06 61.04 64.49 64.89 65.16 65.76 66.50 67.23 67.69 64.65 64.60 64.60 66.15 64.85 67.26 71.14 69.23 69.45 70.06 70.25 71.08 71.36 71.55 71.01 70.74 70.90 70.24 71.29 71.21 70.37
39.56 47.04 47.42 42.58 49.58 50.54 50.39 53.81 53.11 51.35 55.71 58.88 55.90 56.56 59.21 57.79 62.60 63.78 64.16 64.74 66.91 67.52 68.91 69.10 67.06 64.99 68.30 68.53 70.51 69.89 68.80 69.16 68.95 70.49 70.24 70.38 70.44 71.03 71.16 70.83 70.74 69.70 69.48 64.31
40.54 43.40 35.58 47.50 52.40 53.03 53.13 55.19 55.57 55.83 58.59 56.87 55.94 56.49 59.58 63.31 62.85 61.12 60.72 60.14 62.03 63.38 64.20 65.49 70.04 69.90 70.55 70.11 69.94 69.40 68.71 69.83 70.61 69.79 69.02 68.01 68.03 68.32 70.05 70.07 69.97 68.44 66.91 65.57
39.07 38.85 44.04 48.93 51.17 50.12 49.75 50.56 55.93 55.97 55.33 58.48 58.84 59.59 59.25 61.01 59.71 59.54 59.55 59.53 60.29 60.57 61.62 62.84 64.31 67.72 69.68 69.61 69.10 69.09 68.64 68.94 68.80 68.26 67.32 67.41 66.84 67.09 68.40 68.49 66.39 64.74 64.01 61.56
42.61 38.41 37.30 46.62 52.15 53.89 52.22 45.40 56.58 57.55 57.13 57.54 57.52 52.54 57.75 59.06 58.12 57.48 56.42 56.58 57.32 58.78 59.20 59.49 61.26 64.00 64.53 66.20 66.77 67.86 68.62 68.60 68.84 68.46 67.56 66.32 65.65 65.87 66.79 64.79 62.56 61.05 59.30 58.38
41.26 39.08 45.00 50.28 53.59 54.90 40.46 44.71 56.09 56.45 57.80 56.58 54.00 55.50 56.40 56.71 55.23 55.58 55.58 55.19 56.32 56.96 56.58 58.27 59.68 60.58 59.81 61.44 61.50 62.97 65.61 68.01 67.86 67.61 67.36 66.39 65.63 65.20 65.30 62.42 59.61 58.14 55.91 53.56
41.16 39.28 37.65 52.36 53.14 47.99 50.34 53.46 56.80 57.29 58.02 56.22 55.49 55.03 53.89 53.93 53.41 53.68 53.50 54.36 55.11 54.62 54.94 55.98 58.03 59.24 58.51 58.37 60.22 62.11 62.37 62.94 63.52 65.38 65.82 64.68 63.52 64.91 61.80 61.51 59.84 58.67 57.28 54.65
44.49 43.82 50.34 53.35 52.67 53.34 54.28 56.47 57.00 55.33 54.60 53.34 52.81 52.56 52.38 51.75 51.97 52.24 53.10 53.45 53.98 53.69 53.75 54.75 55.96 56.42 56.30 57.72 59.06 60.05 60.09 60.42 62.73 59.66 61.48 63.28 62.23 61.53 61.35 61.00 60.31 59.77 58.72 57.25
46.48 48.63 51.46 52.51 56.44 56.35 58.11 57.05 57.00 56.23 54.52 53.22 52.09 52.16 51.76 51.42 51.27 51.87 52.34 52.26 53.24 52.47 51.76 52.14 53.67 54.22 56.18 57.18 58.20 58.19 58.21 58.88 58.16 52.62 50.34 48.81 51.59 50.75 50.02 49.23 52.73 54.00 58.96 57.13
47.11 48.52 50.63 53.57 56.31 57.82 58.66 57.99 56.76 56.24 54.62 53.11 52.62 51.76 51.67 50.59 52.45 53.09 52.74 52.47 51.67 51.63 51.96 52.12 53.32 53.58 54.66 55.85 57.20 56.66 56.55 56.92 57.95 54.53 49.54 44.57 42.96 45.64 44.35 40.92 42.67 46.31 49.08 48.63
45.12 49.76 50.81 52.07 55.65 59.04 57.50 57.16 56.58 55.40 53.98 54.35 52.51 51.46 52.67 51.86 52.58 52.92 52.31 52.48 52.20 52.07 51.15 51.07 51.84 52.24 52.69 54.23 55.80 54.88 54.52 55.11 55.34 57.98 55.11 48.42 45.80 43.04 42.23 41.70 41.03 40.46 40.96 42.68
51.35 54.70 53.09 54.61 55.85 59.01 57.69 57.76 57.42 55.65 54.85 53.37 53.31 52.43 51.69 50.86 51.05 53.15 53.13 52.65 51.45 51.28 51.92 52.36 51.55 51.37 52.86 53.88 53.92 51.72 51.28 49.62 52.62 54.26 54.76 52.83 51.05 48.14 44.04 40.76 42.01 40.66 39.91 40.05
56.43 55.55 53.30 54.86 52.31 56.15 58.70 58.79 57.82 56.89 56.01 54.93 54.11 53.83 53.11 51.88 51.25 51.03 51.49 53.22 52.15 52.99 52.59 52.09 51.86 51.36 53.08 53.17 53.28 52.43 51.55 50.85 48.42 50.68 51.31 52.86 52.60 51.71 48.66 46.29 45.47 43.63 41.54 41.49
55.28 55.10 54.33 55.16 56.13 55.47 55.56 57.94 56.65 55.21 54.98 54.45 55.38 54.27 53.84 52.32 51.46 52.00 52.62 53.46 53.48 52.39 51.29 53.04 52.35 51.97 52.69 52.46 50.47 48.94 49.52 48.23 48.58 48.99 47.77 48.64 49.42 47.48 48.13 48.44 46.83 43.91 40.81 41.71
54.46 54.48 55.74 54.35 54.56 54.42 55.06 55.81 55.86 55.11 55.94 55.47 55.01 53.90 54.62 55.15 54.27 54.26 54.99 55.23 53.15 52.32 53.32 52.92 52.34 52.72 53.25 52.51 51.18 50.26 48.28 51.02 49.62 48.15 47.38 46.59 45.65 46.98 47.42 47.54 44.20 43.70 41.29 41.68
51.86 50.85 51.20 50.90 52.45 52.78 52.22 53.12 54.28 57.04 57.23 56.05 56.15 55.78 55.75 55.62 55.16 54.77 55.22 56.19 56.31 55.21 55.45 55.13 54.43 55.12 54.35 52.35 51.40 50.60 49.67 46.73 50.09 44.55 45.31 44.92 44.32 45.42 44.45 45.00 44.70 44.64 42.92 45.35
55.79 55.61 53.83 52.43 51.54 50.97 51.61 52.90 52.89 54.34 54.08 55.32 58.03 57.35 56.39 55.34 54.61 55.08 56.41 57.22 56.06 55.58 56.08 56.59 56.35 55.74 54.33 52.72 51.06 50.93 48.29 47.59 46.00 45.24 45.16 45.57 44.98 44.67 45.11 45.22 44.68 43.68 40.35 40.72
57.34 55.71 55.13 54.95 53.83 52.81 52.33 51.62 51.79 53.77 53.17 52.93 52.19 51.59 53.14 52.48 52.92 56.65 57.07 56.81 55.37 53.53 54.71 56.78 58.68 57.50 53.89 53.93 53.72 51.21 48.77 47.20 46.53 44.92 45.08 46.77 45.99 45.22 45.84 45.59 45.65 44.69 43.82 41.60
55.52 55.32 54.58 54.12 54.72 54.24 53.33 52.96 53.79 53.55 53.56 53.18 52.57 51.36 50.60 51.75 52.78 52.71 52.79 52.32 52.80 55.59 57.16 57.10 56.25 55.76 55.18 55.61 57.40 50.41 50.96 48.68 47.09 45.64 45.19 44.42 44.43 45.14 45.25 44.62 45.22 45.58 45.93 43.13
54.25 54.30 53.39 53.97 53.01 53.96 54.01 54.26 53.63 52.88 54.55 54.54 52.39 51.03 50.26 51.53 51.77 51.15 50.19 50.11 51.10 50.96 54.58 57.03 55.67 54.65 55.17 55.34 55.96 51.99 50.80 49.80 50.34 47.77 47.70 46.91 46.15 45.06 45.35 45.42 45.67 45.45 45.04 43.62
53.81 53.10 53.41 53.62 53.51 53.75 54.12 54.10 53.57 53.18 54.80 54.47 53.58 51.16 49.71 49.00 49.39 49.99 51.21 51.14 48.50 51.25 52.85 51.69 51.96 53.77 53.19 54.97 53.23 52.95 51.43 50.22 50.90 50.50 48.75 48.47 47.70 44.96 46.67 47.11 45.96 46.95 47.02 46.33
54.73 54.26 53.88 53.31 53.48 53.72 55.18 55.32 53.44 54.04 53.95 52.60 51.71 50.90 49.58 49.05 50.02 50.50 48.28 48.93 49.23 48.14 49.99 48.74 50.54 51.46 51.21 48.34 49.86 51.02 51.54 51.40 50.44 50.22 50.62 49.90 49.31 48.55 46.45 46.47 47.00 47.80 47.93 46.46
55.41 55.31 54.78 55.15 55.26 55.30 52.85 52.68 53.11 53.34 52.99 52.29 51.88 51.86 51.19 48.79 48.69 49.47 48.67 49.29 49.23 50.43 48.23 47.75 48.56 50.77 50.11 47.73 47.91 48.23 49.61 50.48 49.97 49.79 50.08 46.81 46.35 46.96 47.67 46.63 47.71 48.54 48.45 47.42
56.97 56.63 56.12 55.24 54.64 54.04 53.29 52.98 52.72 52.35 51.42 51.68 51.87 52.29 51.02 50.62 49.70 51.10 50.45 49.99 49.59 50.20 49.30 50.23 50.50 50.26 48.49 47.64 48.02 48.51 48.98 49.29 50.09 49.84 49.47 48.97 47.93 47.61 47.14 47.26 47.15 46.23 46.13 46.38
58.35 57.25 56.62 56.07 55.52 54.85 53.62 52.32 50.79 51.18 50.98 50.07 51.00 50.97 51.02 50.98 50.16 51.20 51.35 50.49 49.58 49.47 50.38 49.59 48.85 48.30 47.95 47.65 47.76 48.31 49.07 49.42 48.72 48.81 47.97 48.58 48.73 48.95 48.37 47.58 47.11 46.52 46.70 47.76
60.21 54.64 56.63 54.98 55.09 54.04 52.90 51.49 50.85 49.77 50.32 49.95 50.05 50.44 50.99 50.87 50.06 49.57 50.20 49.90 48.87 48.87 50.20 49.97 49.40 48.12 48.25 48.21 48.36 48.27 48.39 48.39 46.00 48.54 47.86 47.31 46.93 47.09 47.92 49.34 49.58 47.87 47.51 48.78

GFSNGP_sfc_wetblb_114.txt.gz
Wetbulb
47.11 46.86 48.82 48.12 47.01 48.24 42.83 43.83 39.59 44.96 50.33 53.33 58.19 57.28 57.52 60.37 60.60 61.88 62.99 62.51 64.60 64.87 65.85 66.65 66.71 66.93 67.32 68.40 68.50 68.66 68.50 69.27 69.90 70.50 70.97 71.13 70.65 70.39 71.11 70.95 71.37 71.29 70.99 68.58
40.80 47.53 47.40 47.48 49.71 52.38 52.34 51.77 52.67 53.31 52.73 57.37 59.03 59.57 58.42 60.89 60.60 59.38 60.81 61.25 65.69 65.42 66.09 65.13 65.38 65.26 66.04 66.20 67.91 69.44 68.39 69.03 69.57 69.72 70.03 71.10 71.31 71.77 71.50 70.72 69.47 69.10 69.18 66.44
36.82 45.67 44.36 41.95 49.10 51.75 51.89 54.63 53.52 49.94 53.59 56.05 55.35 58.57 60.01 60.64 60.89 59.79 60.35 60.95 61.25 65.13 65.62 65.18 65.64 65.93 65.84 65.37 66.08 68.23 68.89 69.16 69.25 69.34 69.35 69.28 70.37 70.86 70.71 69.88 70.18 68.26 65.17 61.90
37.08 38.95 34.29 43.43 51.89 54.46 52.63 53.89 54.78 55.60 53.59 54.49 57.71 59.01 59.19 59.89 58.87 59.96 60.67 60.48 60.36 61.24 62.64 63.45 65.73 65.54 66.93 66.01 66.28 68.71 68.58 68.69 68.89 69.07 68.46 68.19 68.41 69.31 70.01 69.68 69.50 68.33 64.79 61.86
35.47 35.37 41.47 47.24 48.43 48.31 49.46 50.50 55.80 55.33 56.67 56.00 57.47 58.11 55.64 57.82 57.90 56.95 58.03 59.27 60.00 60.90 61.21 62.59 63.13 66.29 68.26 67.97 68.49 68.10 68.01 68.53 68.60 68.33 67.38 67.38 66.91 67.00 67.61 67.44 66.92 65.79 63.97 60.17
39.14 36.47 34.46 43.61 49.90 53.73 51.57 44.42 55.42 56.42 55.13 54.75 55.63 50.77 53.97 55.65 55.57 55.91 55.97 56.36 57.21 58.89 59.77 60.94 60.10 65.07 65.37 66.50 67.33 67.83 67.74 67.88 68.44 67.67 67.47 66.70 66.39 66.65 65.82 64.62 62.12 60.70 58.49 54.63
40.05 38.92 43.60 50.02 50.73 52.79 40.99 43.58 54.76 56.57 54.62 52.39 52.82 54.72 55.00 54.80 54.40 54.60 55.03 55.17 56.19 56.17 56.08 58.61 59.83 61.70 60.98 61.55 61.97 64.39 67.81 68.42 68.08 67.58 66.93 66.00 64.69 64.89 62.34 60.37 58.02 55.70 52.73 52.84
40.59 38.58 36.05 51.21 51.40 46.95 48.79 51.09 55.77 56.17 55.31 54.71 54.03 53.29 52.89 52.97 53.19 53.48 53.06 53.94 55.03 54.89 55.28 56.51 58.74 59.31 58.63 58.47 60.34 62.43 63.74 63.78 64.71 66.13 66.52 65.68 64.65 62.03 61.33 59.98 58.24 56.26 53.32 51.38
41.50 41.72 47.22 50.12 49.87 52.50 52.77 54.85 54.03 55.13 54.00 52.77 51.50 51.52 51.40 51.91 51.94 52.14 52.61 52.93 53.42 53.42 53.68 54.93 56.34 58.01 57.37 58.39 60.37 60.37 58.79 57.21 56.12 55.29 55.99 58.36 62.54 61.79 60.62 59.71 58.85 57.55 56.02 53.29
43.64 46.23 48.05 51.27 52.63 56.74 55.64 55.15 55.15 54.30 52.77 50.98 51.49 51.73 51.40 51.39 51.53 51.25 51.98 51.98 52.88 52.28 51.52 52.15 53.64 54.96 56.09 57.06 58.60 59.18 58.05 55.39 54.23 52.22 50.70 51.55 52.16 51.32 49.85 51.00 55.62 59.38 58.66 55.80
43.20 46.63 48.87 51.54 54.33 56.82 56.58 55.72 54.26 53.78 52.82 50.80 51.27 51.07 51.20 51.48 51.91 51.82 51.41 51.47 51.54 51.27 50.91 51.67 52.54 53.47 55.16 56.22 56.43 56.52 57.44 56.01 52.86 50.51 49.26 48.00 44.94 47.15 48.39 43.40 42.18 47.16 49.95 55.14
41.51 46.76 46.55 48.74 53.71 57.64 55.66 54.32 53.60 52.63 51.72 52.23 50.06 49.20 51.33 51.82 51.97 51.76 51.16 51.12 50.16 49.34 49.98 50.52 49.70 50.93 51.93 54.09 55.29 54.56 54.37 56.23 54.99 51.61 49.26 46.12 44.19 43.66 42.73 42.89 42.14 41.03 41.93 44.20
48.99 50.13 50.87 53.00 57.41 58.27 55.73 55.35 54.77 53.23 52.65 51.06 50.80 50.16 49.46 48.03 48.73 52.60 52.30 49.19 50.07 50.16 51.40 50.81 50.42 51.12 51.65 52.90 50.75 49.01 49.09 50.77 50.46 54.52 52.98 49.21 46.86 43.69 42.51 43.49 43.12 42.50 41.05 41.09
52.40 52.29 49.44 51.40 53.53 57.17 57.00 56.62 55.22 54.55 53.62 52.87 52.11 51.44 50.57 49.28 49.23 48.99 49.19 49.73 49.82 49.41 49.33 51.37 51.04 50.20 51.66 51.68 51.42 50.61 48.75 48.79 46.86 50.22 53.19 52.26 50.68 49.86 45.97 42.63 42.37 41.25 40.72 40.60
52.90 53.65 51.34 51.64 56.60 56.91 57.23 56.00 54.72 53.27 52.90 52.31 52.75 51.43 51.07 50.13 49.09 49.80 50.37 50.85 51.15 49.83 49.40 51.82 51.89 50.81 51.29 51.25 49.98 48.12 46.36 45.13 44.59 44.58 44.65 46.39 46.52 48.25 48.20 46.66 43.93 40.92 36.74 40.49
51.97 51.49 52.15 51.94 52.64 55.71 56.39 55.88 54.20 53.79 53.71 54.02 53.10 52.21 52.06 51.32 50.06 50.42 50.60 51.13 49.94 49.35 50.58 49.82 49.46 50.35 50.58 50.07 48.23 48.51 48.08 50.49 47.52 44.61 44.40 42.48 42.81 43.18 43.12 46.59 45.08 43.06 39.57 40.90
47.88 46.28 49.07 50.34 52.45 52.39 51.69 55.66 55.32 54.57 54.10 53.71 53.51 53.83 52.80 52.61 51.23 51.09 51.78 52.14 52.57 51.64 51.75 51.85 52.03 52.23 51.97 50.42 49.15 48.25 47.45 45.97 49.45 42.67 43.36 43.14 42.61 43.49 41.80 41.61 43.14 42.81 42.12 42.82
50.93 50.31 49.57 49.36 48.79 48.39 49.07 51.99 54.58 54.98 54.45 55.34 54.65 55.01 53.02 52.84 52.52 52.61 53.52 53.89 53.65 52.99 53.45 53.94 53.96 53.74 53.28 51.59 49.39 48.38 47.18 45.62 44.17 43.07 42.31 42.93 42.85 42.81 43.28 42.35 41.79 42.23 41.39 41.11
53.98 52.50 50.81 51.26 49.38 49.04 48.24 49.79 51.04 51.31 51.72 52.09 54.02 54.62 54.30 54.01 52.85 53.07 53.12 53.18 53.21 52.12 54.20 54.55 57.10 58.01 53.36 52.79 51.84 48.57 47.98 46.01 45.06 43.87 43.07 44.08 43.35 42.73 42.78 43.05 42.23 41.79 40.38 40.06
53.00 52.65 52.25 51.45 51.61 49.98 48.80 49.76 50.88 49.94 49.92 49.52 48.81 48.46 48.18 51.50 52.76 51.86 50.42 49.97 50.52 52.48 53.06 53.59 55.27 54.83 53.77 53.29 57.46 49.71 50.15 47.78 46.20 44.39 43.28 42.22 42.02 42.68 43.18 42.81 43.22 43.22 42.58 41.59
51.26 50.76 50.27 49.99 49.99 51.00 49.94 49.32 50.88 49.37 49.48 49.68 48.80 47.94 48.66 49.61 49.71 48.56 48.76 48.58 47.95 49.86 51.75 54.07 52.96 52.32 52.57 53.02 55.01 50.90 48.56 47.74 47.55 45.94 44.60 43.91 44.50 42.25 42.48 43.36 43.57 43.39 43.28 43.16
49.13 48.77 49.17 49.14 48.73 49.26 49.99 49.73 50.04 51.36 51.27 50.20 49.57 48.08 47.11 46.47 46.60 47.22 47.69 47.53 46.45 50.56 48.91 47.77 48.14 52.56 52.45 54.25 53.38 52.78 51.29 48.96 48.16 47.92 48.52 47.35 45.32 45.83 45.53 44.69 42.96 44.56 45.54 43.24
48.73 48.38 48.39 48.51 48.52 48.46 49.16 49.09 49.19 51.15 50.49 48.88 47.44 46.65 46.12 45.90 46.85 45.88 45.24 46.75 46.07 48.87 46.13 45.86 49.90 51.16 51.12 45.80 46.53 47.35 48.41 49.03 48.50 48.00 48.14 49.66 49.06 47.50 46.00 46.53 45.46 46.46 44.00 43.80
48.95 48.50 48.48 49.10 48.89 48.58 47.79 49.25 49.04 50.99 50.20 48.79 48.47 48.14 47.54 46.14 45.84 46.11 46.54 47.58 48.27 47.21 45.63 46.44 48.84 50.42 49.34 45.64 45.89 46.00 45.75 46.37 46.87 48.44 49.40 45.67 47.67 46.23 45.56 46.63 44.92 46.54 46.93 45.86
50.21 50.31 49.26 48.48 48.71 49.70 50.00 48.54 48.38 48.10 48.72 48.49 49.85 49.96 49.49 47.08 47.01 45.96 45.64 47.41 48.77 46.73 45.58 49.83 50.26 49.96 46.51 45.47 45.01 44.68 45.61 45.95 46.62 46.71 46.38 46.06 46.10 45.01 44.65 45.13 45.37 45.97 45.21 45.30
51.58 51.61 52.48 51.92 52.04 51.24 51.11 49.96 49.45 49.17 49.90 49.58 48.88 49.36 47.18 47.51 47.47 47.52 46.89 47.21 47.30 48.30 47.16 45.86 46.29 46.56 45.81 45.16 45.44 45.86 46.03 46.38 46.26 46.29 45.63 45.95 45.74 46.17 45.65 45.61 45.32 45.39 45.72 45.37
54.15 50.58 51.46 50.13 49.93 53.21 52.34 50.42 49.58 49.16 50.06 49.93 49.69 49.35 47.51 47.27 48.22 47.63 47.10 47.05 46.53 47.17 47.23 47.88 46.71 47.29 46.26 45.53 46.03 45.88 45.91 45.76 43.64 45.90 45.26 44.48 43.45 42.80 43.62 44.35 45.18 46.45 45.98 45.76

GFSNGP_sfc_wetblb_117.txt.gz
Wetbulb
44.99 45.20 44.95 46.01 48.52 50.17 45.75 43.79 39.21 45.88 50.91 54.17 57.06 56.34 58.40 58.70 60.55 60.99 61.62 63.19 64.25 62.87 65.44 66.56 67.57 68.79 70.23 70.24 70.21 70.60 70.23 70.25 70.27 70.62 70.49 70.27 69.61 69.50 69.68 68.51 67.81 68.40 69.71 68.99
42.23 47.25 48.02 48.49 50.70 50.88 51.38 51.99 51.97 52.48 51.40 54.93 59.25 59.69 59.33 59.56 59.06 58.31 60.30 62.15 63.91 64.76 65.61 66.26 67.08 67.77 68.69 68.56 69.05 69.40 69.60 70.20 70.62 69.46 70.16 70.12 70.25 70.18 70.66 69.83 69.92 69.15 69.04 66.79
35.89 42.58 46.14 41.65 47.16 50.04 50.61 53.68 51.78 45.74 50.45 55.92 56.67 56.26 57.15 57.80 59.31 59.20 59.88 60.71 62.08 63.50 64.83 64.77 64.95 65.70 65.97 66.38 67.71 68.00 68.32 68.90 69.49 69.56 68.63 69.35 69.89 70.48 69.87 69.54 69.38 67.53 65.18 63.05
35.70 39.13 35.15 44.71 50.83 54.19 51.92 52.77 53.89 52.07 54.21 56.18 56.10 55.84 56.38 57.22 56.30 57.19 56.24 59.03 60.19 61.34 63.56 64.22 65.04 65.83 66.47 66.13 66.25 67.37 67.62 68.50 68.63 68.70 68.27 68.79 68.92 68.95 69.11 69.38 69.20 67.39 64.52 62.32
34.89 33.32 40.14 46.51 48.08 48.03 46.53 50.51 54.09 54.12 53.79 55.35 57.06 56.18 54.81 55.89 56.52 55.90 56.20 56.94 58.29 59.55 60.32 61.79 63.66 66.03 66.60 66.57 66.24 67.01 67.30 67.73 68.18 68.57 67.84 67.62 67.48 67.42 67.66 68.47 68.97 66.76 64.25 60.74
36.22 34.64 33.64 42.65 49.72 51.92 51.16 46.13 54.02 55.02 53.79 53.63 53.99 49.70 52.79 55.00 55.33 55.23 55.76 56.12 56.08 57.02 58.25 59.17 60.52 63.96 67.19 66.64 67.68 66.62 67.19 67.37 68.05 67.80 67.12 66.78 66.80 67.12 66.30 66.10 63.56 61.85 59.09 58.06
36.76 34.88 40.50 49.05 50.43 53.06 40.99 41.94 53.50 55.13 53.40 50.27 50.82 52.92 54.42 54.92 54.18 54.60 54.61 54.93 56.04 56.28 56.18 57.11 59.76 62.45 61.67 62.84 62.66 63.86 68.07 68.07 67.34 67.30 67.10 66.73 66.46 65.94 63.00 60.22 57.86 56.05 54.00 52.33
36.69 34.01 33.75 50.07 50.11 45.25 47.95 51.32 55.10 54.16 54.05 53.63 53.89 53.57 53.23 53.48 53.40 53.21 53.15 53.98 54.74 55.00 55.34 56.48 58.85 59.83 59.60 59.09 60.81 62.75 63.50 63.16 65.92 66.10 66.60 65.89 64.27 62.25 60.44 57.91 54.88 52.40 50.22 49.97
39.54 39.11 46.15 49.02 50.00 51.00 52.21 54.02 54.65 53.47 53.08 54.13 52.71 51.85 51.85 51.95 51.99 52.16 52.34 52.76 53.56 53.54 54.03 54.93 56.70 58.48 57.61 57.99 59.33 57.61 58.63 58.13 56.56 55.96 57.45 59.96 62.43 61.45 60.58 60.23 57.47 54.44 52.61 50.49
41.92 44.19 46.80 49.76 53.31 54.90 56.21 55.19 54.41 53.38 51.69 51.90 50.79 51.71 51.51 51.52 51.47 51.19 51.54 51.76 52.31 52.41 51.35 52.15 53.69 55.16 56.52 58.30 58.90 56.72 55.54 55.68 56.00 56.66 55.32 55.06 54.03 54.01 55.50 55.62 58.88 58.25 55.80 53.04
42.00 45.01 47.60 49.60 52.04 55.23 54.62 54.11 53.05 52.82 51.63 50.82 50.84 50.93 51.31 51.17 51.04 51.18 51.01 51.18 51.06 50.84 49.95 50.70 51.71 52.45 54.61 55.80 56.89 56.50 54.55 53.17 52.48 52.27 50.86 48.33 46.56 48.01 49.34 44.79 46.86 52.16 52.04 54.18
41.41 46.71 46.45 47.83 53.12 55.67 53.71 52.81 52.14 51.24 50.60 50.40 48.94 47.97 48.56 47.83 51.00 50.75 50.42 50.58 49.31 48.06 48.56 49.39 49.03 49.30 50.21 52.24 54.16 55.53 54.89 53.71 52.32 51.51 49.27 48.18 48.00 46.34 43.03 43.11 42.21 41.21 41.71 45.89
46.03 48.63 48.93 50.96 55.88 56.47 53.99 53.32 52.95 51.71 50.94 49.43 49.31 49.02 48.41 47.38 48.58 51.69 50.14 50.04 49.02 47.48 48.03 49.90 49.50 49.90 50.10 50.61 48.86 47.90 48.21 46.93 50.92 50.98 49.48 47.38 45.53 44.88 43.46 43.68 43.12 41.36 40.68 40.81
50.53 50.97 48.79 53.88 53.58 56.49 55.28 54.81 54.11 53.06 51.88 50.95 50.10 49.41 48.48 47.79 48.18 47.39 46.66 46.89 47.74 47.63 48.23 48.46 47.17 47.57 48.08 50.49 49.33 47.06 46.73 47.86 48.49 50.49 51.56 48.62 46.86 46.47 42.24 42.38 42.33 41.97 41.03 40.48
50.43 50.76 50.38 52.78 55.24 55.30 55.27 54.05 52.62 51.59 51.59 50.70 50.81 49.65 49.09 47.91 47.45 48.07 48.84 49.28 49.08 47.93 48.08 48.73 48.86 49.13 50.70 50.45 48.71 45.28 45.28 45.72 46.10 45.61 45.57 46.41 46.77 47.46 45.06 43.44 43.31 42.96 39.97 40.68
51.63 50.73 50.82 53.67 54.35 54.78 54.24 53.50 51.75 51.58 51.63 51.15 50.71 50.10 49.91 49.31 48.40 48.39 49.04 49.08 48.13 47.93 48.46 47.91 47.96 48.64 48.81 48.52 46.32 46.62 45.51 49.38 46.79 43.78 42.17 42.98 41.99 41.73 41.78 43.79 42.51 40.01 39.10 39.73
48.02 46.18 47.20 51.23 52.90 54.03 53.91 54.23 53.63 52.73 52.60 52.06 51.76 51.58 50.86 50.13 49.39 48.73 48.86 49.10 49.28 49.38 49.30 49.26 50.10 50.58 50.40 49.07 47.31 46.57 45.74 44.43 47.29 41.09 41.45 41.52 41.31 41.50 40.69 40.43 41.49 40.96 40.25 40.44
50.49 50.10 50.29 52.13 51.87 52.85 52.40 54.37 54.28 53.56 52.84 53.65 53.39 52.44 51.21 50.34 50.08 50.00 50.00 50.13 49.94 50.27 51.39 52.13 51.96 52.09 51.80 50.96 48.87 47.55 46.47 44.78 43.06 41.93 40.88 40.65 40.73 40.73 40.53 40.72 41.43 41.74 41.35 40.91
51.07 49.95 50.09 50.95 49.55 49.39 49.95 50.92 53.27 53.83 53.78 53.45 52.87 52.43 52.46 52.32 51.58 51.72 51.37 51.04 50.27 49.94 53.21 53.08 55.68 56.38 52.78 53.27 52.21 47.93 46.84 45.76 44.07 42.95 42.08 43.25 40.90 40.82 39.98 40.42 40.47 41.07 41.35 41.08
52.01 51.61 50.38 49.52 49.14 48.94 49.41 50.66 51.61 51.74 52.59 52.73 52.68 52.04 51.49 51.84 51.99 51.38 50.46 51.00 52.32 52.64 53.05 53.19 52.81 53.39 53.07 52.82 57.21 49.01 48.12 47.24 45.71 43.71 42.55 41.36 40.65 40.53 40.57 41.21 41.36 41.57 41.26 40.31
50.99 50.49 49.71 49.42 48.59 48.68 49.76 49.83 48.97 48.44 48.21 48.45 49.37 48.81 49.30 49.63 48.95 48.59 47.20 47.07 47.20 48.85 50.68 53.85 51.56 50.95 51.30 52.21 54.25 51.43 49.60 48.01 46.75 45.65 44.58 43.58 42.40 41.52 40.77 40.95 41.74 41.91 41.77 41.77
48.79 48.88 48.64 48.69 48.42 47.98 47.39 48.31 48.56 48.18 47.62 47.44 46.81 47.22 47.76 47.28 45.83 46.54 46.94 47.61 46.71 50.61 47.83 47.14 47.60 51.86 51.16 55.17 51.02 51.48 49.32 49.48 48.72 48.75 47.43 45.87 45.17 45.90 44.83 44.22 44.11 44.39 42.08 41.67
47.47 47.16 47.35 46.83 47.48 48.27 47.62 47.39 48.57 49.21 48.61 47.99 47.17 47.16 47.41 45.60 46.15 45.27 44.99 45.53 47.47 47.66 44.52 44.62 49.54 51.14 50.35 44.55 45.11 45.47 46.23 47.30 46.84 46.46 46.28 46.35 47.48 47.72 44.54 43.79 45.11 45.03 42.63 42.22
46.50 46.10 46.33 47.80 46.51 45.73 46.02 46.27 46.99 48.99 50.11 49.65 48.72 48.37 46.04 45.47 45.35 46.32 45.90 47.35 47.89 46.66 44.91 46.87 48.79 50.33 47.86 44.37 43.99 43.70 43.87 43.95 44.67 44.92 46.30 46.03 48.43 46.43 44.53 44.51 44.78 44.67 44.71 45.44
47.16 47.09 46.05 44.99 45.42 47.08 47.92 47.79 47.14 47.52 47.59 47.31 46.29 46.61 48.81 48.47 47.77 46.47 45.76 45.88 47.89 45.67 44.48 49.82 50.58 49.86 45.21 44.19 43.45 43.44 43.76 44.16 44.63 44.66 44.70 44.57 44.57 44.54 46.48 46.70 46.38 44.66 44.57 44.68
47.55 48.43 49.25 48.53 49.45 49.71 48.88 47.18 48.75 48.93 48.83 47.48 47.77 49.52 49.16 48.45 47.51 46.70 45.29 46.55 45.93 45.65 44.18 44.88 46.11 46.32 44.95 44.48 44.13 43.83 44.47 44.90 44.45 44.21 43.76 44.30 43.91 43.95 42.45 41.75 41.85 42.16 42.89 44.09
51.61 48.65 48.91 48.77 48.68 48.01 48.68 49.01 49.89 49.02 49.20 49.60 49.08 48.81 49.47 50.05 49.14 47.46 46.48 46.24 46.66 45.60 45.87 45.92 45.07 45.92 44.59 44.69 44.60 44.53 43.71 44.09 42.56 44.39 43.81 43.09 42.17 41.46 42.11 42.15 42.02 42.00 42.87 45.62

GFSNGP_sfc_wetblb_120.txt.gz
Wetbulb
42.27 45.25 44.59 43.91 47.65 49.67 46.07 43.93 38.02 45.65 50.87 53.32 55.63 57.29 58.54 58.86 59.10 61.29 62.21 63.44 63.20 63.51 64.54 66.09 66.87 67.12 68.04 68.94 70.38 70.18 69.87 70.14 70.10 70.70 71.20 71.23 70.93 70.48 70.56 69.87 69.78 69.61 69.09 71.09
41.32 45.95 48.80 48.03 49.29 49.89 51.24 52.14 51.42 51.40 49.98 55.70 57.99 58.45 57.62 59.62 58.95 58.84 60.68 62.43 64.77 65.03 66.05 66.32 67.06 67.73 69.09 69.75 69.69 70.66 69.79 70.01 70.48 70.42 70.79 70.93 70.79 70.77 70.91 70.89 69.90 69.61 70.65 70.50
33.83 41.68 45.88 41.77 46.29 49.50 50.29 51.71 50.29 45.96 51.47 57.13 55.43 55.99 56.47 56.59 57.04 57.57 58.31 60.07 62.57 64.45 65.04 65.56 65.58 66.24 66.14 66.39 68.54 68.72 68.25 68.92 69.67 70.50 70.18 69.84 70.49 70.43 70.36 70.41 69.58 70.18 68.83 66.51
36.98 36.86 32.53 41.59 51.20 52.86 51.35 52.41 52.23 52.90 54.74 56.19 54.92 55.61 55.85 56.69 55.97 56.15 57.25 57.91 58.84 59.74 61.32 64.36 65.94 65.76 66.40 66.38 66.76 67.91 67.91 68.27 68.83 68.99 69.01 69.10 69.74 69.24 69.26 70.19 68.02 68.11 66.59 65.10
33.95 32.90 38.68 45.76 48.94 48.58 48.92 49.86 54.21 53.08 54.70 55.37 55.65 55.24 54.58 56.07 56.43 55.71 56.17 56.63 57.07 58.15 59.48 60.70 61.81 64.92 66.26 66.33 66.31 66.69 66.89 67.82 68.27 68.72 68.33 68.27 68.13 67.95 68.83 68.92 68.72 67.59 66.10 63.81
35.88 32.48 34.11 42.34 49.39 52.36 52.66 44.51 55.02 55.89 54.47 54.57 56.76 48.67 51.83 55.57 55.53 55.28 55.65 55.95 56.21 57.25 58.55 58.84 59.94 62.41 66.28 66.10 66.28 66.30 66.91 67.57 68.20 68.61 68.09 67.95 67.21 67.32 66.93 67.45 66.57 64.78 62.20 61.97
35.59 34.00 39.12 46.84 50.33 52.20 42.94 43.65 54.84 55.39 54.60 53.14 51.16 52.82 53.61 54.96 54.51 54.61 54.88 55.06 56.53 56.95 56.51 57.13 59.80 62.48 63.43 63.90 63.09 64.61 66.47 67.68 67.79 67.72 67.95 67.93 67.05 66.18 64.55 63.13 60.77 59.74 57.99 57.23
35.39 33.34 33.73 49.67 50.04 44.93 46.65 51.78 56.18 55.00 53.26 52.76 53.54 53.68 53.39 53.42 53.18 53.10 53.10 53.78 54.33 55.28 55.49 56.79 58.43 59.68 59.16 58.76 59.60 62.44 62.57 63.00 65.05 66.66 67.00 66.28 64.45 62.22 60.55 60.37 57.31 56.61 56.39 55.14
38.02 37.85 44.11 47.76 48.04 51.23 52.27 53.74 55.12 53.05 53.26 54.07 52.65 51.98 52.36 52.11 52.15 51.73 52.32 52.63 53.45 53.00 53.80 54.47 56.35 57.81 56.95 57.98 58.42 58.06 58.36 58.06 57.15 57.15 57.85 60.79 62.66 61.05 58.94 57.71 55.87 53.89 53.74 50.84
41.69 42.76 46.42 49.14 52.08 53.39 55.79 55.47 53.94 53.38 54.02 53.65 51.63 52.21 52.06 51.73 51.51 51.23 52.03 51.76 52.54 52.21 51.87 51.71 53.13 55.05 56.67 57.73 57.03 56.47 55.69 54.80 54.82 55.71 54.84 54.64 54.03 54.60 55.72 58.46 58.74 57.59 55.79 54.69
41.58 43.97 46.86 49.04 50.61 54.70 54.40 54.11 52.93 52.47 51.89 51.42 51.00 51.50 51.95 51.27 50.57 49.26 49.88 50.99 51.35 50.72 50.19 50.08 51.43 51.92 53.79 56.43 56.91 55.40 54.85 53.97 53.34 53.96 51.82 50.16 48.01 49.20 49.87 45.58 48.46 54.18 54.88 55.41
40.62 45.07 45.44 46.87 52.52 55.34 53.65 53.10 52.33 51.28 50.49 50.85 49.98 49.12 49.38 48.72 49.60 50.29 48.85 50.32 49.69 49.54 50.28 50.51 50.34 50.57 50.58 52.62 55.91 55.03 52.89 51.92 51.84 51.16 49.95 50.47 50.46 47.52 46.46 46.01 46.65 43.66 43.83 47.91
45.80 47.64 48.76 51.23 55.26 55.63 53.60 53.17 52.67 51.62 50.71 49.44 49.32 49.29 48.17 48.25 48.99 50.88 50.44 49.87 48.49 48.18 49.40 49.88 49.72 49.38 50.50 50.76 49.93 49.43 49.55 52.68 51.26 50.42 48.51 46.92 46.79 46.94 45.62 42.73 42.37 40.61 40.66 41.25
49.24 50.73 50.15 53.83 53.34 54.90 54.58 54.23 53.59 52.29 51.50 50.66 49.69 49.53 48.73 48.42 49.15 47.87 47.60 48.60 49.48 49.24 49.43 49.09 48.83 49.28 50.11 49.87 49.63 48.59 47.96 47.86 51.01 52.32 50.80 49.33 48.38 46.08 45.30 45.90 43.88 42.98 40.90 40.61
50.02 51.03 50.21 53.92 55.36 54.43 54.37 53.47 51.86 50.84 50.60 50.24 50.19 49.45 48.96 48.44 47.73 47.97 48.93 49.94 50.25 50.21 50.39 50.68 50.12 50.19 50.92 50.23 48.75 46.73 46.79 47.08 47.21 47.45 47.85 48.76 48.85 49.65 48.07 47.37 46.90 44.72 43.66 41.66
49.81 50.46 53.22 54.41 54.43 54.03 53.57 52.72 51.08 50.71 50.95 50.73 50.17 49.56 49.34 49.31 49.00 49.36 50.05 50.19 49.82 49.87 50.65 50.78 50.91 51.30 51.53 50.04 49.28 49.15 48.53 49.51 47.37 45.52 44.90 45.76 46.16 45.71 46.59 47.44 46.53 45.05 43.85 43.02
48.29 47.40 50.37 51.85 53.34 53.00 52.94 53.33 52.62 52.23 52.00 51.44 51.11 50.88 50.24 49.88 49.59 49.32 49.75 50.52 50.66 50.69 51.29 51.30 51.72 52.67 52.47 51.13 49.75 49.07 48.46 47.29 46.99 44.69 45.52 44.86 45.00 45.07 44.72 45.28 45.91 45.78 45.03 43.98
51.24 51.67 51.43 53.71 53.65 53.71 53.43 53.78 53.51 52.81 52.56 53.04 52.73 51.95 50.91 49.85 49.85 50.27 50.67 50.86 50.79 50.88 51.72 52.81 53.44 53.74 53.58 53.23 51.13 50.13 48.76 48.03 46.50 46.01 44.66 44.77 44.66 44.75 44.86 45.12 45.46 45.87 45.69 44.82
51.24 50.82 50.73 52.47 54.25 54.82 54.69 54.17 54.17 54.15 53.53 53.51 52.72 52.04 52.08 51.78 51.62 51.78 51.91 51.85 51.62 51.65 53.82 54.37 55.31 56.87 54.74 54.53 53.94 51.20 50.04 48.98 47.64 46.82 46.27 45.40 44.81 44.94 44.66 44.78 44.80 45.01 45.56 45.32
50.61 51.07 50.95 51.08 52.38 52.90 52.47 53.13 53.93 53.74 53.92 53.31 53.02 52.33 52.24 52.76 52.95 52.27 52.31 52.39 52.96 53.60 54.43 55.10 55.87 55.53 55.55 55.30 57.73 52.67 51.22 50.39 49.16 48.27 46.83 46.23 45.67 45.39 45.28 43.01 45.78 46.18 46.27 46.12
50.85 50.75 49.62 49.34 49.34 50.25 51.05 51.59 52.04 52.19 52.62 53.39 52.82 52.54 52.66 52.97 53.03 53.17 51.49 51.14 52.83 50.97 52.54 54.25 54.37 53.99 53.93 54.62 56.54 54.52 52.58 51.39 49.89 49.68 48.94 48.25 47.43 46.92 46.59 45.91 45.79 45.97 46.36 46.35
49.71 49.88 49.54 48.99 48.15 48.41 49.42 50.29 51.18 51.24 50.11 50.89 52.23 52.08 51.17 50.71 50.12 50.19 50.64 51.16 50.56 50.71 50.84 50.75 51.27 53.08 54.66 55.47 53.98 53.67 53.04 52.06 51.36 50.78 49.88 49.40 48.45 48.25 49.02 48.85 47.85 47.02 46.43 46.16
48.50 48.87 48.71 48.02 47.67 48.02 47.59 48.82 49.01 49.39 48.75 48.54 48.83 49.14 49.73 49.51 49.21 48.75 48.69 49.93 49.76 49.73 48.38 47.81 50.61 51.20 49.60 47.84 48.24 48.61 49.56 50.64 50.70 50.80 50.50 50.38 50.47 50.37 50.10 49.47 48.82 48.37 47.87 47.05
47.82 46.96 47.74 47.94 47.34 47.19 46.47 47.05 48.21 49.03 49.50 49.37 49.17 49.50 48.45 47.06 47.63 48.22 49.34 48.83 48.69 47.70 47.42 49.29 50.43 49.80 47.36 47.19 46.71 47.00 47.50 47.92 48.53 48.70 49.28 45.88 50.24 49.99 49.65 48.39 48.41 49.31 48.98 47.75
48.00 47.85 46.52 45.99 46.07 46.92 47.54 48.09 47.46 48.12 48.98 49.54 49.34 48.93 49.80 50.70 49.93 49.52 48.95 49.42 48.01 47.46 48.00 49.85 50.43 48.86 47.63 46.90 46.88 47.56 48.17 48.75 49.16 49.41 49.37 49.49 49.60 49.91 49.59 48.73 47.58 47.16 47.15 47.38
46.91 47.43 47.76 47.33 48.56 48.39 47.80 46.42 48.20 48.92 48.80 48.27 47.56 48.00 48.91 50.01 49.15 49.33 49.12 48.20 48.60 46.60 47.21 48.94 49.94 48.70 48.18 47.79 47.33 47.56 48.82 49.11 49.53 49.10 48.48 49.45 49.36 48.93 47.61 46.98 46.70 46.91 47.17 47.62
48.68 46.04 47.73 47.98 47.69 47.91 47.72 47.90 48.32 48.07 48.73 50.21 49.31 48.94 49.78 49.41 49.16 49.85 48.31 48.35 47.43 46.92 46.92 47.22 48.23 48.41 48.13 48.23 48.07 48.02 47.54 48.36 45.32 49.36 48.99 48.78 48.38 48.15 47.14 47.49 47.31 47.35 47.75 48.45